<?xml version="1.0" encoding="UTF-8" standalone="no" ?>
<gpx xmlns="http://www.topografix.com/GPX/1/1" xmlns:xsi="http://www.w3.org/2001/XMLSchema-instance" xsi:schemaLocation="http://www.topografix.com/GPX/1/1 http://www.topografix.com/GPX/1/1/gpx.xsd" version="1.1" creator="VisuGPX - https://www.visugpx.com">
  <metadata>
    <name>BRM 200 FEURS derniere version </name>
  </metadata>
  <wpt lat="45.81068" lon="4.60035">
    <ele>240.5</ele>
    <name><![CDATA[Contrôle St Bel]]></name>
    <desc><![CDATA[]]></desc>
  </wpt>
  <wpt lat="45.9749" lon="4.33325">
    <ele>426.4</ele>
    <name><![CDATA[contrôle Amplepuis]]></name>
    <desc><![CDATA[]]></desc>
  </wpt>
  <wpt lat="45.91408" lon="3.84728">
    <ele>652.4</ele>
    <name><![CDATA[contrôle St Just en Chevalet]]></name>
    <desc><![CDATA[]]></desc>
  </wpt>
  <trk>
    <name><![CDATA[14067894-BRM 200  ]]></name>
    <trkseg>
      <trkpt lat="45.73368" lon="4.22928">
        <ele>343</ele>
        <time>2022-03-18T07:04:04Z</time>
      </trkpt>
      <trkpt lat="45.73369" lon="4.22828">
        <ele>340</ele>
        <time>2022-03-18T07:04:16Z</time>
      </trkpt>
      <trkpt lat="45.73488" lon="4.22853">
        <ele>342</ele>
        <time>2022-03-18T07:04:38Z</time>
      </trkpt>
      <trkpt lat="45.73839" lon="4.22862">
        <ele>344</ele>
        <time>2022-03-18T07:05:40Z</time>
      </trkpt>
      <trkpt lat="45.73971" lon="4.22827">
        <ele>343</ele>
        <time>2022-03-18T07:06:04Z</time>
      </trkpt>
      <trkpt lat="45.74006" lon="4.22815">
        <ele>343</ele>
        <time>2022-03-18T07:06:11Z</time>
      </trkpt>
      <trkpt lat="45.74119" lon="4.22743">
        <ele>344</ele>
        <time>2022-03-18T07:06:33Z</time>
      </trkpt>
      <trkpt lat="45.74127" lon="4.22822">
        <ele>344</ele>
        <time>2022-03-18T07:06:42Z</time>
      </trkpt>
      <trkpt lat="45.7413" lon="4.22878">
        <ele>344</ele>
        <time>2022-03-18T07:06:49Z</time>
      </trkpt>
      <trkpt lat="45.74129" lon="4.2292">
        <ele>344</ele>
        <time>2022-03-18T07:06:55Z</time>
      </trkpt>
      <trkpt lat="45.74134" lon="4.23042">
        <ele>346</ele>
        <time>2022-03-18T07:07:10Z</time>
      </trkpt>
      <trkpt lat="45.7414" lon="4.23127">
        <ele>344</ele>
        <time>2022-03-18T07:07:20Z</time>
      </trkpt>
      <trkpt lat="45.7415" lon="4.23241">
        <ele>346</ele>
        <time>2022-03-18T07:07:35Z</time>
      </trkpt>
      <trkpt lat="45.74195" lon="4.23665">
        <ele>346</ele>
        <time>2022-03-18T07:08:28Z</time>
      </trkpt>
      <trkpt lat="45.74202" lon="4.23748">
        <ele>346</ele>
        <time>2022-03-18T07:08:38Z</time>
      </trkpt>
      <trkpt lat="45.74209" lon="4.24072">
        <ele>345</ele>
        <time>2022-03-18T07:09:19Z</time>
      </trkpt>
      <trkpt lat="45.74209" lon="4.24107">
        <ele>345</ele>
        <time>2022-03-18T07:09:23Z</time>
      </trkpt>
      <trkpt lat="45.74208" lon="4.2414">
        <ele>345</ele>
        <time>2022-03-18T07:09:27Z</time>
      </trkpt>
      <trkpt lat="45.74193" lon="4.24215">
        <ele>346</ele>
        <time>2022-03-18T07:09:37Z</time>
      </trkpt>
      <trkpt lat="45.74105" lon="4.24693">
        <ele>349</ele>
        <time>2022-03-18T07:10:38Z</time>
      </trkpt>
      <trkpt lat="45.74096" lon="4.24768">
        <ele>351</ele>
        <time>2022-03-18T07:10:48Z</time>
      </trkpt>
      <trkpt lat="45.74062" lon="4.25079">
        <ele>351</ele>
        <time>2022-03-18T07:11:27Z</time>
      </trkpt>
      <trkpt lat="45.74041" lon="4.25246">
        <ele>351</ele>
        <time>2022-03-18T07:11:48Z</time>
      </trkpt>
      <trkpt lat="45.74015" lon="4.25385">
        <ele>351</ele>
        <time>2022-03-18T07:12:06Z</time>
      </trkpt>
      <trkpt lat="45.73873" lon="4.25999">
        <ele>353</ele>
        <time>2022-03-18T07:13:26Z</time>
      </trkpt>
      <trkpt lat="45.73852" lon="4.2608">
        <ele>355</ele>
        <time>2022-03-18T07:13:37Z</time>
      </trkpt>
      <trkpt lat="45.73829" lon="4.26178">
        <ele>354</ele>
        <time>2022-03-18T07:13:50Z</time>
      </trkpt>
      <trkpt lat="45.73831" lon="4.26186">
        <ele>354</ele>
        <time>2022-03-18T07:13:51Z</time>
      </trkpt>
      <trkpt lat="45.73834" lon="4.26189">
        <ele>354</ele>
        <time>2022-03-18T07:13:51Z</time>
      </trkpt>
      <trkpt lat="45.73871" lon="4.26201">
        <ele>354</ele>
        <time>2022-03-18T07:13:58Z</time>
      </trkpt>
      <trkpt lat="45.73889" lon="4.26205">
        <ele>355</ele>
        <time>2022-03-18T07:14:01Z</time>
      </trkpt>
      <trkpt lat="45.73899" lon="4.26211">
        <ele>355</ele>
        <time>2022-03-18T07:14:03Z</time>
      </trkpt>
      <trkpt lat="45.73921" lon="4.26236">
        <ele>356</ele>
        <time>2022-03-18T07:14:08Z</time>
      </trkpt>
      <trkpt lat="45.73935" lon="4.26269">
        <ele>356</ele>
        <time>2022-03-18T07:14:13Z</time>
      </trkpt>
      <trkpt lat="45.73986" lon="4.26408">
        <ele>356</ele>
        <time>2022-03-18T07:14:32Z</time>
      </trkpt>
      <trkpt lat="45.74163" lon="4.26916">
        <ele>356</ele>
        <time>2022-03-18T07:15:43Z</time>
      </trkpt>
      <trkpt lat="45.7419" lon="4.26976">
        <ele>356</ele>
        <time>2022-03-18T07:15:52Z</time>
      </trkpt>
      <trkpt lat="45.74299" lon="4.27197">
        <ele>350</ele>
        <time>2022-03-18T07:16:25Z</time>
      </trkpt>
      <trkpt lat="45.74319" lon="4.27245">
        <ele>350</ele>
        <time>2022-03-18T07:16:32Z</time>
      </trkpt>
      <trkpt lat="45.74337" lon="4.27304">
        <ele>349</ele>
        <time>2022-03-18T07:16:40Z</time>
      </trkpt>
      <trkpt lat="45.74343" lon="4.27334">
        <ele>348</ele>
        <time>2022-03-18T07:16:44Z</time>
      </trkpt>
      <trkpt lat="45.74348" lon="4.27395">
        <ele>349</ele>
        <time>2022-03-18T07:16:52Z</time>
      </trkpt>
      <trkpt lat="45.74349" lon="4.27426">
        <ele>349</ele>
        <time>2022-03-18T07:16:56Z</time>
      </trkpt>
      <trkpt lat="45.74348" lon="4.27476">
        <ele>349</ele>
        <time>2022-03-18T07:17:02Z</time>
      </trkpt>
      <trkpt lat="45.74334" lon="4.27558">
        <ele>350</ele>
        <time>2022-03-18T07:17:12Z</time>
      </trkpt>
      <trkpt lat="45.74317" lon="4.27616">
        <ele>351</ele>
        <time>2022-03-18T07:17:20Z</time>
      </trkpt>
      <trkpt lat="45.74281" lon="4.27705">
        <ele>353</ele>
        <time>2022-03-18T07:17:33Z</time>
      </trkpt>
      <trkpt lat="45.7425" lon="4.27789">
        <ele>353</ele>
        <time>2022-03-18T07:17:45Z</time>
      </trkpt>
      <trkpt lat="45.74213" lon="4.27936">
        <ele>355</ele>
        <time>2022-03-18T07:18:04Z</time>
      </trkpt>
      <trkpt lat="45.74167" lon="4.28064">
        <ele>354</ele>
        <time>2022-03-18T07:18:22Z</time>
      </trkpt>
      <trkpt lat="45.74142" lon="4.28158">
        <ele>356</ele>
        <time>2022-03-18T07:18:35Z</time>
      </trkpt>
      <trkpt lat="45.74111" lon="4.2838">
        <ele>360</ele>
        <time>2022-03-18T07:19:03Z</time>
      </trkpt>
      <trkpt lat="45.74101" lon="4.28474">
        <ele>364</ele>
        <time>2022-03-18T07:19:14Z</time>
      </trkpt>
      <trkpt lat="45.74072" lon="4.28616">
        <ele>369</ele>
        <time>2022-03-18T07:19:33Z</time>
      </trkpt>
      <trkpt lat="45.73991" lon="4.28783">
        <ele>375</ele>
        <time>2022-03-18T07:19:58Z</time>
      </trkpt>
      <trkpt lat="45.73978" lon="4.2882">
        <ele>375</ele>
        <time>2022-03-18T07:20:03Z</time>
      </trkpt>
      <trkpt lat="45.7397" lon="4.28852">
        <ele>376</ele>
        <time>2022-03-18T07:20:07Z</time>
      </trkpt>
      <trkpt lat="45.73968" lon="4.28882">
        <ele>377</ele>
        <time>2022-03-18T07:20:11Z</time>
      </trkpt>
      <trkpt lat="45.73969" lon="4.29011">
        <ele>383</ele>
        <time>2022-03-18T07:20:27Z</time>
      </trkpt>
      <trkpt lat="45.73972" lon="4.29109">
        <ele>390</ele>
        <time>2022-03-18T07:20:39Z</time>
      </trkpt>
      <trkpt lat="45.73984" lon="4.29182">
        <ele>394</ele>
        <time>2022-03-18T07:20:49Z</time>
      </trkpt>
      <trkpt lat="45.73985" lon="4.29206">
        <ele>394</ele>
        <time>2022-03-18T07:20:52Z</time>
      </trkpt>
      <trkpt lat="45.73983" lon="4.29231">
        <ele>393</ele>
        <time>2022-03-18T07:20:55Z</time>
      </trkpt>
      <trkpt lat="45.7398" lon="4.29243">
        <ele>393</ele>
        <time>2022-03-18T07:20:56Z</time>
      </trkpt>
      <trkpt lat="45.73976" lon="4.29257">
        <ele>393</ele>
        <time>2022-03-18T07:20:58Z</time>
      </trkpt>
      <trkpt lat="45.73956" lon="4.29284">
        <ele>394</ele>
        <time>2022-03-18T07:21:03Z</time>
      </trkpt>
      <trkpt lat="45.73874" lon="4.29363">
        <ele>391</ele>
        <time>2022-03-18T07:21:21Z</time>
      </trkpt>
      <trkpt lat="45.7386" lon="4.29416">
        <ele>393</ele>
        <time>2022-03-18T07:21:28Z</time>
      </trkpt>
      <trkpt lat="45.73866" lon="4.29452">
        <ele>394</ele>
        <time>2022-03-18T07:21:32Z</time>
      </trkpt>
      <trkpt lat="45.73884" lon="4.29509">
        <ele>398</ele>
        <time>2022-03-18T07:21:40Z</time>
      </trkpt>
      <trkpt lat="45.74016" lon="4.29753">
        <ele>409</ele>
        <time>2022-03-18T07:22:19Z</time>
      </trkpt>
      <trkpt lat="45.74047" lon="4.29798">
        <ele>409</ele>
        <time>2022-03-18T07:22:26Z</time>
      </trkpt>
      <trkpt lat="45.74104" lon="4.29853">
        <ele>413</ele>
        <time>2022-03-18T07:22:39Z</time>
      </trkpt>
      <trkpt lat="45.74146" lon="4.29872">
        <ele>415</ele>
        <time>2022-03-18T07:22:46Z</time>
      </trkpt>
      <trkpt lat="45.74187" lon="4.2988">
        <ele>417</ele>
        <time>2022-03-18T07:22:54Z</time>
      </trkpt>
      <trkpt lat="45.74206" lon="4.29879">
        <ele>418</ele>
        <time>2022-03-18T07:22:57Z</time>
      </trkpt>
      <trkpt lat="45.74288" lon="4.29867">
        <ele>425</ele>
        <time>2022-03-18T07:23:12Z</time>
      </trkpt>
      <trkpt lat="45.74317" lon="4.29865">
        <ele>426</ele>
        <time>2022-03-18T07:23:17Z</time>
      </trkpt>
      <trkpt lat="45.74366" lon="4.29882">
        <ele>428</ele>
        <time>2022-03-18T07:23:26Z</time>
      </trkpt>
      <trkpt lat="45.74389" lon="4.29911">
        <ele>426</ele>
        <time>2022-03-18T07:23:31Z</time>
      </trkpt>
      <trkpt lat="45.74405" lon="4.29953">
        <ele>428</ele>
        <time>2022-03-18T07:23:37Z</time>
      </trkpt>
      <trkpt lat="45.74426" lon="4.30032">
        <ele>430</ele>
        <time>2022-03-18T07:23:48Z</time>
      </trkpt>
      <trkpt lat="45.74444" lon="4.30082">
        <ele>431</ele>
        <time>2022-03-18T07:23:55Z</time>
      </trkpt>
      <trkpt lat="45.74463" lon="4.30119">
        <ele>433</ele>
        <time>2022-03-18T07:24:01Z</time>
      </trkpt>
      <trkpt lat="45.74487" lon="4.30145">
        <ele>436</ele>
        <time>2022-03-18T07:24:06Z</time>
      </trkpt>
      <trkpt lat="45.74517" lon="4.3016">
        <ele>437</ele>
        <time>2022-03-18T07:24:12Z</time>
      </trkpt>
      <trkpt lat="45.74565" lon="4.30155">
        <ele>438</ele>
        <time>2022-03-18T07:24:20Z</time>
      </trkpt>
      <trkpt lat="45.74668" lon="4.30127">
        <ele>446</ele>
        <time>2022-03-18T07:24:39Z</time>
      </trkpt>
      <trkpt lat="45.74736" lon="4.30143">
        <ele>445</ele>
        <time>2022-03-18T07:24:51Z</time>
      </trkpt>
      <trkpt lat="45.74805" lon="4.3017">
        <ele>447</ele>
        <time>2022-03-18T07:25:04Z</time>
      </trkpt>
      <trkpt lat="45.74843" lon="4.30181">
        <ele>450</ele>
        <time>2022-03-18T07:25:11Z</time>
      </trkpt>
      <trkpt lat="45.74866" lon="4.30191">
        <ele>451</ele>
        <time>2022-03-18T07:25:15Z</time>
      </trkpt>
      <trkpt lat="45.74889" lon="4.30209">
        <ele>451</ele>
        <time>2022-03-18T07:25:20Z</time>
      </trkpt>
      <trkpt lat="45.74909" lon="4.30231">
        <ele>452</ele>
        <time>2022-03-18T07:25:24Z</time>
      </trkpt>
      <trkpt lat="45.74926" lon="4.30259">
        <ele>453</ele>
        <time>2022-03-18T07:25:29Z</time>
      </trkpt>
      <trkpt lat="45.7494" lon="4.30292">
        <ele>456</ele>
        <time>2022-03-18T07:25:33Z</time>
      </trkpt>
      <trkpt lat="45.74956" lon="4.30339">
        <ele>457</ele>
        <time>2022-03-18T07:25:40Z</time>
      </trkpt>
      <trkpt lat="45.74966" lon="4.30357">
        <ele>458</ele>
        <time>2022-03-18T07:25:43Z</time>
      </trkpt>
      <trkpt lat="45.75032" lon="4.30432">
        <ele>460</ele>
        <time>2022-03-18T07:25:58Z</time>
      </trkpt>
      <trkpt lat="45.75048" lon="4.30461">
        <ele>460</ele>
        <time>2022-03-18T07:26:02Z</time>
      </trkpt>
      <trkpt lat="45.75058" lon="4.3049">
        <ele>459</ele>
        <time>2022-03-18T07:26:06Z</time>
      </trkpt>
      <trkpt lat="45.75087" lon="4.30593">
        <ele>459</ele>
        <time>2022-03-18T07:26:20Z</time>
      </trkpt>
      <trkpt lat="45.75128" lon="4.30748">
        <ele>460</ele>
        <time>2022-03-18T07:26:41Z</time>
      </trkpt>
      <trkpt lat="45.75123" lon="4.30759">
        <ele>459</ele>
        <time>2022-03-18T07:26:42Z</time>
      </trkpt>
      <trkpt lat="45.7512" lon="4.30774">
        <ele>458</ele>
        <time>2022-03-18T07:26:44Z</time>
      </trkpt>
      <trkpt lat="45.7514" lon="4.30894">
        <ele>458</ele>
        <time>2022-03-18T07:27:00Z</time>
      </trkpt>
      <trkpt lat="45.75142" lon="4.30941">
        <ele>459</ele>
        <time>2022-03-18T07:27:06Z</time>
      </trkpt>
      <trkpt lat="45.75137" lon="4.30987">
        <ele>459</ele>
        <time>2022-03-18T07:27:11Z</time>
      </trkpt>
      <trkpt lat="45.75139" lon="4.31018">
        <ele>459</ele>
        <time>2022-03-18T07:27:15Z</time>
      </trkpt>
      <trkpt lat="45.75144" lon="4.31049">
        <ele>459</ele>
        <time>2022-03-18T07:27:19Z</time>
      </trkpt>
      <trkpt lat="45.75169" lon="4.31103">
        <ele>459</ele>
        <time>2022-03-18T07:27:27Z</time>
      </trkpt>
      <trkpt lat="45.75206" lon="4.31138">
        <ele>460</ele>
        <time>2022-03-18T07:27:35Z</time>
      </trkpt>
      <trkpt lat="45.75256" lon="4.31171">
        <ele>461</ele>
        <time>2022-03-18T07:27:45Z</time>
      </trkpt>
      <trkpt lat="45.75291" lon="4.31217">
        <ele>458</ele>
        <time>2022-03-18T07:27:53Z</time>
      </trkpt>
      <trkpt lat="45.75311" lon="4.31269">
        <ele>454</ele>
        <time>2022-03-18T07:28:01Z</time>
      </trkpt>
      <trkpt lat="45.75329" lon="4.31323">
        <ele>454</ele>
        <time>2022-03-18T07:28:08Z</time>
      </trkpt>
      <trkpt lat="45.75371" lon="4.31423">
        <ele>455</ele>
        <time>2022-03-18T07:28:23Z</time>
      </trkpt>
      <trkpt lat="45.75394" lon="4.31574">
        <ele>459</ele>
        <time>2022-03-18T07:28:42Z</time>
      </trkpt>
      <trkpt lat="45.75435" lon="4.3165">
        <ele>463</ele>
        <time>2022-03-18T07:28:54Z</time>
      </trkpt>
      <trkpt lat="45.75442" lon="4.31698">
        <ele>467</ele>
        <time>2022-03-18T07:29:00Z</time>
      </trkpt>
      <trkpt lat="45.75416" lon="4.31819">
        <ele>468</ele>
        <time>2022-03-18T07:29:16Z</time>
      </trkpt>
      <trkpt lat="45.75406" lon="4.31889">
        <ele>470</ele>
        <time>2022-03-18T07:29:24Z</time>
      </trkpt>
      <trkpt lat="45.75411" lon="4.31971">
        <ele>472</ele>
        <time>2022-03-18T07:29:35Z</time>
      </trkpt>
      <trkpt lat="45.75444" lon="4.32126">
        <ele>472</ele>
        <time>2022-03-18T07:29:55Z</time>
      </trkpt>
      <trkpt lat="45.75443" lon="4.32247">
        <ele>471</ele>
        <time>2022-03-18T07:30:10Z</time>
      </trkpt>
      <trkpt lat="45.75432" lon="4.32329">
        <ele>472</ele>
        <time>2022-03-18T07:30:20Z</time>
      </trkpt>
      <trkpt lat="45.75417" lon="4.32377">
        <ele>470</ele>
        <time>2022-03-18T07:30:27Z</time>
      </trkpt>
      <trkpt lat="45.75406" lon="4.32544">
        <ele>466</ele>
        <time>2022-03-18T07:30:47Z</time>
      </trkpt>
      <trkpt lat="45.75384" lon="4.32676">
        <ele>469</ele>
        <time>2022-03-18T07:31:04Z</time>
      </trkpt>
      <trkpt lat="45.75362" lon="4.3287">
        <ele>466</ele>
        <time>2022-03-18T07:31:29Z</time>
      </trkpt>
      <trkpt lat="45.75362" lon="4.32887">
        <ele>466</ele>
        <time>2022-03-18T07:31:31Z</time>
      </trkpt>
      <trkpt lat="45.75363" lon="4.32902">
        <ele>466</ele>
        <time>2022-03-18T07:31:33Z</time>
      </trkpt>
      <trkpt lat="45.75414" lon="4.33082">
        <ele>467</ele>
        <time>2022-03-18T07:31:57Z</time>
      </trkpt>
      <trkpt lat="45.75438" lon="4.33262">
        <ele>467</ele>
        <time>2022-03-18T07:32:20Z</time>
      </trkpt>
      <trkpt lat="45.75454" lon="4.33317">
        <ele>469</ele>
        <time>2022-03-18T07:32:27Z</time>
      </trkpt>
      <trkpt lat="45.755" lon="4.33392">
        <ele>471</ele>
        <time>2022-03-18T07:32:39Z</time>
      </trkpt>
      <trkpt lat="45.75552" lon="4.33469">
        <ele>473</ele>
        <time>2022-03-18T07:32:53Z</time>
      </trkpt>
      <trkpt lat="45.75588" lon="4.33585">
        <ele>472</ele>
        <time>2022-03-18T07:33:08Z</time>
      </trkpt>
      <trkpt lat="45.756" lon="4.33643">
        <ele>470</ele>
        <time>2022-03-18T07:33:16Z</time>
      </trkpt>
      <trkpt lat="45.75625" lon="4.337">
        <ele>470</ele>
        <time>2022-03-18T07:33:24Z</time>
      </trkpt>
      <trkpt lat="45.75691" lon="4.33803">
        <ele>472</ele>
        <time>2022-03-18T07:33:42Z</time>
      </trkpt>
      <trkpt lat="45.75865" lon="4.34061">
        <ele>475</ele>
        <time>2022-03-18T07:34:26Z</time>
      </trkpt>
      <trkpt lat="45.76052" lon="4.34228">
        <ele>473</ele>
        <time>2022-03-18T07:35:05Z</time>
      </trkpt>
      <trkpt lat="45.76138" lon="4.3432">
        <ele>474</ele>
        <time>2022-03-18T07:35:25Z</time>
      </trkpt>
      <trkpt lat="45.76169" lon="4.34374">
        <ele>474</ele>
        <time>2022-03-18T07:35:33Z</time>
      </trkpt>
      <trkpt lat="45.76213" lon="4.34462">
        <ele>474</ele>
        <time>2022-03-18T07:35:47Z</time>
      </trkpt>
      <trkpt lat="45.76257" lon="4.34566">
        <ele>474</ele>
        <time>2022-03-18T07:36:02Z</time>
      </trkpt>
      <trkpt lat="45.76284" lon="4.3461">
        <ele>477</ele>
        <time>2022-03-18T07:36:09Z</time>
      </trkpt>
      <trkpt lat="45.76365" lon="4.34699">
        <ele>477</ele>
        <time>2022-03-18T07:36:27Z</time>
      </trkpt>
      <trkpt lat="45.76403" lon="4.34745">
        <ele>474</ele>
        <time>2022-03-18T07:36:36Z</time>
      </trkpt>
      <trkpt lat="45.76433" lon="4.34791">
        <ele>475</ele>
        <time>2022-03-18T07:36:44Z</time>
      </trkpt>
      <trkpt lat="45.76444" lon="4.34812">
        <ele>475</ele>
        <time>2022-03-18T07:36:47Z</time>
      </trkpt>
      <trkpt lat="45.76449" lon="4.34838">
        <ele>474</ele>
        <time>2022-03-18T07:36:50Z</time>
      </trkpt>
      <trkpt lat="45.7646" lon="4.34913">
        <ele>474</ele>
        <time>2022-03-18T07:37:00Z</time>
      </trkpt>
      <trkpt lat="45.76465" lon="4.3496">
        <ele>476</ele>
        <time>2022-03-18T07:37:06Z</time>
      </trkpt>
      <trkpt lat="45.76467" lon="4.34978">
        <ele>477</ele>
        <time>2022-03-18T07:37:08Z</time>
      </trkpt>
      <trkpt lat="45.76487" lon="4.35187">
        <ele>479</ele>
        <time>2022-03-18T07:37:34Z</time>
      </trkpt>
      <trkpt lat="45.76488" lon="4.35286">
        <ele>481</ele>
        <time>2022-03-18T07:37:47Z</time>
      </trkpt>
      <trkpt lat="45.76476" lon="4.35443">
        <ele>488</ele>
        <time>2022-03-18T07:38:06Z</time>
      </trkpt>
      <trkpt lat="45.76471" lon="4.35563">
        <ele>493</ele>
        <time>2022-03-18T07:38:21Z</time>
      </trkpt>
      <trkpt lat="45.76475" lon="4.35626">
        <ele>499</ele>
        <time>2022-03-18T07:38:29Z</time>
      </trkpt>
      <trkpt lat="45.76503" lon="4.35744">
        <ele>503</ele>
        <time>2022-03-18T07:38:44Z</time>
      </trkpt>
      <trkpt lat="45.76529" lon="4.35885">
        <ele>506</ele>
        <time>2022-03-18T07:39:03Z</time>
      </trkpt>
      <trkpt lat="45.76535" lon="4.36009">
        <ele>506</ele>
        <time>2022-03-18T07:39:18Z</time>
      </trkpt>
      <trkpt lat="45.76547" lon="4.36054">
        <ele>506</ele>
        <time>2022-03-18T07:39:24Z</time>
      </trkpt>
      <trkpt lat="45.76655" lon="4.36321">
        <ele>504</ele>
        <time>2022-03-18T07:40:02Z</time>
      </trkpt>
      <trkpt lat="45.76783" lon="4.36458">
        <ele>509</ele>
        <time>2022-03-18T07:40:31Z</time>
      </trkpt>
      <trkpt lat="45.76834" lon="4.36521">
        <ele>507</ele>
        <time>2022-03-18T07:40:43Z</time>
      </trkpt>
      <trkpt lat="45.76864" lon="4.36581">
        <ele>511</ele>
        <time>2022-03-18T07:40:52Z</time>
      </trkpt>
      <trkpt lat="45.76889" lon="4.36644">
        <ele>513</ele>
        <time>2022-03-18T07:41:01Z</time>
      </trkpt>
      <trkpt lat="45.76891" lon="4.36666">
        <ele>513</ele>
        <time>2022-03-18T07:41:04Z</time>
      </trkpt>
      <trkpt lat="45.76885" lon="4.36738">
        <ele>511</ele>
        <time>2022-03-18T07:41:13Z</time>
      </trkpt>
      <trkpt lat="45.76885" lon="4.36761">
        <ele>511</ele>
        <time>2022-03-18T07:41:15Z</time>
      </trkpt>
      <trkpt lat="45.76889" lon="4.36781">
        <ele>511</ele>
        <time>2022-03-18T07:41:18Z</time>
      </trkpt>
      <trkpt lat="45.76895" lon="4.36799">
        <ele>510</ele>
        <time>2022-03-18T07:41:20Z</time>
      </trkpt>
      <trkpt lat="45.76903" lon="4.36812">
        <ele>510</ele>
        <time>2022-03-18T07:41:23Z</time>
      </trkpt>
      <trkpt lat="45.76912" lon="4.36823">
        <ele>510</ele>
        <time>2022-03-18T07:41:25Z</time>
      </trkpt>
      <trkpt lat="45.76944" lon="4.3684">
        <ele>511</ele>
        <time>2022-03-18T07:41:31Z</time>
      </trkpt>
      <trkpt lat="45.76993" lon="4.36854">
        <ele>512</ele>
        <time>2022-03-18T07:41:40Z</time>
      </trkpt>
      <trkpt lat="45.77009" lon="4.36862">
        <ele>513</ele>
        <time>2022-03-18T07:41:43Z</time>
      </trkpt>
      <trkpt lat="45.77016" lon="4.36868">
        <ele>513</ele>
        <time>2022-03-18T07:41:44Z</time>
      </trkpt>
      <trkpt lat="45.77055" lon="4.36906">
        <ele>515</ele>
        <time>2022-03-18T07:41:53Z</time>
      </trkpt>
      <trkpt lat="45.77089" lon="4.36941">
        <ele>516</ele>
        <time>2022-03-18T07:42:00Z</time>
      </trkpt>
      <trkpt lat="45.7713" lon="4.36996">
        <ele>518</ele>
        <time>2022-03-18T07:42:10Z</time>
      </trkpt>
      <trkpt lat="45.77153" lon="4.37024">
        <ele>519</ele>
        <time>2022-03-18T07:42:15Z</time>
      </trkpt>
      <trkpt lat="45.77172" lon="4.37051">
        <ele>520</ele>
        <time>2022-03-18T07:42:20Z</time>
      </trkpt>
      <trkpt lat="45.77183" lon="4.37075">
        <ele>520</ele>
        <time>2022-03-18T07:42:24Z</time>
      </trkpt>
      <trkpt lat="45.77193" lon="4.37104">
        <ele>522</ele>
        <time>2022-03-18T07:42:28Z</time>
      </trkpt>
      <trkpt lat="45.77209" lon="4.37242">
        <ele>522</ele>
        <time>2022-03-18T07:42:45Z</time>
      </trkpt>
      <trkpt lat="45.77214" lon="4.37259">
        <ele>522</ele>
        <time>2022-03-18T07:42:47Z</time>
      </trkpt>
      <trkpt lat="45.77235" lon="4.37312">
        <ele>522</ele>
        <time>2022-03-18T07:42:55Z</time>
      </trkpt>
      <trkpt lat="45.77238" lon="4.37325">
        <ele>521</ele>
        <time>2022-03-18T07:42:57Z</time>
      </trkpt>
      <trkpt lat="45.77239" lon="4.37343">
        <ele>521</ele>
        <time>2022-03-18T07:42:59Z</time>
      </trkpt>
      <trkpt lat="45.7723" lon="4.3738">
        <ele>522</ele>
        <time>2022-03-18T07:43:04Z</time>
      </trkpt>
      <trkpt lat="45.77238" lon="4.37421">
        <ele>523</ele>
        <time>2022-03-18T07:43:09Z</time>
      </trkpt>
      <trkpt lat="45.77244" lon="4.37504">
        <ele>522</ele>
        <time>2022-03-18T07:43:19Z</time>
      </trkpt>
      <trkpt lat="45.77252" lon="4.37567">
        <ele>522</ele>
        <time>2022-03-18T07:43:27Z</time>
      </trkpt>
      <trkpt lat="45.77259" lon="4.37577">
        <ele>523</ele>
        <time>2022-03-18T07:43:29Z</time>
      </trkpt>
      <trkpt lat="45.77253" lon="4.37526">
        <ele>522</ele>
        <time>2022-03-18T07:43:35Z</time>
      </trkpt>
      <trkpt lat="45.77242" lon="4.3747">
        <ele>522</ele>
        <time>2022-03-18T07:43:43Z</time>
      </trkpt>
      <trkpt lat="45.77244" lon="4.37504">
        <ele>522</ele>
        <time>2022-03-18T07:43:47Z</time>
      </trkpt>
      <trkpt lat="45.77262" lon="4.37655">
        <ele>524</ele>
        <time>2022-03-18T07:44:06Z</time>
      </trkpt>
      <trkpt lat="45.77267" lon="4.3767">
        <ele>524</ele>
        <time>2022-03-18T07:44:08Z</time>
      </trkpt>
      <trkpt lat="45.77277" lon="4.37722">
        <ele>526</ele>
        <time>2022-03-18T07:44:15Z</time>
      </trkpt>
      <trkpt lat="45.77289" lon="4.37767">
        <ele>527</ele>
        <time>2022-03-18T07:44:21Z</time>
      </trkpt>
      <trkpt lat="45.77325" lon="4.37871">
        <ele>527</ele>
        <time>2022-03-18T07:44:35Z</time>
      </trkpt>
      <trkpt lat="45.77339" lon="4.38003">
        <ele>530</ele>
        <time>2022-03-18T07:44:52Z</time>
      </trkpt>
      <trkpt lat="45.7735" lon="4.38071">
        <ele>534</ele>
        <time>2022-03-18T07:45:00Z</time>
      </trkpt>
      <trkpt lat="45.77376" lon="4.38202">
        <ele>537</ele>
        <time>2022-03-18T07:45:17Z</time>
      </trkpt>
      <trkpt lat="45.77382" lon="4.38225">
        <ele>537</ele>
        <time>2022-03-18T07:45:20Z</time>
      </trkpt>
      <trkpt lat="45.774" lon="4.38269">
        <ele>536</ele>
        <time>2022-03-18T07:45:27Z</time>
      </trkpt>
      <trkpt lat="45.7742" lon="4.38304">
        <ele>537</ele>
        <time>2022-03-18T07:45:32Z</time>
      </trkpt>
      <trkpt lat="45.77446" lon="4.38338">
        <ele>537</ele>
        <time>2022-03-18T07:45:38Z</time>
      </trkpt>
      <trkpt lat="45.77473" lon="4.38368">
        <ele>536</ele>
        <time>2022-03-18T07:45:45Z</time>
      </trkpt>
      <trkpt lat="45.77493" lon="4.38383">
        <ele>534</ele>
        <time>2022-03-18T07:45:49Z</time>
      </trkpt>
      <trkpt lat="45.77527" lon="4.38402">
        <ele>536</ele>
        <time>2022-03-18T07:45:55Z</time>
      </trkpt>
      <trkpt lat="45.77539" lon="4.38412">
        <ele>537</ele>
        <time>2022-03-18T07:45:58Z</time>
      </trkpt>
      <trkpt lat="45.77626" lon="4.38502">
        <ele>541</ele>
        <time>2022-03-18T07:46:17Z</time>
      </trkpt>
      <trkpt lat="45.77643" lon="4.38524">
        <ele>542</ele>
        <time>2022-03-18T07:46:21Z</time>
      </trkpt>
      <trkpt lat="45.77663" lon="4.3857">
        <ele>542</ele>
        <time>2022-03-18T07:46:27Z</time>
      </trkpt>
      <trkpt lat="45.77731" lon="4.38751">
        <ele>540</ele>
        <time>2022-03-18T07:46:53Z</time>
      </trkpt>
      <trkpt lat="45.77742" lon="4.38775">
        <ele>540</ele>
        <time>2022-03-18T07:46:57Z</time>
      </trkpt>
      <trkpt lat="45.77775" lon="4.38819">
        <ele>543</ele>
        <time>2022-03-18T07:47:05Z</time>
      </trkpt>
      <trkpt lat="45.77787" lon="4.38839">
        <ele>544</ele>
        <time>2022-03-18T07:47:08Z</time>
      </trkpt>
      <trkpt lat="45.77842" lon="4.38957">
        <ele>544</ele>
        <time>2022-03-18T07:47:25Z</time>
      </trkpt>
      <trkpt lat="45.77862" lon="4.38995">
        <ele>545</ele>
        <time>2022-03-18T07:47:31Z</time>
      </trkpt>
      <trkpt lat="45.77884" lon="4.39026">
        <ele>546</ele>
        <time>2022-03-18T07:47:37Z</time>
      </trkpt>
      <trkpt lat="45.77914" lon="4.39059">
        <ele>545</ele>
        <time>2022-03-18T07:47:44Z</time>
      </trkpt>
      <trkpt lat="45.77939" lon="4.39078">
        <ele>545</ele>
        <time>2022-03-18T07:47:49Z</time>
      </trkpt>
      <trkpt lat="45.77972" lon="4.39092">
        <ele>547</ele>
        <time>2022-03-18T07:47:55Z</time>
      </trkpt>
      <trkpt lat="45.78031" lon="4.39106">
        <ele>551</ele>
        <time>2022-03-18T07:48:05Z</time>
      </trkpt>
      <trkpt lat="45.78044" lon="4.39117">
        <ele>552</ele>
        <time>2022-03-18T07:48:08Z</time>
      </trkpt>
      <trkpt lat="45.78056" lon="4.39133">
        <ele>553</ele>
        <time>2022-03-18T07:48:11Z</time>
      </trkpt>
      <trkpt lat="45.78105" lon="4.39216">
        <ele>554</ele>
        <time>2022-03-18T07:48:24Z</time>
      </trkpt>
      <trkpt lat="45.7812" lon="4.39235">
        <ele>554</ele>
        <time>2022-03-18T07:48:28Z</time>
      </trkpt>
      <trkpt lat="45.78134" lon="4.39246">
        <ele>553</ele>
        <time>2022-03-18T07:48:31Z</time>
      </trkpt>
      <trkpt lat="45.78145" lon="4.3925">
        <ele>553</ele>
        <time>2022-03-18T07:48:33Z</time>
      </trkpt>
      <trkpt lat="45.78159" lon="4.3925">
        <ele>553</ele>
        <time>2022-03-18T07:48:35Z</time>
      </trkpt>
      <trkpt lat="45.78189" lon="4.39245">
        <ele>554</ele>
        <time>2022-03-18T07:48:41Z</time>
      </trkpt>
      <trkpt lat="45.78227" lon="4.39246">
        <ele>554</ele>
        <time>2022-03-18T07:48:47Z</time>
      </trkpt>
      <trkpt lat="45.78242" lon="4.39244">
        <ele>555</ele>
        <time>2022-03-18T07:48:50Z</time>
      </trkpt>
      <trkpt lat="45.78285" lon="4.39233">
        <ele>558</ele>
        <time>2022-03-18T07:48:58Z</time>
      </trkpt>
      <trkpt lat="45.78301" lon="4.39234">
        <ele>559</ele>
        <time>2022-03-18T07:49:01Z</time>
      </trkpt>
      <trkpt lat="45.78313" lon="4.39238">
        <ele>559</ele>
        <time>2022-03-18T07:49:03Z</time>
      </trkpt>
      <trkpt lat="45.78328" lon="4.39246">
        <ele>559</ele>
        <time>2022-03-18T07:49:06Z</time>
      </trkpt>
      <trkpt lat="45.78361" lon="4.39272">
        <ele>562</ele>
        <time>2022-03-18T07:49:13Z</time>
      </trkpt>
      <trkpt lat="45.78465" lon="4.39366">
        <ele>561</ele>
        <time>2022-03-18T07:49:34Z</time>
      </trkpt>
      <trkpt lat="45.78479" lon="4.39374">
        <ele>561</ele>
        <time>2022-03-18T07:49:37Z</time>
      </trkpt>
      <trkpt lat="45.78496" lon="4.39378">
        <ele>561</ele>
        <time>2022-03-18T07:49:40Z</time>
      </trkpt>
      <trkpt lat="45.78517" lon="4.39379">
        <ele>562</ele>
        <time>2022-03-18T07:49:44Z</time>
      </trkpt>
      <trkpt lat="45.78535" lon="4.39383">
        <ele>563</ele>
        <time>2022-03-18T07:49:47Z</time>
      </trkpt>
      <trkpt lat="45.78557" lon="4.39394">
        <ele>564</ele>
        <time>2022-03-18T07:49:51Z</time>
      </trkpt>
      <trkpt lat="45.7858" lon="4.39408">
        <ele>564</ele>
        <time>2022-03-18T07:49:56Z</time>
      </trkpt>
      <trkpt lat="45.7859" lon="4.39417">
        <ele>563</ele>
        <time>2022-03-18T07:49:58Z</time>
      </trkpt>
      <trkpt lat="45.78605" lon="4.39441">
        <ele>564</ele>
        <time>2022-03-18T07:50:02Z</time>
      </trkpt>
      <trkpt lat="45.78637" lon="4.39504">
        <ele>563</ele>
        <time>2022-03-18T07:50:11Z</time>
      </trkpt>
      <trkpt lat="45.78643" lon="4.39522">
        <ele>564</ele>
        <time>2022-03-18T07:50:14Z</time>
      </trkpt>
      <trkpt lat="45.78648" lon="4.39556">
        <ele>564</ele>
        <time>2022-03-18T07:50:18Z</time>
      </trkpt>
      <trkpt lat="45.78649" lon="4.39569">
        <ele>565</ele>
        <time>2022-03-18T07:50:20Z</time>
      </trkpt>
      <trkpt lat="45.78651" lon="4.39579">
        <ele>565</ele>
        <time>2022-03-18T07:50:21Z</time>
      </trkpt>
      <trkpt lat="45.78655" lon="4.39597">
        <ele>567</ele>
        <time>2022-03-18T07:50:24Z</time>
      </trkpt>
      <trkpt lat="45.78662" lon="4.39611">
        <ele>568</ele>
        <time>2022-03-18T07:50:26Z</time>
      </trkpt>
      <trkpt lat="45.7867" lon="4.39619">
        <ele>569</ele>
        <time>2022-03-18T07:50:27Z</time>
      </trkpt>
      <trkpt lat="45.78685" lon="4.39627">
        <ele>570</ele>
        <time>2022-03-18T07:50:30Z</time>
      </trkpt>
      <trkpt lat="45.78791" lon="4.39653">
        <ele>573</ele>
        <time>2022-03-18T07:50:49Z</time>
      </trkpt>
      <trkpt lat="45.78806" lon="4.3966">
        <ele>574</ele>
        <time>2022-03-18T07:50:52Z</time>
      </trkpt>
      <trkpt lat="45.78821" lon="4.39671">
        <ele>575</ele>
        <time>2022-03-18T07:50:55Z</time>
      </trkpt>
      <trkpt lat="45.78897" lon="4.39743">
        <ele>578</ele>
        <time>2022-03-18T07:51:11Z</time>
      </trkpt>
      <trkpt lat="45.78933" lon="4.3979">
        <ele>581</ele>
        <time>2022-03-18T07:51:20Z</time>
      </trkpt>
      <trkpt lat="45.7895" lon="4.39823">
        <ele>584</ele>
        <time>2022-03-18T07:51:25Z</time>
      </trkpt>
      <trkpt lat="45.78963" lon="4.39853">
        <ele>587</ele>
        <time>2022-03-18T07:51:30Z</time>
      </trkpt>
      <trkpt lat="45.78971" lon="4.39866">
        <ele>588</ele>
        <time>2022-03-18T07:51:32Z</time>
      </trkpt>
      <trkpt lat="45.7898" lon="4.39876">
        <ele>588</ele>
        <time>2022-03-18T07:51:34Z</time>
      </trkpt>
      <trkpt lat="45.79" lon="4.39891">
        <ele>587</ele>
        <time>2022-03-18T07:51:38Z</time>
      </trkpt>
      <trkpt lat="45.79013" lon="4.39904">
        <ele>588</ele>
        <time>2022-03-18T07:51:41Z</time>
      </trkpt>
      <trkpt lat="45.79029" lon="4.39926">
        <ele>590</ele>
        <time>2022-03-18T07:51:44Z</time>
      </trkpt>
      <trkpt lat="45.79041" lon="4.39938">
        <ele>591</ele>
        <time>2022-03-18T07:51:47Z</time>
      </trkpt>
      <trkpt lat="45.79053" lon="4.39944">
        <ele>591</ele>
        <time>2022-03-18T07:51:49Z</time>
      </trkpt>
      <trkpt lat="45.79084" lon="4.39954">
        <ele>591</ele>
        <time>2022-03-18T07:51:55Z</time>
      </trkpt>
      <trkpt lat="45.79103" lon="4.3997">
        <ele>593</ele>
        <time>2022-03-18T07:51:59Z</time>
      </trkpt>
      <trkpt lat="45.79111" lon="4.39984">
        <ele>595</ele>
        <time>2022-03-18T07:52:01Z</time>
      </trkpt>
      <trkpt lat="45.79137" lon="4.40047">
        <ele>603</ele>
        <time>2022-03-18T07:52:10Z</time>
      </trkpt>
      <trkpt lat="45.79149" lon="4.40068">
        <ele>605</ele>
        <time>2022-03-18T07:52:14Z</time>
      </trkpt>
      <trkpt lat="45.79161" lon="4.40081">
        <ele>605</ele>
        <time>2022-03-18T07:52:16Z</time>
      </trkpt>
      <trkpt lat="45.79183" lon="4.40101">
        <ele>605</ele>
        <time>2022-03-18T07:52:21Z</time>
      </trkpt>
      <trkpt lat="45.79198" lon="4.40117">
        <ele>606</ele>
        <time>2022-03-18T07:52:24Z</time>
      </trkpt>
      <trkpt lat="45.79205" lon="4.40127">
        <ele>606</ele>
        <time>2022-03-18T07:52:26Z</time>
      </trkpt>
      <trkpt lat="45.79209" lon="4.40139">
        <ele>608</ele>
        <time>2022-03-18T07:52:28Z</time>
      </trkpt>
      <trkpt lat="45.79219" lon="4.40184">
        <ele>612</ele>
        <time>2022-03-18T07:52:34Z</time>
      </trkpt>
      <trkpt lat="45.79225" lon="4.402">
        <ele>612</ele>
        <time>2022-03-18T07:52:36Z</time>
      </trkpt>
      <trkpt lat="45.79246" lon="4.40225">
        <ele>609</ele>
        <time>2022-03-18T07:52:41Z</time>
      </trkpt>
      <trkpt lat="45.79275" lon="4.40248">
        <ele>608</ele>
        <time>2022-03-18T07:52:47Z</time>
      </trkpt>
      <trkpt lat="45.79282" lon="4.40258">
        <ele>608</ele>
        <time>2022-03-18T07:52:48Z</time>
      </trkpt>
      <trkpt lat="45.79286" lon="4.40269">
        <ele>608</ele>
        <time>2022-03-18T07:52:50Z</time>
      </trkpt>
      <trkpt lat="45.79288" lon="4.40282">
        <ele>609</ele>
        <time>2022-03-18T07:52:51Z</time>
      </trkpt>
      <trkpt lat="45.79288" lon="4.40295">
        <ele>610</ele>
        <time>2022-03-18T07:52:53Z</time>
      </trkpt>
      <trkpt lat="45.79284" lon="4.40313">
        <ele>613</ele>
        <time>2022-03-18T07:52:55Z</time>
      </trkpt>
      <trkpt lat="45.79271" lon="4.4035">
        <ele>618</ele>
        <time>2022-03-18T07:53:01Z</time>
      </trkpt>
      <trkpt lat="45.79255" lon="4.40408">
        <ele>622</ele>
        <time>2022-03-18T07:53:08Z</time>
      </trkpt>
      <trkpt lat="45.79238" lon="4.40452">
        <ele>623</ele>
        <time>2022-03-18T07:53:15Z</time>
      </trkpt>
      <trkpt lat="45.79221" lon="4.40486">
        <ele>624</ele>
        <time>2022-03-18T07:53:20Z</time>
      </trkpt>
      <trkpt lat="45.79194" lon="4.4052">
        <ele>629</ele>
        <time>2022-03-18T07:53:26Z</time>
      </trkpt>
      <trkpt lat="45.79171" lon="4.40559">
        <ele>628</ele>
        <time>2022-03-18T07:53:32Z</time>
      </trkpt>
      <trkpt lat="45.79099" lon="4.40755">
        <ele>629</ele>
        <time>2022-03-18T07:54:00Z</time>
      </trkpt>
      <trkpt lat="45.79087" lon="4.40774">
        <ele>631</ele>
        <time>2022-03-18T07:54:03Z</time>
      </trkpt>
      <trkpt lat="45.79077" lon="4.40785">
        <ele>631</ele>
        <time>2022-03-18T07:54:05Z</time>
      </trkpt>
      <trkpt lat="45.79007" lon="4.40833">
        <ele>633</ele>
        <time>2022-03-18T07:54:19Z</time>
      </trkpt>
      <trkpt lat="45.78998" lon="4.40845">
        <ele>634</ele>
        <time>2022-03-18T07:54:21Z</time>
      </trkpt>
      <trkpt lat="45.78994" lon="4.40859">
        <ele>635</ele>
        <time>2022-03-18T07:54:23Z</time>
      </trkpt>
      <trkpt lat="45.78996" lon="4.40871">
        <ele>635</ele>
        <time>2022-03-18T07:54:25Z</time>
      </trkpt>
      <trkpt lat="45.79" lon="4.40882">
        <ele>635</ele>
        <time>2022-03-18T07:54:26Z</time>
      </trkpt>
      <trkpt lat="45.79007" lon="4.4089">
        <ele>635</ele>
        <time>2022-03-18T07:54:28Z</time>
      </trkpt>
      <trkpt lat="45.79092" lon="4.40939">
        <ele>635</ele>
        <time>2022-03-18T07:54:44Z</time>
      </trkpt>
      <trkpt lat="45.79117" lon="4.40958">
        <ele>635</ele>
        <time>2022-03-18T07:54:49Z</time>
      </trkpt>
      <trkpt lat="45.79133" lon="4.40974">
        <ele>636</ele>
        <time>2022-03-18T07:54:53Z</time>
      </trkpt>
      <trkpt lat="45.79143" lon="4.40992">
        <ele>638</ele>
        <time>2022-03-18T07:54:56Z</time>
      </trkpt>
      <trkpt lat="45.79147" lon="4.41008">
        <ele>639</ele>
        <time>2022-03-18T07:54:58Z</time>
      </trkpt>
      <trkpt lat="45.7915" lon="4.41029">
        <ele>640</ele>
        <time>2022-03-18T07:55:00Z</time>
      </trkpt>
      <trkpt lat="45.79145" lon="4.41056">
        <ele>641</ele>
        <time>2022-03-18T07:55:04Z</time>
      </trkpt>
      <trkpt lat="45.79133" lon="4.41083">
        <ele>645</ele>
        <time>2022-03-18T07:55:08Z</time>
      </trkpt>
      <trkpt lat="45.79118" lon="4.41101">
        <ele>645</ele>
        <time>2022-03-18T07:55:11Z</time>
      </trkpt>
      <trkpt lat="45.79095" lon="4.41113">
        <ele>648</ele>
        <time>2022-03-18T07:55:16Z</time>
      </trkpt>
      <trkpt lat="45.7904" lon="4.41133">
        <ele>651</ele>
        <time>2022-03-18T07:55:26Z</time>
      </trkpt>
      <trkpt lat="45.79023" lon="4.41144">
        <ele>652</ele>
        <time>2022-03-18T07:55:29Z</time>
      </trkpt>
      <trkpt lat="45.78982" lon="4.41185">
        <ele>654</ele>
        <time>2022-03-18T07:55:38Z</time>
      </trkpt>
      <trkpt lat="45.78936" lon="4.41226">
        <ele>658</ele>
        <time>2022-03-18T07:55:48Z</time>
      </trkpt>
      <trkpt lat="45.78915" lon="4.41248">
        <ele>660</ele>
        <time>2022-03-18T07:55:52Z</time>
      </trkpt>
      <trkpt lat="45.78907" lon="4.41265">
        <ele>661</ele>
        <time>2022-03-18T07:55:55Z</time>
      </trkpt>
      <trkpt lat="45.78904" lon="4.41275">
        <ele>661</ele>
        <time>2022-03-18T07:55:56Z</time>
      </trkpt>
      <trkpt lat="45.78903" lon="4.41289">
        <ele>661</ele>
        <time>2022-03-18T07:55:58Z</time>
      </trkpt>
      <trkpt lat="45.78906" lon="4.41306">
        <ele>660</ele>
        <time>2022-03-18T07:56:00Z</time>
      </trkpt>
      <trkpt lat="45.78911" lon="4.41322">
        <ele>659</ele>
        <time>2022-03-18T07:56:02Z</time>
      </trkpt>
      <trkpt lat="45.78923" lon="4.41336">
        <ele>658</ele>
        <time>2022-03-18T07:56:05Z</time>
      </trkpt>
      <trkpt lat="45.78984" lon="4.4138">
        <ele>657</ele>
        <time>2022-03-18T07:56:17Z</time>
      </trkpt>
      <trkpt lat="45.78999" lon="4.41395">
        <ele>657</ele>
        <time>2022-03-18T07:56:20Z</time>
      </trkpt>
      <trkpt lat="45.79029" lon="4.41439">
        <ele>662</ele>
        <time>2022-03-18T07:56:28Z</time>
      </trkpt>
      <trkpt lat="45.79041" lon="4.41452">
        <ele>664</ele>
        <time>2022-03-18T07:56:31Z</time>
      </trkpt>
      <trkpt lat="45.79056" lon="4.41461">
        <ele>664</ele>
        <time>2022-03-18T07:56:34Z</time>
      </trkpt>
      <trkpt lat="45.79119" lon="4.41493">
        <ele>665</ele>
        <time>2022-03-18T07:56:45Z</time>
      </trkpt>
      <trkpt lat="45.79146" lon="4.41516">
        <ele>667</ele>
        <time>2022-03-18T07:56:51Z</time>
      </trkpt>
      <trkpt lat="45.79179" lon="4.41549">
        <ele>669</ele>
        <time>2022-03-18T07:56:58Z</time>
      </trkpt>
      <trkpt lat="45.79191" lon="4.41566">
        <ele>670</ele>
        <time>2022-03-18T07:57:01Z</time>
      </trkpt>
      <trkpt lat="45.79198" lon="4.41581">
        <ele>671</ele>
        <time>2022-03-18T07:57:03Z</time>
      </trkpt>
      <trkpt lat="45.79204" lon="4.41602">
        <ele>671</ele>
        <time>2022-03-18T07:57:06Z</time>
      </trkpt>
      <trkpt lat="45.79206" lon="4.41625">
        <ele>672</ele>
        <time>2022-03-18T07:57:09Z</time>
      </trkpt>
      <trkpt lat="45.79205" lon="4.41652">
        <ele>674</ele>
        <time>2022-03-18T07:57:12Z</time>
      </trkpt>
      <trkpt lat="45.79193" lon="4.41708">
        <ele>679</ele>
        <time>2022-03-18T07:57:20Z</time>
      </trkpt>
      <trkpt lat="45.79185" lon="4.41758">
        <ele>683</ele>
        <time>2022-03-18T07:57:26Z</time>
      </trkpt>
      <trkpt lat="45.79184" lon="4.41787">
        <ele>684</ele>
        <time>2022-03-18T07:57:30Z</time>
      </trkpt>
      <trkpt lat="45.79187" lon="4.41817">
        <ele>684</ele>
        <time>2022-03-18T07:57:33Z</time>
      </trkpt>
      <trkpt lat="45.79196" lon="4.41883">
        <ele>684</ele>
        <time>2022-03-18T07:57:42Z</time>
      </trkpt>
      <trkpt lat="45.79197" lon="4.41914">
        <ele>685</ele>
        <time>2022-03-18T07:57:46Z</time>
      </trkpt>
      <trkpt lat="45.79194" lon="4.41941">
        <ele>686</ele>
        <time>2022-03-18T07:57:49Z</time>
      </trkpt>
      <trkpt lat="45.79188" lon="4.41966">
        <ele>688</ele>
        <time>2022-03-18T07:57:52Z</time>
      </trkpt>
      <trkpt lat="45.79175" lon="4.41992">
        <ele>691</ele>
        <time>2022-03-18T07:57:56Z</time>
      </trkpt>
      <trkpt lat="45.79143" lon="4.42036">
        <ele>694</ele>
        <time>2022-03-18T07:58:04Z</time>
      </trkpt>
      <trkpt lat="45.79135" lon="4.42068">
        <ele>694</ele>
        <time>2022-03-18T07:58:08Z</time>
      </trkpt>
      <trkpt lat="45.79131" lon="4.42101">
        <ele>694</ele>
        <time>2022-03-18T07:58:13Z</time>
      </trkpt>
      <trkpt lat="45.79128" lon="4.42202">
        <ele>696</ele>
        <time>2022-03-18T07:58:25Z</time>
      </trkpt>
      <trkpt lat="45.79128" lon="4.42286">
        <ele>696</ele>
        <time>2022-03-18T07:58:36Z</time>
      </trkpt>
      <trkpt lat="45.79132" lon="4.42308">
        <ele>697</ele>
        <time>2022-03-18T07:58:38Z</time>
      </trkpt>
      <trkpt lat="45.79166" lon="4.42423">
        <ele>697</ele>
        <time>2022-03-18T07:58:54Z</time>
      </trkpt>
      <trkpt lat="45.79188" lon="4.42451">
        <ele>696</ele>
        <time>2022-03-18T07:58:59Z</time>
      </trkpt>
      <trkpt lat="45.79217" lon="4.42499">
        <ele>694</ele>
        <time>2022-03-18T07:59:07Z</time>
      </trkpt>
      <trkpt lat="45.79231" lon="4.4252">
        <ele>692</ele>
        <time>2022-03-18T07:59:11Z</time>
      </trkpt>
      <trkpt lat="45.79301" lon="4.42602">
        <ele>690</ele>
        <time>2022-03-18T07:59:27Z</time>
      </trkpt>
      <trkpt lat="45.79312" lon="4.42619">
        <ele>691</ele>
        <time>2022-03-18T07:59:30Z</time>
      </trkpt>
      <trkpt lat="45.79349" lon="4.42701">
        <ele>691</ele>
        <time>2022-03-18T07:59:42Z</time>
      </trkpt>
      <trkpt lat="45.79361" lon="4.42717">
        <ele>691</ele>
        <time>2022-03-18T07:59:45Z</time>
      </trkpt>
      <trkpt lat="45.79374" lon="4.42729">
        <ele>691</ele>
        <time>2022-03-18T07:59:47Z</time>
      </trkpt>
      <trkpt lat="45.79392" lon="4.42739">
        <ele>692</ele>
        <time>2022-03-18T07:59:51Z</time>
      </trkpt>
      <trkpt lat="45.7941" lon="4.42742">
        <ele>692</ele>
        <time>2022-03-18T07:59:54Z</time>
      </trkpt>
      <trkpt lat="45.7943" lon="4.42741">
        <ele>693</ele>
        <time>2022-03-18T07:59:58Z</time>
      </trkpt>
      <trkpt lat="45.79599" lon="4.42692">
        <ele>703</ele>
        <time>2022-03-18T08:00:28Z</time>
      </trkpt>
      <trkpt lat="45.79612" lon="4.42692">
        <ele>704</ele>
        <time>2022-03-18T08:00:30Z</time>
      </trkpt>
      <trkpt lat="45.79623" lon="4.42698">
        <ele>704</ele>
        <time>2022-03-18T08:00:33Z</time>
      </trkpt>
      <trkpt lat="45.79633" lon="4.42705">
        <ele>704</ele>
        <time>2022-03-18T08:00:35Z</time>
      </trkpt>
      <trkpt lat="45.79644" lon="4.42717">
        <ele>703</ele>
        <time>2022-03-18T08:00:37Z</time>
      </trkpt>
      <trkpt lat="45.79651" lon="4.42732">
        <ele>702</ele>
        <time>2022-03-18T08:00:39Z</time>
      </trkpt>
      <trkpt lat="45.79655" lon="4.42745">
        <ele>701</ele>
        <time>2022-03-18T08:00:41Z</time>
      </trkpt>
      <trkpt lat="45.79654" lon="4.42767">
        <ele>700</ele>
        <time>2022-03-18T08:00:44Z</time>
      </trkpt>
      <trkpt lat="45.79636" lon="4.4283">
        <ele>700</ele>
        <time>2022-03-18T08:00:52Z</time>
      </trkpt>
      <trkpt lat="45.796" lon="4.42907">
        <ele>703</ele>
        <time>2022-03-18T08:01:04Z</time>
      </trkpt>
      <trkpt lat="45.79592" lon="4.42932">
        <ele>705</ele>
        <time>2022-03-18T08:01:07Z</time>
      </trkpt>
      <trkpt lat="45.79584" lon="4.42962">
        <ele>707</ele>
        <time>2022-03-18T08:01:11Z</time>
      </trkpt>
      <trkpt lat="45.79576" lon="4.43014">
        <ele>711</ele>
        <time>2022-03-18T08:01:18Z</time>
      </trkpt>
      <trkpt lat="45.79571" lon="4.4303">
        <ele>712</ele>
        <time>2022-03-18T08:01:20Z</time>
      </trkpt>
      <trkpt lat="45.79562" lon="4.43047">
        <ele>714</ele>
        <time>2022-03-18T08:01:23Z</time>
      </trkpt>
      <trkpt lat="45.79555" lon="4.43055">
        <ele>714</ele>
        <time>2022-03-18T08:01:24Z</time>
      </trkpt>
      <trkpt lat="45.79544" lon="4.43063">
        <ele>715</ele>
        <time>2022-03-18T08:01:26Z</time>
      </trkpt>
      <trkpt lat="45.79482" lon="4.43078">
        <ele>714</ele>
        <time>2022-03-18T08:01:38Z</time>
      </trkpt>
      <trkpt lat="45.79457" lon="4.43093">
        <ele>713</ele>
        <time>2022-03-18T08:01:42Z</time>
      </trkpt>
      <trkpt lat="45.79435" lon="4.43118">
        <ele>714</ele>
        <time>2022-03-18T08:01:47Z</time>
      </trkpt>
      <trkpt lat="45.79426" lon="4.43137">
        <ele>715</ele>
        <time>2022-03-18T08:01:50Z</time>
      </trkpt>
      <trkpt lat="45.79419" lon="4.43155">
        <ele>716</ele>
        <time>2022-03-18T08:01:53Z</time>
      </trkpt>
      <trkpt lat="45.79417" lon="4.43175">
        <ele>718</ele>
        <time>2022-03-18T08:01:55Z</time>
      </trkpt>
      <trkpt lat="45.7941" lon="4.43335">
        <ele>721</ele>
        <time>2022-03-18T08:02:15Z</time>
      </trkpt>
      <trkpt lat="45.79399" lon="4.43406">
        <ele>720</ele>
        <time>2022-03-18T08:02:24Z</time>
      </trkpt>
      <trkpt lat="45.794" lon="4.43444">
        <ele>721</ele>
        <time>2022-03-18T08:02:29Z</time>
      </trkpt>
      <trkpt lat="45.79409" lon="4.43508">
        <ele>725</ele>
        <time>2022-03-18T08:02:37Z</time>
      </trkpt>
      <trkpt lat="45.79409" lon="4.4353">
        <ele>727</ele>
        <time>2022-03-18T08:02:40Z</time>
      </trkpt>
      <trkpt lat="45.79407" lon="4.43552">
        <ele>729</ele>
        <time>2022-03-18T08:02:42Z</time>
      </trkpt>
      <trkpt lat="45.79399" lon="4.43575">
        <ele>731</ele>
        <time>2022-03-18T08:02:46Z</time>
      </trkpt>
      <trkpt lat="45.7939" lon="4.43592">
        <ele>732</ele>
        <time>2022-03-18T08:02:48Z</time>
      </trkpt>
      <trkpt lat="45.7938" lon="4.43602">
        <ele>733</ele>
        <time>2022-03-18T08:02:50Z</time>
      </trkpt>
      <trkpt lat="45.79368" lon="4.4361">
        <ele>734</ele>
        <time>2022-03-18T08:02:53Z</time>
      </trkpt>
      <trkpt lat="45.7932" lon="4.43614">
        <ele>733</ele>
        <time>2022-03-18T08:03:01Z</time>
      </trkpt>
      <trkpt lat="45.7926" lon="4.43653">
        <ele>741</ele>
        <time>2022-03-18T08:03:13Z</time>
      </trkpt>
      <trkpt lat="45.79217" lon="4.43668">
        <ele>741</ele>
        <time>2022-03-18T08:03:21Z</time>
      </trkpt>
      <trkpt lat="45.79201" lon="4.4368">
        <ele>740</ele>
        <time>2022-03-18T08:03:24Z</time>
      </trkpt>
      <trkpt lat="45.79174" lon="4.43715">
        <ele>741</ele>
        <time>2022-03-18T08:03:31Z</time>
      </trkpt>
      <trkpt lat="45.79166" lon="4.43736">
        <ele>742</ele>
        <time>2022-03-18T08:03:34Z</time>
      </trkpt>
      <trkpt lat="45.79162" lon="4.43751">
        <ele>743</ele>
        <time>2022-03-18T08:03:36Z</time>
      </trkpt>
      <trkpt lat="45.79161" lon="4.43771">
        <ele>743</ele>
        <time>2022-03-18T08:03:38Z</time>
      </trkpt>
      <trkpt lat="45.79162" lon="4.43793">
        <ele>744</ele>
        <time>2022-03-18T08:03:41Z</time>
      </trkpt>
      <trkpt lat="45.7917" lon="4.43839">
        <ele>744</ele>
        <time>2022-03-18T08:03:47Z</time>
      </trkpt>
      <trkpt lat="45.79176" lon="4.43858">
        <ele>742</ele>
        <time>2022-03-18T08:03:49Z</time>
      </trkpt>
      <trkpt lat="45.79183" lon="4.43871">
        <ele>741</ele>
        <time>2022-03-18T08:03:51Z</time>
      </trkpt>
      <trkpt lat="45.79193" lon="4.43884">
        <ele>739</ele>
        <time>2022-03-18T08:03:54Z</time>
      </trkpt>
      <trkpt lat="45.79207" lon="4.4389">
        <ele>739</ele>
        <time>2022-03-18T08:03:56Z</time>
      </trkpt>
      <trkpt lat="45.79288" lon="4.43888">
        <ele>739</ele>
        <time>2022-03-18T08:04:11Z</time>
      </trkpt>
      <trkpt lat="45.79318" lon="4.4389">
        <ele>738</ele>
        <time>2022-03-18T08:04:16Z</time>
      </trkpt>
      <trkpt lat="45.79331" lon="4.43894">
        <ele>737</ele>
        <time>2022-03-18T08:04:18Z</time>
      </trkpt>
      <trkpt lat="45.79342" lon="4.439">
        <ele>737</ele>
        <time>2022-03-18T08:04:21Z</time>
      </trkpt>
      <trkpt lat="45.79358" lon="4.43923">
        <ele>736</ele>
        <time>2022-03-18T08:04:25Z</time>
      </trkpt>
      <trkpt lat="45.79364" lon="4.43959">
        <ele>732</ele>
        <time>2022-03-18T08:04:29Z</time>
      </trkpt>
      <trkpt lat="45.79365" lon="4.43982">
        <ele>730</ele>
        <time>2022-03-18T08:04:32Z</time>
      </trkpt>
      <trkpt lat="45.79359" lon="4.44043">
        <ele>726</ele>
        <time>2022-03-18T08:04:40Z</time>
      </trkpt>
      <trkpt lat="45.79338" lon="4.4421">
        <ele>727</ele>
        <time>2022-03-18T08:05:01Z</time>
      </trkpt>
      <trkpt lat="45.7933" lon="4.44287">
        <ele>726</ele>
        <time>2022-03-18T08:05:10Z</time>
      </trkpt>
      <trkpt lat="45.79328" lon="4.44417">
        <ele>722</ele>
        <time>2022-03-18T08:05:27Z</time>
      </trkpt>
      <trkpt lat="45.79329" lon="4.44443">
        <ele>723</ele>
        <time>2022-03-18T08:05:30Z</time>
      </trkpt>
      <trkpt lat="45.79334" lon="4.44467">
        <ele>724</ele>
        <time>2022-03-18T08:05:33Z</time>
      </trkpt>
      <trkpt lat="45.79341" lon="4.44484">
        <ele>723</ele>
        <time>2022-03-18T08:05:35Z</time>
      </trkpt>
      <trkpt lat="45.79353" lon="4.44499">
        <ele>722</ele>
        <time>2022-03-18T08:05:38Z</time>
      </trkpt>
      <trkpt lat="45.79365" lon="4.44509">
        <ele>721</ele>
        <time>2022-03-18T08:05:41Z</time>
      </trkpt>
      <trkpt lat="45.79392" lon="4.44525">
        <ele>719</ele>
        <time>2022-03-18T08:05:46Z</time>
      </trkpt>
      <trkpt lat="45.79407" lon="4.44536">
        <ele>719</ele>
        <time>2022-03-18T08:05:49Z</time>
      </trkpt>
      <trkpt lat="45.79421" lon="4.44552">
        <ele>719</ele>
        <time>2022-03-18T08:05:52Z</time>
      </trkpt>
      <trkpt lat="45.79431" lon="4.44573">
        <ele>720</ele>
        <time>2022-03-18T08:05:55Z</time>
      </trkpt>
      <trkpt lat="45.79442" lon="4.4461">
        <ele>721</ele>
        <time>2022-03-18T08:06:00Z</time>
      </trkpt>
      <trkpt lat="45.79482" lon="4.44806">
        <ele>724</ele>
        <time>2022-03-18T08:06:25Z</time>
      </trkpt>
      <trkpt lat="45.79485" lon="4.4483">
        <ele>724</ele>
        <time>2022-03-18T08:06:29Z</time>
      </trkpt>
      <trkpt lat="45.79484" lon="4.44855">
        <ele>725</ele>
        <time>2022-03-18T08:06:32Z</time>
      </trkpt>
      <trkpt lat="45.79463" lon="4.44979">
        <ele>727</ele>
        <time>2022-03-18T08:06:47Z</time>
      </trkpt>
      <trkpt lat="45.7946" lon="4.45009">
        <ele>728</ele>
        <time>2022-03-18T08:06:51Z</time>
      </trkpt>
      <trkpt lat="45.79459" lon="4.45037">
        <ele>727</ele>
        <time>2022-03-18T08:06:55Z</time>
      </trkpt>
      <trkpt lat="45.79461" lon="4.45058">
        <ele>727</ele>
        <time>2022-03-18T08:06:57Z</time>
      </trkpt>
      <trkpt lat="45.79465" lon="4.45077">
        <ele>727</ele>
        <time>2022-03-18T08:07:00Z</time>
      </trkpt>
      <trkpt lat="45.79475" lon="4.45093">
        <ele>727</ele>
        <time>2022-03-18T08:07:02Z</time>
      </trkpt>
      <trkpt lat="45.7949" lon="4.45102">
        <ele>728</ele>
        <time>2022-03-18T08:07:05Z</time>
      </trkpt>
      <trkpt lat="45.79506" lon="4.45103">
        <ele>729</ele>
        <time>2022-03-18T08:07:08Z</time>
      </trkpt>
      <trkpt lat="45.79529" lon="4.45097">
        <ele>730</ele>
        <time>2022-03-18T08:07:12Z</time>
      </trkpt>
      <trkpt lat="45.79549" lon="4.45086">
        <ele>731</ele>
        <time>2022-03-18T08:07:16Z</time>
      </trkpt>
      <trkpt lat="45.79608" lon="4.45038">
        <ele>740</ele>
        <time>2022-03-18T08:07:28Z</time>
      </trkpt>
      <trkpt lat="45.79651" lon="4.45021">
        <ele>739</ele>
        <time>2022-03-18T08:07:36Z</time>
      </trkpt>
      <trkpt lat="45.79675" lon="4.45014">
        <ele>738</ele>
        <time>2022-03-18T08:07:41Z</time>
      </trkpt>
      <trkpt lat="45.79695" lon="4.45015">
        <ele>735</ele>
        <time>2022-03-18T08:07:44Z</time>
      </trkpt>
      <trkpt lat="45.79718" lon="4.45023">
        <ele>731</ele>
        <time>2022-03-18T08:07:48Z</time>
      </trkpt>
      <trkpt lat="45.79812" lon="4.45083">
        <ele>719</ele>
        <time>2022-03-18T08:08:07Z</time>
      </trkpt>
      <trkpt lat="45.79835" lon="4.451">
        <ele>719</ele>
        <time>2022-03-18T08:08:11Z</time>
      </trkpt>
      <trkpt lat="45.79861" lon="4.45147">
        <ele>718</ele>
        <time>2022-03-18T08:08:19Z</time>
      </trkpt>
      <trkpt lat="45.79881" lon="4.45197">
        <ele>718</ele>
        <time>2022-03-18T08:08:26Z</time>
      </trkpt>
      <trkpt lat="45.79886" lon="4.45217">
        <ele>718</ele>
        <time>2022-03-18T08:08:28Z</time>
      </trkpt>
      <trkpt lat="45.79891" lon="4.45243">
        <ele>718</ele>
        <time>2022-03-18T08:08:32Z</time>
      </trkpt>
      <trkpt lat="45.79912" lon="4.45604">
        <ele>705</ele>
        <time>2022-03-18T08:09:17Z</time>
      </trkpt>
      <trkpt lat="45.79911" lon="4.45658">
        <ele>705</ele>
        <time>2022-03-18T08:09:23Z</time>
      </trkpt>
      <trkpt lat="45.79924" lon="4.45672">
        <ele>708</ele>
        <time>2022-03-18T08:09:26Z</time>
      </trkpt>
      <trkpt lat="45.79923" lon="4.45684">
        <ele>708</ele>
        <time>2022-03-18T08:09:28Z</time>
      </trkpt>
      <trkpt lat="45.79919" lon="4.45705">
        <ele>707</ele>
        <time>2022-03-18T08:09:30Z</time>
      </trkpt>
      <trkpt lat="45.79912" lon="4.45722">
        <ele>706</ele>
        <time>2022-03-18T08:09:33Z</time>
      </trkpt>
      <trkpt lat="45.79906" lon="4.45775">
        <ele>707</ele>
        <time>2022-03-18T08:09:40Z</time>
      </trkpt>
      <trkpt lat="45.7989" lon="4.45956">
        <ele>712</ele>
        <time>2022-03-18T08:10:02Z</time>
      </trkpt>
      <trkpt lat="45.79889" lon="4.46006">
        <ele>712</ele>
        <time>2022-03-18T08:10:08Z</time>
      </trkpt>
      <trkpt lat="45.79892" lon="4.4603">
        <ele>712</ele>
        <time>2022-03-18T08:10:11Z</time>
      </trkpt>
      <trkpt lat="45.79918" lon="4.46091">
        <ele>710</ele>
        <time>2022-03-18T08:10:20Z</time>
      </trkpt>
      <trkpt lat="45.7998" lon="4.46214">
        <ele>711</ele>
        <time>2022-03-18T08:10:39Z</time>
      </trkpt>
      <trkpt lat="45.80017" lon="4.46316">
        <ele>704</ele>
        <time>2022-03-18T08:10:53Z</time>
      </trkpt>
      <trkpt lat="45.8004" lon="4.46359">
        <ele>699</ele>
        <time>2022-03-18T08:11:00Z</time>
      </trkpt>
      <trkpt lat="45.80056" lon="4.46372">
        <ele>697</ele>
        <time>2022-03-18T08:11:03Z</time>
      </trkpt>
      <trkpt lat="45.80071" lon="4.46371">
        <ele>699</ele>
        <time>2022-03-18T08:11:06Z</time>
      </trkpt>
      <trkpt lat="45.80087" lon="4.46362">
        <ele>702</ele>
        <time>2022-03-18T08:11:09Z</time>
      </trkpt>
      <trkpt lat="45.80104" lon="4.46342">
        <ele>704</ele>
        <time>2022-03-18T08:11:13Z</time>
      </trkpt>
      <trkpt lat="45.80137" lon="4.46289">
        <ele>705</ele>
        <time>2022-03-18T08:11:22Z</time>
      </trkpt>
      <trkpt lat="45.80161" lon="4.46262">
        <ele>703</ele>
        <time>2022-03-18T08:11:27Z</time>
      </trkpt>
      <trkpt lat="45.80189" lon="4.46248">
        <ele>702</ele>
        <time>2022-03-18T08:11:33Z</time>
      </trkpt>
      <trkpt lat="45.80235" lon="4.46238">
        <ele>701</ele>
        <time>2022-03-18T08:11:41Z</time>
      </trkpt>
      <trkpt lat="45.8026" lon="4.46238">
        <ele>701</ele>
        <time>2022-03-18T08:11:45Z</time>
      </trkpt>
      <trkpt lat="45.80277" lon="4.46254">
        <ele>702</ele>
        <time>2022-03-18T08:11:49Z</time>
      </trkpt>
      <trkpt lat="45.80287" lon="4.46279">
        <ele>702</ele>
        <time>2022-03-18T08:11:53Z</time>
      </trkpt>
      <trkpt lat="45.80294" lon="4.46344">
        <ele>701</ele>
        <time>2022-03-18T08:12:01Z</time>
      </trkpt>
      <trkpt lat="45.80333" lon="4.46551">
        <ele>703</ele>
        <time>2022-03-18T08:12:27Z</time>
      </trkpt>
      <trkpt lat="45.80334" lon="4.46571">
        <ele>703</ele>
        <time>2022-03-18T08:12:30Z</time>
      </trkpt>
      <trkpt lat="45.80327" lon="4.46649">
        <ele>696</ele>
        <time>2022-03-18T08:12:40Z</time>
      </trkpt>
      <trkpt lat="45.80329" lon="4.4668">
        <ele>695</ele>
        <time>2022-03-18T08:12:43Z</time>
      </trkpt>
      <trkpt lat="45.80337" lon="4.46706">
        <ele>696</ele>
        <time>2022-03-18T08:12:47Z</time>
      </trkpt>
      <trkpt lat="45.80441" lon="4.46832">
        <ele>703</ele>
        <time>2022-03-18T08:13:11Z</time>
      </trkpt>
      <trkpt lat="45.80449" lon="4.46862">
        <ele>704</ele>
        <time>2022-03-18T08:13:15Z</time>
      </trkpt>
      <trkpt lat="45.80447" lon="4.46888">
        <ele>702</ele>
        <time>2022-03-18T08:13:18Z</time>
      </trkpt>
      <trkpt lat="45.8044" lon="4.46913">
        <ele>699</ele>
        <time>2022-03-18T08:13:22Z</time>
      </trkpt>
      <trkpt lat="45.80395" lon="4.46981">
        <ele>694</ele>
        <time>2022-03-18T08:13:33Z</time>
      </trkpt>
      <trkpt lat="45.8039" lon="4.47005">
        <ele>695</ele>
        <time>2022-03-18T08:13:36Z</time>
      </trkpt>
      <trkpt lat="45.80392" lon="4.47034">
        <ele>696</ele>
        <time>2022-03-18T08:13:40Z</time>
      </trkpt>
      <trkpt lat="45.80411" lon="4.47105">
        <ele>696</ele>
        <time>2022-03-18T08:13:49Z</time>
      </trkpt>
      <trkpt lat="45.80426" lon="4.47128">
        <ele>695</ele>
        <time>2022-03-18T08:13:53Z</time>
      </trkpt>
      <trkpt lat="45.80456" lon="4.47159">
        <ele>698</ele>
        <time>2022-03-18T08:14:00Z</time>
      </trkpt>
      <trkpt lat="45.80468" lon="4.47177">
        <ele>699</ele>
        <time>2022-03-18T08:14:03Z</time>
      </trkpt>
      <trkpt lat="45.80478" lon="4.47223">
        <ele>694</ele>
        <time>2022-03-18T08:14:09Z</time>
      </trkpt>
      <trkpt lat="45.8049" lon="4.47288">
        <ele>687</ele>
        <time>2022-03-18T08:14:17Z</time>
      </trkpt>
      <trkpt lat="45.80499" lon="4.47316">
        <ele>685</ele>
        <time>2022-03-18T08:14:21Z</time>
      </trkpt>
      <trkpt lat="45.80511" lon="4.47327">
        <ele>684</ele>
        <time>2022-03-18T08:14:24Z</time>
      </trkpt>
      <trkpt lat="45.80526" lon="4.4733">
        <ele>683</ele>
        <time>2022-03-18T08:14:26Z</time>
      </trkpt>
      <trkpt lat="45.80554" lon="4.4732">
        <ele>686</ele>
        <time>2022-03-18T08:14:32Z</time>
      </trkpt>
      <trkpt lat="45.80665" lon="4.47257">
        <ele>701</ele>
        <time>2022-03-18T08:14:53Z</time>
      </trkpt>
      <trkpt lat="45.80701" lon="4.47261">
        <ele>696</ele>
        <time>2022-03-18T08:14:59Z</time>
      </trkpt>
      <trkpt lat="45.80727" lon="4.4727">
        <ele>691</ele>
        <time>2022-03-18T08:15:04Z</time>
      </trkpt>
      <trkpt lat="45.80746" lon="4.47264">
        <ele>690</ele>
        <time>2022-03-18T08:15:07Z</time>
      </trkpt>
      <trkpt lat="45.80828" lon="4.47214">
        <ele>686</ele>
        <time>2022-03-18T08:15:23Z</time>
      </trkpt>
      <trkpt lat="45.80853" lon="4.47209">
        <ele>685</ele>
        <time>2022-03-18T08:15:28Z</time>
      </trkpt>
      <trkpt lat="45.80874" lon="4.47212">
        <ele>684</ele>
        <time>2022-03-18T08:15:32Z</time>
      </trkpt>
      <trkpt lat="45.80911" lon="4.47238">
        <ele>684</ele>
        <time>2022-03-18T08:15:39Z</time>
      </trkpt>
      <trkpt lat="45.80917" lon="4.47241">
        <ele>684</ele>
        <time>2022-03-18T08:15:40Z</time>
      </trkpt>
      <trkpt lat="45.80927" lon="4.4724">
        <ele>685</ele>
        <time>2022-03-18T08:15:42Z</time>
      </trkpt>
      <trkpt lat="45.8099" lon="4.47226">
        <ele>684</ele>
        <time>2022-03-18T08:15:53Z</time>
      </trkpt>
      <trkpt lat="45.81014" lon="4.47232">
        <ele>684</ele>
        <time>2022-03-18T08:15:57Z</time>
      </trkpt>
      <trkpt lat="45.81057" lon="4.47257">
        <ele>684</ele>
        <time>2022-03-18T08:16:06Z</time>
      </trkpt>
      <trkpt lat="45.81076" lon="4.47263">
        <ele>684</ele>
        <time>2022-03-18T08:16:09Z</time>
      </trkpt>
      <trkpt lat="45.81106" lon="4.47263">
        <ele>686</ele>
        <time>2022-03-18T08:16:15Z</time>
      </trkpt>
      <trkpt lat="45.81123" lon="4.47256">
        <ele>687</ele>
        <time>2022-03-18T08:16:18Z</time>
      </trkpt>
      <trkpt lat="45.81151" lon="4.47222">
        <ele>687</ele>
        <time>2022-03-18T08:16:24Z</time>
      </trkpt>
      <trkpt lat="45.81169" lon="4.47188">
        <ele>685</ele>
        <time>2022-03-18T08:16:29Z</time>
      </trkpt>
      <trkpt lat="45.81187" lon="4.47136">
        <ele>681</ele>
        <time>2022-03-18T08:16:37Z</time>
      </trkpt>
      <trkpt lat="45.81202" lon="4.47113">
        <ele>679</ele>
        <time>2022-03-18T08:16:41Z</time>
      </trkpt>
      <trkpt lat="45.81218" lon="4.47095">
        <ele>678</ele>
        <time>2022-03-18T08:16:44Z</time>
      </trkpt>
      <trkpt lat="45.81241" lon="4.47083">
        <ele>677</ele>
        <time>2022-03-18T08:16:49Z</time>
      </trkpt>
      <trkpt lat="45.81271" lon="4.47077">
        <ele>677</ele>
        <time>2022-03-18T08:16:54Z</time>
      </trkpt>
      <trkpt lat="45.81337" lon="4.47072">
        <ele>677</ele>
        <time>2022-03-18T08:17:06Z</time>
      </trkpt>
      <trkpt lat="45.81392" lon="4.47073">
        <ele>680</ele>
        <time>2022-03-18T08:17:15Z</time>
      </trkpt>
      <trkpt lat="45.81455" lon="4.47056">
        <ele>681</ele>
        <time>2022-03-18T08:17:27Z</time>
      </trkpt>
      <trkpt lat="45.81483" lon="4.47045">
        <ele>681</ele>
        <time>2022-03-18T08:17:32Z</time>
      </trkpt>
      <trkpt lat="45.81523" lon="4.4702">
        <ele>679</ele>
        <time>2022-03-18T08:17:40Z</time>
      </trkpt>
      <trkpt lat="45.81543" lon="4.46998">
        <ele>676</ele>
        <time>2022-03-18T08:17:44Z</time>
      </trkpt>
      <trkpt lat="45.81568" lon="4.46959">
        <ele>673</ele>
        <time>2022-03-18T08:17:51Z</time>
      </trkpt>
      <trkpt lat="45.81583" lon="4.46939">
        <ele>671</ele>
        <time>2022-03-18T08:17:55Z</time>
      </trkpt>
      <trkpt lat="45.81602" lon="4.46924">
        <ele>671</ele>
        <time>2022-03-18T08:17:58Z</time>
      </trkpt>
      <trkpt lat="45.81738" lon="4.4687">
        <ele>670</ele>
        <time>2022-03-18T08:18:23Z</time>
      </trkpt>
      <trkpt lat="45.81765" lon="4.46869">
        <ele>670</ele>
        <time>2022-03-18T08:18:28Z</time>
      </trkpt>
      <trkpt lat="45.81784" lon="4.46876">
        <ele>670</ele>
        <time>2022-03-18T08:18:32Z</time>
      </trkpt>
      <trkpt lat="45.81797" lon="4.46886">
        <ele>671</ele>
        <time>2022-03-18T08:18:34Z</time>
      </trkpt>
      <trkpt lat="45.81829" lon="4.46922">
        <ele>674</ele>
        <time>2022-03-18T08:18:42Z</time>
      </trkpt>
      <trkpt lat="45.81906" lon="4.46991">
        <ele>672</ele>
        <time>2022-03-18T08:18:58Z</time>
      </trkpt>
      <trkpt lat="45.81912" lon="4.47003">
        <ele>672</ele>
        <time>2022-03-18T08:19:00Z</time>
      </trkpt>
      <trkpt lat="45.81929" lon="4.47041">
        <ele>676</ele>
        <time>2022-03-18T08:19:05Z</time>
      </trkpt>
      <trkpt lat="45.81946" lon="4.4706">
        <ele>677</ele>
        <time>2022-03-18T08:19:09Z</time>
      </trkpt>
      <trkpt lat="45.81964" lon="4.47068">
        <ele>677</ele>
        <time>2022-03-18T08:19:12Z</time>
      </trkpt>
      <trkpt lat="45.81987" lon="4.47069">
        <ele>676</ele>
        <time>2022-03-18T08:19:17Z</time>
      </trkpt>
      <trkpt lat="45.821" lon="4.47027">
        <ele>672</ele>
        <time>2022-03-18T08:19:37Z</time>
      </trkpt>
      <trkpt lat="45.82126" lon="4.47013">
        <ele>670</ele>
        <time>2022-03-18T08:19:42Z</time>
      </trkpt>
      <trkpt lat="45.82182" lon="4.4697">
        <ele>667</ele>
        <time>2022-03-18T08:19:54Z</time>
      </trkpt>
      <trkpt lat="45.82194" lon="4.46966">
        <ele>667</ele>
        <time>2022-03-18T08:19:56Z</time>
      </trkpt>
      <trkpt lat="45.82209" lon="4.46972">
        <ele>667</ele>
        <time>2022-03-18T08:19:58Z</time>
      </trkpt>
      <trkpt lat="45.82243" lon="4.46997">
        <ele>671</ele>
        <time>2022-03-18T08:20:05Z</time>
      </trkpt>
      <trkpt lat="45.82255" lon="4.47013">
        <ele>672</ele>
        <time>2022-03-18T08:20:08Z</time>
      </trkpt>
      <trkpt lat="45.82267" lon="4.47041">
        <ele>673</ele>
        <time>2022-03-18T08:20:12Z</time>
      </trkpt>
      <trkpt lat="45.82281" lon="4.47061">
        <ele>674</ele>
        <time>2022-03-18T08:20:16Z</time>
      </trkpt>
      <trkpt lat="45.82315" lon="4.47089">
        <ele>673</ele>
        <time>2022-03-18T08:20:23Z</time>
      </trkpt>
      <trkpt lat="45.82362" lon="4.4711">
        <ele>673</ele>
        <time>2022-03-18T08:20:32Z</time>
      </trkpt>
      <trkpt lat="45.82405" lon="4.47119">
        <ele>671</ele>
        <time>2022-03-18T08:20:39Z</time>
      </trkpt>
      <trkpt lat="45.82477" lon="4.47127">
        <ele>670</ele>
        <time>2022-03-18T08:20:52Z</time>
      </trkpt>
      <trkpt lat="45.8261" lon="4.47116">
        <ele>671</ele>
        <time>2022-03-18T08:21:16Z</time>
      </trkpt>
      <trkpt lat="45.82621" lon="4.47113">
        <ele>672</ele>
        <time>2022-03-18T08:21:18Z</time>
      </trkpt>
      <trkpt lat="45.82695" lon="4.47067">
        <ele>670</ele>
        <time>2022-03-18T08:21:32Z</time>
      </trkpt>
      <trkpt lat="45.82753" lon="4.47026">
        <ele>672</ele>
        <time>2022-03-18T08:21:44Z</time>
      </trkpt>
      <trkpt lat="45.82785" lon="4.47011">
        <ele>671</ele>
        <time>2022-03-18T08:21:50Z</time>
      </trkpt>
      <trkpt lat="45.82829" lon="4.47009">
        <ele>673</ele>
        <time>2022-03-18T08:21:57Z</time>
      </trkpt>
      <trkpt lat="45.82879" lon="4.4702">
        <ele>674</ele>
        <time>2022-03-18T08:22:06Z</time>
      </trkpt>
      <trkpt lat="45.82936" lon="4.4704">
        <ele>674</ele>
        <time>2022-03-18T08:22:17Z</time>
      </trkpt>
      <trkpt lat="45.82976" lon="4.47066">
        <ele>675</ele>
        <time>2022-03-18T08:22:25Z</time>
      </trkpt>
      <trkpt lat="45.83001" lon="4.47105">
        <ele>678</ele>
        <time>2022-03-18T08:22:31Z</time>
      </trkpt>
      <trkpt lat="45.83024" lon="4.47183">
        <ele>683</ele>
        <time>2022-03-18T08:22:42Z</time>
      </trkpt>
      <trkpt lat="45.83047" lon="4.47278">
        <ele>689</ele>
        <time>2022-03-18T08:22:54Z</time>
      </trkpt>
      <trkpt lat="45.83073" lon="4.47347">
        <ele>688</ele>
        <time>2022-03-18T08:23:04Z</time>
      </trkpt>
      <trkpt lat="45.83106" lon="4.47405">
        <ele>687</ele>
        <time>2022-03-18T08:23:13Z</time>
      </trkpt>
      <trkpt lat="45.83159" lon="4.47458">
        <ele>688</ele>
        <time>2022-03-18T08:23:25Z</time>
      </trkpt>
      <trkpt lat="45.83187" lon="4.47501">
        <ele>689</ele>
        <time>2022-03-18T08:23:32Z</time>
      </trkpt>
      <trkpt lat="45.83202" lon="4.47547">
        <ele>688</ele>
        <time>2022-03-18T08:23:38Z</time>
      </trkpt>
      <trkpt lat="45.83202" lon="4.47618">
        <ele>691</ele>
        <time>2022-03-18T08:23:47Z</time>
      </trkpt>
      <trkpt lat="45.83208" lon="4.47659">
        <ele>690</ele>
        <time>2022-03-18T08:23:52Z</time>
      </trkpt>
      <trkpt lat="45.83246" lon="4.4777">
        <ele>690</ele>
        <time>2022-03-18T08:24:08Z</time>
      </trkpt>
      <trkpt lat="45.83256" lon="4.47809">
        <ele>692</ele>
        <time>2022-03-18T08:24:13Z</time>
      </trkpt>
      <trkpt lat="45.83245" lon="4.47897">
        <ele>690</ele>
        <time>2022-03-18T08:24:24Z</time>
      </trkpt>
      <trkpt lat="45.83246" lon="4.47931">
        <ele>688</ele>
        <time>2022-03-18T08:24:28Z</time>
      </trkpt>
      <trkpt lat="45.83256" lon="4.47953">
        <ele>685</ele>
        <time>2022-03-18T08:24:31Z</time>
      </trkpt>
      <trkpt lat="45.83279" lon="4.47978">
        <ele>683</ele>
        <time>2022-03-18T08:24:37Z</time>
      </trkpt>
      <trkpt lat="45.83291" lon="4.47986">
        <ele>682</ele>
        <time>2022-03-18T08:24:39Z</time>
      </trkpt>
      <trkpt lat="45.83345" lon="4.47996">
        <ele>684</ele>
        <time>2022-03-18T08:24:49Z</time>
      </trkpt>
      <trkpt lat="45.83368" lon="4.48006">
        <ele>684</ele>
        <time>2022-03-18T08:24:53Z</time>
      </trkpt>
      <trkpt lat="45.83486" lon="4.48073">
        <ele>673</ele>
        <time>2022-03-18T08:25:15Z</time>
      </trkpt>
      <trkpt lat="45.83528" lon="4.48107">
        <ele>669</ele>
        <time>2022-03-18T08:25:24Z</time>
      </trkpt>
      <trkpt lat="45.83554" lon="4.48134">
        <ele>668</ele>
        <time>2022-03-18T08:25:30Z</time>
      </trkpt>
      <trkpt lat="45.83568" lon="4.48155">
        <ele>667</ele>
        <time>2022-03-18T08:25:33Z</time>
      </trkpt>
      <trkpt lat="45.83579" lon="4.48185">
        <ele>665</ele>
        <time>2022-03-18T08:25:38Z</time>
      </trkpt>
      <trkpt lat="45.83597" lon="4.48298">
        <ele>660</ele>
        <time>2022-03-18T08:25:52Z</time>
      </trkpt>
      <trkpt lat="45.83622" lon="4.48379">
        <ele>659</ele>
        <time>2022-03-18T08:26:03Z</time>
      </trkpt>
      <trkpt lat="45.83625" lon="4.48402">
        <ele>658</ele>
        <time>2022-03-18T08:26:06Z</time>
      </trkpt>
      <trkpt lat="45.83613" lon="4.48544">
        <ele>652</ele>
        <time>2022-03-18T08:26:24Z</time>
      </trkpt>
      <trkpt lat="45.83598" lon="4.48621">
        <ele>647</ele>
        <time>2022-03-18T08:26:33Z</time>
      </trkpt>
      <trkpt lat="45.83583" lon="4.48733">
        <ele>642</ele>
        <time>2022-03-18T08:26:48Z</time>
      </trkpt>
      <trkpt lat="45.83584" lon="4.48779">
        <ele>638</ele>
        <time>2022-03-18T08:26:53Z</time>
      </trkpt>
      <trkpt lat="45.83592" lon="4.48807">
        <ele>636</ele>
        <time>2022-03-18T08:26:57Z</time>
      </trkpt>
      <trkpt lat="45.83609" lon="4.4883">
        <ele>636</ele>
        <time>2022-03-18T08:27:01Z</time>
      </trkpt>
      <trkpt lat="45.83637" lon="4.48853">
        <ele>641</ele>
        <time>2022-03-18T08:27:07Z</time>
      </trkpt>
      <trkpt lat="45.83642" lon="4.48864">
        <ele>641</ele>
        <time>2022-03-18T08:27:09Z</time>
      </trkpt>
      <trkpt lat="45.8364" lon="4.48888">
        <ele>640</ele>
        <time>2022-03-18T08:27:12Z</time>
      </trkpt>
      <trkpt lat="45.83631" lon="4.48918">
        <ele>636</ele>
        <time>2022-03-18T08:27:16Z</time>
      </trkpt>
      <trkpt lat="45.83597" lon="4.48984">
        <ele>631</ele>
        <time>2022-03-18T08:27:26Z</time>
      </trkpt>
      <trkpt lat="45.83586" lon="4.49021">
        <ele>627</ele>
        <time>2022-03-18T08:27:31Z</time>
      </trkpt>
      <trkpt lat="45.83586" lon="4.4905">
        <ele>625</ele>
        <time>2022-03-18T08:27:34Z</time>
      </trkpt>
      <trkpt lat="45.83596" lon="4.49074">
        <ele>625</ele>
        <time>2022-03-18T08:27:38Z</time>
      </trkpt>
      <trkpt lat="45.83622" lon="4.49118">
        <ele>627</ele>
        <time>2022-03-18T08:27:45Z</time>
      </trkpt>
      <trkpt lat="45.83632" lon="4.49144">
        <ele>627</ele>
        <time>2022-03-18T08:27:49Z</time>
      </trkpt>
      <trkpt lat="45.83632" lon="4.49171">
        <ele>625</ele>
        <time>2022-03-18T08:27:52Z</time>
      </trkpt>
      <trkpt lat="45.83622" lon="4.49194">
        <ele>625</ele>
        <time>2022-03-18T08:27:55Z</time>
      </trkpt>
      <trkpt lat="45.83579" lon="4.49228">
        <ele>620</ele>
        <time>2022-03-18T08:28:04Z</time>
      </trkpt>
      <trkpt lat="45.83547" lon="4.49241">
        <ele>616</ele>
        <time>2022-03-18T08:28:10Z</time>
      </trkpt>
      <trkpt lat="45.8347" lon="4.49266">
        <ele>608</ele>
        <time>2022-03-18T08:28:24Z</time>
      </trkpt>
      <trkpt lat="45.83449" lon="4.49275">
        <ele>606</ele>
        <time>2022-03-18T08:28:28Z</time>
      </trkpt>
      <trkpt lat="45.83426" lon="4.49292">
        <ele>606</ele>
        <time>2022-03-18T08:28:33Z</time>
      </trkpt>
      <trkpt lat="45.83375" lon="4.4934">
        <ele>602</ele>
        <time>2022-03-18T08:28:43Z</time>
      </trkpt>
      <trkpt lat="45.83356" lon="4.49368">
        <ele>602</ele>
        <time>2022-03-18T08:28:48Z</time>
      </trkpt>
      <trkpt lat="45.83319" lon="4.49435">
        <ele>600</ele>
        <time>2022-03-18T08:28:59Z</time>
      </trkpt>
      <trkpt lat="45.83294" lon="4.49475">
        <ele>597</ele>
        <time>2022-03-18T08:29:06Z</time>
      </trkpt>
      <trkpt lat="45.83258" lon="4.49519">
        <ele>591</ele>
        <time>2022-03-18T08:29:14Z</time>
      </trkpt>
      <trkpt lat="45.83233" lon="4.49561">
        <ele>591</ele>
        <time>2022-03-18T08:29:21Z</time>
      </trkpt>
      <trkpt lat="45.83214" lon="4.49585">
        <ele>589</ele>
        <time>2022-03-18T08:29:25Z</time>
      </trkpt>
      <trkpt lat="45.83157" lon="4.49636">
        <ele>581</ele>
        <time>2022-03-18T08:29:37Z</time>
      </trkpt>
      <trkpt lat="45.83145" lon="4.49651">
        <ele>579</ele>
        <time>2022-03-18T08:29:40Z</time>
      </trkpt>
      <trkpt lat="45.83134" lon="4.49674">
        <ele>578</ele>
        <time>2022-03-18T08:29:44Z</time>
      </trkpt>
      <trkpt lat="45.83089" lon="4.49796">
        <ele>576</ele>
        <time>2022-03-18T08:30:01Z</time>
      </trkpt>
      <trkpt lat="45.83078" lon="4.49835">
        <ele>575</ele>
        <time>2022-03-18T08:30:06Z</time>
      </trkpt>
      <trkpt lat="45.8307" lon="4.49876">
        <ele>574</ele>
        <time>2022-03-18T08:30:11Z</time>
      </trkpt>
      <trkpt lat="45.83069" lon="4.49915">
        <ele>575</ele>
        <time>2022-03-18T08:30:16Z</time>
      </trkpt>
      <trkpt lat="45.8307" lon="4.4994">
        <ele>575</ele>
        <time>2022-03-18T08:30:19Z</time>
      </trkpt>
      <trkpt lat="45.8308" lon="4.5002">
        <ele>576</ele>
        <time>2022-03-18T08:30:29Z</time>
      </trkpt>
      <trkpt lat="45.83086" lon="4.50094">
        <ele>572</ele>
        <time>2022-03-18T08:30:38Z</time>
      </trkpt>
      <trkpt lat="45.8309" lon="4.50138">
        <ele>568</ele>
        <time>2022-03-18T08:30:44Z</time>
      </trkpt>
      <trkpt lat="45.83095" lon="4.50163">
        <ele>567</ele>
        <time>2022-03-18T08:30:47Z</time>
      </trkpt>
      <trkpt lat="45.83105" lon="4.50195">
        <ele>563</ele>
        <time>2022-03-18T08:30:51Z</time>
      </trkpt>
      <trkpt lat="45.83112" lon="4.50212">
        <ele>562</ele>
        <time>2022-03-18T08:30:54Z</time>
      </trkpt>
      <trkpt lat="45.8312" lon="4.5022">
        <ele>562</ele>
        <time>2022-03-18T08:30:56Z</time>
      </trkpt>
      <trkpt lat="45.83167" lon="4.50226">
        <ele>573</ele>
        <time>2022-03-18T08:31:04Z</time>
      </trkpt>
      <trkpt lat="45.83179" lon="4.5023">
        <ele>574</ele>
        <time>2022-03-18T08:31:06Z</time>
      </trkpt>
      <trkpt lat="45.83186" lon="4.50237">
        <ele>574</ele>
        <time>2022-03-18T08:31:08Z</time>
      </trkpt>
      <trkpt lat="45.83205" lon="4.50264">
        <ele>571</ele>
        <time>2022-03-18T08:31:13Z</time>
      </trkpt>
      <trkpt lat="45.83223" lon="4.50307">
        <ele>563</ele>
        <time>2022-03-18T08:31:19Z</time>
      </trkpt>
      <trkpt lat="45.8325" lon="4.50343">
        <ele>559</ele>
        <time>2022-03-18T08:31:25Z</time>
      </trkpt>
      <trkpt lat="45.83292" lon="4.50381">
        <ele>554</ele>
        <time>2022-03-18T08:31:34Z</time>
      </trkpt>
      <trkpt lat="45.83347" lon="4.50418">
        <ele>550</ele>
        <time>2022-03-18T08:31:45Z</time>
      </trkpt>
      <trkpt lat="45.83396" lon="4.50443">
        <ele>549</ele>
        <time>2022-03-18T08:31:54Z</time>
      </trkpt>
      <trkpt lat="45.83416" lon="4.50462">
        <ele>546</ele>
        <time>2022-03-18T08:31:58Z</time>
      </trkpt>
      <trkpt lat="45.83447" lon="4.50507">
        <ele>540</ele>
        <time>2022-03-18T08:32:06Z</time>
      </trkpt>
      <trkpt lat="45.83458" lon="4.50534">
        <ele>536</ele>
        <time>2022-03-18T08:32:10Z</time>
      </trkpt>
      <trkpt lat="45.83502" lon="4.50614">
        <ele>525</ele>
        <time>2022-03-18T08:32:23Z</time>
      </trkpt>
      <trkpt lat="45.83515" lon="4.50624">
        <ele>523</ele>
        <time>2022-03-18T08:32:25Z</time>
      </trkpt>
      <trkpt lat="45.83526" lon="4.50618">
        <ele>523</ele>
        <time>2022-03-18T08:32:28Z</time>
      </trkpt>
      <trkpt lat="45.83549" lon="4.50577">
        <ele>530</ele>
        <time>2022-03-18T08:32:34Z</time>
      </trkpt>
      <trkpt lat="45.83568" lon="4.50564">
        <ele>532</ele>
        <time>2022-03-18T08:32:38Z</time>
      </trkpt>
      <trkpt lat="45.83605" lon="4.50567">
        <ele>531</ele>
        <time>2022-03-18T08:32:44Z</time>
      </trkpt>
      <trkpt lat="45.8362" lon="4.50579">
        <ele>529</ele>
        <time>2022-03-18T08:32:47Z</time>
      </trkpt>
      <trkpt lat="45.8364" lon="4.50607">
        <ele>525</ele>
        <time>2022-03-18T08:32:52Z</time>
      </trkpt>
      <trkpt lat="45.83665" lon="4.50651">
        <ele>522</ele>
        <time>2022-03-18T08:32:59Z</time>
      </trkpt>
      <trkpt lat="45.83704" lon="4.50709">
        <ele>518</ele>
        <time>2022-03-18T08:33:09Z</time>
      </trkpt>
      <trkpt lat="45.8372" lon="4.50726">
        <ele>517</ele>
        <time>2022-03-18T08:33:13Z</time>
      </trkpt>
      <trkpt lat="45.83754" lon="4.50748">
        <ele>516</ele>
        <time>2022-03-18T08:33:20Z</time>
      </trkpt>
      <trkpt lat="45.83761" lon="4.50754">
        <ele>516</ele>
        <time>2022-03-18T08:33:21Z</time>
      </trkpt>
      <trkpt lat="45.83772" lon="4.50769">
        <ele>515</ele>
        <time>2022-03-18T08:33:24Z</time>
      </trkpt>
      <trkpt lat="45.83832" lon="4.50948">
        <ele>508</ele>
        <time>2022-03-18T08:33:48Z</time>
      </trkpt>
      <trkpt lat="45.83881" lon="4.51139">
        <ele>503</ele>
        <time>2022-03-18T08:34:14Z</time>
      </trkpt>
      <trkpt lat="45.83884" lon="4.51163">
        <ele>502</ele>
        <time>2022-03-18T08:34:17Z</time>
      </trkpt>
      <trkpt lat="45.8388" lon="4.51189">
        <ele>502</ele>
        <time>2022-03-18T08:34:20Z</time>
      </trkpt>
      <trkpt lat="45.83848" lon="4.51256">
        <ele>500</ele>
        <time>2022-03-18T08:34:30Z</time>
      </trkpt>
      <trkpt lat="45.83823" lon="4.5133">
        <ele>500</ele>
        <time>2022-03-18T08:34:40Z</time>
      </trkpt>
      <trkpt lat="45.8382" lon="4.51359">
        <ele>500</ele>
        <time>2022-03-18T08:34:44Z</time>
      </trkpt>
      <trkpt lat="45.83824" lon="4.51506">
        <ele>500</ele>
        <time>2022-03-18T08:35:02Z</time>
      </trkpt>
      <trkpt lat="45.83827" lon="4.5153">
        <ele>498</ele>
        <time>2022-03-18T08:35:05Z</time>
      </trkpt>
      <trkpt lat="45.83879" lon="4.51699">
        <ele>493</ele>
        <time>2022-03-18T08:35:28Z</time>
      </trkpt>
      <trkpt lat="45.83881" lon="4.51707">
        <ele>493</ele>
        <time>2022-03-18T08:35:29Z</time>
      </trkpt>
      <trkpt lat="45.83882" lon="4.51722">
        <ele>493</ele>
        <time>2022-03-18T08:35:31Z</time>
      </trkpt>
      <trkpt lat="45.8388" lon="4.51734">
        <ele>491</ele>
        <time>2022-03-18T08:35:32Z</time>
      </trkpt>
      <trkpt lat="45.83876" lon="4.51745">
        <ele>490</ele>
        <time>2022-03-18T08:35:34Z</time>
      </trkpt>
      <trkpt lat="45.83836" lon="4.51815">
        <ele>486</ele>
        <time>2022-03-18T08:35:45Z</time>
      </trkpt>
      <trkpt lat="45.83811" lon="4.51871">
        <ele>484</ele>
        <time>2022-03-18T08:35:53Z</time>
      </trkpt>
      <trkpt lat="45.83779" lon="4.52065">
        <ele>480</ele>
        <time>2022-03-18T08:36:18Z</time>
      </trkpt>
      <trkpt lat="45.83779" lon="4.52104">
        <ele>479</ele>
        <time>2022-03-18T08:36:23Z</time>
      </trkpt>
      <trkpt lat="45.83788" lon="4.5217">
        <ele>480</ele>
        <time>2022-03-18T08:36:31Z</time>
      </trkpt>
      <trkpt lat="45.83789" lon="4.5222">
        <ele>481</ele>
        <time>2022-03-18T08:36:38Z</time>
      </trkpt>
      <trkpt lat="45.83775" lon="4.52253">
        <ele>478</ele>
        <time>2022-03-18T08:36:42Z</time>
      </trkpt>
      <trkpt lat="45.83729" lon="4.52318">
        <ele>475</ele>
        <time>2022-03-18T08:36:54Z</time>
      </trkpt>
      <trkpt lat="45.83684" lon="4.52393">
        <ele>471</ele>
        <time>2022-03-18T08:37:06Z</time>
      </trkpt>
      <trkpt lat="45.83635" lon="4.52464">
        <ele>469</ele>
        <time>2022-03-18T08:37:18Z</time>
      </trkpt>
      <trkpt lat="45.83604" lon="4.52521">
        <ele>465</ele>
        <time>2022-03-18T08:37:27Z</time>
      </trkpt>
      <trkpt lat="45.83588" lon="4.52576">
        <ele>464</ele>
        <time>2022-03-18T08:37:35Z</time>
      </trkpt>
      <trkpt lat="45.83585" lon="4.52608">
        <ele>462</ele>
        <time>2022-03-18T08:37:39Z</time>
      </trkpt>
      <trkpt lat="45.83587" lon="4.52644">
        <ele>463</ele>
        <time>2022-03-18T08:37:43Z</time>
      </trkpt>
      <trkpt lat="45.83604" lon="4.52746">
        <ele>463</ele>
        <time>2022-03-18T08:37:56Z</time>
      </trkpt>
      <trkpt lat="45.83605" lon="4.52802">
        <ele>461</ele>
        <time>2022-03-18T08:38:03Z</time>
      </trkpt>
      <trkpt lat="45.83601" lon="4.52833">
        <ele>459</ele>
        <time>2022-03-18T08:38:07Z</time>
      </trkpt>
      <trkpt lat="45.83569" lon="4.52954">
        <ele>453</ele>
        <time>2022-03-18T08:38:23Z</time>
      </trkpt>
      <trkpt lat="45.8356" lon="4.52972">
        <ele>452</ele>
        <time>2022-03-18T08:38:26Z</time>
      </trkpt>
      <trkpt lat="45.83549" lon="4.52987">
        <ele>451</ele>
        <time>2022-03-18T08:38:29Z</time>
      </trkpt>
      <trkpt lat="45.83533" lon="4.53001">
        <ele>449</ele>
        <time>2022-03-18T08:38:32Z</time>
      </trkpt>
      <trkpt lat="45.83481" lon="4.53026">
        <ele>446</ele>
        <time>2022-03-18T08:38:42Z</time>
      </trkpt>
      <trkpt lat="45.83467" lon="4.53039">
        <ele>446</ele>
        <time>2022-03-18T08:38:45Z</time>
      </trkpt>
      <trkpt lat="45.83425" lon="4.53107">
        <ele>447</ele>
        <time>2022-03-18T08:38:56Z</time>
      </trkpt>
      <trkpt lat="45.8341" lon="4.5312">
        <ele>445</ele>
        <time>2022-03-18T08:38:59Z</time>
      </trkpt>
      <trkpt lat="45.83361" lon="4.53144">
        <ele>439</ele>
        <time>2022-03-18T08:39:08Z</time>
      </trkpt>
      <trkpt lat="45.83339" lon="4.53163">
        <ele>438</ele>
        <time>2022-03-18T08:39:13Z</time>
      </trkpt>
      <trkpt lat="45.83322" lon="4.532">
        <ele>438</ele>
        <time>2022-03-18T08:39:18Z</time>
      </trkpt>
      <trkpt lat="45.83269" lon="4.53347">
        <ele>435</ele>
        <time>2022-03-18T08:39:39Z</time>
      </trkpt>
      <trkpt lat="45.83269" lon="4.53371">
        <ele>436</ele>
        <time>2022-03-18T08:39:42Z</time>
      </trkpt>
      <trkpt lat="45.83263" lon="4.53453">
        <ele>435</ele>
        <time>2022-03-18T08:39:52Z</time>
      </trkpt>
      <trkpt lat="45.83249" lon="4.53523">
        <ele>432</ele>
        <time>2022-03-18T08:40:01Z</time>
      </trkpt>
      <trkpt lat="45.83224" lon="4.53569">
        <ele>430</ele>
        <time>2022-03-18T08:40:08Z</time>
      </trkpt>
      <trkpt lat="45.83156" lon="4.53635">
        <ele>427</ele>
        <time>2022-03-18T08:40:23Z</time>
      </trkpt>
      <trkpt lat="45.83121" lon="4.53683">
        <ele>426</ele>
        <time>2022-03-18T08:40:32Z</time>
      </trkpt>
      <trkpt lat="45.83073" lon="4.53753">
        <ele>422</ele>
        <time>2022-03-18T08:40:44Z</time>
      </trkpt>
      <trkpt lat="45.83044" lon="4.53822">
        <ele>419</ele>
        <time>2022-03-18T08:40:54Z</time>
      </trkpt>
      <trkpt lat="45.83037" lon="4.53914">
        <ele>420</ele>
        <time>2022-03-18T08:41:05Z</time>
      </trkpt>
      <trkpt lat="45.83024" lon="4.53936">
        <ele>422</ele>
        <time>2022-03-18T08:41:09Z</time>
      </trkpt>
      <trkpt lat="45.83008" lon="4.53935">
        <ele>420</ele>
        <time>2022-03-18T08:41:12Z</time>
      </trkpt>
      <trkpt lat="45.82956" lon="4.5392">
        <ele>416</ele>
        <time>2022-03-18T08:41:21Z</time>
      </trkpt>
      <trkpt lat="45.82858" lon="4.53943">
        <ele>414</ele>
        <time>2022-03-18T08:41:39Z</time>
      </trkpt>
      <trkpt lat="45.82823" lon="4.53973">
        <ele>416</ele>
        <time>2022-03-18T08:41:46Z</time>
      </trkpt>
      <trkpt lat="45.82801" lon="4.54004">
        <ele>416</ele>
        <time>2022-03-18T08:41:51Z</time>
      </trkpt>
      <trkpt lat="45.82772" lon="4.54058">
        <ele>418</ele>
        <time>2022-03-18T08:42:00Z</time>
      </trkpt>
      <trkpt lat="45.82749" lon="4.54093">
        <ele>416</ele>
        <time>2022-03-18T08:42:06Z</time>
      </trkpt>
      <trkpt lat="45.82686" lon="4.54153">
        <ele>408</ele>
        <time>2022-03-18T08:42:19Z</time>
      </trkpt>
      <trkpt lat="45.82636" lon="4.54219">
        <ele>405</ele>
        <time>2022-03-18T08:42:31Z</time>
      </trkpt>
      <trkpt lat="45.82533" lon="4.54393">
        <ele>401</ele>
        <time>2022-03-18T08:43:00Z</time>
      </trkpt>
      <trkpt lat="45.82513" lon="4.54433">
        <ele>401</ele>
        <time>2022-03-18T08:43:06Z</time>
      </trkpt>
      <trkpt lat="45.82509" lon="4.54465">
        <ele>401</ele>
        <time>2022-03-18T08:43:10Z</time>
      </trkpt>
      <trkpt lat="45.82503" lon="4.54553">
        <ele>402</ele>
        <time>2022-03-18T08:43:21Z</time>
      </trkpt>
      <trkpt lat="45.82498" lon="4.54567">
        <ele>402</ele>
        <time>2022-03-18T08:43:23Z</time>
      </trkpt>
      <trkpt lat="45.82492" lon="4.54581">
        <ele>402</ele>
        <time>2022-03-18T08:43:25Z</time>
      </trkpt>
      <trkpt lat="45.82482" lon="4.54585">
        <ele>402</ele>
        <time>2022-03-18T08:43:27Z</time>
      </trkpt>
      <trkpt lat="45.82473" lon="4.54584">
        <ele>401</ele>
        <time>2022-03-18T08:43:28Z</time>
      </trkpt>
      <trkpt lat="45.82428" lon="4.54559">
        <ele>399</ele>
        <time>2022-03-18T08:43:37Z</time>
      </trkpt>
      <trkpt lat="45.82391" lon="4.54546">
        <ele>397</ele>
        <time>2022-03-18T08:43:44Z</time>
      </trkpt>
      <trkpt lat="45.82332" lon="4.54539">
        <ele>395</ele>
        <time>2022-03-18T08:43:54Z</time>
      </trkpt>
      <trkpt lat="45.82174" lon="4.54588">
        <ele>389</ele>
        <time>2022-03-18T08:44:23Z</time>
      </trkpt>
      <trkpt lat="45.8206" lon="4.54605">
        <ele>391</ele>
        <time>2022-03-18T08:44:43Z</time>
      </trkpt>
      <trkpt lat="45.82011" lon="4.54592">
        <ele>389</ele>
        <time>2022-03-18T08:44:52Z</time>
      </trkpt>
      <trkpt lat="45.81948" lon="4.54549">
        <ele>383</ele>
        <time>2022-03-18T08:45:05Z</time>
      </trkpt>
      <trkpt lat="45.8191" lon="4.54534">
        <ele>381</ele>
        <time>2022-03-18T08:45:12Z</time>
      </trkpt>
      <trkpt lat="45.81871" lon="4.54537">
        <ele>379</ele>
        <time>2022-03-18T08:45:19Z</time>
      </trkpt>
      <trkpt lat="45.81837" lon="4.54551">
        <ele>377</ele>
        <time>2022-03-18T08:45:25Z</time>
      </trkpt>
      <trkpt lat="45.81808" lon="4.54576">
        <ele>375</ele>
        <time>2022-03-18T08:45:31Z</time>
      </trkpt>
      <trkpt lat="45.81788" lon="4.54614">
        <ele>375</ele>
        <time>2022-03-18T08:45:37Z</time>
      </trkpt>
      <trkpt lat="45.81761" lon="4.54739">
        <ele>377</ele>
        <time>2022-03-18T08:45:53Z</time>
      </trkpt>
      <trkpt lat="45.81759" lon="4.54813">
        <ele>380</ele>
        <time>2022-03-18T08:46:02Z</time>
      </trkpt>
      <trkpt lat="45.81745" lon="4.5483">
        <ele>377</ele>
        <time>2022-03-18T08:46:05Z</time>
      </trkpt>
      <trkpt lat="45.81699" lon="4.54837">
        <ele>372</ele>
        <time>2022-03-18T08:46:14Z</time>
      </trkpt>
      <trkpt lat="45.81671" lon="4.54853">
        <ele>370</ele>
        <time>2022-03-18T08:46:19Z</time>
      </trkpt>
      <trkpt lat="45.81645" lon="4.54877">
        <ele>368</ele>
        <time>2022-03-18T08:46:25Z</time>
      </trkpt>
      <trkpt lat="45.81617" lon="4.54921">
        <ele>365</ele>
        <time>2022-03-18T08:46:32Z</time>
      </trkpt>
      <trkpt lat="45.81604" lon="4.54957">
        <ele>364</ele>
        <time>2022-03-18T08:46:37Z</time>
      </trkpt>
      <trkpt lat="45.816" lon="4.54979">
        <ele>363</ele>
        <time>2022-03-18T08:46:40Z</time>
      </trkpt>
      <trkpt lat="45.81599" lon="4.55002">
        <ele>364</ele>
        <time>2022-03-18T08:46:43Z</time>
      </trkpt>
      <trkpt lat="45.81602" lon="4.55139">
        <ele>366</ele>
        <time>2022-03-18T08:47:00Z</time>
      </trkpt>
      <trkpt lat="45.81601" lon="4.55161">
        <ele>366</ele>
        <time>2022-03-18T08:47:02Z</time>
      </trkpt>
      <trkpt lat="45.81595" lon="4.55203">
        <ele>367</ele>
        <time>2022-03-18T08:47:08Z</time>
      </trkpt>
      <trkpt lat="45.81587" lon="4.55243">
        <ele>368</ele>
        <time>2022-03-18T08:47:13Z</time>
      </trkpt>
      <trkpt lat="45.81577" lon="4.55274">
        <ele>367</ele>
        <time>2022-03-18T08:47:17Z</time>
      </trkpt>
      <trkpt lat="45.81533" lon="4.55354">
        <ele>359</ele>
        <time>2022-03-18T08:47:30Z</time>
      </trkpt>
      <trkpt lat="45.81528" lon="4.55372">
        <ele>358</ele>
        <time>2022-03-18T08:47:32Z</time>
      </trkpt>
      <trkpt lat="45.81527" lon="4.55392">
        <ele>359</ele>
        <time>2022-03-18T08:47:35Z</time>
      </trkpt>
      <trkpt lat="45.81527" lon="4.55421">
        <ele>359</ele>
        <time>2022-03-18T08:47:38Z</time>
      </trkpt>
      <trkpt lat="45.81531" lon="4.55447">
        <ele>358</ele>
        <time>2022-03-18T08:47:42Z</time>
      </trkpt>
      <trkpt lat="45.81554" lon="4.55501">
        <ele>360</ele>
        <time>2022-03-18T08:47:49Z</time>
      </trkpt>
      <trkpt lat="45.81559" lon="4.55519">
        <ele>361</ele>
        <time>2022-03-18T08:47:52Z</time>
      </trkpt>
      <trkpt lat="45.81556" lon="4.55537">
        <ele>360</ele>
        <time>2022-03-18T08:47:54Z</time>
      </trkpt>
      <trkpt lat="45.81543" lon="4.55585">
        <ele>354</ele>
        <time>2022-03-18T08:48:00Z</time>
      </trkpt>
      <trkpt lat="45.81534" lon="4.55632">
        <ele>352</ele>
        <time>2022-03-18T08:48:07Z</time>
      </trkpt>
      <trkpt lat="45.81534" lon="4.55662">
        <ele>352</ele>
        <time>2022-03-18T08:48:10Z</time>
      </trkpt>
      <trkpt lat="45.81539" lon="4.5568">
        <ele>352</ele>
        <time>2022-03-18T08:48:13Z</time>
      </trkpt>
      <trkpt lat="45.81545" lon="4.55694">
        <ele>353</ele>
        <time>2022-03-18T08:48:15Z</time>
      </trkpt>
      <trkpt lat="45.81578" lon="4.55752">
        <ele>356</ele>
        <time>2022-03-18T08:48:24Z</time>
      </trkpt>
      <trkpt lat="45.81603" lon="4.55782">
        <ele>354</ele>
        <time>2022-03-18T08:48:30Z</time>
      </trkpt>
      <trkpt lat="45.8164" lon="4.558">
        <ele>356</ele>
        <time>2022-03-18T08:48:37Z</time>
      </trkpt>
      <trkpt lat="45.81671" lon="4.55809">
        <ele>360</ele>
        <time>2022-03-18T08:48:42Z</time>
      </trkpt>
      <trkpt lat="45.81701" lon="4.55827">
        <ele>360</ele>
        <time>2022-03-18T08:48:48Z</time>
      </trkpt>
      <trkpt lat="45.81705" lon="4.55838">
        <ele>359</ele>
        <time>2022-03-18T08:48:50Z</time>
      </trkpt>
      <trkpt lat="45.81705" lon="4.55856">
        <ele>360</ele>
        <time>2022-03-18T08:48:52Z</time>
      </trkpt>
      <trkpt lat="45.817" lon="4.55865">
        <ele>359</ele>
        <time>2022-03-18T08:48:53Z</time>
      </trkpt>
      <trkpt lat="45.81692" lon="4.55872">
        <ele>358</ele>
        <time>2022-03-18T08:48:55Z</time>
      </trkpt>
      <trkpt lat="45.81619" lon="4.55933">
        <ele>344</ele>
        <time>2022-03-18T08:49:10Z</time>
      </trkpt>
      <trkpt lat="45.81609" lon="4.55952">
        <ele>343</ele>
        <time>2022-03-18T08:49:13Z</time>
      </trkpt>
      <trkpt lat="45.81602" lon="4.55972">
        <ele>343</ele>
        <time>2022-03-18T08:49:16Z</time>
      </trkpt>
      <trkpt lat="45.81594" lon="4.56012">
        <ele>343</ele>
        <time>2022-03-18T08:49:21Z</time>
      </trkpt>
      <trkpt lat="45.81592" lon="4.56032">
        <ele>342</ele>
        <time>2022-03-18T08:49:23Z</time>
      </trkpt>
      <trkpt lat="45.81592" lon="4.56052">
        <ele>342</ele>
        <time>2022-03-18T08:49:26Z</time>
      </trkpt>
      <trkpt lat="45.81595" lon="4.56066">
        <ele>342</ele>
        <time>2022-03-18T08:49:28Z</time>
      </trkpt>
      <trkpt lat="45.81613" lon="4.56096">
        <ele>347</ele>
        <time>2022-03-18T08:49:33Z</time>
      </trkpt>
      <trkpt lat="45.81618" lon="4.56107">
        <ele>349</ele>
        <time>2022-03-18T08:49:34Z</time>
      </trkpt>
      <trkpt lat="45.81615" lon="4.56121">
        <ele>349</ele>
        <time>2022-03-18T08:49:36Z</time>
      </trkpt>
      <trkpt lat="45.81612" lon="4.56129">
        <ele>349</ele>
        <time>2022-03-18T08:49:37Z</time>
      </trkpt>
      <trkpt lat="45.81607" lon="4.56135">
        <ele>348</ele>
        <time>2022-03-18T08:49:38Z</time>
      </trkpt>
      <trkpt lat="45.81556" lon="4.56174">
        <ele>338</ele>
        <time>2022-03-18T08:49:49Z</time>
      </trkpt>
      <trkpt lat="45.81483" lon="4.56265">
        <ele>335</ele>
        <time>2022-03-18T08:50:06Z</time>
      </trkpt>
      <trkpt lat="45.81452" lon="4.563">
        <ele>334</ele>
        <time>2022-03-18T08:50:13Z</time>
      </trkpt>
      <trkpt lat="45.81419" lon="4.56294">
        <ele>327</ele>
        <time>2022-03-18T08:50:19Z</time>
      </trkpt>
      <trkpt lat="45.81393" lon="4.56311">
        <ele>324</ele>
        <time>2022-03-18T08:50:24Z</time>
      </trkpt>
      <trkpt lat="45.81373" lon="4.56369">
        <ele>324</ele>
        <time>2022-03-18T08:50:32Z</time>
      </trkpt>
      <trkpt lat="45.81365" lon="4.56444">
        <ele>324</ele>
        <time>2022-03-18T08:50:41Z</time>
      </trkpt>
      <trkpt lat="45.81376" lon="4.56509">
        <ele>327</ele>
        <time>2022-03-18T08:50:50Z</time>
      </trkpt>
      <trkpt lat="45.81374" lon="4.56522">
        <ele>327</ele>
        <time>2022-03-18T08:50:51Z</time>
      </trkpt>
      <trkpt lat="45.81365" lon="4.56539">
        <ele>325</ele>
        <time>2022-03-18T08:50:54Z</time>
      </trkpt>
      <trkpt lat="45.81353" lon="4.56556">
        <ele>322</ele>
        <time>2022-03-18T08:50:57Z</time>
      </trkpt>
      <trkpt lat="45.81344" lon="4.5658">
        <ele>320</ele>
        <time>2022-03-18T08:51:00Z</time>
      </trkpt>
      <trkpt lat="45.81342" lon="4.56597">
        <ele>319</ele>
        <time>2022-03-18T08:51:02Z</time>
      </trkpt>
      <trkpt lat="45.81345" lon="4.56612">
        <ele>318</ele>
        <time>2022-03-18T08:51:04Z</time>
      </trkpt>
      <trkpt lat="45.81354" lon="4.5663">
        <ele>319</ele>
        <time>2022-03-18T08:51:07Z</time>
      </trkpt>
      <trkpt lat="45.81368" lon="4.56676">
        <ele>319</ele>
        <time>2022-03-18T08:51:13Z</time>
      </trkpt>
      <trkpt lat="45.81376" lon="4.5673">
        <ele>315</ele>
        <time>2022-03-18T08:51:20Z</time>
      </trkpt>
      <trkpt lat="45.81386" lon="4.56745">
        <ele>316</ele>
        <time>2022-03-18T08:51:23Z</time>
      </trkpt>
      <trkpt lat="45.81454" lon="4.56725">
        <ele>329</ele>
        <time>2022-03-18T08:51:35Z</time>
      </trkpt>
      <trkpt lat="45.81461" lon="4.56734">
        <ele>329</ele>
        <time>2022-03-18T08:51:37Z</time>
      </trkpt>
      <trkpt lat="45.81465" lon="4.56747">
        <ele>329</ele>
        <time>2022-03-18T08:51:39Z</time>
      </trkpt>
      <trkpt lat="45.81464" lon="4.56762">
        <ele>328</ele>
        <time>2022-03-18T08:51:40Z</time>
      </trkpt>
      <trkpt lat="45.81382" lon="4.5686">
        <ele>315</ele>
        <time>2022-03-18T08:51:59Z</time>
      </trkpt>
      <trkpt lat="45.81324" lon="4.56925">
        <ele>313</ele>
        <time>2022-03-18T08:52:12Z</time>
      </trkpt>
      <trkpt lat="45.81276" lon="4.5695">
        <ele>305</ele>
        <time>2022-03-18T08:52:22Z</time>
      </trkpt>
      <trkpt lat="45.81262" lon="4.57">
        <ele>306</ele>
        <time>2022-03-18T08:52:28Z</time>
      </trkpt>
      <trkpt lat="45.81289" lon="4.57153">
        <ele>307</ele>
        <time>2022-03-18T08:52:48Z</time>
      </trkpt>
      <trkpt lat="45.81293" lon="4.57202">
        <ele>303</ele>
        <time>2022-03-18T08:52:54Z</time>
      </trkpt>
      <trkpt lat="45.81322" lon="4.57283">
        <ele>297</ele>
        <time>2022-03-18T08:53:05Z</time>
      </trkpt>
      <trkpt lat="45.8134" lon="4.57302">
        <ele>296</ele>
        <time>2022-03-18T08:53:09Z</time>
      </trkpt>
      <trkpt lat="45.81433" lon="4.573">
        <ele>304</ele>
        <time>2022-03-18T08:53:26Z</time>
      </trkpt>
      <trkpt lat="45.81477" lon="4.57338">
        <ele>298</ele>
        <time>2022-03-18T08:53:35Z</time>
      </trkpt>
      <trkpt lat="45.81505" lon="4.5738">
        <ele>296</ele>
        <time>2022-03-18T08:53:42Z</time>
      </trkpt>
      <trkpt lat="45.81516" lon="4.57401">
        <ele>295</ele>
        <time>2022-03-18T08:53:45Z</time>
      </trkpt>
      <trkpt lat="45.81568" lon="4.5746">
        <ele>295</ele>
        <time>2022-03-18T08:53:57Z</time>
      </trkpt>
      <trkpt lat="45.81636" lon="4.57488">
        <ele>297</ele>
        <time>2022-03-18T08:54:10Z</time>
      </trkpt>
      <trkpt lat="45.81644" lon="4.57489">
        <ele>297</ele>
        <time>2022-03-18T08:54:11Z</time>
      </trkpt>
      <trkpt lat="45.8166" lon="4.57541">
        <ele>294</ele>
        <time>2022-03-18T08:54:18Z</time>
      </trkpt>
      <trkpt lat="45.81783" lon="4.57699">
        <ele>286</ele>
        <time>2022-03-18T08:54:48Z</time>
      </trkpt>
      <trkpt lat="45.81805" lon="4.57734">
        <ele>285</ele>
        <time>2022-03-18T08:54:53Z</time>
      </trkpt>
      <trkpt lat="45.81813" lon="4.57771">
        <ele>285</ele>
        <time>2022-03-18T08:54:58Z</time>
      </trkpt>
      <trkpt lat="45.81813" lon="4.57815">
        <ele>284</ele>
        <time>2022-03-18T08:55:04Z</time>
      </trkpt>
      <trkpt lat="45.81801" lon="4.57861">
        <ele>283</ele>
        <time>2022-03-18T08:55:10Z</time>
      </trkpt>
      <trkpt lat="45.81759" lon="4.57928">
        <ele>280</ele>
        <time>2022-03-18T08:55:21Z</time>
      </trkpt>
      <trkpt lat="45.81709" lon="4.57992">
        <ele>277</ele>
        <time>2022-03-18T08:55:33Z</time>
      </trkpt>
      <trkpt lat="45.81678" lon="4.58039">
        <ele>276</ele>
        <time>2022-03-18T08:55:41Z</time>
      </trkpt>
      <trkpt lat="45.81636" lon="4.58126">
        <ele>274</ele>
        <time>2022-03-18T08:55:54Z</time>
      </trkpt>
      <trkpt lat="45.81582" lon="4.58253">
        <ele>269</ele>
        <time>2022-03-18T08:56:12Z</time>
      </trkpt>
      <trkpt lat="45.81536" lon="4.58357">
        <ele>266</ele>
        <time>2022-03-18T08:56:28Z</time>
      </trkpt>
      <trkpt lat="45.81528" lon="4.58383">
        <ele>266</ele>
        <time>2022-03-18T08:56:31Z</time>
      </trkpt>
      <trkpt lat="45.81523" lon="4.58405">
        <ele>266</ele>
        <time>2022-03-18T08:56:34Z</time>
      </trkpt>
      <trkpt lat="45.8152" lon="4.58443">
        <ele>266</ele>
        <time>2022-03-18T08:56:39Z</time>
      </trkpt>
      <trkpt lat="45.81511" lon="4.58631">
        <ele>263</ele>
        <time>2022-03-18T08:57:02Z</time>
      </trkpt>
      <trkpt lat="45.81507" lon="4.58671">
        <ele>262</ele>
        <time>2022-03-18T08:57:07Z</time>
      </trkpt>
      <trkpt lat="45.81498" lon="4.58712">
        <ele>263</ele>
        <time>2022-03-18T08:57:13Z</time>
      </trkpt>
      <trkpt lat="45.81486" lon="4.58746">
        <ele>264</ele>
        <time>2022-03-18T08:57:17Z</time>
      </trkpt>
      <trkpt lat="45.81434" lon="4.58873">
        <ele>260</ele>
        <time>2022-03-18T08:57:36Z</time>
      </trkpt>
      <trkpt lat="45.81414" lon="4.58948">
        <ele>258</ele>
        <time>2022-03-18T08:57:46Z</time>
      </trkpt>
      <trkpt lat="45.8138" lon="4.59104">
        <ele>260</ele>
        <time>2022-03-18T08:58:06Z</time>
      </trkpt>
      <trkpt lat="45.81374" lon="4.59121">
        <ele>260</ele>
        <time>2022-03-18T08:58:08Z</time>
      </trkpt>
      <trkpt lat="45.81336" lon="4.59196">
        <ele>254</ele>
        <time>2022-03-18T08:58:20Z</time>
      </trkpt>
      <trkpt lat="45.81329" lon="4.59217">
        <ele>254</ele>
        <time>2022-03-18T08:58:23Z</time>
      </trkpt>
      <trkpt lat="45.81319" lon="4.59252">
        <ele>254</ele>
        <time>2022-03-18T08:58:27Z</time>
      </trkpt>
      <trkpt lat="45.81302" lon="4.59326">
        <ele>258</ele>
        <time>2022-03-18T08:58:37Z</time>
      </trkpt>
      <trkpt lat="45.81293" lon="4.59349">
        <ele>258</ele>
        <time>2022-03-18T08:58:40Z</time>
      </trkpt>
      <trkpt lat="45.81249" lon="4.59433">
        <ele>253</ele>
        <time>2022-03-18T08:58:53Z</time>
      </trkpt>
      <trkpt lat="45.81195" lon="4.594">
        <ele>249</ele>
        <time>2022-03-18T08:59:04Z</time>
      </trkpt>
      <trkpt lat="45.81184" lon="4.59392">
        <ele>248</ele>
        <time>2022-03-18T08:59:06Z</time>
      </trkpt>
      <trkpt lat="45.81125" lon="4.59354">
        <ele>251</ele>
        <time>2022-03-18T08:59:17Z</time>
      </trkpt>
      <trkpt lat="45.81112" lon="4.59355">
        <ele>251</ele>
        <time>2022-03-18T08:59:20Z</time>
      </trkpt>
      <trkpt lat="45.81106" lon="4.59359">
        <ele>251</ele>
        <time>2022-03-18T08:59:21Z</time>
      </trkpt>
      <trkpt lat="45.81101" lon="4.59371">
        <ele>251</ele>
        <time>2022-03-18T08:59:23Z</time>
      </trkpt>
      <trkpt lat="45.81056" lon="4.59601">
        <ele>245</ele>
        <time>2022-03-18T08:59:52Z</time>
      </trkpt>
      <trkpt lat="45.81045" lon="4.59638">
        <ele>246</ele>
        <time>2022-03-18T08:59:57Z</time>
      </trkpt>
      <trkpt lat="45.8104" lon="4.5966">
        <ele>246</ele>
        <time>2022-03-18T09:00:00Z</time>
      </trkpt>
      <trkpt lat="45.81039" lon="4.59683">
        <ele>247</ele>
        <time>2022-03-18T09:00:03Z</time>
      </trkpt>
      <trkpt lat="45.81039" lon="4.59708">
        <ele>247</ele>
        <time>2022-03-18T09:00:06Z</time>
      </trkpt>
      <trkpt lat="45.81048" lon="4.59766">
        <ele>248</ele>
        <time>2022-03-18T09:00:13Z</time>
      </trkpt>
      <trkpt lat="45.81047" lon="4.59779">
        <ele>248</ele>
        <time>2022-03-18T09:00:15Z</time>
      </trkpt>
      <trkpt lat="45.81031" lon="4.59835">
        <ele>247</ele>
        <time>2022-03-18T09:00:23Z</time>
      </trkpt>
      <trkpt lat="45.81022" lon="4.59889">
        <ele>243</ele>
        <time>2022-03-18T09:00:29Z</time>
      </trkpt>
      <trkpt lat="45.81018" lon="4.59921">
        <ele>242</ele>
        <time>2022-03-18T09:00:33Z</time>
      </trkpt>
      <trkpt lat="45.81017" lon="4.59981">
        <ele>241</ele>
        <time>2022-03-18T09:00:41Z</time>
      </trkpt>
      <trkpt lat="45.81016" lon="4.59982">
        <ele>240</ele>
        <time>2022-03-18T09:00:41Z</time>
      </trkpt>
      <trkpt lat="45.81017" lon="4.59981">
        <ele>241</ele>
        <time>2022-03-18T09:00:41Z</time>
      </trkpt>
      <trkpt lat="45.81018" lon="4.59921">
        <ele>242</ele>
        <time>2022-03-18T09:00:49Z</time>
      </trkpt>
      <trkpt lat="45.81022" lon="4.59889">
        <ele>243</ele>
        <time>2022-03-18T09:00:53Z</time>
      </trkpt>
      <trkpt lat="45.81031" lon="4.59835">
        <ele>247</ele>
        <time>2022-03-18T09:01:00Z</time>
      </trkpt>
      <trkpt lat="45.81047" lon="4.59779">
        <ele>248</ele>
        <time>2022-03-18T09:01:07Z</time>
      </trkpt>
      <trkpt lat="45.81048" lon="4.59766">
        <ele>248</ele>
        <time>2022-03-18T09:01:09Z</time>
      </trkpt>
      <trkpt lat="45.8106" lon="4.59762">
        <ele>249</ele>
        <time>2022-03-18T09:01:11Z</time>
      </trkpt>
      <trkpt lat="45.81134" lon="4.59716">
        <ele>252</ele>
        <time>2022-03-18T09:01:25Z</time>
      </trkpt>
      <trkpt lat="45.81147" lon="4.5969">
        <ele>250</ele>
        <time>2022-03-18T09:01:29Z</time>
      </trkpt>
      <trkpt lat="45.8117" lon="4.59612">
        <ele>250</ele>
        <time>2022-03-18T09:01:40Z</time>
      </trkpt>
      <trkpt lat="45.81191" lon="4.59559">
        <ele>254</ele>
        <time>2022-03-18T09:01:47Z</time>
      </trkpt>
      <trkpt lat="45.81249" lon="4.59433">
        <ele>253</ele>
        <time>2022-03-18T09:02:06Z</time>
      </trkpt>
      <trkpt lat="45.81293" lon="4.59349">
        <ele>258</ele>
        <time>2022-03-18T09:02:19Z</time>
      </trkpt>
      <trkpt lat="45.81302" lon="4.59326">
        <ele>258</ele>
        <time>2022-03-18T09:02:22Z</time>
      </trkpt>
      <trkpt lat="45.81319" lon="4.59252">
        <ele>254</ele>
        <time>2022-03-18T09:02:32Z</time>
      </trkpt>
      <trkpt lat="45.81329" lon="4.59217">
        <ele>254</ele>
        <time>2022-03-18T09:02:37Z</time>
      </trkpt>
      <trkpt lat="45.81336" lon="4.59196">
        <ele>254</ele>
        <time>2022-03-18T09:02:40Z</time>
      </trkpt>
      <trkpt lat="45.81374" lon="4.59121">
        <ele>260</ele>
        <time>2022-03-18T09:02:51Z</time>
      </trkpt>
      <trkpt lat="45.8138" lon="4.59104">
        <ele>260</ele>
        <time>2022-03-18T09:02:54Z</time>
      </trkpt>
      <trkpt lat="45.81414" lon="4.58948">
        <ele>258</ele>
        <time>2022-03-18T09:03:14Z</time>
      </trkpt>
      <trkpt lat="45.81434" lon="4.58873">
        <ele>260</ele>
        <time>2022-03-18T09:03:24Z</time>
      </trkpt>
      <trkpt lat="45.81486" lon="4.58746">
        <ele>264</ele>
        <time>2022-03-18T09:03:42Z</time>
      </trkpt>
      <trkpt lat="45.81498" lon="4.58712">
        <ele>263</ele>
        <time>2022-03-18T09:03:47Z</time>
      </trkpt>
      <trkpt lat="45.81507" lon="4.58671">
        <ele>262</ele>
        <time>2022-03-18T09:03:52Z</time>
      </trkpt>
      <trkpt lat="45.81511" lon="4.58631">
        <ele>263</ele>
        <time>2022-03-18T09:03:57Z</time>
      </trkpt>
      <trkpt lat="45.8152" lon="4.58443">
        <ele>266</ele>
        <time>2022-03-18T09:04:20Z</time>
      </trkpt>
      <trkpt lat="45.81523" lon="4.58405">
        <ele>266</ele>
        <time>2022-03-18T09:04:25Z</time>
      </trkpt>
      <trkpt lat="45.81528" lon="4.58383">
        <ele>266</ele>
        <time>2022-03-18T09:04:28Z</time>
      </trkpt>
      <trkpt lat="45.81536" lon="4.58357">
        <ele>266</ele>
        <time>2022-03-18T09:04:32Z</time>
      </trkpt>
      <trkpt lat="45.81582" lon="4.58253">
        <ele>269</ele>
        <time>2022-03-18T09:04:47Z</time>
      </trkpt>
      <trkpt lat="45.81636" lon="4.58126">
        <ele>274</ele>
        <time>2022-03-18T09:05:05Z</time>
      </trkpt>
      <trkpt lat="45.81678" lon="4.58039">
        <ele>276</ele>
        <time>2022-03-18T09:05:18Z</time>
      </trkpt>
      <trkpt lat="45.81709" lon="4.57992">
        <ele>277</ele>
        <time>2022-03-18T09:05:26Z</time>
      </trkpt>
      <trkpt lat="45.81759" lon="4.57928">
        <ele>280</ele>
        <time>2022-03-18T09:05:38Z</time>
      </trkpt>
      <trkpt lat="45.81801" lon="4.57861">
        <ele>283</ele>
        <time>2022-03-18T09:05:50Z</time>
      </trkpt>
      <trkpt lat="45.81813" lon="4.57815">
        <ele>284</ele>
        <time>2022-03-18T09:05:56Z</time>
      </trkpt>
      <trkpt lat="45.81813" lon="4.57771">
        <ele>285</ele>
        <time>2022-03-18T09:06:01Z</time>
      </trkpt>
      <trkpt lat="45.81805" lon="4.57734">
        <ele>285</ele>
        <time>2022-03-18T09:06:06Z</time>
      </trkpt>
      <trkpt lat="45.81783" lon="4.57699">
        <ele>286</ele>
        <time>2022-03-18T09:06:12Z</time>
      </trkpt>
      <trkpt lat="45.81705" lon="4.576">
        <ele>289</ele>
        <time>2022-03-18T09:06:30Z</time>
      </trkpt>
      <trkpt lat="45.81712" lon="4.57532">
        <ele>294</ele>
        <time>2022-03-18T09:06:39Z</time>
      </trkpt>
      <trkpt lat="45.81712" lon="4.57501">
        <ele>296</ele>
        <time>2022-03-18T09:06:43Z</time>
      </trkpt>
      <trkpt lat="45.8178" lon="4.57508">
        <ele>297</ele>
        <time>2022-03-18T09:06:55Z</time>
      </trkpt>
      <trkpt lat="45.81802" lon="4.57504">
        <ele>298</ele>
        <time>2022-03-18T09:06:59Z</time>
      </trkpt>
      <trkpt lat="45.81903" lon="4.57468">
        <ele>306</ele>
        <time>2022-03-18T09:07:17Z</time>
      </trkpt>
      <trkpt lat="45.81925" lon="4.57469">
        <ele>308</ele>
        <time>2022-03-18T09:07:21Z</time>
      </trkpt>
      <trkpt lat="45.81989" lon="4.57498">
        <ele>311</ele>
        <time>2022-03-18T09:07:33Z</time>
      </trkpt>
      <trkpt lat="45.82138" lon="4.57552">
        <ele>317</ele>
        <time>2022-03-18T09:08:00Z</time>
      </trkpt>
      <trkpt lat="45.82155" lon="4.57555">
        <ele>318</ele>
        <time>2022-03-18T09:08:04Z</time>
      </trkpt>
      <trkpt lat="45.8219" lon="4.57541">
        <ele>319</ele>
        <time>2022-03-18T09:08:10Z</time>
      </trkpt>
      <trkpt lat="45.82218" lon="4.57515">
        <ele>321</ele>
        <time>2022-03-18T09:08:16Z</time>
      </trkpt>
      <trkpt lat="45.82254" lon="4.57448">
        <ele>324</ele>
        <time>2022-03-18T09:08:26Z</time>
      </trkpt>
      <trkpt lat="45.82408" lon="4.57171">
        <ele>337</ele>
        <time>2022-03-18T09:09:10Z</time>
      </trkpt>
      <trkpt lat="45.82443" lon="4.57076">
        <ele>342</ele>
        <time>2022-03-18T09:09:24Z</time>
      </trkpt>
      <trkpt lat="45.82457" lon="4.57049">
        <ele>343</ele>
        <time>2022-03-18T09:09:28Z</time>
      </trkpt>
      <trkpt lat="45.8248" lon="4.57034">
        <ele>343</ele>
        <time>2022-03-18T09:09:32Z</time>
      </trkpt>
      <trkpt lat="45.82572" lon="4.57056">
        <ele>346</ele>
        <time>2022-03-18T09:09:49Z</time>
      </trkpt>
      <trkpt lat="45.8265" lon="4.57045">
        <ele>350</ele>
        <time>2022-03-18T09:10:03Z</time>
      </trkpt>
      <trkpt lat="45.8273" lon="4.57041">
        <ele>349</ele>
        <time>2022-03-18T09:10:17Z</time>
      </trkpt>
      <trkpt lat="45.8279" lon="4.57003">
        <ele>350</ele>
        <time>2022-03-18T09:10:29Z</time>
      </trkpt>
      <trkpt lat="45.82834" lon="4.56993">
        <ele>350</ele>
        <time>2022-03-18T09:10:37Z</time>
      </trkpt>
      <trkpt lat="45.8292" lon="4.57013">
        <ele>350</ele>
        <time>2022-03-18T09:10:52Z</time>
      </trkpt>
      <trkpt lat="45.83055" lon="4.5707">
        <ele>350</ele>
        <time>2022-03-18T09:11:17Z</time>
      </trkpt>
      <trkpt lat="45.83097" lon="4.57074">
        <ele>351</ele>
        <time>2022-03-18T09:11:25Z</time>
      </trkpt>
      <trkpt lat="45.83305" lon="4.57049">
        <ele>353</ele>
        <time>2022-03-18T09:12:02Z</time>
      </trkpt>
      <trkpt lat="45.83342" lon="4.57031">
        <ele>353</ele>
        <time>2022-03-18T09:12:09Z</time>
      </trkpt>
      <trkpt lat="45.83389" lon="4.56988">
        <ele>354</ele>
        <time>2022-03-18T09:12:19Z</time>
      </trkpt>
      <trkpt lat="45.8342" lon="4.56919">
        <ele>356</ele>
        <time>2022-03-18T09:12:29Z</time>
      </trkpt>
      <trkpt lat="45.83436" lon="4.56823">
        <ele>357</ele>
        <time>2022-03-18T09:12:41Z</time>
      </trkpt>
      <trkpt lat="45.83442" lon="4.56638">
        <ele>369</ele>
        <time>2022-03-18T09:13:04Z</time>
      </trkpt>
      <trkpt lat="45.83459" lon="4.56599">
        <ele>374</ele>
        <time>2022-03-18T09:13:10Z</time>
      </trkpt>
      <trkpt lat="45.83485" lon="4.56583">
        <ele>374</ele>
        <time>2022-03-18T09:13:15Z</time>
      </trkpt>
      <trkpt lat="45.83561" lon="4.56572">
        <ele>369</ele>
        <time>2022-03-18T09:13:28Z</time>
      </trkpt>
      <trkpt lat="45.83608" lon="4.56559">
        <ele>365</ele>
        <time>2022-03-18T09:13:37Z</time>
      </trkpt>
      <trkpt lat="45.83665" lon="4.56525">
        <ele>364</ele>
        <time>2022-03-18T09:13:48Z</time>
      </trkpt>
      <trkpt lat="45.83706" lon="4.56484">
        <ele>367</ele>
        <time>2022-03-18T09:13:57Z</time>
      </trkpt>
      <trkpt lat="45.8374" lon="4.56439">
        <ele>369</ele>
        <time>2022-03-18T09:14:05Z</time>
      </trkpt>
      <trkpt lat="45.83768" lon="4.56378">
        <ele>367</ele>
        <time>2022-03-18T09:14:14Z</time>
      </trkpt>
      <trkpt lat="45.83774" lon="4.56314">
        <ele>366</ele>
        <time>2022-03-18T09:14:22Z</time>
      </trkpt>
      <trkpt lat="45.83726" lon="4.56167">
        <ele>369</ele>
        <time>2022-03-18T09:14:42Z</time>
      </trkpt>
      <trkpt lat="45.83662" lon="4.56074">
        <ele>375</ele>
        <time>2022-03-18T09:14:58Z</time>
      </trkpt>
      <trkpt lat="45.83637" lon="4.56024">
        <ele>374</ele>
        <time>2022-03-18T09:15:06Z</time>
      </trkpt>
      <trkpt lat="45.8364" lon="4.55983">
        <ele>373</ele>
        <time>2022-03-18T09:15:11Z</time>
      </trkpt>
      <trkpt lat="45.8366" lon="4.55952">
        <ele>371</ele>
        <time>2022-03-18T09:15:16Z</time>
      </trkpt>
      <trkpt lat="45.83688" lon="4.55912">
        <ele>366</ele>
        <time>2022-03-18T09:15:23Z</time>
      </trkpt>
      <trkpt lat="45.83701" lon="4.55857">
        <ele>364</ele>
        <time>2022-03-18T09:15:31Z</time>
      </trkpt>
      <trkpt lat="45.83696" lon="4.55814">
        <ele>364</ele>
        <time>2022-03-18T09:15:36Z</time>
      </trkpt>
      <trkpt lat="45.8368" lon="4.55767">
        <ele>364</ele>
        <time>2022-03-18T09:15:43Z</time>
      </trkpt>
      <trkpt lat="45.83646" lon="4.55721">
        <ele>365</ele>
        <time>2022-03-18T09:15:51Z</time>
      </trkpt>
      <trkpt lat="45.83451" lon="4.55515">
        <ele>375</ele>
        <time>2022-03-18T09:16:34Z</time>
      </trkpt>
      <trkpt lat="45.83439" lon="4.55489">
        <ele>377</ele>
        <time>2022-03-18T09:16:38Z</time>
      </trkpt>
      <trkpt lat="45.8344" lon="4.55477">
        <ele>378</ele>
        <time>2022-03-18T09:16:39Z</time>
      </trkpt>
      <trkpt lat="45.83442" lon="4.55468">
        <ele>379</ele>
        <time>2022-03-18T09:16:40Z</time>
      </trkpt>
      <trkpt lat="45.83452" lon="4.55456">
        <ele>380</ele>
        <time>2022-03-18T09:16:43Z</time>
      </trkpt>
      <trkpt lat="45.83465" lon="4.55448">
        <ele>380</ele>
        <time>2022-03-18T09:16:45Z</time>
      </trkpt>
      <trkpt lat="45.83511" lon="4.55439">
        <ele>378</ele>
        <time>2022-03-18T09:16:54Z</time>
      </trkpt>
      <trkpt lat="45.83557" lon="4.55451">
        <ele>373</ele>
        <time>2022-03-18T09:17:02Z</time>
      </trkpt>
      <trkpt lat="45.83584" lon="4.55454">
        <ele>370</ele>
        <time>2022-03-18T09:17:07Z</time>
      </trkpt>
      <trkpt lat="45.83605" lon="4.55443">
        <ele>370</ele>
        <time>2022-03-18T09:17:11Z</time>
      </trkpt>
      <trkpt lat="45.83621" lon="4.5542">
        <ele>371</ele>
        <time>2022-03-18T09:17:15Z</time>
      </trkpt>
      <trkpt lat="45.83628" lon="4.55394">
        <ele>370</ele>
        <time>2022-03-18T09:17:18Z</time>
      </trkpt>
      <trkpt lat="45.8363" lon="4.55362">
        <ele>370</ele>
        <time>2022-03-18T09:17:22Z</time>
      </trkpt>
      <trkpt lat="45.83566" lon="4.5518">
        <ele>379</ele>
        <time>2022-03-18T09:17:47Z</time>
      </trkpt>
      <trkpt lat="45.83551" lon="4.5511">
        <ele>380</ele>
        <time>2022-03-18T09:17:56Z</time>
      </trkpt>
      <trkpt lat="45.83539" lon="4.55065">
        <ele>380</ele>
        <time>2022-03-18T09:18:02Z</time>
      </trkpt>
      <trkpt lat="45.8349" lon="4.54995">
        <ele>383</ele>
        <time>2022-03-18T09:18:15Z</time>
      </trkpt>
      <trkpt lat="45.83485" lon="4.54965">
        <ele>386</ele>
        <time>2022-03-18T09:18:19Z</time>
      </trkpt>
      <trkpt lat="45.83486" lon="4.54937">
        <ele>387</ele>
        <time>2022-03-18T09:18:22Z</time>
      </trkpt>
      <trkpt lat="45.83493" lon="4.54909">
        <ele>387</ele>
        <time>2022-03-18T09:18:26Z</time>
      </trkpt>
      <trkpt lat="45.83505" lon="4.54871">
        <ele>387</ele>
        <time>2022-03-18T09:18:31Z</time>
      </trkpt>
      <trkpt lat="45.83519" lon="4.54778">
        <ele>392</ele>
        <time>2022-03-18T09:18:43Z</time>
      </trkpt>
      <trkpt lat="45.83554" lon="4.54674">
        <ele>392</ele>
        <time>2022-03-18T09:18:57Z</time>
      </trkpt>
      <trkpt lat="45.83566" lon="4.54601">
        <ele>392</ele>
        <time>2022-03-18T09:19:06Z</time>
      </trkpt>
      <trkpt lat="45.8358" lon="4.54528">
        <ele>390</ele>
        <time>2022-03-18T09:19:16Z</time>
      </trkpt>
      <trkpt lat="45.83583" lon="4.54456">
        <ele>391</ele>
        <time>2022-03-18T09:19:25Z</time>
      </trkpt>
      <trkpt lat="45.83594" lon="4.54417">
        <ele>391</ele>
        <time>2022-03-18T09:19:30Z</time>
      </trkpt>
      <trkpt lat="45.83607" lon="4.54402">
        <ele>392</ele>
        <time>2022-03-18T09:19:33Z</time>
      </trkpt>
      <trkpt lat="45.83627" lon="4.54401">
        <ele>392</ele>
        <time>2022-03-18T09:19:36Z</time>
      </trkpt>
      <trkpt lat="45.8379" lon="4.54369">
        <ele>395</ele>
        <time>2022-03-18T09:20:06Z</time>
      </trkpt>
      <trkpt lat="45.83846" lon="4.54343">
        <ele>396</ele>
        <time>2022-03-18T09:20:16Z</time>
      </trkpt>
      <trkpt lat="45.83916" lon="4.54293">
        <ele>401</ele>
        <time>2022-03-18T09:20:30Z</time>
      </trkpt>
      <trkpt lat="45.84039" lon="4.54212">
        <ele>403</ele>
        <time>2022-03-18T09:20:54Z</time>
      </trkpt>
      <trkpt lat="45.84116" lon="4.54166">
        <ele>401</ele>
        <time>2022-03-18T09:21:09Z</time>
      </trkpt>
      <trkpt lat="45.8413" lon="4.5415">
        <ele>401</ele>
        <time>2022-03-18T09:21:12Z</time>
      </trkpt>
      <trkpt lat="45.8416" lon="4.54122">
        <ele>401</ele>
        <time>2022-03-18T09:21:19Z</time>
      </trkpt>
      <trkpt lat="45.84195" lon="4.54085">
        <ele>401</ele>
        <time>2022-03-18T09:21:26Z</time>
      </trkpt>
      <trkpt lat="45.84214" lon="4.54058">
        <ele>402</ele>
        <time>2022-03-18T09:21:31Z</time>
      </trkpt>
      <trkpt lat="45.84245" lon="4.54011">
        <ele>405</ele>
        <time>2022-03-18T09:21:39Z</time>
      </trkpt>
      <trkpt lat="45.84268" lon="4.53985">
        <ele>407</ele>
        <time>2022-03-18T09:21:44Z</time>
      </trkpt>
      <trkpt lat="45.84328" lon="4.53931">
        <ele>407</ele>
        <time>2022-03-18T09:21:57Z</time>
      </trkpt>
      <trkpt lat="45.8436" lon="4.53906">
        <ele>407</ele>
        <time>2022-03-18T09:22:03Z</time>
      </trkpt>
      <trkpt lat="45.84388" lon="4.53888">
        <ele>407</ele>
        <time>2022-03-18T09:22:09Z</time>
      </trkpt>
      <trkpt lat="45.8442" lon="4.53882">
        <ele>404</ele>
        <time>2022-03-18T09:22:15Z</time>
      </trkpt>
      <trkpt lat="45.84438" lon="4.53873">
        <ele>404</ele>
        <time>2022-03-18T09:22:18Z</time>
      </trkpt>
      <trkpt lat="45.84463" lon="4.53855">
        <ele>403</ele>
        <time>2022-03-18T09:22:23Z</time>
      </trkpt>
      <trkpt lat="45.84482" lon="4.53825">
        <ele>404</ele>
        <time>2022-03-18T09:22:28Z</time>
      </trkpt>
      <trkpt lat="45.84502" lon="4.53782">
        <ele>404</ele>
        <time>2022-03-18T09:22:34Z</time>
      </trkpt>
      <trkpt lat="45.84523" lon="4.5367">
        <ele>408</ele>
        <time>2022-03-18T09:22:49Z</time>
      </trkpt>
      <trkpt lat="45.84526" lon="4.53605">
        <ele>407</ele>
        <time>2022-03-18T09:22:57Z</time>
      </trkpt>
      <trkpt lat="45.84525" lon="4.53577">
        <ele>406</ele>
        <time>2022-03-18T09:23:00Z</time>
      </trkpt>
      <trkpt lat="45.84529" lon="4.53552">
        <ele>405</ele>
        <time>2022-03-18T09:23:03Z</time>
      </trkpt>
      <trkpt lat="45.84524" lon="4.53544">
        <ele>405</ele>
        <time>2022-03-18T09:23:05Z</time>
      </trkpt>
      <trkpt lat="45.84518" lon="4.53544">
        <ele>406</ele>
        <time>2022-03-18T09:23:06Z</time>
      </trkpt>
      <trkpt lat="45.84514" lon="4.53469">
        <ele>404</ele>
        <time>2022-03-18T09:23:15Z</time>
      </trkpt>
      <trkpt lat="45.84499" lon="4.5338">
        <ele>404</ele>
        <time>2022-03-18T09:23:27Z</time>
      </trkpt>
      <trkpt lat="45.84499" lon="4.53327">
        <ele>404</ele>
        <time>2022-03-18T09:23:33Z</time>
      </trkpt>
      <trkpt lat="45.84522" lon="4.53204">
        <ele>406</ele>
        <time>2022-03-18T09:23:49Z</time>
      </trkpt>
      <trkpt lat="45.84554" lon="4.53161">
        <ele>408</ele>
        <time>2022-03-18T09:23:57Z</time>
      </trkpt>
      <trkpt lat="45.84581" lon="4.53144">
        <ele>409</ele>
        <time>2022-03-18T09:24:02Z</time>
      </trkpt>
      <trkpt lat="45.84703" lon="4.53078">
        <ele>412</ele>
        <time>2022-03-18T09:24:25Z</time>
      </trkpt>
      <trkpt lat="45.84724" lon="4.53068">
        <ele>413</ele>
        <time>2022-03-18T09:24:29Z</time>
      </trkpt>
      <trkpt lat="45.84724" lon="4.531">
        <ele>411</ele>
        <time>2022-03-18T09:24:33Z</time>
      </trkpt>
      <trkpt lat="45.84739" lon="4.53108">
        <ele>410</ele>
        <time>2022-03-18T09:24:36Z</time>
      </trkpt>
      <trkpt lat="45.84747" lon="4.53145">
        <ele>407</ele>
        <time>2022-03-18T09:24:41Z</time>
      </trkpt>
      <trkpt lat="45.84763" lon="4.53139">
        <ele>407</ele>
        <time>2022-03-18T09:24:44Z</time>
      </trkpt>
      <trkpt lat="45.84791" lon="4.53133">
        <ele>406</ele>
        <time>2022-03-18T09:24:49Z</time>
      </trkpt>
      <trkpt lat="45.84881" lon="4.53159">
        <ele>399</ele>
        <time>2022-03-18T09:25:05Z</time>
      </trkpt>
      <trkpt lat="45.8494" lon="4.532">
        <ele>392</ele>
        <time>2022-03-18T09:25:17Z</time>
      </trkpt>
      <trkpt lat="45.84978" lon="4.53198">
        <ele>389</ele>
        <time>2022-03-18T09:25:23Z</time>
      </trkpt>
      <trkpt lat="45.85048" lon="4.53168">
        <ele>386</ele>
        <time>2022-03-18T09:25:36Z</time>
      </trkpt>
      <trkpt lat="45.85071" lon="4.53154">
        <ele>384</ele>
        <time>2022-03-18T09:25:41Z</time>
      </trkpt>
      <trkpt lat="45.85089" lon="4.53135">
        <ele>382</ele>
        <time>2022-03-18T09:25:45Z</time>
      </trkpt>
      <trkpt lat="45.85104" lon="4.53109">
        <ele>380</ele>
        <time>2022-03-18T09:25:49Z</time>
      </trkpt>
      <trkpt lat="45.85133" lon="4.5304">
        <ele>377</ele>
        <time>2022-03-18T09:25:59Z</time>
      </trkpt>
      <trkpt lat="45.85141" lon="4.53016">
        <ele>377</ele>
        <time>2022-03-18T09:26:02Z</time>
      </trkpt>
      <trkpt lat="45.85153" lon="4.52955">
        <ele>377</ele>
        <time>2022-03-18T09:26:10Z</time>
      </trkpt>
      <trkpt lat="45.85162" lon="4.52921">
        <ele>377</ele>
        <time>2022-03-18T09:26:15Z</time>
      </trkpt>
      <trkpt lat="45.85172" lon="4.52907">
        <ele>376</ele>
        <time>2022-03-18T09:26:17Z</time>
      </trkpt>
      <trkpt lat="45.85183" lon="4.52901">
        <ele>376</ele>
        <time>2022-03-18T09:26:19Z</time>
      </trkpt>
      <trkpt lat="45.85199" lon="4.52907">
        <ele>375</ele>
        <time>2022-03-18T09:26:22Z</time>
      </trkpt>
      <trkpt lat="45.85208" lon="4.52919">
        <ele>374</ele>
        <time>2022-03-18T09:26:24Z</time>
      </trkpt>
      <trkpt lat="45.8535" lon="4.53178">
        <ele>356</ele>
        <time>2022-03-18T09:27:05Z</time>
      </trkpt>
      <trkpt lat="45.85412" lon="4.53288">
        <ele>349</ele>
        <time>2022-03-18T09:27:23Z</time>
      </trkpt>
      <trkpt lat="45.85421" lon="4.533">
        <ele>349</ele>
        <time>2022-03-18T09:27:25Z</time>
      </trkpt>
      <trkpt lat="45.85444" lon="4.5332">
        <ele>348</ele>
        <time>2022-03-18T09:27:30Z</time>
      </trkpt>
      <trkpt lat="45.85663" lon="4.53456">
        <ele>335</ele>
        <time>2022-03-18T09:28:12Z</time>
      </trkpt>
      <trkpt lat="45.85678" lon="4.53459">
        <ele>334</ele>
        <time>2022-03-18T09:28:15Z</time>
      </trkpt>
      <trkpt lat="45.85808" lon="4.53456">
        <ele>328</ele>
        <time>2022-03-18T09:28:38Z</time>
      </trkpt>
      <trkpt lat="45.85815" lon="4.5346">
        <ele>328</ele>
        <time>2022-03-18T09:28:39Z</time>
      </trkpt>
      <trkpt lat="45.85831" lon="4.53475">
        <ele>327</ele>
        <time>2022-03-18T09:28:43Z</time>
      </trkpt>
      <trkpt lat="45.85838" lon="4.53483">
        <ele>327</ele>
        <time>2022-03-18T09:28:44Z</time>
      </trkpt>
      <trkpt lat="45.85858" lon="4.53521">
        <ele>329</ele>
        <time>2022-03-18T09:28:50Z</time>
      </trkpt>
      <trkpt lat="45.85924" lon="4.53597">
        <ele>331</ele>
        <time>2022-03-18T09:29:05Z</time>
      </trkpt>
      <trkpt lat="45.8596" lon="4.53634">
        <ele>334</ele>
        <time>2022-03-18T09:29:13Z</time>
      </trkpt>
      <trkpt lat="45.85967" lon="4.53644">
        <ele>335</ele>
        <time>2022-03-18T09:29:15Z</time>
      </trkpt>
      <trkpt lat="45.85976" lon="4.53667">
        <ele>335</ele>
        <time>2022-03-18T09:29:18Z</time>
      </trkpt>
      <trkpt lat="45.86001" lon="4.53791">
        <ele>335</ele>
        <time>2022-03-18T09:29:34Z</time>
      </trkpt>
      <trkpt lat="45.86028" lon="4.53913">
        <ele>336</ele>
        <time>2022-03-18T09:29:50Z</time>
      </trkpt>
      <trkpt lat="45.86063" lon="4.54034">
        <ele>333</ele>
        <time>2022-03-18T09:30:06Z</time>
      </trkpt>
      <trkpt lat="45.861" lon="4.54184">
        <ele>325</ele>
        <time>2022-03-18T09:30:26Z</time>
      </trkpt>
      <trkpt lat="45.86101" lon="4.54206">
        <ele>324</ele>
        <time>2022-03-18T09:30:29Z</time>
      </trkpt>
      <trkpt lat="45.86095" lon="4.54238">
        <ele>323</ele>
        <time>2022-03-18T09:30:33Z</time>
      </trkpt>
      <trkpt lat="45.86096" lon="4.54253">
        <ele>322</ele>
        <time>2022-03-18T09:30:35Z</time>
      </trkpt>
      <trkpt lat="45.86109" lon="4.54275">
        <ele>319</ele>
        <time>2022-03-18T09:30:38Z</time>
      </trkpt>
      <trkpt lat="45.86127" lon="4.54298">
        <ele>317</ele>
        <time>2022-03-18T09:30:43Z</time>
      </trkpt>
      <trkpt lat="45.86154" lon="4.54329">
        <ele>315</ele>
        <time>2022-03-18T09:30:49Z</time>
      </trkpt>
      <trkpt lat="45.86209" lon="4.5438">
        <ele>310</ele>
        <time>2022-03-18T09:31:00Z</time>
      </trkpt>
      <trkpt lat="45.86263" lon="4.54415">
        <ele>304</ele>
        <time>2022-03-18T09:31:11Z</time>
      </trkpt>
      <trkpt lat="45.86297" lon="4.54433">
        <ele>300</ele>
        <time>2022-03-18T09:31:17Z</time>
      </trkpt>
      <trkpt lat="45.86366" lon="4.54459">
        <ele>295</ele>
        <time>2022-03-18T09:31:30Z</time>
      </trkpt>
      <trkpt lat="45.86417" lon="4.54465">
        <ele>292</ele>
        <time>2022-03-18T09:31:39Z</time>
      </trkpt>
      <trkpt lat="45.86439" lon="4.54468">
        <ele>294</ele>
        <time>2022-03-18T09:31:43Z</time>
      </trkpt>
      <trkpt lat="45.8652" lon="4.5449">
        <ele>302</ele>
        <time>2022-03-18T09:31:58Z</time>
      </trkpt>
      <trkpt lat="45.86592" lon="4.54532">
        <ele>308</ele>
        <time>2022-03-18T09:32:12Z</time>
      </trkpt>
      <trkpt lat="45.8669" lon="4.54616">
        <ele>313</ele>
        <time>2022-03-18T09:32:32Z</time>
      </trkpt>
      <trkpt lat="45.86705" lon="4.54634">
        <ele>313</ele>
        <time>2022-03-18T09:32:35Z</time>
      </trkpt>
      <trkpt lat="45.86851" lon="4.54809">
        <ele>317</ele>
        <time>2022-03-18T09:33:09Z</time>
      </trkpt>
      <trkpt lat="45.8701" lon="4.55004">
        <ele>323</ele>
        <time>2022-03-18T09:33:46Z</time>
      </trkpt>
      <trkpt lat="45.87135" lon="4.55152">
        <ele>332</ele>
        <time>2022-03-18T09:34:15Z</time>
      </trkpt>
      <trkpt lat="45.87167" lon="4.55191">
        <ele>334</ele>
        <time>2022-03-18T09:34:23Z</time>
      </trkpt>
      <trkpt lat="45.87207" lon="4.55238">
        <ele>334</ele>
        <time>2022-03-18T09:34:32Z</time>
      </trkpt>
      <trkpt lat="45.87283" lon="4.55296">
        <ele>336</ele>
        <time>2022-03-18T09:34:47Z</time>
      </trkpt>
      <trkpt lat="45.87551" lon="4.55484">
        <ele>346</ele>
        <time>2022-03-18T09:35:40Z</time>
      </trkpt>
      <trkpt lat="45.87845" lon="4.55695">
        <ele>359</ele>
        <time>2022-03-18T09:36:39Z</time>
      </trkpt>
      <trkpt lat="45.87892" lon="4.55718">
        <ele>358</ele>
        <time>2022-03-18T09:36:48Z</time>
      </trkpt>
      <trkpt lat="45.87891" lon="4.55779">
        <ele>359</ele>
        <time>2022-03-18T09:36:55Z</time>
      </trkpt>
      <trkpt lat="45.87907" lon="4.55893">
        <ele>362</ele>
        <time>2022-03-18T09:37:10Z</time>
      </trkpt>
      <trkpt lat="45.87912" lon="4.55912">
        <ele>363</ele>
        <time>2022-03-18T09:37:12Z</time>
      </trkpt>
      <trkpt lat="45.87964" lon="4.55981">
        <ele>366</ele>
        <time>2022-03-18T09:37:25Z</time>
      </trkpt>
      <trkpt lat="45.87969" lon="4.55978">
        <ele>365</ele>
        <time>2022-03-18T09:37:26Z</time>
      </trkpt>
      <trkpt lat="45.87996" lon="4.55969">
        <ele>364</ele>
        <time>2022-03-18T09:37:31Z</time>
      </trkpt>
      <trkpt lat="45.88015" lon="4.55971">
        <ele>363</ele>
        <time>2022-03-18T09:37:34Z</time>
      </trkpt>
      <trkpt lat="45.88116" lon="4.55964">
        <ele>356</ele>
        <time>2022-03-18T09:37:52Z</time>
      </trkpt>
      <trkpt lat="45.88211" lon="4.55975">
        <ele>351</ele>
        <time>2022-03-18T09:38:09Z</time>
      </trkpt>
      <trkpt lat="45.88238" lon="4.55971">
        <ele>350</ele>
        <time>2022-03-18T09:38:14Z</time>
      </trkpt>
      <trkpt lat="45.8826" lon="4.55963">
        <ele>349</ele>
        <time>2022-03-18T09:38:18Z</time>
      </trkpt>
      <trkpt lat="45.8829" lon="4.55942">
        <ele>347</ele>
        <time>2022-03-18T09:38:24Z</time>
      </trkpt>
      <trkpt lat="45.88383" lon="4.55856">
        <ele>338</ele>
        <time>2022-03-18T09:38:43Z</time>
      </trkpt>
      <trkpt lat="45.88412" lon="4.55833">
        <ele>336</ele>
        <time>2022-03-18T09:38:49Z</time>
      </trkpt>
      <trkpt lat="45.88465" lon="4.55826">
        <ele>334</ele>
        <time>2022-03-18T09:38:59Z</time>
      </trkpt>
      <trkpt lat="45.88479" lon="4.55827">
        <ele>333</ele>
        <time>2022-03-18T09:39:01Z</time>
      </trkpt>
      <trkpt lat="45.88493" lon="4.55831">
        <ele>333</ele>
        <time>2022-03-18T09:39:04Z</time>
      </trkpt>
      <trkpt lat="45.88517" lon="4.55846">
        <ele>332</ele>
        <time>2022-03-18T09:39:08Z</time>
      </trkpt>
      <trkpt lat="45.886" lon="4.55908">
        <ele>327</ele>
        <time>2022-03-18T09:39:25Z</time>
      </trkpt>
      <trkpt lat="45.88662" lon="4.55964">
        <ele>324</ele>
        <time>2022-03-18T09:39:38Z</time>
      </trkpt>
      <trkpt lat="45.88694" lon="4.56005">
        <ele>322</ele>
        <time>2022-03-18T09:39:46Z</time>
      </trkpt>
      <trkpt lat="45.88749" lon="4.56112">
        <ele>317</ele>
        <time>2022-03-18T09:40:02Z</time>
      </trkpt>
      <trkpt lat="45.88758" lon="4.56135">
        <ele>316</ele>
        <time>2022-03-18T09:40:05Z</time>
      </trkpt>
      <trkpt lat="45.88772" lon="4.56163">
        <ele>314</ele>
        <time>2022-03-18T09:40:10Z</time>
      </trkpt>
      <trkpt lat="45.88806" lon="4.56219">
        <ele>312</ele>
        <time>2022-03-18T09:40:19Z</time>
      </trkpt>
      <trkpt lat="45.88825" lon="4.5626">
        <ele>312</ele>
        <time>2022-03-18T09:40:25Z</time>
      </trkpt>
      <trkpt lat="45.88838" lon="4.56328">
        <ele>312</ele>
        <time>2022-03-18T09:40:34Z</time>
      </trkpt>
      <trkpt lat="45.88845" lon="4.5638">
        <ele>311</ele>
        <time>2022-03-18T09:40:40Z</time>
      </trkpt>
      <trkpt lat="45.8885" lon="4.564">
        <ele>310</ele>
        <time>2022-03-18T09:40:43Z</time>
      </trkpt>
      <trkpt lat="45.88859" lon="4.56415">
        <ele>309</ele>
        <time>2022-03-18T09:40:45Z</time>
      </trkpt>
      <trkpt lat="45.88874" lon="4.56437">
        <ele>308</ele>
        <time>2022-03-18T09:40:49Z</time>
      </trkpt>
      <trkpt lat="45.88896" lon="4.56443">
        <ele>306</ele>
        <time>2022-03-18T09:40:53Z</time>
      </trkpt>
      <trkpt lat="45.88911" lon="4.56442">
        <ele>305</ele>
        <time>2022-03-18T09:40:56Z</time>
      </trkpt>
      <trkpt lat="45.88963" lon="4.56425">
        <ele>299</ele>
        <time>2022-03-18T09:41:05Z</time>
      </trkpt>
      <trkpt lat="45.88987" lon="4.56429">
        <ele>297</ele>
        <time>2022-03-18T09:41:10Z</time>
      </trkpt>
      <trkpt lat="45.89002" lon="4.56438">
        <ele>295</ele>
        <time>2022-03-18T09:41:13Z</time>
      </trkpt>
      <trkpt lat="45.89039" lon="4.56493">
        <ele>294</ele>
        <time>2022-03-18T09:41:22Z</time>
      </trkpt>
      <trkpt lat="45.8908" lon="4.56537">
        <ele>291</ele>
        <time>2022-03-18T09:41:31Z</time>
      </trkpt>
      <trkpt lat="45.89087" lon="4.56551">
        <ele>290</ele>
        <time>2022-03-18T09:41:33Z</time>
      </trkpt>
      <trkpt lat="45.89093" lon="4.56568">
        <ele>290</ele>
        <time>2022-03-18T09:41:36Z</time>
      </trkpt>
      <trkpt lat="45.89099" lon="4.56605">
        <ele>290</ele>
        <time>2022-03-18T09:41:40Z</time>
      </trkpt>
      <trkpt lat="45.89103" lon="4.56619">
        <ele>290</ele>
        <time>2022-03-18T09:41:42Z</time>
      </trkpt>
      <trkpt lat="45.89112" lon="4.56633">
        <ele>290</ele>
        <time>2022-03-18T09:41:45Z</time>
      </trkpt>
      <trkpt lat="45.89121" lon="4.56641">
        <ele>290</ele>
        <time>2022-03-18T09:41:46Z</time>
      </trkpt>
      <trkpt lat="45.89149" lon="4.56651">
        <ele>289</ele>
        <time>2022-03-18T09:41:52Z</time>
      </trkpt>
      <trkpt lat="45.89165" lon="4.56653">
        <ele>289</ele>
        <time>2022-03-18T09:41:54Z</time>
      </trkpt>
      <trkpt lat="45.89179" lon="4.56654">
        <ele>289</ele>
        <time>2022-03-18T09:41:57Z</time>
      </trkpt>
      <trkpt lat="45.89309" lon="4.56667">
        <ele>294</ele>
        <time>2022-03-18T09:42:20Z</time>
      </trkpt>
      <trkpt lat="45.89326" lon="4.5666">
        <ele>295</ele>
        <time>2022-03-18T09:42:23Z</time>
      </trkpt>
      <trkpt lat="45.89332" lon="4.56656">
        <ele>295</ele>
        <time>2022-03-18T09:42:24Z</time>
      </trkpt>
      <trkpt lat="45.89343" lon="4.56639">
        <ele>296</ele>
        <time>2022-03-18T09:42:27Z</time>
      </trkpt>
      <trkpt lat="45.89362" lon="4.56618">
        <ele>297</ele>
        <time>2022-03-18T09:42:32Z</time>
      </trkpt>
      <trkpt lat="45.89377" lon="4.56607">
        <ele>297</ele>
        <time>2022-03-18T09:42:35Z</time>
      </trkpt>
      <trkpt lat="45.89402" lon="4.56594">
        <ele>298</ele>
        <time>2022-03-18T09:42:39Z</time>
      </trkpt>
      <trkpt lat="45.89428" lon="4.56586">
        <ele>300</ele>
        <time>2022-03-18T09:42:44Z</time>
      </trkpt>
      <trkpt lat="45.89516" lon="4.56579">
        <ele>308</ele>
        <time>2022-03-18T09:43:00Z</time>
      </trkpt>
      <trkpt lat="45.8964" lon="4.56557">
        <ele>305</ele>
        <time>2022-03-18T09:43:22Z</time>
      </trkpt>
      <trkpt lat="45.89658" lon="4.56549">
        <ele>304</ele>
        <time>2022-03-18T09:43:25Z</time>
      </trkpt>
      <trkpt lat="45.89683" lon="4.56594">
        <ele>302</ele>
        <time>2022-03-18T09:43:32Z</time>
      </trkpt>
      <trkpt lat="45.89722" lon="4.56641">
        <ele>299</ele>
        <time>2022-03-18T09:43:42Z</time>
      </trkpt>
      <trkpt lat="45.89751" lon="4.56653">
        <ele>298</ele>
        <time>2022-03-18T09:43:47Z</time>
      </trkpt>
      <trkpt lat="45.89905" lon="4.56636">
        <ele>295</ele>
        <time>2022-03-18T09:44:14Z</time>
      </trkpt>
      <trkpt lat="45.89929" lon="4.56629">
        <ele>295</ele>
        <time>2022-03-18T09:44:19Z</time>
      </trkpt>
      <trkpt lat="45.89944" lon="4.56623">
        <ele>294</ele>
        <time>2022-03-18T09:44:22Z</time>
      </trkpt>
      <trkpt lat="45.89974" lon="4.566">
        <ele>291</ele>
        <time>2022-03-18T09:44:28Z</time>
      </trkpt>
      <trkpt lat="45.89989" lon="4.56593">
        <ele>289</ele>
        <time>2022-03-18T09:44:30Z</time>
      </trkpt>
      <trkpt lat="45.90002" lon="4.56592">
        <ele>288</ele>
        <time>2022-03-18T09:44:33Z</time>
      </trkpt>
      <trkpt lat="45.90016" lon="4.56594">
        <ele>288</ele>
        <time>2022-03-18T09:44:35Z</time>
      </trkpt>
      <trkpt lat="45.90078" lon="4.5661">
        <ele>287</ele>
        <time>2022-03-18T09:44:46Z</time>
      </trkpt>
      <trkpt lat="45.90092" lon="4.56616">
        <ele>286</ele>
        <time>2022-03-18T09:44:49Z</time>
      </trkpt>
      <trkpt lat="45.90106" lon="4.56627">
        <ele>285</ele>
        <time>2022-03-18T09:44:52Z</time>
      </trkpt>
      <trkpt lat="45.9012" lon="4.56641">
        <ele>284</ele>
        <time>2022-03-18T09:44:55Z</time>
      </trkpt>
      <trkpt lat="45.90132" lon="4.5666">
        <ele>285</ele>
        <time>2022-03-18T09:44:58Z</time>
      </trkpt>
      <trkpt lat="45.90181" lon="4.56747">
        <ele>285</ele>
        <time>2022-03-18T09:45:12Z</time>
      </trkpt>
      <trkpt lat="45.90212" lon="4.56814">
        <ele>285</ele>
        <time>2022-03-18T09:45:22Z</time>
      </trkpt>
      <trkpt lat="45.90224" lon="4.56834">
        <ele>284</ele>
        <time>2022-03-18T09:45:25Z</time>
      </trkpt>
      <trkpt lat="45.90237" lon="4.56852">
        <ele>283</ele>
        <time>2022-03-18T09:45:28Z</time>
      </trkpt>
      <trkpt lat="45.90249" lon="4.56863">
        <ele>281</ele>
        <time>2022-03-18T09:45:31Z</time>
      </trkpt>
      <trkpt lat="45.90261" lon="4.56871">
        <ele>280</ele>
        <time>2022-03-18T09:45:33Z</time>
      </trkpt>
      <trkpt lat="45.90302" lon="4.56882">
        <ele>273</ele>
        <time>2022-03-18T09:45:41Z</time>
      </trkpt>
      <trkpt lat="45.90317" lon="4.5689">
        <ele>272</ele>
        <time>2022-03-18T09:45:44Z</time>
      </trkpt>
      <trkpt lat="45.90331" lon="4.56902">
        <ele>271</ele>
        <time>2022-03-18T09:45:46Z</time>
      </trkpt>
      <trkpt lat="45.90341" lon="4.56917">
        <ele>272</ele>
        <time>2022-03-18T09:45:49Z</time>
      </trkpt>
      <trkpt lat="45.90352" lon="4.5694">
        <ele>270</ele>
        <time>2022-03-18T09:45:52Z</time>
      </trkpt>
      <trkpt lat="45.90363" lon="4.5697">
        <ele>269</ele>
        <time>2022-03-18T09:45:57Z</time>
      </trkpt>
      <trkpt lat="45.90375" lon="4.57021">
        <ele>266</ele>
        <time>2022-03-18T09:46:03Z</time>
      </trkpt>
      <trkpt lat="45.90407" lon="4.57097">
        <ele>259</ele>
        <time>2022-03-18T09:46:14Z</time>
      </trkpt>
      <trkpt lat="45.90416" lon="4.57149">
        <ele>260</ele>
        <time>2022-03-18T09:46:21Z</time>
      </trkpt>
      <trkpt lat="45.90422" lon="4.57167">
        <ele>260</ele>
        <time>2022-03-18T09:46:23Z</time>
      </trkpt>
      <trkpt lat="45.90432" lon="4.57187">
        <ele>260</ele>
        <time>2022-03-18T09:46:26Z</time>
      </trkpt>
      <trkpt lat="45.90448" lon="4.57208">
        <ele>258</ele>
        <time>2022-03-18T09:46:30Z</time>
      </trkpt>
      <trkpt lat="45.90471" lon="4.57232">
        <ele>255</ele>
        <time>2022-03-18T09:46:35Z</time>
      </trkpt>
      <trkpt lat="45.90509" lon="4.57286">
        <ele>250</ele>
        <time>2022-03-18T09:46:45Z</time>
      </trkpt>
      <trkpt lat="45.9052" lon="4.57297">
        <ele>250</ele>
        <time>2022-03-18T09:46:47Z</time>
      </trkpt>
      <trkpt lat="45.90544" lon="4.57309">
        <ele>249</ele>
        <time>2022-03-18T09:46:52Z</time>
      </trkpt>
      <trkpt lat="45.90545" lon="4.57322">
        <ele>249</ele>
        <time>2022-03-18T09:46:53Z</time>
      </trkpt>
      <trkpt lat="45.90548" lon="4.57327">
        <ele>249</ele>
        <time>2022-03-18T09:46:54Z</time>
      </trkpt>
      <trkpt lat="45.90556" lon="4.57332">
        <ele>248</ele>
        <time>2022-03-18T09:46:56Z</time>
      </trkpt>
      <trkpt lat="45.90564" lon="4.57328">
        <ele>247</ele>
        <time>2022-03-18T09:46:57Z</time>
      </trkpt>
      <trkpt lat="45.90567" lon="4.57323">
        <ele>247</ele>
        <time>2022-03-18T09:46:58Z</time>
      </trkpt>
      <trkpt lat="45.90569" lon="4.57311">
        <ele>248</ele>
        <time>2022-03-18T09:47:00Z</time>
      </trkpt>
      <trkpt lat="45.90568" lon="4.57305">
        <ele>248</ele>
        <time>2022-03-18T09:47:00Z</time>
      </trkpt>
      <trkpt lat="45.90562" lon="4.57296">
        <ele>249</ele>
        <time>2022-03-18T09:47:02Z</time>
      </trkpt>
      <trkpt lat="45.90558" lon="4.57295">
        <ele>249</ele>
        <time>2022-03-18T09:47:03Z</time>
      </trkpt>
      <trkpt lat="45.9056" lon="4.57283">
        <ele>249</ele>
        <time>2022-03-18T09:47:04Z</time>
      </trkpt>
      <trkpt lat="45.90566" lon="4.57245">
        <ele>251</ele>
        <time>2022-03-18T09:47:09Z</time>
      </trkpt>
      <trkpt lat="45.90565" lon="4.57234">
        <ele>253</ele>
        <time>2022-03-18T09:47:10Z</time>
      </trkpt>
      <trkpt lat="45.90561" lon="4.57215">
        <ele>255</ele>
        <time>2022-03-18T09:47:13Z</time>
      </trkpt>
      <trkpt lat="45.90525" lon="4.57133">
        <ele>258</ele>
        <time>2022-03-18T09:47:25Z</time>
      </trkpt>
      <trkpt lat="45.90514" lon="4.57101">
        <ele>258</ele>
        <time>2022-03-18T09:47:29Z</time>
      </trkpt>
      <trkpt lat="45.90508" lon="4.57078">
        <ele>259</ele>
        <time>2022-03-18T09:47:32Z</time>
      </trkpt>
      <trkpt lat="45.90474" lon="4.56904">
        <ele>270</ele>
        <time>2022-03-18T09:47:55Z</time>
      </trkpt>
      <trkpt lat="45.90452" lon="4.56839">
        <ele>268</ele>
        <time>2022-03-18T09:48:04Z</time>
      </trkpt>
      <trkpt lat="45.90441" lon="4.56817">
        <ele>269</ele>
        <time>2022-03-18T09:48:07Z</time>
      </trkpt>
      <trkpt lat="45.90428" lon="4.56796">
        <ele>270</ele>
        <time>2022-03-18T09:48:10Z</time>
      </trkpt>
      <trkpt lat="45.90367" lon="4.56722">
        <ele>271</ele>
        <time>2022-03-18T09:48:25Z</time>
      </trkpt>
      <trkpt lat="45.90343" lon="4.56691">
        <ele>271</ele>
        <time>2022-03-18T09:48:30Z</time>
      </trkpt>
      <trkpt lat="45.90311" lon="4.56645">
        <ele>274</ele>
        <time>2022-03-18T09:48:38Z</time>
      </trkpt>
      <trkpt lat="45.90289" lon="4.56607">
        <ele>275</ele>
        <time>2022-03-18T09:48:45Z</time>
      </trkpt>
      <trkpt lat="45.9027" lon="4.56565">
        <ele>274</ele>
        <time>2022-03-18T09:48:51Z</time>
      </trkpt>
      <trkpt lat="45.90157" lon="4.56278">
        <ele>279</ele>
        <time>2022-03-18T09:49:32Z</time>
      </trkpt>
      <trkpt lat="45.90139" lon="4.5621">
        <ele>279</ele>
        <time>2022-03-18T09:49:41Z</time>
      </trkpt>
      <trkpt lat="45.90127" lon="4.56153">
        <ele>279</ele>
        <time>2022-03-18T09:49:48Z</time>
      </trkpt>
      <trkpt lat="45.90119" lon="4.56098">
        <ele>279</ele>
        <time>2022-03-18T09:49:55Z</time>
      </trkpt>
      <trkpt lat="45.90106" lon="4.55938">
        <ele>281</ele>
        <time>2022-03-18T09:50:15Z</time>
      </trkpt>
      <trkpt lat="45.90106" lon="4.5589">
        <ele>281</ele>
        <time>2022-03-18T09:50:21Z</time>
      </trkpt>
      <trkpt lat="45.90109" lon="4.55864">
        <ele>280</ele>
        <time>2022-03-18T09:50:24Z</time>
      </trkpt>
      <trkpt lat="45.90117" lon="4.55825">
        <ele>280</ele>
        <time>2022-03-18T09:50:29Z</time>
      </trkpt>
      <trkpt lat="45.90183" lon="4.5562">
        <ele>280</ele>
        <time>2022-03-18T09:50:57Z</time>
      </trkpt>
      <trkpt lat="45.90191" lon="4.55576">
        <ele>280</ele>
        <time>2022-03-18T09:51:03Z</time>
      </trkpt>
      <trkpt lat="45.90198" lon="4.55499">
        <ele>278</ele>
        <time>2022-03-18T09:51:12Z</time>
      </trkpt>
      <trkpt lat="45.90201" lon="4.55418">
        <ele>278</ele>
        <time>2022-03-18T09:51:22Z</time>
      </trkpt>
      <trkpt lat="45.90196" lon="4.55351">
        <ele>274</ele>
        <time>2022-03-18T09:51:31Z</time>
      </trkpt>
      <trkpt lat="45.90181" lon="4.55282">
        <ele>272</ele>
        <time>2022-03-18T09:51:40Z</time>
      </trkpt>
      <trkpt lat="45.90177" lon="4.55252">
        <ele>272</ele>
        <time>2022-03-18T09:51:43Z</time>
      </trkpt>
      <trkpt lat="45.90174" lon="4.55217">
        <ele>273</ele>
        <time>2022-03-18T09:51:48Z</time>
      </trkpt>
      <trkpt lat="45.90173" lon="4.55174">
        <ele>275</ele>
        <time>2022-03-18T09:51:53Z</time>
      </trkpt>
      <trkpt lat="45.90175" lon="4.55128">
        <ele>277</ele>
        <time>2022-03-18T09:51:59Z</time>
      </trkpt>
      <trkpt lat="45.9018" lon="4.55083">
        <ele>279</ele>
        <time>2022-03-18T09:52:05Z</time>
      </trkpt>
      <trkpt lat="45.90236" lon="4.54827">
        <ele>275</ele>
        <time>2022-03-18T09:52:38Z</time>
      </trkpt>
      <trkpt lat="45.90245" lon="4.54796">
        <ele>274</ele>
        <time>2022-03-18T09:52:42Z</time>
      </trkpt>
      <trkpt lat="45.90256" lon="4.54769">
        <ele>274</ele>
        <time>2022-03-18T09:52:46Z</time>
      </trkpt>
      <trkpt lat="45.90316" lon="4.54657">
        <ele>276</ele>
        <time>2022-03-18T09:53:03Z</time>
      </trkpt>
      <trkpt lat="45.90331" lon="4.54622">
        <ele>276</ele>
        <time>2022-03-18T09:53:08Z</time>
      </trkpt>
      <trkpt lat="45.90338" lon="4.54594">
        <ele>276</ele>
        <time>2022-03-18T09:53:12Z</time>
      </trkpt>
      <trkpt lat="45.90343" lon="4.54565">
        <ele>276</ele>
        <time>2022-03-18T09:53:16Z</time>
      </trkpt>
      <trkpt lat="45.90345" lon="4.54533">
        <ele>276</ele>
        <time>2022-03-18T09:53:20Z</time>
      </trkpt>
      <trkpt lat="45.90344" lon="4.54501">
        <ele>276</ele>
        <time>2022-03-18T09:53:24Z</time>
      </trkpt>
      <trkpt lat="45.90337" lon="4.54458">
        <ele>277</ele>
        <time>2022-03-18T09:53:29Z</time>
      </trkpt>
      <trkpt lat="45.90314" lon="4.54348">
        <ele>279</ele>
        <time>2022-03-18T09:53:43Z</time>
      </trkpt>
      <trkpt lat="45.90307" lon="4.543">
        <ele>281</ele>
        <time>2022-03-18T09:53:49Z</time>
      </trkpt>
      <trkpt lat="45.90304" lon="4.5425">
        <ele>284</ele>
        <time>2022-03-18T09:53:56Z</time>
      </trkpt>
      <trkpt lat="45.90281" lon="4.53668">
        <ele>285</ele>
        <time>2022-03-18T09:55:08Z</time>
      </trkpt>
      <trkpt lat="45.90281" lon="4.53628">
        <ele>285</ele>
        <time>2022-03-18T09:55:13Z</time>
      </trkpt>
      <trkpt lat="45.90284" lon="4.53585">
        <ele>285</ele>
        <time>2022-03-18T09:55:18Z</time>
      </trkpt>
      <trkpt lat="45.90292" lon="4.53534">
        <ele>286</ele>
        <time>2022-03-18T09:55:25Z</time>
      </trkpt>
      <trkpt lat="45.90304" lon="4.53473">
        <ele>286</ele>
        <time>2022-03-18T09:55:32Z</time>
      </trkpt>
      <trkpt lat="45.90388" lon="4.53144">
        <ele>294</ele>
        <time>2022-03-18T09:56:16Z</time>
      </trkpt>
      <trkpt lat="45.90398" lon="4.53095">
        <ele>294</ele>
        <time>2022-03-18T09:56:22Z</time>
      </trkpt>
      <trkpt lat="45.90419" lon="4.52951">
        <ele>293</ele>
        <time>2022-03-18T09:56:40Z</time>
      </trkpt>
      <trkpt lat="45.90432" lon="4.52874">
        <ele>295</ele>
        <time>2022-03-18T09:56:50Z</time>
      </trkpt>
      <trkpt lat="45.90443" lon="4.52826">
        <ele>297</ele>
        <time>2022-03-18T09:56:56Z</time>
      </trkpt>
      <trkpt lat="45.90479" lon="4.52691">
        <ele>300</ele>
        <time>2022-03-18T09:57:14Z</time>
      </trkpt>
      <trkpt lat="45.90506" lon="4.52632">
        <ele>301</ele>
        <time>2022-03-18T09:57:23Z</time>
      </trkpt>
      <trkpt lat="45.90517" lon="4.52599">
        <ele>302</ele>
        <time>2022-03-18T09:57:28Z</time>
      </trkpt>
      <trkpt lat="45.90524" lon="4.52572">
        <ele>303</ele>
        <time>2022-03-18T09:57:31Z</time>
      </trkpt>
      <trkpt lat="45.90537" lon="4.52494">
        <ele>305</ele>
        <time>2022-03-18T09:57:41Z</time>
      </trkpt>
      <trkpt lat="45.90546" lon="4.52463">
        <ele>306</ele>
        <time>2022-03-18T09:57:45Z</time>
      </trkpt>
      <trkpt lat="45.90584" lon="4.52364">
        <ele>305</ele>
        <time>2022-03-18T09:57:59Z</time>
      </trkpt>
      <trkpt lat="45.90606" lon="4.52318">
        <ele>306</ele>
        <time>2022-03-18T09:58:06Z</time>
      </trkpt>
      <trkpt lat="45.90698" lon="4.52163">
        <ele>311</ele>
        <time>2022-03-18T09:58:31Z</time>
      </trkpt>
      <trkpt lat="45.90753" lon="4.52061">
        <ele>309</ele>
        <time>2022-03-18T09:58:47Z</time>
      </trkpt>
      <trkpt lat="45.90772" lon="4.52019">
        <ele>311</ele>
        <time>2022-03-18T09:58:54Z</time>
      </trkpt>
      <trkpt lat="45.90783" lon="4.51919">
        <ele>308</ele>
        <time>2022-03-18T09:59:06Z</time>
      </trkpt>
      <trkpt lat="45.9085" lon="4.51675">
        <ele>305</ele>
        <time>2022-03-18T09:59:39Z</time>
      </trkpt>
      <trkpt lat="45.90932" lon="4.51441">
        <ele>308</ele>
        <time>2022-03-18T10:00:11Z</time>
      </trkpt>
      <trkpt lat="45.90951" lon="4.5135">
        <ele>311</ele>
        <time>2022-03-18T10:00:23Z</time>
      </trkpt>
      <trkpt lat="45.9097" lon="4.51204">
        <ele>310</ele>
        <time>2022-03-18T10:00:41Z</time>
      </trkpt>
      <trkpt lat="45.90969" lon="4.51115">
        <ele>308</ele>
        <time>2022-03-18T10:00:52Z</time>
      </trkpt>
      <trkpt lat="45.9097" lon="4.51018">
        <ele>309</ele>
        <time>2022-03-18T10:01:04Z</time>
      </trkpt>
      <trkpt lat="45.90976" lon="4.50935">
        <ele>312</ele>
        <time>2022-03-18T10:01:15Z</time>
      </trkpt>
      <trkpt lat="45.90981" lon="4.50902">
        <ele>313</ele>
        <time>2022-03-18T10:01:19Z</time>
      </trkpt>
      <trkpt lat="45.90989" lon="4.5087">
        <ele>312</ele>
        <time>2022-03-18T10:01:23Z</time>
      </trkpt>
      <trkpt lat="45.91002" lon="4.50834">
        <ele>312</ele>
        <time>2022-03-18T10:01:28Z</time>
      </trkpt>
      <trkpt lat="45.9101" lon="4.50806">
        <ele>313</ele>
        <time>2022-03-18T10:01:32Z</time>
      </trkpt>
      <trkpt lat="45.91014" lon="4.50785">
        <ele>314</ele>
        <time>2022-03-18T10:01:34Z</time>
      </trkpt>
      <trkpt lat="45.91016" lon="4.50763">
        <ele>314</ele>
        <time>2022-03-18T10:01:37Z</time>
      </trkpt>
      <trkpt lat="45.91015" lon="4.5074">
        <ele>314</ele>
        <time>2022-03-18T10:01:40Z</time>
      </trkpt>
      <trkpt lat="45.91012" lon="4.50715">
        <ele>314</ele>
        <time>2022-03-18T10:01:43Z</time>
      </trkpt>
      <trkpt lat="45.90991" lon="4.50609">
        <ele>315</ele>
        <time>2022-03-18T10:01:57Z</time>
      </trkpt>
      <trkpt lat="45.9099" lon="4.50574">
        <ele>316</ele>
        <time>2022-03-18T10:02:01Z</time>
      </trkpt>
      <trkpt lat="45.90992" lon="4.50526">
        <ele>315</ele>
        <time>2022-03-18T10:02:07Z</time>
      </trkpt>
      <trkpt lat="45.90995" lon="4.5049">
        <ele>315</ele>
        <time>2022-03-18T10:02:12Z</time>
      </trkpt>
      <trkpt lat="45.91002" lon="4.50455">
        <ele>315</ele>
        <time>2022-03-18T10:02:16Z</time>
      </trkpt>
      <trkpt lat="45.91013" lon="4.50422">
        <ele>317</ele>
        <time>2022-03-18T10:02:21Z</time>
      </trkpt>
      <trkpt lat="45.9103" lon="4.50385">
        <ele>320</ele>
        <time>2022-03-18T10:02:26Z</time>
      </trkpt>
      <trkpt lat="45.91052" lon="4.50348">
        <ele>323</ele>
        <time>2022-03-18T10:02:32Z</time>
      </trkpt>
      <trkpt lat="45.91074" lon="4.50304">
        <ele>325</ele>
        <time>2022-03-18T10:02:39Z</time>
      </trkpt>
      <trkpt lat="45.91085" lon="4.50266">
        <ele>324</ele>
        <time>2022-03-18T10:02:44Z</time>
      </trkpt>
      <trkpt lat="45.91136" lon="4.50057">
        <ele>326</ele>
        <time>2022-03-18T10:03:11Z</time>
      </trkpt>
      <trkpt lat="45.91148" lon="4.50025">
        <ele>326</ele>
        <time>2022-03-18T10:03:16Z</time>
      </trkpt>
      <trkpt lat="45.91161" lon="4.49998">
        <ele>325</ele>
        <time>2022-03-18T10:03:20Z</time>
      </trkpt>
      <trkpt lat="45.91189" lon="4.49957">
        <ele>324</ele>
        <time>2022-03-18T10:03:27Z</time>
      </trkpt>
      <trkpt lat="45.91227" lon="4.49911">
        <ele>326</ele>
        <time>2022-03-18T10:03:36Z</time>
      </trkpt>
      <trkpt lat="45.91252" lon="4.49863">
        <ele>327</ele>
        <time>2022-03-18T10:03:43Z</time>
      </trkpt>
      <trkpt lat="45.9127" lon="4.49816">
        <ele>329</ele>
        <time>2022-03-18T10:03:50Z</time>
      </trkpt>
      <trkpt lat="45.91296" lon="4.49705">
        <ele>330</ele>
        <time>2022-03-18T10:04:04Z</time>
      </trkpt>
      <trkpt lat="45.91322" lon="4.49644">
        <ele>329</ele>
        <time>2022-03-18T10:04:13Z</time>
      </trkpt>
      <trkpt lat="45.9136" lon="4.4959">
        <ele>331</ele>
        <time>2022-03-18T10:04:23Z</time>
      </trkpt>
      <trkpt lat="45.91453" lon="4.49492">
        <ele>341</ele>
        <time>2022-03-18T10:04:43Z</time>
      </trkpt>
      <trkpt lat="45.91483" lon="4.49444">
        <ele>343</ele>
        <time>2022-03-18T10:04:51Z</time>
      </trkpt>
      <trkpt lat="45.91536" lon="4.49291">
        <ele>336</ele>
        <time>2022-03-18T10:05:12Z</time>
      </trkpt>
      <trkpt lat="45.91603" lon="4.49155">
        <ele>333</ele>
        <time>2022-03-18T10:05:33Z</time>
      </trkpt>
      <trkpt lat="45.91629" lon="4.49115">
        <ele>335</ele>
        <time>2022-03-18T10:05:40Z</time>
      </trkpt>
      <trkpt lat="45.91662" lon="4.49076">
        <ele>336</ele>
        <time>2022-03-18T10:05:47Z</time>
      </trkpt>
      <trkpt lat="45.91724" lon="4.49019">
        <ele>334</ele>
        <time>2022-03-18T10:06:01Z</time>
      </trkpt>
      <trkpt lat="45.91742" lon="4.48998">
        <ele>331</ele>
        <time>2022-03-18T10:06:05Z</time>
      </trkpt>
      <trkpt lat="45.91758" lon="4.48975">
        <ele>329</ele>
        <time>2022-03-18T10:06:09Z</time>
      </trkpt>
      <trkpt lat="45.91777" lon="4.48941">
        <ele>329</ele>
        <time>2022-03-18T10:06:14Z</time>
      </trkpt>
      <trkpt lat="45.91791" lon="4.48909">
        <ele>329</ele>
        <time>2022-03-18T10:06:19Z</time>
      </trkpt>
      <trkpt lat="45.91816" lon="4.48826">
        <ele>336</ele>
        <time>2022-03-18T10:06:30Z</time>
      </trkpt>
      <trkpt lat="45.91841" lon="4.48728">
        <ele>335</ele>
        <time>2022-03-18T10:06:43Z</time>
      </trkpt>
      <trkpt lat="45.91853" lon="4.48688">
        <ele>336</ele>
        <time>2022-03-18T10:06:48Z</time>
      </trkpt>
      <trkpt lat="45.91866" lon="4.48654">
        <ele>338</ele>
        <time>2022-03-18T10:06:53Z</time>
      </trkpt>
      <trkpt lat="45.91886" lon="4.48617">
        <ele>340</ele>
        <time>2022-03-18T10:06:59Z</time>
      </trkpt>
      <trkpt lat="45.9193" lon="4.48548">
        <ele>342</ele>
        <time>2022-03-18T10:07:10Z</time>
      </trkpt>
      <trkpt lat="45.91951" lon="4.48512">
        <ele>343</ele>
        <time>2022-03-18T10:07:16Z</time>
      </trkpt>
      <trkpt lat="45.92236" lon="4.47978">
        <ele>348</ele>
        <time>2022-03-18T10:08:40Z</time>
      </trkpt>
      <trkpt lat="45.92254" lon="4.47937">
        <ele>346</ele>
        <time>2022-03-18T10:08:46Z</time>
      </trkpt>
      <trkpt lat="45.92267" lon="4.47896">
        <ele>347</ele>
        <time>2022-03-18T10:08:51Z</time>
      </trkpt>
      <trkpt lat="45.92274" lon="4.47868">
        <ele>348</ele>
        <time>2022-03-18T10:08:55Z</time>
      </trkpt>
      <trkpt lat="45.92279" lon="4.47839">
        <ele>349</ele>
        <time>2022-03-18T10:08:59Z</time>
      </trkpt>
      <trkpt lat="45.92281" lon="4.47811">
        <ele>349</ele>
        <time>2022-03-18T10:09:02Z</time>
      </trkpt>
      <trkpt lat="45.92282" lon="4.47762">
        <ele>350</ele>
        <time>2022-03-18T10:09:08Z</time>
      </trkpt>
      <trkpt lat="45.9228" lon="4.47729">
        <ele>351</ele>
        <time>2022-03-18T10:09:12Z</time>
      </trkpt>
      <trkpt lat="45.92274" lon="4.47693">
        <ele>350</ele>
        <time>2022-03-18T10:09:17Z</time>
      </trkpt>
      <trkpt lat="45.92266" lon="4.47658">
        <ele>350</ele>
        <time>2022-03-18T10:09:21Z</time>
      </trkpt>
      <trkpt lat="45.92255" lon="4.47626">
        <ele>349</ele>
        <time>2022-03-18T10:09:26Z</time>
      </trkpt>
      <trkpt lat="45.9223" lon="4.47564">
        <ele>353</ele>
        <time>2022-03-18T10:09:35Z</time>
      </trkpt>
      <trkpt lat="45.92206" lon="4.475">
        <ele>355</ele>
        <time>2022-03-18T10:09:44Z</time>
      </trkpt>
      <trkpt lat="45.92192" lon="4.47453">
        <ele>354</ele>
        <time>2022-03-18T10:09:50Z</time>
      </trkpt>
      <trkpt lat="45.9218" lon="4.4741">
        <ele>352</ele>
        <time>2022-03-18T10:09:56Z</time>
      </trkpt>
      <trkpt lat="45.92173" lon="4.47364">
        <ele>351</ele>
        <time>2022-03-18T10:10:02Z</time>
      </trkpt>
      <trkpt lat="45.92167" lon="4.47312">
        <ele>351</ele>
        <time>2022-03-18T10:10:08Z</time>
      </trkpt>
      <trkpt lat="45.92166" lon="4.47241">
        <ele>353</ele>
        <time>2022-03-18T10:10:17Z</time>
      </trkpt>
      <trkpt lat="45.92168" lon="4.47203">
        <ele>354</ele>
        <time>2022-03-18T10:10:22Z</time>
      </trkpt>
      <trkpt lat="45.92177" lon="4.47137">
        <ele>357</ele>
        <time>2022-03-18T10:10:30Z</time>
      </trkpt>
      <trkpt lat="45.92236" lon="4.46746">
        <ele>367</ele>
        <time>2022-03-18T10:11:19Z</time>
      </trkpt>
      <trkpt lat="45.92248" lon="4.46616">
        <ele>362</ele>
        <time>2022-03-18T10:11:36Z</time>
      </trkpt>
      <trkpt lat="45.92255" lon="4.46581">
        <ele>363</ele>
        <time>2022-03-18T10:11:40Z</time>
      </trkpt>
      <trkpt lat="45.92264" lon="4.46551">
        <ele>365</ele>
        <time>2022-03-18T10:11:44Z</time>
      </trkpt>
      <trkpt lat="45.92297" lon="4.46478">
        <ele>371</ele>
        <time>2022-03-18T10:11:55Z</time>
      </trkpt>
      <trkpt lat="45.92306" lon="4.46445">
        <ele>370</ele>
        <time>2022-03-18T10:11:59Z</time>
      </trkpt>
      <trkpt lat="45.92314" lon="4.46408">
        <ele>369</ele>
        <time>2022-03-18T10:12:04Z</time>
      </trkpt>
      <trkpt lat="45.92319" lon="4.46362">
        <ele>368</ele>
        <time>2022-03-18T10:12:10Z</time>
      </trkpt>
      <trkpt lat="45.92322" lon="4.46325">
        <ele>368</ele>
        <time>2022-03-18T10:12:15Z</time>
      </trkpt>
      <trkpt lat="45.92321" lon="4.46294">
        <ele>367</ele>
        <time>2022-03-18T10:12:18Z</time>
      </trkpt>
      <trkpt lat="45.92305" lon="4.46146">
        <ele>367</ele>
        <time>2022-03-18T10:12:37Z</time>
      </trkpt>
      <trkpt lat="45.92303" lon="4.46049">
        <ele>368</ele>
        <time>2022-03-18T10:12:49Z</time>
      </trkpt>
      <trkpt lat="45.92304" lon="4.45898">
        <ele>372</ele>
        <time>2022-03-18T10:13:08Z</time>
      </trkpt>
      <trkpt lat="45.92309" lon="4.45747">
        <ele>378</ele>
        <time>2022-03-18T10:13:26Z</time>
      </trkpt>
      <trkpt lat="45.92315" lon="4.45424">
        <ele>388</ele>
        <time>2022-03-18T10:14:06Z</time>
      </trkpt>
      <trkpt lat="45.92343" lon="4.45262">
        <ele>389</ele>
        <time>2022-03-18T10:14:27Z</time>
      </trkpt>
      <trkpt lat="45.92367" lon="4.45159">
        <ele>392</ele>
        <time>2022-03-18T10:14:40Z</time>
      </trkpt>
      <trkpt lat="45.9239" lon="4.45091">
        <ele>390</ele>
        <time>2022-03-18T10:14:50Z</time>
      </trkpt>
      <trkpt lat="45.92418" lon="4.45028">
        <ele>384</ele>
        <time>2022-03-18T10:14:59Z</time>
      </trkpt>
      <trkpt lat="45.92572" lon="4.44746">
        <ele>391</ele>
        <time>2022-03-18T10:15:43Z</time>
      </trkpt>
      <trkpt lat="45.92587" lon="4.44712">
        <ele>391</ele>
        <time>2022-03-18T10:15:48Z</time>
      </trkpt>
      <trkpt lat="45.92656" lon="4.44534">
        <ele>397</ele>
        <time>2022-03-18T10:16:14Z</time>
      </trkpt>
      <trkpt lat="45.92684" lon="4.44489">
        <ele>398</ele>
        <time>2022-03-18T10:16:21Z</time>
      </trkpt>
      <trkpt lat="45.927" lon="4.4447">
        <ele>402</ele>
        <time>2022-03-18T10:16:25Z</time>
      </trkpt>
      <trkpt lat="45.9272" lon="4.44453">
        <ele>404</ele>
        <time>2022-03-18T10:16:29Z</time>
      </trkpt>
      <trkpt lat="45.92766" lon="4.44429">
        <ele>403</ele>
        <time>2022-03-18T10:16:38Z</time>
      </trkpt>
      <trkpt lat="45.92829" lon="4.44409">
        <ele>406</ele>
        <time>2022-03-18T10:16:49Z</time>
      </trkpt>
      <trkpt lat="45.92855" lon="4.44395">
        <ele>409</ele>
        <time>2022-03-18T10:16:54Z</time>
      </trkpt>
      <trkpt lat="45.92917" lon="4.44356">
        <ele>408</ele>
        <time>2022-03-18T10:17:06Z</time>
      </trkpt>
      <trkpt lat="45.92992" lon="4.44316">
        <ele>409</ele>
        <time>2022-03-18T10:17:20Z</time>
      </trkpt>
      <trkpt lat="45.93043" lon="4.44291">
        <ele>411</ele>
        <time>2022-03-18T10:17:30Z</time>
      </trkpt>
      <trkpt lat="45.93067" lon="4.44277">
        <ele>409</ele>
        <time>2022-03-18T10:17:35Z</time>
      </trkpt>
      <trkpt lat="45.93289" lon="4.44108">
        <ele>412</ele>
        <time>2022-03-18T10:18:19Z</time>
      </trkpt>
      <trkpt lat="45.93679" lon="4.43797">
        <ele>422</ele>
        <time>2022-03-18T10:19:39Z</time>
      </trkpt>
      <trkpt lat="45.93801" lon="4.43717">
        <ele>427</ele>
        <time>2022-03-18T10:20:02Z</time>
      </trkpt>
      <trkpt lat="45.93821" lon="4.43702">
        <ele>427</ele>
        <time>2022-03-18T10:20:06Z</time>
      </trkpt>
      <trkpt lat="45.93883" lon="4.43647">
        <ele>427</ele>
        <time>2022-03-18T10:20:19Z</time>
      </trkpt>
      <trkpt lat="45.93902" lon="4.43633">
        <ele>427</ele>
        <time>2022-03-18T10:20:23Z</time>
      </trkpt>
      <trkpt lat="45.94083" lon="4.43528">
        <ele>433</ele>
        <time>2022-03-18T10:20:58Z</time>
      </trkpt>
      <trkpt lat="45.94313" lon="4.4344">
        <ele>443</ele>
        <time>2022-03-18T10:21:40Z</time>
      </trkpt>
      <trkpt lat="45.94328" lon="4.43433">
        <ele>443</ele>
        <time>2022-03-18T10:21:43Z</time>
      </trkpt>
      <trkpt lat="45.94347" lon="4.43421">
        <ele>443</ele>
        <time>2022-03-18T10:21:47Z</time>
      </trkpt>
      <trkpt lat="45.9436" lon="4.4341">
        <ele>443</ele>
        <time>2022-03-18T10:21:49Z</time>
      </trkpt>
      <trkpt lat="45.94381" lon="4.43389">
        <ele>444</ele>
        <time>2022-03-18T10:21:54Z</time>
      </trkpt>
      <trkpt lat="45.94398" lon="4.43366">
        <ele>445</ele>
        <time>2022-03-18T10:21:58Z</time>
      </trkpt>
      <trkpt lat="45.94408" lon="4.43348">
        <ele>445</ele>
        <time>2022-03-18T10:22:01Z</time>
      </trkpt>
      <trkpt lat="45.94479" lon="4.43198">
        <ele>453</ele>
        <time>2022-03-18T10:22:23Z</time>
      </trkpt>
      <trkpt lat="45.94508" lon="4.43142">
        <ele>454</ele>
        <time>2022-03-18T10:22:32Z</time>
      </trkpt>
      <trkpt lat="45.94581" lon="4.43036">
        <ele>458</ele>
        <time>2022-03-18T10:22:51Z</time>
      </trkpt>
      <trkpt lat="45.94619" lon="4.42986">
        <ele>461</ele>
        <time>2022-03-18T10:23:00Z</time>
      </trkpt>
      <trkpt lat="45.94636" lon="4.42968">
        <ele>461</ele>
        <time>2022-03-18T10:23:03Z</time>
      </trkpt>
      <trkpt lat="45.94649" lon="4.4296">
        <ele>462</ele>
        <time>2022-03-18T10:23:06Z</time>
      </trkpt>
      <trkpt lat="45.94709" lon="4.42946">
        <ele>465</ele>
        <time>2022-03-18T10:23:17Z</time>
      </trkpt>
      <trkpt lat="45.94724" lon="4.42932">
        <ele>465</ele>
        <time>2022-03-18T10:23:20Z</time>
      </trkpt>
      <trkpt lat="45.94732" lon="4.42917">
        <ele>464</ele>
        <time>2022-03-18T10:23:22Z</time>
      </trkpt>
      <trkpt lat="45.94745" lon="4.42872">
        <ele>463</ele>
        <time>2022-03-18T10:23:28Z</time>
      </trkpt>
      <trkpt lat="45.94754" lon="4.4285">
        <ele>464</ele>
        <time>2022-03-18T10:23:31Z</time>
      </trkpt>
      <trkpt lat="45.94767" lon="4.42828">
        <ele>466</ele>
        <time>2022-03-18T10:23:35Z</time>
      </trkpt>
      <trkpt lat="45.94787" lon="4.42807">
        <ele>468</ele>
        <time>2022-03-18T10:23:39Z</time>
      </trkpt>
      <trkpt lat="45.94788" lon="4.42798">
        <ele>466</ele>
        <time>2022-03-18T10:23:41Z</time>
      </trkpt>
      <trkpt lat="45.94832" lon="4.42727">
        <ele>462</ele>
        <time>2022-03-18T10:23:52Z</time>
      </trkpt>
      <trkpt lat="45.94788" lon="4.42798">
        <ele>466</ele>
        <time>2022-03-18T10:24:04Z</time>
      </trkpt>
      <trkpt lat="45.94787" lon="4.42807">
        <ele>468</ele>
        <time>2022-03-18T10:24:05Z</time>
      </trkpt>
      <trkpt lat="45.94815" lon="4.42776">
        <ele>468</ele>
        <time>2022-03-18T10:24:12Z</time>
      </trkpt>
      <trkpt lat="45.94843" lon="4.42742">
        <ele>467</ele>
        <time>2022-03-18T10:24:18Z</time>
      </trkpt>
      <trkpt lat="45.94896" lon="4.42652">
        <ele>468</ele>
        <time>2022-03-18T10:24:33Z</time>
      </trkpt>
      <trkpt lat="45.94945" lon="4.42592">
        <ele>470</ele>
        <time>2022-03-18T10:24:44Z</time>
      </trkpt>
      <trkpt lat="45.94957" lon="4.42576">
        <ele>472</ele>
        <time>2022-03-18T10:24:47Z</time>
      </trkpt>
      <trkpt lat="45.94969" lon="4.42547">
        <ele>472</ele>
        <time>2022-03-18T10:24:51Z</time>
      </trkpt>
      <trkpt lat="45.94981" lon="4.42504">
        <ele>472</ele>
        <time>2022-03-18T10:24:57Z</time>
      </trkpt>
      <trkpt lat="45.94999" lon="4.42458">
        <ele>472</ele>
        <time>2022-03-18T10:25:03Z</time>
      </trkpt>
      <trkpt lat="45.95017" lon="4.42422">
        <ele>474</ele>
        <time>2022-03-18T10:25:09Z</time>
      </trkpt>
      <trkpt lat="45.95029" lon="4.42401">
        <ele>474</ele>
        <time>2022-03-18T10:25:12Z</time>
      </trkpt>
      <trkpt lat="45.95039" lon="4.42387">
        <ele>475</ele>
        <time>2022-03-18T10:25:15Z</time>
      </trkpt>
      <trkpt lat="45.95055" lon="4.42372">
        <ele>475</ele>
        <time>2022-03-18T10:25:18Z</time>
      </trkpt>
      <trkpt lat="45.95105" lon="4.4233">
        <ele>474</ele>
        <time>2022-03-18T10:25:28Z</time>
      </trkpt>
      <trkpt lat="45.95135" lon="4.42309">
        <ele>475</ele>
        <time>2022-03-18T10:25:34Z</time>
      </trkpt>
      <trkpt lat="45.95199" lon="4.42288">
        <ele>481</ele>
        <time>2022-03-18T10:25:46Z</time>
      </trkpt>
      <trkpt lat="45.95222" lon="4.42275">
        <ele>481</ele>
        <time>2022-03-18T10:25:51Z</time>
      </trkpt>
      <trkpt lat="45.95272" lon="4.42227">
        <ele>483</ele>
        <time>2022-03-18T10:26:01Z</time>
      </trkpt>
      <trkpt lat="45.953" lon="4.42207">
        <ele>486</ele>
        <time>2022-03-18T10:26:07Z</time>
      </trkpt>
      <trkpt lat="45.95342" lon="4.42191">
        <ele>490</ele>
        <time>2022-03-18T10:26:14Z</time>
      </trkpt>
      <trkpt lat="45.95375" lon="4.42186">
        <ele>492</ele>
        <time>2022-03-18T10:26:20Z</time>
      </trkpt>
      <trkpt lat="45.95454" lon="4.42186">
        <ele>500</ele>
        <time>2022-03-18T10:26:34Z</time>
      </trkpt>
      <trkpt lat="45.95493" lon="4.42179">
        <ele>502</ele>
        <time>2022-03-18T10:26:41Z</time>
      </trkpt>
      <trkpt lat="45.95514" lon="4.42172">
        <ele>502</ele>
        <time>2022-03-18T10:26:45Z</time>
      </trkpt>
      <trkpt lat="45.95546" lon="4.42156">
        <ele>504</ele>
        <time>2022-03-18T10:26:51Z</time>
      </trkpt>
      <trkpt lat="45.95574" lon="4.42134">
        <ele>503</ele>
        <time>2022-03-18T10:26:57Z</time>
      </trkpt>
      <trkpt lat="45.95685" lon="4.42003">
        <ele>499</ele>
        <time>2022-03-18T10:27:23Z</time>
      </trkpt>
      <trkpt lat="45.95695" lon="4.41989">
        <ele>501</ele>
        <time>2022-03-18T10:27:25Z</time>
      </trkpt>
      <trkpt lat="45.95707" lon="4.41961">
        <ele>504</ele>
        <time>2022-03-18T10:27:29Z</time>
      </trkpt>
      <trkpt lat="45.95751" lon="4.41835">
        <ele>508</ele>
        <time>2022-03-18T10:27:47Z</time>
      </trkpt>
      <trkpt lat="45.95762" lon="4.41809">
        <ele>510</ele>
        <time>2022-03-18T10:27:50Z</time>
      </trkpt>
      <trkpt lat="45.95789" lon="4.41761">
        <ele>515</ele>
        <time>2022-03-18T10:27:58Z</time>
      </trkpt>
      <trkpt lat="45.95813" lon="4.41707">
        <ele>516</ele>
        <time>2022-03-18T10:28:06Z</time>
      </trkpt>
      <trkpt lat="45.95822" lon="4.41691">
        <ele>514</ele>
        <time>2022-03-18T10:28:08Z</time>
      </trkpt>
      <trkpt lat="45.95837" lon="4.41671">
        <ele>512</ele>
        <time>2022-03-18T10:28:12Z</time>
      </trkpt>
      <trkpt lat="45.95891" lon="4.4162">
        <ele>517</ele>
        <time>2022-03-18T10:28:24Z</time>
      </trkpt>
      <trkpt lat="45.95967" lon="4.41565">
        <ele>520</ele>
        <time>2022-03-18T10:28:39Z</time>
      </trkpt>
      <trkpt lat="45.95984" lon="4.41557">
        <ele>522</ele>
        <time>2022-03-18T10:28:42Z</time>
      </trkpt>
      <trkpt lat="45.96003" lon="4.41552">
        <ele>524</ele>
        <time>2022-03-18T10:28:45Z</time>
      </trkpt>
      <trkpt lat="45.96025" lon="4.4155">
        <ele>524</ele>
        <time>2022-03-18T10:28:49Z</time>
      </trkpt>
      <trkpt lat="45.96049" lon="4.41556">
        <ele>526</ele>
        <time>2022-03-18T10:28:54Z</time>
      </trkpt>
      <trkpt lat="45.96127" lon="4.41596">
        <ele>532</ele>
        <time>2022-03-18T10:29:08Z</time>
      </trkpt>
      <trkpt lat="45.96198" lon="4.41663">
        <ele>541</ele>
        <time>2022-03-18T10:29:23Z</time>
      </trkpt>
      <trkpt lat="45.96412" lon="4.41798">
        <ele>545</ele>
        <time>2022-03-18T10:30:05Z</time>
      </trkpt>
      <trkpt lat="45.96486" lon="4.41858">
        <ele>549</ele>
        <time>2022-03-18T10:30:20Z</time>
      </trkpt>
      <trkpt lat="45.96666" lon="4.41975">
        <ele>555</ele>
        <time>2022-03-18T10:30:55Z</time>
      </trkpt>
      <trkpt lat="45.96809" lon="4.421">
        <ele>567</ele>
        <time>2022-03-18T10:31:25Z</time>
      </trkpt>
      <trkpt lat="45.96863" lon="4.42151">
        <ele>575</ele>
        <time>2022-03-18T10:31:36Z</time>
      </trkpt>
      <trkpt lat="45.96892" lon="4.42174">
        <ele>577</ele>
        <time>2022-03-18T10:31:42Z</time>
      </trkpt>
      <trkpt lat="45.97018" lon="4.42233">
        <ele>584</ele>
        <time>2022-03-18T10:32:06Z</time>
      </trkpt>
      <trkpt lat="45.97034" lon="4.42234">
        <ele>584</ele>
        <time>2022-03-18T10:32:09Z</time>
      </trkpt>
      <trkpt lat="45.97049" lon="4.42227">
        <ele>584</ele>
        <time>2022-03-18T10:32:12Z</time>
      </trkpt>
      <trkpt lat="45.97059" lon="4.42214">
        <ele>585</ele>
        <time>2022-03-18T10:32:14Z</time>
      </trkpt>
      <trkpt lat="45.97067" lon="4.42197">
        <ele>587</ele>
        <time>2022-03-18T10:32:17Z</time>
      </trkpt>
      <trkpt lat="45.9707" lon="4.42183">
        <ele>588</ele>
        <time>2022-03-18T10:32:18Z</time>
      </trkpt>
      <trkpt lat="45.97072" lon="4.42165">
        <ele>590</ele>
        <time>2022-03-18T10:32:21Z</time>
      </trkpt>
      <trkpt lat="45.97067" lon="4.42144">
        <ele>591</ele>
        <time>2022-03-18T10:32:23Z</time>
      </trkpt>
      <trkpt lat="45.97061" lon="4.42124">
        <ele>592</ele>
        <time>2022-03-18T10:32:26Z</time>
      </trkpt>
      <trkpt lat="45.97045" lon="4.4209">
        <ele>591</ele>
        <time>2022-03-18T10:32:31Z</time>
      </trkpt>
      <trkpt lat="45.97022" lon="4.42056">
        <ele>588</ele>
        <time>2022-03-18T10:32:37Z</time>
      </trkpt>
      <trkpt lat="45.96992" lon="4.42036">
        <ele>587</ele>
        <time>2022-03-18T10:32:43Z</time>
      </trkpt>
      <trkpt lat="45.96936" lon="4.42015">
        <ele>586</ele>
        <time>2022-03-18T10:32:53Z</time>
      </trkpt>
      <trkpt lat="45.96913" lon="4.41996">
        <ele>588</ele>
        <time>2022-03-18T10:32:58Z</time>
      </trkpt>
      <trkpt lat="45.96852" lon="4.41912">
        <ele>598</ele>
        <time>2022-03-18T10:33:13Z</time>
      </trkpt>
      <trkpt lat="45.96808" lon="4.41861">
        <ele>601</ele>
        <time>2022-03-18T10:33:23Z</time>
      </trkpt>
      <trkpt lat="45.96774" lon="4.41828">
        <ele>597</ele>
        <time>2022-03-18T10:33:30Z</time>
      </trkpt>
      <trkpt lat="45.9673" lon="4.41767">
        <ele>604</ele>
        <time>2022-03-18T10:33:41Z</time>
      </trkpt>
      <trkpt lat="45.96671" lon="4.41674">
        <ele>607</ele>
        <time>2022-03-18T10:33:57Z</time>
      </trkpt>
      <trkpt lat="45.9665" lon="4.4165">
        <ele>609</ele>
        <time>2022-03-18T10:34:01Z</time>
      </trkpt>
      <trkpt lat="45.96556" lon="4.41607">
        <ele>603</ele>
        <time>2022-03-18T10:34:19Z</time>
      </trkpt>
      <trkpt lat="45.96515" lon="4.41572">
        <ele>606</ele>
        <time>2022-03-18T10:34:28Z</time>
      </trkpt>
      <trkpt lat="45.96414" lon="4.41412">
        <ele>615</ele>
        <time>2022-03-18T10:34:54Z</time>
      </trkpt>
      <trkpt lat="45.96403" lon="4.41375">
        <ele>617</ele>
        <time>2022-03-18T10:34:59Z</time>
      </trkpt>
      <trkpt lat="45.96404" lon="4.41331">
        <ele>622</ele>
        <time>2022-03-18T10:35:05Z</time>
      </trkpt>
      <trkpt lat="45.96439" lon="4.4122">
        <ele>634</ele>
        <time>2022-03-18T10:35:20Z</time>
      </trkpt>
      <trkpt lat="45.96463" lon="4.41176">
        <ele>635</ele>
        <time>2022-03-18T10:35:27Z</time>
      </trkpt>
      <trkpt lat="45.965" lon="4.4114">
        <ele>634</ele>
        <time>2022-03-18T10:35:35Z</time>
      </trkpt>
      <trkpt lat="45.96551" lon="4.41097">
        <ele>632</ele>
        <time>2022-03-18T10:35:45Z</time>
      </trkpt>
      <trkpt lat="45.96627" lon="4.41068">
        <ele>634</ele>
        <time>2022-03-18T10:35:59Z</time>
      </trkpt>
      <trkpt lat="45.96702" lon="4.41065">
        <ele>644</ele>
        <time>2022-03-18T10:36:12Z</time>
      </trkpt>
      <trkpt lat="45.9687" lon="4.41014">
        <ele>660</ele>
        <time>2022-03-18T10:36:43Z</time>
      </trkpt>
      <trkpt lat="45.96909" lon="4.40982">
        <ele>659</ele>
        <time>2022-03-18T10:36:51Z</time>
      </trkpt>
      <trkpt lat="45.96967" lon="4.40906">
        <ele>653</ele>
        <time>2022-03-18T10:37:05Z</time>
      </trkpt>
      <trkpt lat="45.97005" lon="4.40892">
        <ele>661</ele>
        <time>2022-03-18T10:37:12Z</time>
      </trkpt>
      <trkpt lat="45.97088" lon="4.4092">
        <ele>674</ele>
        <time>2022-03-18T10:37:27Z</time>
      </trkpt>
      <trkpt lat="45.97115" lon="4.40917">
        <ele>678</ele>
        <time>2022-03-18T10:37:32Z</time>
      </trkpt>
      <trkpt lat="45.97141" lon="4.4089">
        <ele>679</ele>
        <time>2022-03-18T10:37:38Z</time>
      </trkpt>
      <trkpt lat="45.97147" lon="4.40849">
        <ele>676</ele>
        <time>2022-03-18T10:37:43Z</time>
      </trkpt>
      <trkpt lat="45.97139" lon="4.40822">
        <ele>674</ele>
        <time>2022-03-18T10:37:46Z</time>
      </trkpt>
      <trkpt lat="45.97111" lon="4.40775">
        <ele>674</ele>
        <time>2022-03-18T10:37:54Z</time>
      </trkpt>
      <trkpt lat="45.97099" lon="4.40739">
        <ele>675</ele>
        <time>2022-03-18T10:37:59Z</time>
      </trkpt>
      <trkpt lat="45.97093" lon="4.40602">
        <ele>685</ele>
        <time>2022-03-18T10:38:16Z</time>
      </trkpt>
      <trkpt lat="45.97097" lon="4.40553">
        <ele>687</ele>
        <time>2022-03-18T10:38:22Z</time>
      </trkpt>
      <trkpt lat="45.97125" lon="4.4042">
        <ele>686</ele>
        <time>2022-03-18T10:38:39Z</time>
      </trkpt>
      <trkpt lat="45.97134" lon="4.4038">
        <ele>685</ele>
        <time>2022-03-18T10:38:45Z</time>
      </trkpt>
      <trkpt lat="45.97144" lon="4.40348">
        <ele>683</ele>
        <time>2022-03-18T10:38:49Z</time>
      </trkpt>
      <trkpt lat="45.97155" lon="4.40324">
        <ele>683</ele>
        <time>2022-03-18T10:38:52Z</time>
      </trkpt>
      <trkpt lat="45.97167" lon="4.40304">
        <ele>683</ele>
        <time>2022-03-18T10:38:56Z</time>
      </trkpt>
      <trkpt lat="45.97185" lon="4.40282">
        <ele>683</ele>
        <time>2022-03-18T10:39:00Z</time>
      </trkpt>
      <trkpt lat="45.97228" lon="4.40243">
        <ele>685</ele>
        <time>2022-03-18T10:39:09Z</time>
      </trkpt>
      <trkpt lat="45.97247" lon="4.4023">
        <ele>687</ele>
        <time>2022-03-18T10:39:13Z</time>
      </trkpt>
      <trkpt lat="45.97298" lon="4.40206">
        <ele>690</ele>
        <time>2022-03-18T10:39:22Z</time>
      </trkpt>
      <trkpt lat="45.97316" lon="4.40201">
        <ele>692</ele>
        <time>2022-03-18T10:39:25Z</time>
      </trkpt>
      <trkpt lat="45.97343" lon="4.40196">
        <ele>694</ele>
        <time>2022-03-18T10:39:30Z</time>
      </trkpt>
      <trkpt lat="45.97421" lon="4.40194">
        <ele>698</ele>
        <time>2022-03-18T10:39:44Z</time>
      </trkpt>
      <trkpt lat="45.97456" lon="4.40185">
        <ele>699</ele>
        <time>2022-03-18T10:39:51Z</time>
      </trkpt>
      <trkpt lat="45.97485" lon="4.40173">
        <ele>700</ele>
        <time>2022-03-18T10:39:56Z</time>
      </trkpt>
      <trkpt lat="45.97503" lon="4.40164">
        <ele>701</ele>
        <time>2022-03-18T10:39:59Z</time>
      </trkpt>
      <trkpt lat="45.97518" lon="4.40149">
        <ele>704</ele>
        <time>2022-03-18T10:40:03Z</time>
      </trkpt>
      <trkpt lat="45.97525" lon="4.40139">
        <ele>705</ele>
        <time>2022-03-18T10:40:04Z</time>
      </trkpt>
      <trkpt lat="45.97534" lon="4.40113">
        <ele>708</ele>
        <time>2022-03-18T10:40:08Z</time>
      </trkpt>
      <trkpt lat="45.97534" lon="4.40084">
        <ele>709</ele>
        <time>2022-03-18T10:40:11Z</time>
      </trkpt>
      <trkpt lat="45.97532" lon="4.40067">
        <ele>711</ele>
        <time>2022-03-18T10:40:14Z</time>
      </trkpt>
      <trkpt lat="45.97525" lon="4.40047">
        <ele>711</ele>
        <time>2022-03-18T10:40:16Z</time>
      </trkpt>
      <trkpt lat="45.97468" lon="4.39925">
        <ele>715</ele>
        <time>2022-03-18T10:40:35Z</time>
      </trkpt>
      <trkpt lat="45.97441" lon="4.39877">
        <ele>716</ele>
        <time>2022-03-18T10:40:42Z</time>
      </trkpt>
      <trkpt lat="45.97373" lon="4.39769">
        <ele>721</ele>
        <time>2022-03-18T10:41:00Z</time>
      </trkpt>
      <trkpt lat="45.9729" lon="4.39644">
        <ele>730</ele>
        <time>2022-03-18T10:41:22Z</time>
      </trkpt>
      <trkpt lat="45.97277" lon="4.3962">
        <ele>730</ele>
        <time>2022-03-18T10:41:25Z</time>
      </trkpt>
      <trkpt lat="45.97238" lon="4.39532">
        <ele>726</ele>
        <time>2022-03-18T10:41:38Z</time>
      </trkpt>
      <trkpt lat="45.97224" lon="4.39509">
        <ele>726</ele>
        <time>2022-03-18T10:41:42Z</time>
      </trkpt>
      <trkpt lat="45.97201" lon="4.39484">
        <ele>724</ele>
        <time>2022-03-18T10:41:47Z</time>
      </trkpt>
      <trkpt lat="45.97163" lon="4.3945">
        <ele>721</ele>
        <time>2022-03-18T10:41:55Z</time>
      </trkpt>
      <trkpt lat="45.97144" lon="4.3943">
        <ele>721</ele>
        <time>2022-03-18T10:41:59Z</time>
      </trkpt>
      <trkpt lat="45.97111" lon="4.39383">
        <ele>720</ele>
        <time>2022-03-18T10:42:08Z</time>
      </trkpt>
      <trkpt lat="45.97098" lon="4.39359">
        <ele>720</ele>
        <time>2022-03-18T10:42:11Z</time>
      </trkpt>
      <trkpt lat="45.97032" lon="4.39206">
        <ele>719</ele>
        <time>2022-03-18T10:42:34Z</time>
      </trkpt>
      <trkpt lat="45.97027" lon="4.3919">
        <ele>718</ele>
        <time>2022-03-18T10:42:36Z</time>
      </trkpt>
      <trkpt lat="45.97026" lon="4.39175">
        <ele>717</ele>
        <time>2022-03-18T10:42:38Z</time>
      </trkpt>
      <trkpt lat="45.97027" lon="4.3916">
        <ele>716</ele>
        <time>2022-03-18T10:42:40Z</time>
      </trkpt>
      <trkpt lat="45.97029" lon="4.39152">
        <ele>716</ele>
        <time>2022-03-18T10:42:41Z</time>
      </trkpt>
      <trkpt lat="45.97034" lon="4.39143">
        <ele>715</ele>
        <time>2022-03-18T10:42:42Z</time>
      </trkpt>
      <trkpt lat="45.97044" lon="4.39135">
        <ele>714</ele>
        <time>2022-03-18T10:42:44Z</time>
      </trkpt>
      <trkpt lat="45.97056" lon="4.39132">
        <ele>711</ele>
        <time>2022-03-18T10:42:46Z</time>
      </trkpt>
      <trkpt lat="45.97063" lon="4.39134">
        <ele>710</ele>
        <time>2022-03-18T10:42:47Z</time>
      </trkpt>
      <trkpt lat="45.97073" lon="4.3914">
        <ele>707</ele>
        <time>2022-03-18T10:42:49Z</time>
      </trkpt>
      <trkpt lat="45.97083" lon="4.39153">
        <ele>705</ele>
        <time>2022-03-18T10:42:52Z</time>
      </trkpt>
      <trkpt lat="45.97111" lon="4.39209">
        <ele>704</ele>
        <time>2022-03-18T10:43:00Z</time>
      </trkpt>
      <trkpt lat="45.97123" lon="4.39228">
        <ele>703</ele>
        <time>2022-03-18T10:43:03Z</time>
      </trkpt>
      <trkpt lat="45.9714" lon="4.39247">
        <ele>701</ele>
        <time>2022-03-18T10:43:07Z</time>
      </trkpt>
      <trkpt lat="45.97166" lon="4.39265">
        <ele>699</ele>
        <time>2022-03-18T10:43:12Z</time>
      </trkpt>
      <trkpt lat="45.97194" lon="4.39276">
        <ele>699</ele>
        <time>2022-03-18T10:43:18Z</time>
      </trkpt>
      <trkpt lat="45.97221" lon="4.39279">
        <ele>699</ele>
        <time>2022-03-18T10:43:22Z</time>
      </trkpt>
      <trkpt lat="45.97255" lon="4.39271">
        <ele>697</ele>
        <time>2022-03-18T10:43:29Z</time>
      </trkpt>
      <trkpt lat="45.97272" lon="4.39263">
        <ele>696</ele>
        <time>2022-03-18T10:43:32Z</time>
      </trkpt>
      <trkpt lat="45.9729" lon="4.39249">
        <ele>693</ele>
        <time>2022-03-18T10:43:35Z</time>
      </trkpt>
      <trkpt lat="45.97435" lon="4.39115">
        <ele>678</ele>
        <time>2022-03-18T10:44:06Z</time>
      </trkpt>
      <trkpt lat="45.9745" lon="4.39105">
        <ele>677</ele>
        <time>2022-03-18T10:44:09Z</time>
      </trkpt>
      <trkpt lat="45.97468" lon="4.39098">
        <ele>676</ele>
        <time>2022-03-18T10:44:12Z</time>
      </trkpt>
      <trkpt lat="45.97494" lon="4.39101">
        <ele>677</ele>
        <time>2022-03-18T10:44:17Z</time>
      </trkpt>
      <trkpt lat="45.97512" lon="4.39107">
        <ele>677</ele>
        <time>2022-03-18T10:44:20Z</time>
      </trkpt>
      <trkpt lat="45.97563" lon="4.3913">
        <ele>675</ele>
        <time>2022-03-18T10:44:30Z</time>
      </trkpt>
      <trkpt lat="45.97577" lon="4.3914">
        <ele>674</ele>
        <time>2022-03-18T10:44:33Z</time>
      </trkpt>
      <trkpt lat="45.97609" lon="4.39172">
        <ele>672</ele>
        <time>2022-03-18T10:44:39Z</time>
      </trkpt>
      <trkpt lat="45.97671" lon="4.39252">
        <ele>669</ele>
        <time>2022-03-18T10:44:54Z</time>
      </trkpt>
      <trkpt lat="45.97696" lon="4.39276">
        <ele>667</ele>
        <time>2022-03-18T10:45:00Z</time>
      </trkpt>
      <trkpt lat="45.97743" lon="4.39314">
        <ele>662</ele>
        <time>2022-03-18T10:45:09Z</time>
      </trkpt>
      <trkpt lat="45.97818" lon="4.39388">
        <ele>653</ele>
        <time>2022-03-18T10:45:25Z</time>
      </trkpt>
      <trkpt lat="45.97835" lon="4.39399">
        <ele>650</ele>
        <time>2022-03-18T10:45:29Z</time>
      </trkpt>
      <trkpt lat="45.97847" lon="4.39403">
        <ele>649</ele>
        <time>2022-03-18T10:45:31Z</time>
      </trkpt>
      <trkpt lat="45.97869" lon="4.39406">
        <ele>648</ele>
        <time>2022-03-18T10:45:35Z</time>
      </trkpt>
      <trkpt lat="45.97889" lon="4.39401">
        <ele>647</ele>
        <time>2022-03-18T10:45:38Z</time>
      </trkpt>
      <trkpt lat="45.97904" lon="4.39392">
        <ele>645</ele>
        <time>2022-03-18T10:45:41Z</time>
      </trkpt>
      <trkpt lat="45.97916" lon="4.39381">
        <ele>643</ele>
        <time>2022-03-18T10:45:44Z</time>
      </trkpt>
      <trkpt lat="45.97927" lon="4.39368">
        <ele>644</ele>
        <time>2022-03-18T10:45:46Z</time>
      </trkpt>
      <trkpt lat="45.97942" lon="4.39339">
        <ele>643</ele>
        <time>2022-03-18T10:45:51Z</time>
      </trkpt>
      <trkpt lat="45.9795" lon="4.39317">
        <ele>642</ele>
        <time>2022-03-18T10:45:54Z</time>
      </trkpt>
      <trkpt lat="45.9798" lon="4.39201">
        <ele>636</ele>
        <time>2022-03-18T10:46:09Z</time>
      </trkpt>
      <trkpt lat="45.97997" lon="4.39109">
        <ele>634</ele>
        <time>2022-03-18T10:46:21Z</time>
      </trkpt>
      <trkpt lat="45.97998" lon="4.3908">
        <ele>633</ele>
        <time>2022-03-18T10:46:25Z</time>
      </trkpt>
      <trkpt lat="45.97995" lon="4.39052">
        <ele>632</ele>
        <time>2022-03-18T10:46:28Z</time>
      </trkpt>
      <trkpt lat="45.97968" lon="4.38927">
        <ele>628</ele>
        <time>2022-03-18T10:46:44Z</time>
      </trkpt>
      <trkpt lat="45.97959" lon="4.38894">
        <ele>628</ele>
        <time>2022-03-18T10:46:49Z</time>
      </trkpt>
      <trkpt lat="45.97952" lon="4.38876">
        <ele>627</ele>
        <time>2022-03-18T10:46:51Z</time>
      </trkpt>
      <trkpt lat="45.97946" lon="4.38866">
        <ele>627</ele>
        <time>2022-03-18T10:46:53Z</time>
      </trkpt>
      <trkpt lat="45.97938" lon="4.38854">
        <ele>627</ele>
        <time>2022-03-18T10:46:55Z</time>
      </trkpt>
      <trkpt lat="45.97892" lon="4.38799">
        <ele>622</ele>
        <time>2022-03-18T10:47:06Z</time>
      </trkpt>
      <trkpt lat="45.97875" lon="4.38769">
        <ele>619</ele>
        <time>2022-03-18T10:47:10Z</time>
      </trkpt>
      <trkpt lat="45.97825" lon="4.38623">
        <ele>615</ele>
        <time>2022-03-18T10:47:30Z</time>
      </trkpt>
      <trkpt lat="45.97818" lon="4.38594">
        <ele>615</ele>
        <time>2022-03-18T10:47:34Z</time>
      </trkpt>
      <trkpt lat="45.97816" lon="4.38569">
        <ele>614</ele>
        <time>2022-03-18T10:47:37Z</time>
      </trkpt>
      <trkpt lat="45.97816" lon="4.38545">
        <ele>613</ele>
        <time>2022-03-18T10:47:40Z</time>
      </trkpt>
      <trkpt lat="45.97821" lon="4.38502">
        <ele>611</ele>
        <time>2022-03-18T10:47:46Z</time>
      </trkpt>
      <trkpt lat="45.97833" lon="4.38467">
        <ele>610</ele>
        <time>2022-03-18T10:47:51Z</time>
      </trkpt>
      <trkpt lat="45.97852" lon="4.38433">
        <ele>605</ele>
        <time>2022-03-18T10:47:56Z</time>
      </trkpt>
      <trkpt lat="45.97865" lon="4.38418">
        <ele>604</ele>
        <time>2022-03-18T10:47:59Z</time>
      </trkpt>
      <trkpt lat="45.97896" lon="4.38388">
        <ele>601</ele>
        <time>2022-03-18T10:48:06Z</time>
      </trkpt>
      <trkpt lat="45.97917" lon="4.38369">
        <ele>600</ele>
        <time>2022-03-18T10:48:10Z</time>
      </trkpt>
      <trkpt lat="45.9797" lon="4.38317">
        <ele>594</ele>
        <time>2022-03-18T10:48:21Z</time>
      </trkpt>
      <trkpt lat="45.97991" lon="4.3829">
        <ele>593</ele>
        <time>2022-03-18T10:48:26Z</time>
      </trkpt>
      <trkpt lat="45.98016" lon="4.38245">
        <ele>592</ele>
        <time>2022-03-18T10:48:34Z</time>
      </trkpt>
      <trkpt lat="45.98034" lon="4.38196">
        <ele>589</ele>
        <time>2022-03-18T10:48:40Z</time>
      </trkpt>
      <trkpt lat="45.98041" lon="4.3817">
        <ele>588</ele>
        <time>2022-03-18T10:48:44Z</time>
      </trkpt>
      <trkpt lat="45.98053" lon="4.38105">
        <ele>586</ele>
        <time>2022-03-18T10:48:52Z</time>
      </trkpt>
      <trkpt lat="45.98054" lon="4.38078">
        <ele>585</ele>
        <time>2022-03-18T10:48:55Z</time>
      </trkpt>
      <trkpt lat="45.98054" lon="4.38003">
        <ele>583</ele>
        <time>2022-03-18T10:49:05Z</time>
      </trkpt>
      <trkpt lat="45.9804" lon="4.37691">
        <ele>572</ele>
        <time>2022-03-18T10:49:43Z</time>
      </trkpt>
      <trkpt lat="45.9804" lon="4.37663">
        <ele>572</ele>
        <time>2022-03-18T10:49:47Z</time>
      </trkpt>
      <trkpt lat="45.98043" lon="4.37644">
        <ele>571</ele>
        <time>2022-03-18T10:49:49Z</time>
      </trkpt>
      <trkpt lat="45.98051" lon="4.37608">
        <ele>570</ele>
        <time>2022-03-18T10:49:54Z</time>
      </trkpt>
      <trkpt lat="45.98075" lon="4.37525">
        <ele>568</ele>
        <time>2022-03-18T10:50:05Z</time>
      </trkpt>
      <trkpt lat="45.98106" lon="4.37415">
        <ele>564</ele>
        <time>2022-03-18T10:50:20Z</time>
      </trkpt>
      <trkpt lat="45.98116" lon="4.37366">
        <ele>562</ele>
        <time>2022-03-18T10:50:26Z</time>
      </trkpt>
      <trkpt lat="45.98131" lon="4.37267">
        <ele>559</ele>
        <time>2022-03-18T10:50:39Z</time>
      </trkpt>
      <trkpt lat="45.98147" lon="4.37129">
        <ele>554</ele>
        <time>2022-03-18T10:50:56Z</time>
      </trkpt>
      <trkpt lat="45.98151" lon="4.37056">
        <ele>552</ele>
        <time>2022-03-18T10:51:05Z</time>
      </trkpt>
      <trkpt lat="45.9815" lon="4.3698">
        <ele>549</ele>
        <time>2022-03-18T10:51:14Z</time>
      </trkpt>
      <trkpt lat="45.98147" lon="4.36943">
        <ele>548</ele>
        <time>2022-03-18T10:51:19Z</time>
      </trkpt>
      <trkpt lat="45.98126" lon="4.36762">
        <ele>543</ele>
        <time>2022-03-18T10:51:42Z</time>
      </trkpt>
      <trkpt lat="45.98121" lon="4.36726">
        <ele>541</ele>
        <time>2022-03-18T10:51:46Z</time>
      </trkpt>
      <trkpt lat="45.98114" lon="4.36696">
        <ele>539</ele>
        <time>2022-03-18T10:51:50Z</time>
      </trkpt>
      <trkpt lat="45.98105" lon="4.3667">
        <ele>536</ele>
        <time>2022-03-18T10:51:54Z</time>
      </trkpt>
      <trkpt lat="45.98094" lon="4.36644">
        <ele>534</ele>
        <time>2022-03-18T10:51:57Z</time>
      </trkpt>
      <trkpt lat="45.98077" lon="4.36615">
        <ele>532</ele>
        <time>2022-03-18T10:52:02Z</time>
      </trkpt>
      <trkpt lat="45.9805" lon="4.36582">
        <ele>528</ele>
        <time>2022-03-18T10:52:08Z</time>
      </trkpt>
      <trkpt lat="45.98037" lon="4.3657">
        <ele>528</ele>
        <time>2022-03-18T10:52:11Z</time>
      </trkpt>
      <trkpt lat="45.9802" lon="4.36557">
        <ele>527</ele>
        <time>2022-03-18T10:52:15Z</time>
      </trkpt>
      <trkpt lat="45.97909" lon="4.3649">
        <ele>521</ele>
        <time>2022-03-18T10:52:36Z</time>
      </trkpt>
      <trkpt lat="45.97874" lon="4.36477">
        <ele>520</ele>
        <time>2022-03-18T10:52:42Z</time>
      </trkpt>
      <trkpt lat="45.97842" lon="4.36473">
        <ele>518</ele>
        <time>2022-03-18T10:52:48Z</time>
      </trkpt>
      <trkpt lat="45.97825" lon="4.36475">
        <ele>516</ele>
        <time>2022-03-18T10:52:51Z</time>
      </trkpt>
      <trkpt lat="45.97761" lon="4.36488">
        <ele>513</ele>
        <time>2022-03-18T10:53:03Z</time>
      </trkpt>
      <trkpt lat="45.97743" lon="4.36488">
        <ele>512</ele>
        <time>2022-03-18T10:53:06Z</time>
      </trkpt>
      <trkpt lat="45.97711" lon="4.36484">
        <ele>509</ele>
        <time>2022-03-18T10:53:12Z</time>
      </trkpt>
      <trkpt lat="45.97681" lon="4.36472">
        <ele>507</ele>
        <time>2022-03-18T10:53:17Z</time>
      </trkpt>
      <trkpt lat="45.9766" lon="4.36459">
        <ele>505</ele>
        <time>2022-03-18T10:53:21Z</time>
      </trkpt>
      <trkpt lat="45.9763" lon="4.36431">
        <ele>504</ele>
        <time>2022-03-18T10:53:28Z</time>
      </trkpt>
      <trkpt lat="45.97495" lon="4.36253">
        <ele>499</ele>
        <time>2022-03-18T10:54:00Z</time>
      </trkpt>
      <trkpt lat="45.97461" lon="4.36203">
        <ele>497</ele>
        <time>2022-03-18T10:54:09Z</time>
      </trkpt>
      <trkpt lat="45.97438" lon="4.36158">
        <ele>494</ele>
        <time>2022-03-18T10:54:16Z</time>
      </trkpt>
      <trkpt lat="45.9742" lon="4.3611">
        <ele>493</ele>
        <time>2022-03-18T10:54:22Z</time>
      </trkpt>
      <trkpt lat="45.97403" lon="4.36046">
        <ele>491</ele>
        <time>2022-03-18T10:54:31Z</time>
      </trkpt>
      <trkpt lat="45.97388" lon="4.35978">
        <ele>489</ele>
        <time>2022-03-18T10:54:40Z</time>
      </trkpt>
      <trkpt lat="45.97376" lon="4.35934">
        <ele>487</ele>
        <time>2022-03-18T10:54:46Z</time>
      </trkpt>
      <trkpt lat="45.97361" lon="4.35889">
        <ele>487</ele>
        <time>2022-03-18T10:54:52Z</time>
      </trkpt>
      <trkpt lat="45.9734" lon="4.35852">
        <ele>486</ele>
        <time>2022-03-18T10:54:58Z</time>
      </trkpt>
      <trkpt lat="45.97281" lon="4.35773">
        <ele>485</ele>
        <time>2022-03-18T10:55:12Z</time>
      </trkpt>
      <trkpt lat="45.97253" lon="4.35731">
        <ele>483</ele>
        <time>2022-03-18T10:55:19Z</time>
      </trkpt>
      <trkpt lat="45.97237" lon="4.3569">
        <ele>482</ele>
        <time>2022-03-18T10:55:25Z</time>
      </trkpt>
      <trkpt lat="45.97228" lon="4.35655">
        <ele>481</ele>
        <time>2022-03-18T10:55:30Z</time>
      </trkpt>
      <trkpt lat="45.97191" lon="4.35473">
        <ele>474</ele>
        <time>2022-03-18T10:55:53Z</time>
      </trkpt>
      <trkpt lat="45.97186" lon="4.35432">
        <ele>473</ele>
        <time>2022-03-18T10:55:58Z</time>
      </trkpt>
      <trkpt lat="45.97207" lon="4.3498">
        <ele>461</ele>
        <time>2022-03-18T10:56:54Z</time>
      </trkpt>
      <trkpt lat="45.97211" lon="4.34956">
        <ele>461</ele>
        <time>2022-03-18T10:56:57Z</time>
      </trkpt>
      <trkpt lat="45.97251" lon="4.34822">
        <ele>459</ele>
        <time>2022-03-18T10:57:15Z</time>
      </trkpt>
      <trkpt lat="45.97343" lon="4.34418">
        <ele>447</ele>
        <time>2022-03-18T10:58:08Z</time>
      </trkpt>
      <trkpt lat="45.97391" lon="4.34234">
        <ele>445</ele>
        <time>2022-03-18T10:58:32Z</time>
      </trkpt>
      <trkpt lat="45.97424" lon="4.34121">
        <ele>443</ele>
        <time>2022-03-18T10:58:47Z</time>
      </trkpt>
      <trkpt lat="45.97436" lon="4.34088">
        <ele>443</ele>
        <time>2022-03-18T10:58:52Z</time>
      </trkpt>
      <trkpt lat="45.97451" lon="4.34065">
        <ele>444</ele>
        <time>2022-03-18T10:58:56Z</time>
      </trkpt>
      <trkpt lat="45.97466" lon="4.34052">
        <ele>444</ele>
        <time>2022-03-18T10:58:59Z</time>
      </trkpt>
      <trkpt lat="45.97516" lon="4.34031">
        <ele>443</ele>
        <time>2022-03-18T10:59:08Z</time>
      </trkpt>
      <trkpt lat="45.9754" lon="4.34015">
        <ele>441</ele>
        <time>2022-03-18T10:59:13Z</time>
      </trkpt>
      <trkpt lat="45.97551" lon="4.34006">
        <ele>440</ele>
        <time>2022-03-18T10:59:15Z</time>
      </trkpt>
      <trkpt lat="45.97584" lon="4.33962">
        <ele>438</ele>
        <time>2022-03-18T10:59:23Z</time>
      </trkpt>
      <trkpt lat="45.976" lon="4.3393">
        <ele>439</ele>
        <time>2022-03-18T10:59:28Z</time>
      </trkpt>
      <trkpt lat="45.97606" lon="4.33914">
        <ele>440</ele>
        <time>2022-03-18T10:59:30Z</time>
      </trkpt>
      <trkpt lat="45.9761" lon="4.33894">
        <ele>440</ele>
        <time>2022-03-18T10:59:33Z</time>
      </trkpt>
      <trkpt lat="45.97613" lon="4.33855">
        <ele>441</ele>
        <time>2022-03-18T10:59:38Z</time>
      </trkpt>
      <trkpt lat="45.97616" lon="4.33707">
        <ele>440</ele>
        <time>2022-03-18T10:59:56Z</time>
      </trkpt>
      <trkpt lat="45.9762" lon="4.33688">
        <ele>439</ele>
        <time>2022-03-18T10:59:59Z</time>
      </trkpt>
      <trkpt lat="45.97636" lon="4.3365">
        <ele>437</ele>
        <time>2022-03-18T11:00:04Z</time>
      </trkpt>
      <trkpt lat="45.97642" lon="4.33631">
        <ele>437</ele>
        <time>2022-03-18T11:00:07Z</time>
      </trkpt>
      <trkpt lat="45.97645" lon="4.33607">
        <ele>437</ele>
        <time>2022-03-18T11:00:10Z</time>
      </trkpt>
      <trkpt lat="45.97645" lon="4.33593">
        <ele>438</ele>
        <time>2022-03-18T11:00:11Z</time>
      </trkpt>
      <trkpt lat="45.97637" lon="4.33544">
        <ele>438</ele>
        <time>2022-03-18T11:00:18Z</time>
      </trkpt>
      <trkpt lat="45.97631" lon="4.33454">
        <ele>433</ele>
        <time>2022-03-18T11:00:29Z</time>
      </trkpt>
      <trkpt lat="45.97634" lon="4.33435">
        <ele>431</ele>
        <time>2022-03-18T11:00:31Z</time>
      </trkpt>
      <trkpt lat="45.9764" lon="4.33429">
        <ele>430</ele>
        <time>2022-03-18T11:00:33Z</time>
      </trkpt>
      <trkpt lat="45.97641" lon="4.33422">
        <ele>430</ele>
        <time>2022-03-18T11:00:33Z</time>
      </trkpt>
      <trkpt lat="45.9764" lon="4.33416">
        <ele>429</ele>
        <time>2022-03-18T11:00:34Z</time>
      </trkpt>
      <trkpt lat="45.97635" lon="4.33411">
        <ele>429</ele>
        <time>2022-03-18T11:00:35Z</time>
      </trkpt>
      <trkpt lat="45.9763" lon="4.3341">
        <ele>430</ele>
        <time>2022-03-18T11:00:36Z</time>
      </trkpt>
      <trkpt lat="45.97625" lon="4.33415">
        <ele>430</ele>
        <time>2022-03-18T11:00:37Z</time>
      </trkpt>
      <trkpt lat="45.97624" lon="4.33419">
        <ele>431</ele>
        <time>2022-03-18T11:00:38Z</time>
      </trkpt>
      <trkpt lat="45.9733" lon="4.33293">
        <ele>442</ele>
        <time>2022-03-18T11:01:32Z</time>
      </trkpt>
      <trkpt lat="45.9731" lon="4.33273">
        <ele>441</ele>
        <time>2022-03-18T11:01:37Z</time>
      </trkpt>
      <trkpt lat="45.97301" lon="4.33253">
        <ele>440</ele>
        <time>2022-03-18T11:01:40Z</time>
      </trkpt>
      <trkpt lat="45.97261" lon="4.33236">
        <ele>439</ele>
        <time>2022-03-18T11:01:47Z</time>
      </trkpt>
      <trkpt lat="45.97226" lon="4.33228">
        <ele>437</ele>
        <time>2022-03-18T11:01:53Z</time>
      </trkpt>
      <trkpt lat="45.97225" lon="4.33263">
        <ele>439</ele>
        <time>2022-03-18T11:01:58Z</time>
      </trkpt>
      <trkpt lat="45.97186" lon="4.33253">
        <ele>437</ele>
        <time>2022-03-18T11:02:05Z</time>
      </trkpt>
      <trkpt lat="45.97065" lon="4.3326">
        <ele>432</ele>
        <time>2022-03-18T11:02:26Z</time>
      </trkpt>
      <trkpt lat="45.96909" lon="4.33225">
        <ele>424</ele>
        <time>2022-03-18T11:02:54Z</time>
      </trkpt>
      <trkpt lat="45.96895" lon="4.33222">
        <ele>423</ele>
        <time>2022-03-18T11:02:57Z</time>
      </trkpt>
      <trkpt lat="45.96858" lon="4.33199">
        <ele>423</ele>
        <time>2022-03-18T11:03:04Z</time>
      </trkpt>
      <trkpt lat="45.96847" lon="4.33184">
        <ele>423</ele>
        <time>2022-03-18T11:03:07Z</time>
      </trkpt>
      <trkpt lat="45.96838" lon="4.33168">
        <ele>423</ele>
        <time>2022-03-18T11:03:09Z</time>
      </trkpt>
      <trkpt lat="45.96844" lon="4.3316">
        <ele>423</ele>
        <time>2022-03-18T11:03:11Z</time>
      </trkpt>
      <trkpt lat="45.96847" lon="4.33139">
        <ele>423</ele>
        <time>2022-03-18T11:03:13Z</time>
      </trkpt>
      <trkpt lat="45.96856" lon="4.33124">
        <ele>423</ele>
        <time>2022-03-18T11:03:16Z</time>
      </trkpt>
      <trkpt lat="45.9699" lon="4.32979">
        <ele>420</ele>
        <time>2022-03-18T11:03:46Z</time>
      </trkpt>
      <trkpt lat="45.97032" lon="4.32937">
        <ele>420</ele>
        <time>2022-03-18T11:03:55Z</time>
      </trkpt>
      <trkpt lat="45.97316" lon="4.32626">
        <ele>411</ele>
        <time>2022-03-18T11:04:58Z</time>
      </trkpt>
      <trkpt lat="45.97325" lon="4.32619">
        <ele>410</ele>
        <time>2022-03-18T11:05:00Z</time>
      </trkpt>
      <trkpt lat="45.97333" lon="4.32617">
        <ele>410</ele>
        <time>2022-03-18T11:05:02Z</time>
      </trkpt>
      <trkpt lat="45.97336" lon="4.32622">
        <ele>410</ele>
        <time>2022-03-18T11:05:02Z</time>
      </trkpt>
      <trkpt lat="45.97341" lon="4.32622">
        <ele>409</ele>
        <time>2022-03-18T11:05:03Z</time>
      </trkpt>
      <trkpt lat="45.97345" lon="4.32617">
        <ele>409</ele>
        <time>2022-03-18T11:05:04Z</time>
      </trkpt>
      <trkpt lat="45.97345" lon="4.32613">
        <ele>410</ele>
        <time>2022-03-18T11:05:05Z</time>
      </trkpt>
      <trkpt lat="45.97343" lon="4.32606">
        <ele>410</ele>
        <time>2022-03-18T11:05:06Z</time>
      </trkpt>
      <trkpt lat="45.97465" lon="4.32401">
        <ele>406</ele>
        <time>2022-03-18T11:05:39Z</time>
      </trkpt>
      <trkpt lat="45.97564" lon="4.32301">
        <ele>404</ele>
        <time>2022-03-18T11:06:01Z</time>
      </trkpt>
      <trkpt lat="45.97689" lon="4.32185">
        <ele>401</ele>
        <time>2022-03-18T11:06:27Z</time>
      </trkpt>
      <trkpt lat="45.97837" lon="4.32062">
        <ele>401</ele>
        <time>2022-03-18T11:06:57Z</time>
      </trkpt>
      <trkpt lat="45.97854" lon="4.32042">
        <ele>401</ele>
        <time>2022-03-18T11:07:01Z</time>
      </trkpt>
      <trkpt lat="45.97872" lon="4.32015">
        <ele>401</ele>
        <time>2022-03-18T11:07:06Z</time>
      </trkpt>
      <trkpt lat="45.97934" lon="4.31918">
        <ele>398</ele>
        <time>2022-03-18T11:07:22Z</time>
      </trkpt>
      <trkpt lat="45.97948" lon="4.31911">
        <ele>398</ele>
        <time>2022-03-18T11:07:25Z</time>
      </trkpt>
      <trkpt lat="45.97973" lon="4.31906">
        <ele>397</ele>
        <time>2022-03-18T11:07:29Z</time>
      </trkpt>
      <trkpt lat="45.97982" lon="4.31908">
        <ele>397</ele>
        <time>2022-03-18T11:07:31Z</time>
      </trkpt>
      <trkpt lat="45.97987" lon="4.31906">
        <ele>397</ele>
        <time>2022-03-18T11:07:32Z</time>
      </trkpt>
      <trkpt lat="45.97992" lon="4.319">
        <ele>396</ele>
        <time>2022-03-18T11:07:33Z</time>
      </trkpt>
      <trkpt lat="45.97995" lon="4.31892">
        <ele>396</ele>
        <time>2022-03-18T11:07:34Z</time>
      </trkpt>
      <trkpt lat="45.97995" lon="4.31883">
        <ele>397</ele>
        <time>2022-03-18T11:07:35Z</time>
      </trkpt>
      <trkpt lat="45.97993" lon="4.31874">
        <ele>397</ele>
        <time>2022-03-18T11:07:36Z</time>
      </trkpt>
      <trkpt lat="45.97989" lon="4.31867">
        <ele>397</ele>
        <time>2022-03-18T11:07:38Z</time>
      </trkpt>
      <trkpt lat="45.98015" lon="4.31797">
        <ele>397</ele>
        <time>2022-03-18T11:07:47Z</time>
      </trkpt>
      <trkpt lat="45.98028" lon="4.31773">
        <ele>397</ele>
        <time>2022-03-18T11:07:51Z</time>
      </trkpt>
      <trkpt lat="45.98133" lon="4.31611">
        <ele>396</ele>
        <time>2022-03-18T11:08:19Z</time>
      </trkpt>
      <trkpt lat="45.9815" lon="4.3158">
        <ele>395</ele>
        <time>2022-03-18T11:08:23Z</time>
      </trkpt>
      <trkpt lat="45.9816" lon="4.31557">
        <ele>395</ele>
        <time>2022-03-18T11:08:27Z</time>
      </trkpt>
      <trkpt lat="45.98172" lon="4.31513">
        <ele>396</ele>
        <time>2022-03-18T11:08:33Z</time>
      </trkpt>
      <trkpt lat="45.98175" lon="4.31486">
        <ele>396</ele>
        <time>2022-03-18T11:08:36Z</time>
      </trkpt>
      <trkpt lat="45.98176" lon="4.31455">
        <ele>395</ele>
        <time>2022-03-18T11:08:40Z</time>
      </trkpt>
      <trkpt lat="45.98172" lon="4.31416">
        <ele>395</ele>
        <time>2022-03-18T11:08:45Z</time>
      </trkpt>
      <trkpt lat="45.98131" lon="4.31125">
        <ele>392</ele>
        <time>2022-03-18T11:09:21Z</time>
      </trkpt>
      <trkpt lat="45.98124" lon="4.31075">
        <ele>392</ele>
        <time>2022-03-18T11:09:28Z</time>
      </trkpt>
      <trkpt lat="45.98116" lon="4.31002">
        <ele>392</ele>
        <time>2022-03-18T11:09:37Z</time>
      </trkpt>
      <trkpt lat="45.98116" lon="4.30954">
        <ele>392</ele>
        <time>2022-03-18T11:09:43Z</time>
      </trkpt>
      <trkpt lat="45.98119" lon="4.30713">
        <ele>389</ele>
        <time>2022-03-18T11:10:13Z</time>
      </trkpt>
      <trkpt lat="45.98123" lon="4.30671">
        <ele>388</ele>
        <time>2022-03-18T11:10:18Z</time>
      </trkpt>
      <trkpt lat="45.98132" lon="4.30634">
        <ele>389</ele>
        <time>2022-03-18T11:10:23Z</time>
      </trkpt>
      <trkpt lat="45.98152" lon="4.30587">
        <ele>389</ele>
        <time>2022-03-18T11:10:30Z</time>
      </trkpt>
      <trkpt lat="45.98169" lon="4.30561">
        <ele>389</ele>
        <time>2022-03-18T11:10:34Z</time>
      </trkpt>
      <trkpt lat="45.98202" lon="4.30516">
        <ele>387</ele>
        <time>2022-03-18T11:10:42Z</time>
      </trkpt>
      <trkpt lat="45.98236" lon="4.30474">
        <ele>386</ele>
        <time>2022-03-18T11:10:50Z</time>
      </trkpt>
      <trkpt lat="45.98262" lon="4.3045">
        <ele>387</ele>
        <time>2022-03-18T11:10:55Z</time>
      </trkpt>
      <trkpt lat="45.98361" lon="4.30376">
        <ele>391</ele>
        <time>2022-03-18T11:11:15Z</time>
      </trkpt>
      <trkpt lat="45.98382" lon="4.30354">
        <ele>390</ele>
        <time>2022-03-18T11:11:20Z</time>
      </trkpt>
      <trkpt lat="45.9841" lon="4.30319">
        <ele>389</ele>
        <time>2022-03-18T11:11:27Z</time>
      </trkpt>
      <trkpt lat="45.98429" lon="4.30303">
        <ele>388</ele>
        <time>2022-03-18T11:11:30Z</time>
      </trkpt>
      <trkpt lat="45.98475" lon="4.3027">
        <ele>386</ele>
        <time>2022-03-18T11:11:40Z</time>
      </trkpt>
      <trkpt lat="45.9852" lon="4.30245">
        <ele>383</ele>
        <time>2022-03-18T11:11:48Z</time>
      </trkpt>
      <trkpt lat="45.98546" lon="4.30237">
        <ele>383</ele>
        <time>2022-03-18T11:11:53Z</time>
      </trkpt>
      <trkpt lat="45.98623" lon="4.30225">
        <ele>383</ele>
        <time>2022-03-18T11:12:07Z</time>
      </trkpt>
      <trkpt lat="45.98635" lon="4.30221">
        <ele>383</ele>
        <time>2022-03-18T11:12:09Z</time>
      </trkpt>
      <trkpt lat="45.98658" lon="4.30208">
        <ele>382</ele>
        <time>2022-03-18T11:12:13Z</time>
      </trkpt>
      <trkpt lat="45.98757" lon="4.30139">
        <ele>383</ele>
        <time>2022-03-18T11:12:33Z</time>
      </trkpt>
      <trkpt lat="45.98849" lon="4.30075">
        <ele>385</ele>
        <time>2022-03-18T11:12:51Z</time>
      </trkpt>
      <trkpt lat="45.98868" lon="4.30057">
        <ele>386</ele>
        <time>2022-03-18T11:12:55Z</time>
      </trkpt>
      <trkpt lat="45.98898" lon="4.30019">
        <ele>386</ele>
        <time>2022-03-18T11:13:02Z</time>
      </trkpt>
      <trkpt lat="45.98987" lon="4.29897">
        <ele>385</ele>
        <time>2022-03-18T11:13:24Z</time>
      </trkpt>
      <trkpt lat="45.99002" lon="4.29872">
        <ele>384</ele>
        <time>2022-03-18T11:13:28Z</time>
      </trkpt>
      <trkpt lat="45.99013" lon="4.29848">
        <ele>386</ele>
        <time>2022-03-18T11:13:32Z</time>
      </trkpt>
      <trkpt lat="45.99021" lon="4.29821">
        <ele>387</ele>
        <time>2022-03-18T11:13:35Z</time>
      </trkpt>
      <trkpt lat="45.99052" lon="4.29699">
        <ele>385</ele>
        <time>2022-03-18T11:13:51Z</time>
      </trkpt>
      <trkpt lat="45.99066" lon="4.29656">
        <ele>383</ele>
        <time>2022-03-18T11:13:57Z</time>
      </trkpt>
      <trkpt lat="45.99076" lon="4.29632">
        <ele>381</ele>
        <time>2022-03-18T11:14:01Z</time>
      </trkpt>
      <trkpt lat="45.99094" lon="4.296">
        <ele>380</ele>
        <time>2022-03-18T11:14:06Z</time>
      </trkpt>
      <trkpt lat="45.99108" lon="4.29575">
        <ele>380</ele>
        <time>2022-03-18T11:14:10Z</time>
      </trkpt>
      <trkpt lat="45.99259" lon="4.29373">
        <ele>382</ele>
        <time>2022-03-18T11:14:46Z</time>
      </trkpt>
      <trkpt lat="45.99274" lon="4.29355">
        <ele>382</ele>
        <time>2022-03-18T11:14:50Z</time>
      </trkpt>
      <trkpt lat="45.99302" lon="4.29338">
        <ele>382</ele>
        <time>2022-03-18T11:14:55Z</time>
      </trkpt>
      <trkpt lat="45.99317" lon="4.29335">
        <ele>382</ele>
        <time>2022-03-18T11:14:58Z</time>
      </trkpt>
      <trkpt lat="45.99371" lon="4.29339">
        <ele>386</ele>
        <time>2022-03-18T11:15:08Z</time>
      </trkpt>
      <trkpt lat="45.99398" lon="4.29333">
        <ele>386</ele>
        <time>2022-03-18T11:15:13Z</time>
      </trkpt>
      <trkpt lat="45.99413" lon="4.29326">
        <ele>386</ele>
        <time>2022-03-18T11:15:15Z</time>
      </trkpt>
      <trkpt lat="45.99575" lon="4.29214">
        <ele>380</ele>
        <time>2022-03-18T11:15:47Z</time>
      </trkpt>
      <trkpt lat="45.99663" lon="4.2915">
        <ele>376</ele>
        <time>2022-03-18T11:16:05Z</time>
      </trkpt>
      <trkpt lat="45.99725" lon="4.29096">
        <ele>375</ele>
        <time>2022-03-18T11:16:18Z</time>
      </trkpt>
      <trkpt lat="45.99782" lon="4.29043">
        <ele>375</ele>
        <time>2022-03-18T11:16:30Z</time>
      </trkpt>
      <trkpt lat="45.99801" lon="4.29022">
        <ele>374</ele>
        <time>2022-03-18T11:16:34Z</time>
      </trkpt>
      <trkpt lat="45.99819" lon="4.28998">
        <ele>373</ele>
        <time>2022-03-18T11:16:38Z</time>
      </trkpt>
      <trkpt lat="45.99853" lon="4.2894">
        <ele>375</ele>
        <time>2022-03-18T11:16:48Z</time>
      </trkpt>
      <trkpt lat="45.99869" lon="4.28908">
        <ele>375</ele>
        <time>2022-03-18T11:16:53Z</time>
      </trkpt>
      <trkpt lat="45.99943" lon="4.2874">
        <ele>373</ele>
        <time>2022-03-18T11:17:17Z</time>
      </trkpt>
      <trkpt lat="45.99965" lon="4.28697">
        <ele>374</ele>
        <time>2022-03-18T11:17:24Z</time>
      </trkpt>
      <trkpt lat="45.9998" lon="4.28676">
        <ele>374</ele>
        <time>2022-03-18T11:17:28Z</time>
      </trkpt>
      <trkpt lat="45.99999" lon="4.28655">
        <ele>374</ele>
        <time>2022-03-18T11:17:32Z</time>
      </trkpt>
      <trkpt lat="46.00042" lon="4.2862">
        <ele>375</ele>
        <time>2022-03-18T11:17:41Z</time>
      </trkpt>
      <trkpt lat="46.00068" lon="4.28602">
        <ele>374</ele>
        <time>2022-03-18T11:17:46Z</time>
      </trkpt>
      <trkpt lat="46.0014" lon="4.28563">
        <ele>374</ele>
        <time>2022-03-18T11:17:59Z</time>
      </trkpt>
      <trkpt lat="46.00171" lon="4.28539">
        <ele>375</ele>
        <time>2022-03-18T11:18:06Z</time>
      </trkpt>
      <trkpt lat="46.00198" lon="4.28511">
        <ele>377</ele>
        <time>2022-03-18T11:18:12Z</time>
      </trkpt>
      <trkpt lat="46.00318" lon="4.28365">
        <ele>371</ele>
        <time>2022-03-18T11:18:40Z</time>
      </trkpt>
      <trkpt lat="46.00332" lon="4.28345">
        <ele>369</ele>
        <time>2022-03-18T11:18:43Z</time>
      </trkpt>
      <trkpt lat="46.00349" lon="4.28312">
        <ele>370</ele>
        <time>2022-03-18T11:18:48Z</time>
      </trkpt>
      <trkpt lat="46.00357" lon="4.28292">
        <ele>370</ele>
        <time>2022-03-18T11:18:51Z</time>
      </trkpt>
      <trkpt lat="46.00396" lon="4.28206">
        <ele>370</ele>
        <time>2022-03-18T11:19:04Z</time>
      </trkpt>
      <trkpt lat="46.00453" lon="4.28064">
        <ele>371</ele>
        <time>2022-03-18T11:19:24Z</time>
      </trkpt>
      <trkpt lat="46.00457" lon="4.2804">
        <ele>372</ele>
        <time>2022-03-18T11:19:27Z</time>
      </trkpt>
      <trkpt lat="46.00465" lon="4.2794">
        <ele>375</ele>
        <time>2022-03-18T11:19:40Z</time>
      </trkpt>
      <trkpt lat="46.00473" lon="4.27774">
        <ele>370</ele>
        <time>2022-03-18T11:20:00Z</time>
      </trkpt>
      <trkpt lat="46.00472" lon="4.27713">
        <ele>369</ele>
        <time>2022-03-18T11:20:08Z</time>
      </trkpt>
      <trkpt lat="46.00457" lon="4.27466">
        <ele>369</ele>
        <time>2022-03-18T11:20:38Z</time>
      </trkpt>
      <trkpt lat="46.00457" lon="4.27418">
        <ele>370</ele>
        <time>2022-03-18T11:20:44Z</time>
      </trkpt>
      <trkpt lat="46.0046" lon="4.27374">
        <ele>370</ele>
        <time>2022-03-18T11:20:50Z</time>
      </trkpt>
      <trkpt lat="46.00467" lon="4.27332">
        <ele>371</ele>
        <time>2022-03-18T11:20:55Z</time>
      </trkpt>
      <trkpt lat="46.00475" lon="4.273">
        <ele>370</ele>
        <time>2022-03-18T11:20:59Z</time>
      </trkpt>
      <trkpt lat="46.00488" lon="4.27271">
        <ele>369</ele>
        <time>2022-03-18T11:21:03Z</time>
      </trkpt>
      <trkpt lat="46.00501" lon="4.2725">
        <ele>369</ele>
        <time>2022-03-18T11:21:07Z</time>
      </trkpt>
      <trkpt lat="46.00515" lon="4.27232">
        <ele>370</ele>
        <time>2022-03-18T11:21:10Z</time>
      </trkpt>
      <trkpt lat="46.00534" lon="4.27218">
        <ele>372</ele>
        <time>2022-03-18T11:21:14Z</time>
      </trkpt>
      <trkpt lat="46.00552" lon="4.27209">
        <ele>374</ele>
        <time>2022-03-18T11:21:17Z</time>
      </trkpt>
      <trkpt lat="46.00561" lon="4.27212">
        <ele>375</ele>
        <time>2022-03-18T11:21:19Z</time>
      </trkpt>
      <trkpt lat="46.00568" lon="4.27209">
        <ele>375</ele>
        <time>2022-03-18T11:21:20Z</time>
      </trkpt>
      <trkpt lat="46.0057" lon="4.27205">
        <ele>376</ele>
        <time>2022-03-18T11:21:21Z</time>
      </trkpt>
      <trkpt lat="46.00573" lon="4.27196">
        <ele>376</ele>
        <time>2022-03-18T11:21:22Z</time>
      </trkpt>
      <trkpt lat="46.00572" lon="4.27191">
        <ele>375</ele>
        <time>2022-03-18T11:21:23Z</time>
      </trkpt>
      <trkpt lat="46.0057" lon="4.27183">
        <ele>375</ele>
        <time>2022-03-18T11:21:24Z</time>
      </trkpt>
      <trkpt lat="46.00563" lon="4.27177">
        <ele>374</ele>
        <time>2022-03-18T11:21:25Z</time>
      </trkpt>
      <trkpt lat="46.00555" lon="4.27142">
        <ele>374</ele>
        <time>2022-03-18T11:21:30Z</time>
      </trkpt>
      <trkpt lat="46.00552" lon="4.271">
        <ele>375</ele>
        <time>2022-03-18T11:21:35Z</time>
      </trkpt>
      <trkpt lat="46.00544" lon="4.27043">
        <ele>375</ele>
        <time>2022-03-18T11:21:42Z</time>
      </trkpt>
      <trkpt lat="46.00532" lon="4.26993">
        <ele>375</ele>
        <time>2022-03-18T11:21:49Z</time>
      </trkpt>
      <trkpt lat="46.00527" lon="4.2698">
        <ele>376</ele>
        <time>2022-03-18T11:21:51Z</time>
      </trkpt>
      <trkpt lat="46.00515" lon="4.26962">
        <ele>376</ele>
        <time>2022-03-18T11:21:54Z</time>
      </trkpt>
      <trkpt lat="46.00487" lon="4.26934">
        <ele>376</ele>
        <time>2022-03-18T11:22:00Z</time>
      </trkpt>
      <trkpt lat="46.00438" lon="4.26904">
        <ele>374</ele>
        <time>2022-03-18T11:22:09Z</time>
      </trkpt>
      <trkpt lat="46.00423" lon="4.26884">
        <ele>374</ele>
        <time>2022-03-18T11:22:13Z</time>
      </trkpt>
      <trkpt lat="46.00404" lon="4.26841">
        <ele>376</ele>
        <time>2022-03-18T11:22:19Z</time>
      </trkpt>
      <trkpt lat="46.00395" lon="4.26829">
        <ele>376</ele>
        <time>2022-03-18T11:22:21Z</time>
      </trkpt>
      <trkpt lat="46.00384" lon="4.26823">
        <ele>376</ele>
        <time>2022-03-18T11:22:24Z</time>
      </trkpt>
      <trkpt lat="46.00311" lon="4.26809">
        <ele>373</ele>
        <time>2022-03-18T11:22:37Z</time>
      </trkpt>
      <trkpt lat="46.00271" lon="4.26805">
        <ele>371</ele>
        <time>2022-03-18T11:22:44Z</time>
      </trkpt>
      <trkpt lat="46.00252" lon="4.26801">
        <ele>370</ele>
        <time>2022-03-18T11:22:47Z</time>
      </trkpt>
      <trkpt lat="46.00213" lon="4.26776">
        <ele>368</ele>
        <time>2022-03-18T11:22:55Z</time>
      </trkpt>
      <trkpt lat="46.00188" lon="4.26753">
        <ele>368</ele>
        <time>2022-03-18T11:23:00Z</time>
      </trkpt>
      <trkpt lat="46.00178" lon="4.26738">
        <ele>368</ele>
        <time>2022-03-18T11:23:03Z</time>
      </trkpt>
      <trkpt lat="46.00171" lon="4.2672">
        <ele>368</ele>
        <time>2022-03-18T11:23:05Z</time>
      </trkpt>
      <trkpt lat="46.00167" lon="4.26706">
        <ele>368</ele>
        <time>2022-03-18T11:23:07Z</time>
      </trkpt>
      <trkpt lat="46.00164" lon="4.26687">
        <ele>368</ele>
        <time>2022-03-18T11:23:10Z</time>
      </trkpt>
      <trkpt lat="46.00163" lon="4.26636">
        <ele>368</ele>
        <time>2022-03-18T11:23:16Z</time>
      </trkpt>
      <trkpt lat="46.00165" lon="4.26607">
        <ele>367</ele>
        <time>2022-03-18T11:23:19Z</time>
      </trkpt>
      <trkpt lat="46.0017" lon="4.26586">
        <ele>367</ele>
        <time>2022-03-18T11:23:22Z</time>
      </trkpt>
      <trkpt lat="46.00184" lon="4.26548">
        <ele>367</ele>
        <time>2022-03-18T11:23:27Z</time>
      </trkpt>
      <trkpt lat="46.00195" lon="4.26531">
        <ele>367</ele>
        <time>2022-03-18T11:23:30Z</time>
      </trkpt>
      <trkpt lat="46.00251" lon="4.26453">
        <ele>369</ele>
        <time>2022-03-18T11:23:44Z</time>
      </trkpt>
      <trkpt lat="46.00259" lon="4.26436">
        <ele>369</ele>
        <time>2022-03-18T11:23:47Z</time>
      </trkpt>
      <trkpt lat="46.00268" lon="4.26405">
        <ele>369</ele>
        <time>2022-03-18T11:23:51Z</time>
      </trkpt>
      <trkpt lat="46.00273" lon="4.26347">
        <ele>368</ele>
        <time>2022-03-18T11:23:58Z</time>
      </trkpt>
      <trkpt lat="46.00273" lon="4.26317">
        <ele>370</ele>
        <time>2022-03-18T11:24:02Z</time>
      </trkpt>
      <trkpt lat="46.00265" lon="4.26287">
        <ele>372</ele>
        <time>2022-03-18T11:24:06Z</time>
      </trkpt>
      <trkpt lat="46.0026" lon="4.26274">
        <ele>372</ele>
        <time>2022-03-18T11:24:08Z</time>
      </trkpt>
      <trkpt lat="46.00251" lon="4.26261">
        <ele>373</ele>
        <time>2022-03-18T11:24:10Z</time>
      </trkpt>
      <trkpt lat="46.00231" lon="4.26244">
        <ele>372</ele>
        <time>2022-03-18T11:24:14Z</time>
      </trkpt>
      <trkpt lat="46.00218" lon="4.26239">
        <ele>371</ele>
        <time>2022-03-18T11:24:16Z</time>
      </trkpt>
      <trkpt lat="46.00197" lon="4.26239">
        <ele>368</ele>
        <time>2022-03-18T11:24:20Z</time>
      </trkpt>
      <trkpt lat="46.00174" lon="4.26246">
        <ele>363</ele>
        <time>2022-03-18T11:24:24Z</time>
      </trkpt>
      <trkpt lat="46.00147" lon="4.26246">
        <ele>360</ele>
        <time>2022-03-18T11:24:29Z</time>
      </trkpt>
      <trkpt lat="46.00065" lon="4.26208">
        <ele>355</ele>
        <time>2022-03-18T11:24:44Z</time>
      </trkpt>
      <trkpt lat="46.00037" lon="4.26189">
        <ele>354</ele>
        <time>2022-03-18T11:24:50Z</time>
      </trkpt>
      <trkpt lat="46.00002" lon="4.26159">
        <ele>353</ele>
        <time>2022-03-18T11:24:57Z</time>
      </trkpt>
      <trkpt lat="45.99913" lon="4.26078">
        <ele>351</ele>
        <time>2022-03-18T11:25:16Z</time>
      </trkpt>
      <trkpt lat="45.99875" lon="4.26054">
        <ele>357</ele>
        <time>2022-03-18T11:25:23Z</time>
      </trkpt>
      <trkpt lat="45.99852" lon="4.26044">
        <ele>360</ele>
        <time>2022-03-18T11:25:28Z</time>
      </trkpt>
      <trkpt lat="45.99791" lon="4.26028">
        <ele>360</ele>
        <time>2022-03-18T11:25:39Z</time>
      </trkpt>
      <trkpt lat="45.99774" lon="4.2602">
        <ele>360</ele>
        <time>2022-03-18T11:25:42Z</time>
      </trkpt>
      <trkpt lat="45.99759" lon="4.26009">
        <ele>361</ele>
        <time>2022-03-18T11:25:45Z</time>
      </trkpt>
      <trkpt lat="45.99678" lon="4.2593">
        <ele>363</ele>
        <time>2022-03-18T11:26:02Z</time>
      </trkpt>
      <trkpt lat="45.99661" lon="4.25916">
        <ele>362</ele>
        <time>2022-03-18T11:26:06Z</time>
      </trkpt>
      <trkpt lat="45.99648" lon="4.25907">
        <ele>362</ele>
        <time>2022-03-18T11:26:08Z</time>
      </trkpt>
      <trkpt lat="45.99635" lon="4.25902">
        <ele>361</ele>
        <time>2022-03-18T11:26:11Z</time>
      </trkpt>
      <trkpt lat="45.9961" lon="4.25898">
        <ele>358</ele>
        <time>2022-03-18T11:26:15Z</time>
      </trkpt>
      <trkpt lat="45.99598" lon="4.25892">
        <ele>357</ele>
        <time>2022-03-18T11:26:17Z</time>
      </trkpt>
      <trkpt lat="45.99587" lon="4.25881">
        <ele>357</ele>
        <time>2022-03-18T11:26:20Z</time>
      </trkpt>
      <trkpt lat="45.99575" lon="4.25861">
        <ele>358</ele>
        <time>2022-03-18T11:26:23Z</time>
      </trkpt>
      <trkpt lat="45.99568" lon="4.25842">
        <ele>359</ele>
        <time>2022-03-18T11:26:26Z</time>
      </trkpt>
      <trkpt lat="45.99562" lon="4.25821">
        <ele>360</ele>
        <time>2022-03-18T11:26:29Z</time>
      </trkpt>
      <trkpt lat="45.99556" lon="4.25776">
        <ele>359</ele>
        <time>2022-03-18T11:26:34Z</time>
      </trkpt>
      <trkpt lat="45.99554" lon="4.25738">
        <ele>359</ele>
        <time>2022-03-18T11:26:39Z</time>
      </trkpt>
      <trkpt lat="45.99556" lon="4.25702">
        <ele>357</ele>
        <time>2022-03-18T11:26:43Z</time>
      </trkpt>
      <trkpt lat="45.99563" lon="4.25667">
        <ele>356</ele>
        <time>2022-03-18T11:26:48Z</time>
      </trkpt>
      <trkpt lat="45.99579" lon="4.25601">
        <ele>354</ele>
        <time>2022-03-18T11:26:57Z</time>
      </trkpt>
      <trkpt lat="45.99589" lon="4.25576">
        <ele>354</ele>
        <time>2022-03-18T11:27:00Z</time>
      </trkpt>
      <trkpt lat="45.99609" lon="4.25539">
        <ele>354</ele>
        <time>2022-03-18T11:27:06Z</time>
      </trkpt>
      <trkpt lat="45.99637" lon="4.25499">
        <ele>355</ele>
        <time>2022-03-18T11:27:13Z</time>
      </trkpt>
      <trkpt lat="45.99646" lon="4.25479">
        <ele>355</ele>
        <time>2022-03-18T11:27:16Z</time>
      </trkpt>
      <trkpt lat="45.9966" lon="4.25439">
        <ele>355</ele>
        <time>2022-03-18T11:27:21Z</time>
      </trkpt>
      <trkpt lat="45.99674" lon="4.25387">
        <ele>354</ele>
        <time>2022-03-18T11:27:28Z</time>
      </trkpt>
      <trkpt lat="45.99713" lon="4.25171">
        <ele>352</ele>
        <time>2022-03-18T11:27:56Z</time>
      </trkpt>
      <trkpt lat="45.99722" lon="4.25141">
        <ele>352</ele>
        <time>2022-03-18T11:28:00Z</time>
      </trkpt>
      <trkpt lat="45.99742" lon="4.25098">
        <ele>353</ele>
        <time>2022-03-18T11:28:06Z</time>
      </trkpt>
      <trkpt lat="45.99747" lon="4.25078">
        <ele>352</ele>
        <time>2022-03-18T11:28:09Z</time>
      </trkpt>
      <trkpt lat="45.99751" lon="4.25053">
        <ele>352</ele>
        <time>2022-03-18T11:28:12Z</time>
      </trkpt>
      <trkpt lat="45.99752" lon="4.25024">
        <ele>352</ele>
        <time>2022-03-18T11:28:16Z</time>
      </trkpt>
      <trkpt lat="45.99752" lon="4.24982">
        <ele>351</ele>
        <time>2022-03-18T11:28:21Z</time>
      </trkpt>
      <trkpt lat="45.99751" lon="4.24969">
        <ele>351</ele>
        <time>2022-03-18T11:28:22Z</time>
      </trkpt>
      <trkpt lat="45.99739" lon="4.24902">
        <ele>349</ele>
        <time>2022-03-18T11:28:31Z</time>
      </trkpt>
      <trkpt lat="45.99741" lon="4.2488">
        <ele>348</ele>
        <time>2022-03-18T11:28:34Z</time>
      </trkpt>
      <trkpt lat="45.99753" lon="4.24844">
        <ele>348</ele>
        <time>2022-03-18T11:28:39Z</time>
      </trkpt>
      <trkpt lat="45.99812" lon="4.24743">
        <ele>347</ele>
        <time>2022-03-18T11:28:55Z</time>
      </trkpt>
      <trkpt lat="45.99891" lon="4.24524">
        <ele>345</ele>
        <time>2022-03-18T11:29:26Z</time>
      </trkpt>
      <trkpt lat="45.99902" lon="4.24478">
        <ele>344</ele>
        <time>2022-03-18T11:29:32Z</time>
      </trkpt>
      <trkpt lat="45.99928" lon="4.24351">
        <ele>339</ele>
        <time>2022-03-18T11:29:48Z</time>
      </trkpt>
      <trkpt lat="45.99931" lon="4.24338">
        <ele>338</ele>
        <time>2022-03-18T11:29:50Z</time>
      </trkpt>
      <trkpt lat="45.99939" lon="4.24321">
        <ele>338</ele>
        <time>2022-03-18T11:29:52Z</time>
      </trkpt>
      <trkpt lat="45.99961" lon="4.24287">
        <ele>337</ele>
        <time>2022-03-18T11:29:58Z</time>
      </trkpt>
      <trkpt lat="45.99968" lon="4.24276">
        <ele>337</ele>
        <time>2022-03-18T11:30:00Z</time>
      </trkpt>
      <trkpt lat="45.99987" lon="4.24242">
        <ele>337</ele>
        <time>2022-03-18T11:30:05Z</time>
      </trkpt>
      <trkpt lat="45.99991" lon="4.2423">
        <ele>338</ele>
        <time>2022-03-18T11:30:07Z</time>
      </trkpt>
      <trkpt lat="45.99992" lon="4.24219">
        <ele>339</ele>
        <time>2022-03-18T11:30:08Z</time>
      </trkpt>
      <trkpt lat="45.9999" lon="4.24198">
        <ele>340</ele>
        <time>2022-03-18T11:30:11Z</time>
      </trkpt>
      <trkpt lat="45.99983" lon="4.24171">
        <ele>341</ele>
        <time>2022-03-18T11:30:14Z</time>
      </trkpt>
      <trkpt lat="45.99982" lon="4.24156">
        <ele>340</ele>
        <time>2022-03-18T11:30:16Z</time>
      </trkpt>
      <trkpt lat="45.99985" lon="4.24125">
        <ele>340</ele>
        <time>2022-03-18T11:30:20Z</time>
      </trkpt>
      <trkpt lat="46.00007" lon="4.24033">
        <ele>341</ele>
        <time>2022-03-18T11:30:32Z</time>
      </trkpt>
      <trkpt lat="46.00027" lon="4.23928">
        <ele>342</ele>
        <time>2022-03-18T11:30:46Z</time>
      </trkpt>
      <trkpt lat="46.00052" lon="4.2376">
        <ele>343</ele>
        <time>2022-03-18T11:31:07Z</time>
      </trkpt>
      <trkpt lat="46.00054" lon="4.23712">
        <ele>342</ele>
        <time>2022-03-18T11:31:13Z</time>
      </trkpt>
      <trkpt lat="46.00049" lon="4.23601">
        <ele>341</ele>
        <time>2022-03-18T11:31:26Z</time>
      </trkpt>
      <trkpt lat="46.0003" lon="4.23336">
        <ele>348</ele>
        <time>2022-03-18T11:31:59Z</time>
      </trkpt>
      <trkpt lat="46.00024" lon="4.23299">
        <ele>349</ele>
        <time>2022-03-18T11:32:04Z</time>
      </trkpt>
      <trkpt lat="46.00013" lon="4.23265">
        <ele>348</ele>
        <time>2022-03-18T11:32:09Z</time>
      </trkpt>
      <trkpt lat="45.99963" lon="4.23166">
        <ele>344</ele>
        <time>2022-03-18T11:32:24Z</time>
      </trkpt>
      <trkpt lat="45.99934" lon="4.23099">
        <ele>345</ele>
        <time>2022-03-18T11:32:34Z</time>
      </trkpt>
      <trkpt lat="45.99911" lon="4.23063">
        <ele>345</ele>
        <time>2022-03-18T11:32:40Z</time>
      </trkpt>
      <trkpt lat="45.99888" lon="4.23037">
        <ele>347</ele>
        <time>2022-03-18T11:32:45Z</time>
      </trkpt>
      <trkpt lat="45.99786" lon="4.22945">
        <ele>346</ele>
        <time>2022-03-18T11:33:06Z</time>
      </trkpt>
      <trkpt lat="45.99771" lon="4.22934">
        <ele>347</ele>
        <time>2022-03-18T11:33:09Z</time>
      </trkpt>
      <trkpt lat="45.99753" lon="4.22926">
        <ele>346</ele>
        <time>2022-03-18T11:33:13Z</time>
      </trkpt>
      <trkpt lat="45.99735" lon="4.22922">
        <ele>345</ele>
        <time>2022-03-18T11:33:16Z</time>
      </trkpt>
      <trkpt lat="45.99673" lon="4.22915">
        <ele>343</ele>
        <time>2022-03-18T11:33:27Z</time>
      </trkpt>
      <trkpt lat="45.99569" lon="4.22862">
        <ele>343</ele>
        <time>2022-03-18T11:33:47Z</time>
      </trkpt>
      <trkpt lat="45.99453" lon="4.22841">
        <ele>339</ele>
        <time>2022-03-18T11:34:07Z</time>
      </trkpt>
      <trkpt lat="45.99435" lon="4.22831">
        <ele>339</ele>
        <time>2022-03-18T11:34:11Z</time>
      </trkpt>
      <trkpt lat="45.99419" lon="4.22817">
        <ele>340</ele>
        <time>2022-03-18T11:34:14Z</time>
      </trkpt>
      <trkpt lat="45.99392" lon="4.22783">
        <ele>340</ele>
        <time>2022-03-18T11:34:21Z</time>
      </trkpt>
      <trkpt lat="45.99346" lon="4.2272">
        <ele>339</ele>
        <time>2022-03-18T11:34:32Z</time>
      </trkpt>
      <trkpt lat="45.99308" lon="4.22653">
        <ele>337</ele>
        <time>2022-03-18T11:34:43Z</time>
      </trkpt>
      <trkpt lat="45.9922" lon="4.22583">
        <ele>335</ele>
        <time>2022-03-18T11:35:00Z</time>
      </trkpt>
      <trkpt lat="45.99206" lon="4.22567">
        <ele>334</ele>
        <time>2022-03-18T11:35:04Z</time>
      </trkpt>
      <trkpt lat="45.9919" lon="4.22545">
        <ele>334</ele>
        <time>2022-03-18T11:35:08Z</time>
      </trkpt>
      <trkpt lat="45.99179" lon="4.22518">
        <ele>334</ele>
        <time>2022-03-18T11:35:11Z</time>
      </trkpt>
      <trkpt lat="45.99159" lon="4.22443">
        <ele>334</ele>
        <time>2022-03-18T11:35:21Z</time>
      </trkpt>
      <trkpt lat="45.99151" lon="4.22375">
        <ele>333</ele>
        <time>2022-03-18T11:35:30Z</time>
      </trkpt>
      <trkpt lat="45.99209" lon="4.21942">
        <ele>331</ele>
        <time>2022-03-18T11:36:24Z</time>
      </trkpt>
      <trkpt lat="45.99222" lon="4.21831">
        <ele>336</ele>
        <time>2022-03-18T11:36:38Z</time>
      </trkpt>
      <trkpt lat="45.9922" lon="4.21805">
        <ele>338</ele>
        <time>2022-03-18T11:36:41Z</time>
      </trkpt>
      <trkpt lat="45.99212" lon="4.21786">
        <ele>339</ele>
        <time>2022-03-18T11:36:44Z</time>
      </trkpt>
      <trkpt lat="45.99207" lon="4.21778">
        <ele>340</ele>
        <time>2022-03-18T11:36:46Z</time>
      </trkpt>
      <trkpt lat="45.99196" lon="4.21766">
        <ele>340</ele>
        <time>2022-03-18T11:36:48Z</time>
      </trkpt>
      <trkpt lat="45.99162" lon="4.21751">
        <ele>338</ele>
        <time>2022-03-18T11:36:54Z</time>
      </trkpt>
      <trkpt lat="45.99044" lon="4.2161">
        <ele>340</ele>
        <time>2022-03-18T11:37:22Z</time>
      </trkpt>
      <trkpt lat="45.99042" lon="4.21582">
        <ele>342</ele>
        <time>2022-03-18T11:37:25Z</time>
      </trkpt>
      <trkpt lat="45.99045" lon="4.21553">
        <ele>342</ele>
        <time>2022-03-18T11:37:29Z</time>
      </trkpt>
      <trkpt lat="45.99047" lon="4.21545">
        <ele>342</ele>
        <time>2022-03-18T11:37:30Z</time>
      </trkpt>
      <trkpt lat="45.99044" lon="4.21522">
        <ele>342</ele>
        <time>2022-03-18T11:37:33Z</time>
      </trkpt>
      <trkpt lat="45.99023" lon="4.21439">
        <ele>341</ele>
        <time>2022-03-18T11:37:44Z</time>
      </trkpt>
      <trkpt lat="45.99009" lon="4.21367">
        <ele>343</ele>
        <time>2022-03-18T11:37:53Z</time>
      </trkpt>
      <trkpt lat="45.99003" lon="4.21359">
        <ele>343</ele>
        <time>2022-03-18T11:37:54Z</time>
      </trkpt>
      <trkpt lat="45.9895" lon="4.21341">
        <ele>340</ele>
        <time>2022-03-18T11:38:04Z</time>
      </trkpt>
      <trkpt lat="45.98934" lon="4.21332">
        <ele>339</ele>
        <time>2022-03-18T11:38:07Z</time>
      </trkpt>
      <trkpt lat="45.98917" lon="4.21315">
        <ele>339</ele>
        <time>2022-03-18T11:38:11Z</time>
      </trkpt>
      <trkpt lat="45.98885" lon="4.21268">
        <ele>339</ele>
        <time>2022-03-18T11:38:19Z</time>
      </trkpt>
      <trkpt lat="45.98867" lon="4.21234">
        <ele>339</ele>
        <time>2022-03-18T11:38:24Z</time>
      </trkpt>
      <trkpt lat="45.98861" lon="4.21217">
        <ele>339</ele>
        <time>2022-03-18T11:38:27Z</time>
      </trkpt>
      <trkpt lat="45.98856" lon="4.21195">
        <ele>339</ele>
        <time>2022-03-18T11:38:29Z</time>
      </trkpt>
      <trkpt lat="45.98858" lon="4.21164">
        <ele>340</ele>
        <time>2022-03-18T11:38:33Z</time>
      </trkpt>
      <trkpt lat="45.98871" lon="4.21108">
        <ele>339</ele>
        <time>2022-03-18T11:38:41Z</time>
      </trkpt>
      <trkpt lat="45.98893" lon="4.21005">
        <ele>339</ele>
        <time>2022-03-18T11:38:54Z</time>
      </trkpt>
      <trkpt lat="45.98916" lon="4.20908">
        <ele>336</ele>
        <time>2022-03-18T11:39:07Z</time>
      </trkpt>
      <trkpt lat="45.98927" lon="4.2085">
        <ele>336</ele>
        <time>2022-03-18T11:39:14Z</time>
      </trkpt>
      <trkpt lat="45.98927" lon="4.20823">
        <ele>337</ele>
        <time>2022-03-18T11:39:17Z</time>
      </trkpt>
      <trkpt lat="45.98919" lon="4.20798">
        <ele>338</ele>
        <time>2022-03-18T11:39:21Z</time>
      </trkpt>
      <trkpt lat="45.98906" lon="4.20776">
        <ele>338</ele>
        <time>2022-03-18T11:39:24Z</time>
      </trkpt>
      <trkpt lat="45.98843" lon="4.20698">
        <ele>336</ele>
        <time>2022-03-18T11:39:39Z</time>
      </trkpt>
      <trkpt lat="45.98835" lon="4.20685">
        <ele>336</ele>
        <time>2022-03-18T11:39:41Z</time>
      </trkpt>
      <trkpt lat="45.98829" lon="4.2067">
        <ele>337</ele>
        <time>2022-03-18T11:39:43Z</time>
      </trkpt>
      <trkpt lat="45.98824" lon="4.2065">
        <ele>337</ele>
        <time>2022-03-18T11:39:46Z</time>
      </trkpt>
      <trkpt lat="45.98823" lon="4.20628">
        <ele>337</ele>
        <time>2022-03-18T11:39:49Z</time>
      </trkpt>
      <trkpt lat="45.9883" lon="4.20519">
        <ele>343</ele>
        <time>2022-03-18T11:40:02Z</time>
      </trkpt>
      <trkpt lat="45.98826" lon="4.20498">
        <ele>343</ele>
        <time>2022-03-18T11:40:05Z</time>
      </trkpt>
      <trkpt lat="45.98818" lon="4.20478">
        <ele>343</ele>
        <time>2022-03-18T11:40:08Z</time>
      </trkpt>
      <trkpt lat="45.98807" lon="4.20461">
        <ele>341</ele>
        <time>2022-03-18T11:40:11Z</time>
      </trkpt>
      <trkpt lat="45.98792" lon="4.20449">
        <ele>339</ele>
        <time>2022-03-18T11:40:14Z</time>
      </trkpt>
      <trkpt lat="45.98776" lon="4.20439">
        <ele>336</ele>
        <time>2022-03-18T11:40:17Z</time>
      </trkpt>
      <trkpt lat="45.9876" lon="4.20432">
        <ele>333</ele>
        <time>2022-03-18T11:40:20Z</time>
      </trkpt>
      <trkpt lat="45.98745" lon="4.2042">
        <ele>331</ele>
        <time>2022-03-18T11:40:23Z</time>
      </trkpt>
      <trkpt lat="45.98734" lon="4.20403">
        <ele>330</ele>
        <time>2022-03-18T11:40:26Z</time>
      </trkpt>
      <trkpt lat="45.98702" lon="4.20345">
        <ele>328</ele>
        <time>2022-03-18T11:40:35Z</time>
      </trkpt>
      <trkpt lat="45.98688" lon="4.20325">
        <ele>327</ele>
        <time>2022-03-18T11:40:38Z</time>
      </trkpt>
      <trkpt lat="45.98654" lon="4.20259">
        <ele>328</ele>
        <time>2022-03-18T11:40:49Z</time>
      </trkpt>
      <trkpt lat="45.98607" lon="4.20175">
        <ele>330</ele>
        <time>2022-03-18T11:41:02Z</time>
      </trkpt>
      <trkpt lat="45.98593" lon="4.20154">
        <ele>329</ele>
        <time>2022-03-18T11:41:05Z</time>
      </trkpt>
      <trkpt lat="45.98535" lon="4.20084">
        <ele>331</ele>
        <time>2022-03-18T11:41:19Z</time>
      </trkpt>
      <trkpt lat="45.98526" lon="4.20069">
        <ele>331</ele>
        <time>2022-03-18T11:41:21Z</time>
      </trkpt>
      <trkpt lat="45.98518" lon="4.20051">
        <ele>332</ele>
        <time>2022-03-18T11:41:24Z</time>
      </trkpt>
      <trkpt lat="45.9851" lon="4.20027">
        <ele>334</ele>
        <time>2022-03-18T11:41:27Z</time>
      </trkpt>
      <trkpt lat="45.98505" lon="4.20005">
        <ele>335</ele>
        <time>2022-03-18T11:41:30Z</time>
      </trkpt>
      <trkpt lat="45.985" lon="4.19958">
        <ele>336</ele>
        <time>2022-03-18T11:41:36Z</time>
      </trkpt>
      <trkpt lat="45.985" lon="4.19916">
        <ele>336</ele>
        <time>2022-03-18T11:41:41Z</time>
      </trkpt>
      <trkpt lat="45.98502" lon="4.19886">
        <ele>334</ele>
        <time>2022-03-18T11:41:45Z</time>
      </trkpt>
      <trkpt lat="45.9851" lon="4.19842">
        <ele>333</ele>
        <time>2022-03-18T11:41:51Z</time>
      </trkpt>
      <trkpt lat="45.98547" lon="4.19719">
        <ele>329</ele>
        <time>2022-03-18T11:42:07Z</time>
      </trkpt>
      <trkpt lat="45.98561" lon="4.19666">
        <ele>327</ele>
        <time>2022-03-18T11:42:14Z</time>
      </trkpt>
      <trkpt lat="45.98569" lon="4.19608">
        <ele>327</ele>
        <time>2022-03-18T11:42:21Z</time>
      </trkpt>
      <trkpt lat="45.9857" lon="4.19544">
        <ele>329</ele>
        <time>2022-03-18T11:42:29Z</time>
      </trkpt>
      <trkpt lat="45.98568" lon="4.19511">
        <ele>330</ele>
        <time>2022-03-18T11:42:33Z</time>
      </trkpt>
      <trkpt lat="45.98526" lon="4.19219">
        <ele>340</ele>
        <time>2022-03-18T11:43:10Z</time>
      </trkpt>
      <trkpt lat="45.98458" lon="4.18791">
        <ele>323</ele>
        <time>2022-03-18T11:44:05Z</time>
      </trkpt>
      <trkpt lat="45.98454" lon="4.1873">
        <ele>325</ele>
        <time>2022-03-18T11:44:12Z</time>
      </trkpt>
      <trkpt lat="45.98457" lon="4.18674">
        <ele>327</ele>
        <time>2022-03-18T11:44:19Z</time>
      </trkpt>
      <trkpt lat="45.98467" lon="4.18624">
        <ele>326</ele>
        <time>2022-03-18T11:44:26Z</time>
      </trkpt>
      <trkpt lat="45.98486" lon="4.18574">
        <ele>325</ele>
        <time>2022-03-18T11:44:33Z</time>
      </trkpt>
      <trkpt lat="45.98498" lon="4.1855">
        <ele>323</ele>
        <time>2022-03-18T11:44:36Z</time>
      </trkpt>
      <trkpt lat="45.98512" lon="4.1853">
        <ele>322</ele>
        <time>2022-03-18T11:44:40Z</time>
      </trkpt>
      <trkpt lat="45.98574" lon="4.18458">
        <ele>320</ele>
        <time>2022-03-18T11:44:54Z</time>
      </trkpt>
      <trkpt lat="45.98589" lon="4.18438">
        <ele>320</ele>
        <time>2022-03-18T11:44:58Z</time>
      </trkpt>
      <trkpt lat="45.98601" lon="4.18416">
        <ele>319</ele>
        <time>2022-03-18T11:45:01Z</time>
      </trkpt>
      <trkpt lat="45.98617" lon="4.18377">
        <ele>318</ele>
        <time>2022-03-18T11:45:07Z</time>
      </trkpt>
      <trkpt lat="45.98652" lon="4.18235">
        <ele>319</ele>
        <time>2022-03-18T11:45:25Z</time>
      </trkpt>
      <trkpt lat="45.9866" lon="4.18211">
        <ele>319</ele>
        <time>2022-03-18T11:45:29Z</time>
      </trkpt>
      <trkpt lat="45.987" lon="4.18109">
        <ele>322</ele>
        <time>2022-03-18T11:45:43Z</time>
      </trkpt>
      <trkpt lat="45.98728" lon="4.17945">
        <ele>325</ele>
        <time>2022-03-18T11:46:04Z</time>
      </trkpt>
      <trkpt lat="45.98728" lon="4.17922">
        <ele>325</ele>
        <time>2022-03-18T11:46:07Z</time>
      </trkpt>
      <trkpt lat="45.98726" lon="4.17897">
        <ele>325</ele>
        <time>2022-03-18T11:46:10Z</time>
      </trkpt>
      <trkpt lat="45.98715" lon="4.17817">
        <ele>327</ele>
        <time>2022-03-18T11:46:20Z</time>
      </trkpt>
      <trkpt lat="45.98706" lon="4.17768">
        <ele>327</ele>
        <time>2022-03-18T11:46:26Z</time>
      </trkpt>
      <trkpt lat="45.98697" lon="4.17743">
        <ele>327</ele>
        <time>2022-03-18T11:46:30Z</time>
      </trkpt>
      <trkpt lat="45.98672" lon="4.1769">
        <ele>325</ele>
        <time>2022-03-18T11:46:38Z</time>
      </trkpt>
      <trkpt lat="45.98637" lon="4.17639">
        <ele>324</ele>
        <time>2022-03-18T11:46:47Z</time>
      </trkpt>
      <trkpt lat="45.98619" lon="4.17606">
        <ele>323</ele>
        <time>2022-03-18T11:46:52Z</time>
      </trkpt>
      <trkpt lat="45.98604" lon="4.17573">
        <ele>323</ele>
        <time>2022-03-18T11:46:57Z</time>
      </trkpt>
      <trkpt lat="45.98562" lon="4.17469">
        <ele>323</ele>
        <time>2022-03-18T11:47:11Z</time>
      </trkpt>
      <trkpt lat="45.98525" lon="4.17371">
        <ele>325</ele>
        <time>2022-03-18T11:47:25Z</time>
      </trkpt>
      <trkpt lat="45.98507" lon="4.17295">
        <ele>328</ele>
        <time>2022-03-18T11:47:35Z</time>
      </trkpt>
      <trkpt lat="45.98497" lon="4.17239">
        <ele>330</ele>
        <time>2022-03-18T11:47:42Z</time>
      </trkpt>
      <trkpt lat="45.98497" lon="4.17212">
        <ele>332</ele>
        <time>2022-03-18T11:47:46Z</time>
      </trkpt>
      <trkpt lat="45.98501" lon="4.17135">
        <ele>336</ele>
        <time>2022-03-18T11:47:55Z</time>
      </trkpt>
      <trkpt lat="45.98501" lon="4.17112">
        <ele>336</ele>
        <time>2022-03-18T11:47:58Z</time>
      </trkpt>
      <trkpt lat="45.98498" lon="4.17089">
        <ele>336</ele>
        <time>2022-03-18T11:48:01Z</time>
      </trkpt>
      <trkpt lat="45.98491" lon="4.17069">
        <ele>335</ele>
        <time>2022-03-18T11:48:04Z</time>
      </trkpt>
      <trkpt lat="45.98481" lon="4.17051">
        <ele>334</ele>
        <time>2022-03-18T11:48:07Z</time>
      </trkpt>
      <trkpt lat="45.98439" lon="4.16993">
        <ele>333</ele>
        <time>2022-03-18T11:48:17Z</time>
      </trkpt>
      <trkpt lat="45.98372" lon="4.1691">
        <ele>336</ele>
        <time>2022-03-18T11:48:33Z</time>
      </trkpt>
      <trkpt lat="45.98346" lon="4.16868">
        <ele>338</ele>
        <time>2022-03-18T11:48:40Z</time>
      </trkpt>
      <trkpt lat="45.98333" lon="4.16842">
        <ele>341</ele>
        <time>2022-03-18T11:48:44Z</time>
      </trkpt>
      <trkpt lat="45.98293" lon="4.16737">
        <ele>344</ele>
        <time>2022-03-18T11:48:58Z</time>
      </trkpt>
      <trkpt lat="45.98274" lon="4.16693">
        <ele>343</ele>
        <time>2022-03-18T11:49:05Z</time>
      </trkpt>
      <trkpt lat="45.98263" lon="4.16673">
        <ele>343</ele>
        <time>2022-03-18T11:49:08Z</time>
      </trkpt>
      <trkpt lat="45.98248" lon="4.16651">
        <ele>343</ele>
        <time>2022-03-18T11:49:12Z</time>
      </trkpt>
      <trkpt lat="45.98223" lon="4.16627">
        <ele>343</ele>
        <time>2022-03-18T11:49:17Z</time>
      </trkpt>
      <trkpt lat="45.98058" lon="4.16503">
        <ele>339</ele>
        <time>2022-03-18T11:49:50Z</time>
      </trkpt>
      <trkpt lat="45.98019" lon="4.16466">
        <ele>338</ele>
        <time>2022-03-18T11:49:58Z</time>
      </trkpt>
      <trkpt lat="45.97972" lon="4.16404">
        <ele>340</ele>
        <time>2022-03-18T11:50:10Z</time>
      </trkpt>
      <trkpt lat="45.97942" lon="4.16358">
        <ele>338</ele>
        <time>2022-03-18T11:50:18Z</time>
      </trkpt>
      <trkpt lat="45.97928" lon="4.16335">
        <ele>338</ele>
        <time>2022-03-18T11:50:21Z</time>
      </trkpt>
      <trkpt lat="45.97917" lon="4.1631">
        <ele>336</ele>
        <time>2022-03-18T11:50:25Z</time>
      </trkpt>
      <trkpt lat="45.97899" lon="4.16258">
        <ele>334</ele>
        <time>2022-03-18T11:50:32Z</time>
      </trkpt>
      <trkpt lat="45.97887" lon="4.16205">
        <ele>333</ele>
        <time>2022-03-18T11:50:39Z</time>
      </trkpt>
      <trkpt lat="45.97883" lon="4.16178">
        <ele>332</ele>
        <time>2022-03-18T11:50:43Z</time>
      </trkpt>
      <trkpt lat="45.97875" lon="4.16093">
        <ele>330</ele>
        <time>2022-03-18T11:50:53Z</time>
      </trkpt>
      <trkpt lat="45.9787" lon="4.16065">
        <ele>328</ele>
        <time>2022-03-18T11:50:57Z</time>
      </trkpt>
      <trkpt lat="45.97854" lon="4.16001">
        <ele>325</ele>
        <time>2022-03-18T11:51:05Z</time>
      </trkpt>
      <trkpt lat="45.97808" lon="4.15845">
        <ele>323</ele>
        <time>2022-03-18T11:51:26Z</time>
      </trkpt>
      <trkpt lat="45.97763" lon="4.15681">
        <ele>317</ele>
        <time>2022-03-18T11:51:48Z</time>
      </trkpt>
      <trkpt lat="45.97756" lon="4.1563">
        <ele>316</ele>
        <time>2022-03-18T11:51:54Z</time>
      </trkpt>
      <trkpt lat="45.97753" lon="4.1554">
        <ele>315</ele>
        <time>2022-03-18T11:52:05Z</time>
      </trkpt>
      <trkpt lat="45.97751" lon="4.15517">
        <ele>316</ele>
        <time>2022-03-18T11:52:08Z</time>
      </trkpt>
      <trkpt lat="45.97747" lon="4.15496">
        <ele>316</ele>
        <time>2022-03-18T11:52:11Z</time>
      </trkpt>
      <trkpt lat="45.97741" lon="4.15475">
        <ele>317</ele>
        <time>2022-03-18T11:52:14Z</time>
      </trkpt>
      <trkpt lat="45.9771" lon="4.154">
        <ele>316</ele>
        <time>2022-03-18T11:52:25Z</time>
      </trkpt>
      <trkpt lat="45.97707" lon="4.15385">
        <ele>315</ele>
        <time>2022-03-18T11:52:27Z</time>
      </trkpt>
      <trkpt lat="45.97706" lon="4.15369">
        <ele>315</ele>
        <time>2022-03-18T11:52:29Z</time>
      </trkpt>
      <trkpt lat="45.97711" lon="4.15307">
        <ele>315</ele>
        <time>2022-03-18T11:52:36Z</time>
      </trkpt>
      <trkpt lat="45.97711" lon="4.15282">
        <ele>314</ele>
        <time>2022-03-18T11:52:39Z</time>
      </trkpt>
      <trkpt lat="45.97709" lon="4.15256">
        <ele>314</ele>
        <time>2022-03-18T11:52:43Z</time>
      </trkpt>
      <trkpt lat="45.97698" lon="4.15177">
        <ele>316</ele>
        <time>2022-03-18T11:52:53Z</time>
      </trkpt>
      <trkpt lat="45.97692" lon="4.15153">
        <ele>316</ele>
        <time>2022-03-18T11:52:56Z</time>
      </trkpt>
      <trkpt lat="45.97685" lon="4.15129">
        <ele>316</ele>
        <time>2022-03-18T11:52:59Z</time>
      </trkpt>
      <trkpt lat="45.97675" lon="4.15108">
        <ele>316</ele>
        <time>2022-03-18T11:53:02Z</time>
      </trkpt>
      <trkpt lat="45.97663" lon="4.15089">
        <ele>315</ele>
        <time>2022-03-18T11:53:05Z</time>
      </trkpt>
      <trkpt lat="45.97649" lon="4.15072">
        <ele>315</ele>
        <time>2022-03-18T11:53:09Z</time>
      </trkpt>
      <trkpt lat="45.97632" lon="4.15058">
        <ele>315</ele>
        <time>2022-03-18T11:53:12Z</time>
      </trkpt>
      <trkpt lat="45.97614" lon="4.15047">
        <ele>314</ele>
        <time>2022-03-18T11:53:15Z</time>
      </trkpt>
      <trkpt lat="45.97596" lon="4.15038">
        <ele>314</ele>
        <time>2022-03-18T11:53:19Z</time>
      </trkpt>
      <trkpt lat="45.97577" lon="4.15032">
        <ele>312</ele>
        <time>2022-03-18T11:53:22Z</time>
      </trkpt>
      <trkpt lat="45.97539" lon="4.15026">
        <ele>311</ele>
        <time>2022-03-18T11:53:29Z</time>
      </trkpt>
      <trkpt lat="45.9752" lon="4.15019">
        <ele>310</ele>
        <time>2022-03-18T11:53:33Z</time>
      </trkpt>
      <trkpt lat="45.97463" lon="4.14987">
        <ele>307</ele>
        <time>2022-03-18T11:53:44Z</time>
      </trkpt>
      <trkpt lat="45.97445" lon="4.14975">
        <ele>307</ele>
        <time>2022-03-18T11:53:47Z</time>
      </trkpt>
      <trkpt lat="45.97429" lon="4.1496">
        <ele>307</ele>
        <time>2022-03-18T11:53:50Z</time>
      </trkpt>
      <trkpt lat="45.97414" lon="4.14944">
        <ele>307</ele>
        <time>2022-03-18T11:53:54Z</time>
      </trkpt>
      <trkpt lat="45.97402" lon="4.14926">
        <ele>307</ele>
        <time>2022-03-18T11:53:57Z</time>
      </trkpt>
      <trkpt lat="45.97392" lon="4.14906">
        <ele>307</ele>
        <time>2022-03-18T11:54:00Z</time>
      </trkpt>
      <trkpt lat="45.97384" lon="4.14883">
        <ele>306</ele>
        <time>2022-03-18T11:54:03Z</time>
      </trkpt>
      <trkpt lat="45.97359" lon="4.14795">
        <ele>303</ele>
        <time>2022-03-18T11:54:15Z</time>
      </trkpt>
      <trkpt lat="45.97357" lon="4.14775">
        <ele>303</ele>
        <time>2022-03-18T11:54:17Z</time>
      </trkpt>
      <trkpt lat="45.97357" lon="4.14755">
        <ele>303</ele>
        <time>2022-03-18T11:54:20Z</time>
      </trkpt>
      <trkpt lat="45.9736" lon="4.14736">
        <ele>303</ele>
        <time>2022-03-18T11:54:22Z</time>
      </trkpt>
      <trkpt lat="45.97365" lon="4.14719">
        <ele>304</ele>
        <time>2022-03-18T11:54:24Z</time>
      </trkpt>
      <trkpt lat="45.97373" lon="4.14705">
        <ele>304</ele>
        <time>2022-03-18T11:54:27Z</time>
      </trkpt>
      <trkpt lat="45.97384" lon="4.14693">
        <ele>305</ele>
        <time>2022-03-18T11:54:29Z</time>
      </trkpt>
      <trkpt lat="45.97396" lon="4.14685">
        <ele>306</ele>
        <time>2022-03-18T11:54:32Z</time>
      </trkpt>
      <trkpt lat="45.97553" lon="4.14607">
        <ele>310</ele>
        <time>2022-03-18T11:55:01Z</time>
      </trkpt>
      <trkpt lat="45.97568" lon="4.14596">
        <ele>310</ele>
        <time>2022-03-18T11:55:04Z</time>
      </trkpt>
      <trkpt lat="45.97582" lon="4.14582">
        <ele>310</ele>
        <time>2022-03-18T11:55:07Z</time>
      </trkpt>
      <trkpt lat="45.97595" lon="4.14566">
        <ele>310</ele>
        <time>2022-03-18T11:55:10Z</time>
      </trkpt>
      <trkpt lat="45.97637" lon="4.14488">
        <ele>312</ele>
        <time>2022-03-18T11:55:22Z</time>
      </trkpt>
      <trkpt lat="45.97656" lon="4.14444">
        <ele>313</ele>
        <time>2022-03-18T11:55:29Z</time>
      </trkpt>
      <trkpt lat="45.97672" lon="4.14396">
        <ele>313</ele>
        <time>2022-03-18T11:55:35Z</time>
      </trkpt>
      <trkpt lat="45.97686" lon="4.14344">
        <ele>312</ele>
        <time>2022-03-18T11:55:42Z</time>
      </trkpt>
      <trkpt lat="45.97692" lon="4.14318">
        <ele>312</ele>
        <time>2022-03-18T11:55:46Z</time>
      </trkpt>
      <trkpt lat="45.97695" lon="4.14291">
        <ele>311</ele>
        <time>2022-03-18T11:55:49Z</time>
      </trkpt>
      <trkpt lat="45.97692" lon="4.14206">
        <ele>309</ele>
        <time>2022-03-18T11:56:00Z</time>
      </trkpt>
      <trkpt lat="45.97693" lon="4.14145">
        <ele>310</ele>
        <time>2022-03-18T11:56:07Z</time>
      </trkpt>
      <trkpt lat="45.97691" lon="4.14114">
        <ele>311</ele>
        <time>2022-03-18T11:56:11Z</time>
      </trkpt>
      <trkpt lat="45.97682" lon="4.14052">
        <ele>311</ele>
        <time>2022-03-18T11:56:19Z</time>
      </trkpt>
      <trkpt lat="45.97668" lon="4.13991">
        <ele>310</ele>
        <time>2022-03-18T11:56:27Z</time>
      </trkpt>
      <trkpt lat="45.97648" lon="4.13933">
        <ele>310</ele>
        <time>2022-03-18T11:56:35Z</time>
      </trkpt>
      <trkpt lat="45.97624" lon="4.13876">
        <ele>311</ele>
        <time>2022-03-18T11:56:43Z</time>
      </trkpt>
      <trkpt lat="45.97416" lon="4.13419">
        <ele>299</ele>
        <time>2022-03-18T11:57:51Z</time>
      </trkpt>
      <trkpt lat="45.97396" lon="4.13385">
        <ele>299</ele>
        <time>2022-03-18T11:57:56Z</time>
      </trkpt>
      <trkpt lat="45.97367" lon="4.13333">
        <ele>298</ele>
        <time>2022-03-18T11:58:04Z</time>
      </trkpt>
      <trkpt lat="45.97314" lon="4.13245">
        <ele>300</ele>
        <time>2022-03-18T11:58:19Z</time>
      </trkpt>
      <trkpt lat="45.97378" lon="4.13159">
        <ele>305</ele>
        <time>2022-03-18T11:58:34Z</time>
      </trkpt>
      <trkpt lat="45.97456" lon="4.13044">
        <ele>309</ele>
        <time>2022-03-18T11:58:54Z</time>
      </trkpt>
      <trkpt lat="45.97464" lon="4.13026">
        <ele>310</ele>
        <time>2022-03-18T11:58:57Z</time>
      </trkpt>
      <trkpt lat="45.97477" lon="4.13005">
        <ele>311</ele>
        <time>2022-03-18T11:59:00Z</time>
      </trkpt>
      <trkpt lat="45.97522" lon="4.1294">
        <ele>312</ele>
        <time>2022-03-18T11:59:12Z</time>
      </trkpt>
      <trkpt lat="45.97534" lon="4.12931">
        <ele>312</ele>
        <time>2022-03-18T11:59:14Z</time>
      </trkpt>
      <trkpt lat="45.97541" lon="4.1293">
        <ele>312</ele>
        <time>2022-03-18T11:59:15Z</time>
      </trkpt>
      <trkpt lat="45.97544" lon="4.12926">
        <ele>312</ele>
        <time>2022-03-18T11:59:16Z</time>
      </trkpt>
      <trkpt lat="45.97545" lon="4.12914">
        <ele>313</ele>
        <time>2022-03-18T11:59:17Z</time>
      </trkpt>
      <trkpt lat="45.9756" lon="4.1286">
        <ele>312</ele>
        <time>2022-03-18T11:59:25Z</time>
      </trkpt>
      <trkpt lat="45.97616" lon="4.12584">
        <ele>303</ele>
        <time>2022-03-18T12:00:00Z</time>
      </trkpt>
      <trkpt lat="45.97633" lon="4.12496">
        <ele>303</ele>
        <time>2022-03-18T12:00:12Z</time>
      </trkpt>
      <trkpt lat="45.97643" lon="4.12426">
        <ele>303</ele>
        <time>2022-03-18T12:00:20Z</time>
      </trkpt>
      <trkpt lat="45.97642" lon="4.12308">
        <ele>297</ele>
        <time>2022-03-18T12:00:35Z</time>
      </trkpt>
      <trkpt lat="45.97667" lon="4.12185">
        <ele>295</ele>
        <time>2022-03-18T12:00:51Z</time>
      </trkpt>
      <trkpt lat="45.97681" lon="4.12135">
        <ele>294</ele>
        <time>2022-03-18T12:00:57Z</time>
      </trkpt>
      <trkpt lat="45.97696" lon="4.12092">
        <ele>294</ele>
        <time>2022-03-18T12:01:03Z</time>
      </trkpt>
      <trkpt lat="45.97729" lon="4.12015">
        <ele>294</ele>
        <time>2022-03-18T12:01:15Z</time>
      </trkpt>
      <trkpt lat="45.9776" lon="4.11957">
        <ele>294</ele>
        <time>2022-03-18T12:01:24Z</time>
      </trkpt>
      <trkpt lat="45.97782" lon="4.1193">
        <ele>294</ele>
        <time>2022-03-18T12:01:29Z</time>
      </trkpt>
      <trkpt lat="45.97933" lon="4.11774">
        <ele>296</ele>
        <time>2022-03-18T12:02:02Z</time>
      </trkpt>
      <trkpt lat="45.97909" lon="4.11719">
        <ele>300</ele>
        <time>2022-03-18T12:02:10Z</time>
      </trkpt>
      <trkpt lat="45.97904" lon="4.11698">
        <ele>303</ele>
        <time>2022-03-18T12:02:13Z</time>
      </trkpt>
      <trkpt lat="45.97904" lon="4.11686">
        <ele>303</ele>
        <time>2022-03-18T12:02:14Z</time>
      </trkpt>
      <trkpt lat="45.9791" lon="4.11674">
        <ele>303</ele>
        <time>2022-03-18T12:02:16Z</time>
      </trkpt>
      <trkpt lat="45.97938" lon="4.1165">
        <ele>302</ele>
        <time>2022-03-18T12:02:22Z</time>
      </trkpt>
      <trkpt lat="45.97943" lon="4.11643">
        <ele>302</ele>
        <time>2022-03-18T12:02:23Z</time>
      </trkpt>
      <trkpt lat="45.97947" lon="4.11634">
        <ele>302</ele>
        <time>2022-03-18T12:02:24Z</time>
      </trkpt>
      <trkpt lat="45.97948" lon="4.11623">
        <ele>303</ele>
        <time>2022-03-18T12:02:26Z</time>
      </trkpt>
      <trkpt lat="45.97945" lon="4.11596">
        <ele>305</ele>
        <time>2022-03-18T12:02:29Z</time>
      </trkpt>
      <trkpt lat="45.97937" lon="4.11565">
        <ele>307</ele>
        <time>2022-03-18T12:02:33Z</time>
      </trkpt>
      <trkpt lat="45.97926" lon="4.11524">
        <ele>309</ele>
        <time>2022-03-18T12:02:39Z</time>
      </trkpt>
      <trkpt lat="45.97914" lon="4.11498">
        <ele>310</ele>
        <time>2022-03-18T12:02:42Z</time>
      </trkpt>
      <trkpt lat="45.97873" lon="4.11443">
        <ele>314</ele>
        <time>2022-03-18T12:02:52Z</time>
      </trkpt>
      <trkpt lat="45.9783" lon="4.11413">
        <ele>317</ele>
        <time>2022-03-18T12:03:01Z</time>
      </trkpt>
      <trkpt lat="45.97803" lon="4.11386">
        <ele>318</ele>
        <time>2022-03-18T12:03:07Z</time>
      </trkpt>
      <trkpt lat="45.97768" lon="4.11339">
        <ele>320</ele>
        <time>2022-03-18T12:03:15Z</time>
      </trkpt>
      <trkpt lat="45.97748" lon="4.11305">
        <ele>323</ele>
        <time>2022-03-18T12:03:21Z</time>
      </trkpt>
      <trkpt lat="45.97738" lon="4.11274">
        <ele>324</ele>
        <time>2022-03-18T12:03:25Z</time>
      </trkpt>
      <trkpt lat="45.9773" lon="4.1123">
        <ele>325</ele>
        <time>2022-03-18T12:03:31Z</time>
      </trkpt>
      <trkpt lat="45.97719" lon="4.11199">
        <ele>326</ele>
        <time>2022-03-18T12:03:35Z</time>
      </trkpt>
      <trkpt lat="45.97708" lon="4.11176">
        <ele>328</ele>
        <time>2022-03-18T12:03:38Z</time>
      </trkpt>
      <trkpt lat="45.9767" lon="4.11128">
        <ele>334</ele>
        <time>2022-03-18T12:03:47Z</time>
      </trkpt>
      <trkpt lat="45.97639" lon="4.11066">
        <ele>337</ele>
        <time>2022-03-18T12:03:57Z</time>
      </trkpt>
      <trkpt lat="45.97623" lon="4.11044">
        <ele>339</ele>
        <time>2022-03-18T12:04:01Z</time>
      </trkpt>
      <trkpt lat="45.9759" lon="4.11012">
        <ele>344</ele>
        <time>2022-03-18T12:04:08Z</time>
      </trkpt>
      <trkpt lat="45.97574" lon="4.1099">
        <ele>345</ele>
        <time>2022-03-18T12:04:12Z</time>
      </trkpt>
      <trkpt lat="45.97561" lon="4.10966">
        <ele>346</ele>
        <time>2022-03-18T12:04:16Z</time>
      </trkpt>
      <trkpt lat="45.97548" lon="4.10922">
        <ele>346</ele>
        <time>2022-03-18T12:04:21Z</time>
      </trkpt>
      <trkpt lat="45.9754" lon="4.10897">
        <ele>346</ele>
        <time>2022-03-18T12:04:25Z</time>
      </trkpt>
      <trkpt lat="45.97524" lon="4.1087">
        <ele>346</ele>
        <time>2022-03-18T12:04:29Z</time>
      </trkpt>
      <trkpt lat="45.97505" lon="4.10848">
        <ele>347</ele>
        <time>2022-03-18T12:04:34Z</time>
      </trkpt>
      <trkpt lat="45.97452" lon="4.10816">
        <ele>349</ele>
        <time>2022-03-18T12:04:44Z</time>
      </trkpt>
      <trkpt lat="45.97425" lon="4.10809">
        <ele>350</ele>
        <time>2022-03-18T12:04:49Z</time>
      </trkpt>
      <trkpt lat="45.97405" lon="4.10809">
        <ele>351</ele>
        <time>2022-03-18T12:04:52Z</time>
      </trkpt>
      <trkpt lat="45.97386" lon="4.10813">
        <ele>352</ele>
        <time>2022-03-18T12:04:56Z</time>
      </trkpt>
      <trkpt lat="45.97367" lon="4.10822">
        <ele>353</ele>
        <time>2022-03-18T12:04:59Z</time>
      </trkpt>
      <trkpt lat="45.97247" lon="4.10898">
        <ele>360</ele>
        <time>2022-03-18T12:05:23Z</time>
      </trkpt>
      <trkpt lat="45.97189" lon="4.10924">
        <ele>362</ele>
        <time>2022-03-18T12:05:33Z</time>
      </trkpt>
      <trkpt lat="45.97114" lon="4.10952">
        <ele>367</ele>
        <time>2022-03-18T12:05:47Z</time>
      </trkpt>
      <trkpt lat="45.97094" lon="4.10965">
        <ele>368</ele>
        <time>2022-03-18T12:05:51Z</time>
      </trkpt>
      <trkpt lat="45.97022" lon="4.11022">
        <ele>372</ele>
        <time>2022-03-18T12:06:06Z</time>
      </trkpt>
      <trkpt lat="45.97004" lon="4.11033">
        <ele>373</ele>
        <time>2022-03-18T12:06:09Z</time>
      </trkpt>
      <trkpt lat="45.9691" lon="4.11076">
        <ele>378</ele>
        <time>2022-03-18T12:06:27Z</time>
      </trkpt>
      <trkpt lat="45.96855" lon="4.11096">
        <ele>382</ele>
        <time>2022-03-18T12:06:37Z</time>
      </trkpt>
      <trkpt lat="45.96834" lon="4.111">
        <ele>384</ele>
        <time>2022-03-18T12:06:41Z</time>
      </trkpt>
      <trkpt lat="45.96811" lon="4.11099">
        <ele>385</ele>
        <time>2022-03-18T12:06:45Z</time>
      </trkpt>
      <trkpt lat="45.96795" lon="4.11093">
        <ele>386</ele>
        <time>2022-03-18T12:06:48Z</time>
      </trkpt>
      <trkpt lat="45.9673" lon="4.11045">
        <ele>390</ele>
        <time>2022-03-18T12:07:01Z</time>
      </trkpt>
      <trkpt lat="45.96715" lon="4.11031">
        <ele>391</ele>
        <time>2022-03-18T12:07:04Z</time>
      </trkpt>
      <trkpt lat="45.96683" lon="4.10992">
        <ele>394</ele>
        <time>2022-03-18T12:07:11Z</time>
      </trkpt>
      <trkpt lat="45.96669" lon="4.10978">
        <ele>395</ele>
        <time>2022-03-18T12:07:14Z</time>
      </trkpt>
      <trkpt lat="45.96646" lon="4.10967">
        <ele>396</ele>
        <time>2022-03-18T12:07:19Z</time>
      </trkpt>
      <trkpt lat="45.96628" lon="4.10965">
        <ele>397</ele>
        <time>2022-03-18T12:07:22Z</time>
      </trkpt>
      <trkpt lat="45.96444" lon="4.10988">
        <ele>408</ele>
        <time>2022-03-18T12:07:55Z</time>
      </trkpt>
      <trkpt lat="45.96359" lon="4.11015">
        <ele>416</ele>
        <time>2022-03-18T12:08:10Z</time>
      </trkpt>
      <trkpt lat="45.96341" lon="4.11027">
        <ele>417</ele>
        <time>2022-03-18T12:08:14Z</time>
      </trkpt>
      <trkpt lat="45.96309" lon="4.11055">
        <ele>419</ele>
        <time>2022-03-18T12:08:20Z</time>
      </trkpt>
      <trkpt lat="45.96191" lon="4.11174">
        <ele>423</ele>
        <time>2022-03-18T12:08:46Z</time>
      </trkpt>
      <trkpt lat="45.96165" lon="4.11196">
        <ele>424</ele>
        <time>2022-03-18T12:08:51Z</time>
      </trkpt>
      <trkpt lat="45.96151" lon="4.11201">
        <ele>424</ele>
        <time>2022-03-18T12:08:54Z</time>
      </trkpt>
      <trkpt lat="45.96125" lon="4.11201">
        <ele>424</ele>
        <time>2022-03-18T12:08:59Z</time>
      </trkpt>
      <trkpt lat="45.95882" lon="4.11122">
        <ele>424</ele>
        <time>2022-03-18T12:09:43Z</time>
      </trkpt>
      <trkpt lat="45.95852" lon="4.11111">
        <ele>424</ele>
        <time>2022-03-18T12:09:48Z</time>
      </trkpt>
      <trkpt lat="45.95813" lon="4.11092">
        <ele>424</ele>
        <time>2022-03-18T12:09:56Z</time>
      </trkpt>
      <trkpt lat="45.9577" lon="4.11076">
        <ele>425</ele>
        <time>2022-03-18T12:10:04Z</time>
      </trkpt>
      <trkpt lat="45.95743" lon="4.1107">
        <ele>426</ele>
        <time>2022-03-18T12:10:08Z</time>
      </trkpt>
      <trkpt lat="45.95714" lon="4.11069">
        <ele>427</ele>
        <time>2022-03-18T12:10:14Z</time>
      </trkpt>
      <trkpt lat="45.9568" lon="4.11072">
        <ele>429</ele>
        <time>2022-03-18T12:10:20Z</time>
      </trkpt>
      <trkpt lat="45.95603" lon="4.11085">
        <ele>435</ele>
        <time>2022-03-18T12:10:34Z</time>
      </trkpt>
      <trkpt lat="45.95534" lon="4.11085">
        <ele>436</ele>
        <time>2022-03-18T12:10:46Z</time>
      </trkpt>
      <trkpt lat="45.95471" lon="4.1109">
        <ele>436</ele>
        <time>2022-03-18T12:10:57Z</time>
      </trkpt>
      <trkpt lat="45.95255" lon="4.11149">
        <ele>443</ele>
        <time>2022-03-18T12:11:36Z</time>
      </trkpt>
      <trkpt lat="45.95223" lon="4.11161">
        <ele>444</ele>
        <time>2022-03-18T12:11:42Z</time>
      </trkpt>
      <trkpt lat="45.95191" lon="4.11179">
        <ele>444</ele>
        <time>2022-03-18T12:11:48Z</time>
      </trkpt>
      <trkpt lat="45.95168" lon="4.11196">
        <ele>445</ele>
        <time>2022-03-18T12:11:53Z</time>
      </trkpt>
      <trkpt lat="45.95153" lon="4.11211">
        <ele>448</ele>
        <time>2022-03-18T12:11:56Z</time>
      </trkpt>
      <trkpt lat="45.95144" lon="4.11224">
        <ele>451</ele>
        <time>2022-03-18T12:11:58Z</time>
      </trkpt>
      <trkpt lat="45.95124" lon="4.11269">
        <ele>455</ele>
        <time>2022-03-18T12:12:05Z</time>
      </trkpt>
      <trkpt lat="45.95116" lon="4.11285">
        <ele>456</ele>
        <time>2022-03-18T12:12:07Z</time>
      </trkpt>
      <trkpt lat="45.95098" lon="4.11309">
        <ele>457</ele>
        <time>2022-03-18T12:12:12Z</time>
      </trkpt>
      <trkpt lat="45.95069" lon="4.11339">
        <ele>458</ele>
        <time>2022-03-18T12:12:18Z</time>
      </trkpt>
      <trkpt lat="45.95037" lon="4.11358">
        <ele>459</ele>
        <time>2022-03-18T12:12:24Z</time>
      </trkpt>
      <trkpt lat="45.95006" lon="4.11369">
        <ele>460</ele>
        <time>2022-03-18T12:12:30Z</time>
      </trkpt>
      <trkpt lat="45.94978" lon="4.11373">
        <ele>461</ele>
        <time>2022-03-18T12:12:35Z</time>
      </trkpt>
      <trkpt lat="45.94952" lon="4.1137">
        <ele>462</ele>
        <time>2022-03-18T12:12:40Z</time>
      </trkpt>
      <trkpt lat="45.94922" lon="4.11362">
        <ele>464</ele>
        <time>2022-03-18T12:12:45Z</time>
      </trkpt>
      <trkpt lat="45.94905" lon="4.11361">
        <ele>466</ele>
        <time>2022-03-18T12:12:48Z</time>
      </trkpt>
      <trkpt lat="45.9489" lon="4.11366">
        <ele>467</ele>
        <time>2022-03-18T12:12:51Z</time>
      </trkpt>
      <trkpt lat="45.94875" lon="4.11377">
        <ele>467</ele>
        <time>2022-03-18T12:12:54Z</time>
      </trkpt>
      <trkpt lat="45.94861" lon="4.11395">
        <ele>467</ele>
        <time>2022-03-18T12:12:57Z</time>
      </trkpt>
      <trkpt lat="45.94828" lon="4.11446">
        <ele>465</ele>
        <time>2022-03-18T12:13:06Z</time>
      </trkpt>
      <trkpt lat="45.94809" lon="4.1147">
        <ele>464</ele>
        <time>2022-03-18T12:13:10Z</time>
      </trkpt>
      <trkpt lat="45.94789" lon="4.11491">
        <ele>463</ele>
        <time>2022-03-18T12:13:15Z</time>
      </trkpt>
      <trkpt lat="45.94772" lon="4.11503">
        <ele>463</ele>
        <time>2022-03-18T12:13:18Z</time>
      </trkpt>
      <trkpt lat="45.94738" lon="4.11515">
        <ele>464</ele>
        <time>2022-03-18T12:13:24Z</time>
      </trkpt>
      <trkpt lat="45.94713" lon="4.11515">
        <ele>465</ele>
        <time>2022-03-18T12:13:29Z</time>
      </trkpt>
      <trkpt lat="45.94667" lon="4.11505">
        <ele>469</ele>
        <time>2022-03-18T12:13:37Z</time>
      </trkpt>
      <trkpt lat="45.94617" lon="4.11504">
        <ele>469</ele>
        <time>2022-03-18T12:13:46Z</time>
      </trkpt>
      <trkpt lat="45.94567" lon="4.11483">
        <ele>472</ele>
        <time>2022-03-18T12:13:55Z</time>
      </trkpt>
      <trkpt lat="45.94448" lon="4.11452">
        <ele>474</ele>
        <time>2022-03-18T12:14:17Z</time>
      </trkpt>
      <trkpt lat="45.94412" lon="4.11438">
        <ele>474</ele>
        <time>2022-03-18T12:14:23Z</time>
      </trkpt>
      <trkpt lat="45.94384" lon="4.11432">
        <ele>475</ele>
        <time>2022-03-18T12:14:28Z</time>
      </trkpt>
      <trkpt lat="45.94323" lon="4.11429">
        <ele>474</ele>
        <time>2022-03-18T12:14:39Z</time>
      </trkpt>
      <trkpt lat="45.94011" lon="4.11426">
        <ele>473</ele>
        <time>2022-03-18T12:15:35Z</time>
      </trkpt>
      <trkpt lat="45.93989" lon="4.11424">
        <ele>472</ele>
        <time>2022-03-18T12:15:39Z</time>
      </trkpt>
      <trkpt lat="45.93875" lon="4.11396">
        <ele>469</ele>
        <time>2022-03-18T12:15:59Z</time>
      </trkpt>
      <trkpt lat="45.93834" lon="4.11377">
        <ele>468</ele>
        <time>2022-03-18T12:16:07Z</time>
      </trkpt>
      <trkpt lat="45.93736" lon="4.11307">
        <ele>468</ele>
        <time>2022-03-18T12:16:26Z</time>
      </trkpt>
      <trkpt lat="45.93714" lon="4.11299">
        <ele>468</ele>
        <time>2022-03-18T12:16:30Z</time>
      </trkpt>
      <trkpt lat="45.93629" lon="4.11281">
        <ele>467</ele>
        <time>2022-03-18T12:16:46Z</time>
      </trkpt>
      <trkpt lat="45.93605" lon="4.11272">
        <ele>466</ele>
        <time>2022-03-18T12:16:50Z</time>
      </trkpt>
      <trkpt lat="45.93587" lon="4.11263">
        <ele>466</ele>
        <time>2022-03-18T12:16:53Z</time>
      </trkpt>
      <trkpt lat="45.93568" lon="4.11248">
        <ele>466</ele>
        <time>2022-03-18T12:16:57Z</time>
      </trkpt>
      <trkpt lat="45.93458" lon="4.11126">
        <ele>465</ele>
        <time>2022-03-18T12:17:22Z</time>
      </trkpt>
      <trkpt lat="45.93443" lon="4.111">
        <ele>465</ele>
        <time>2022-03-18T12:17:26Z</time>
      </trkpt>
      <trkpt lat="45.93432" lon="4.11074">
        <ele>465</ele>
        <time>2022-03-18T12:17:30Z</time>
      </trkpt>
      <trkpt lat="45.93416" lon="4.11019">
        <ele>466</ele>
        <time>2022-03-18T12:17:37Z</time>
      </trkpt>
      <trkpt lat="45.93414" lon="4.10995">
        <ele>466</ele>
        <time>2022-03-18T12:17:40Z</time>
      </trkpt>
      <trkpt lat="45.93414" lon="4.10926">
        <ele>463</ele>
        <time>2022-03-18T12:17:49Z</time>
      </trkpt>
      <trkpt lat="45.93412" lon="4.10906">
        <ele>463</ele>
        <time>2022-03-18T12:17:51Z</time>
      </trkpt>
      <trkpt lat="45.93405" lon="4.10889">
        <ele>462</ele>
        <time>2022-03-18T12:17:54Z</time>
      </trkpt>
      <trkpt lat="45.93395" lon="4.10873">
        <ele>461</ele>
        <time>2022-03-18T12:17:56Z</time>
      </trkpt>
      <trkpt lat="45.93376" lon="4.10859">
        <ele>460</ele>
        <time>2022-03-18T12:18:00Z</time>
      </trkpt>
      <trkpt lat="45.93353" lon="4.10849">
        <ele>459</ele>
        <time>2022-03-18T12:18:04Z</time>
      </trkpt>
      <trkpt lat="45.93272" lon="4.10828">
        <ele>458</ele>
        <time>2022-03-18T12:18:19Z</time>
      </trkpt>
      <trkpt lat="45.93075" lon="4.10786">
        <ele>454</ele>
        <time>2022-03-18T12:18:55Z</time>
      </trkpt>
      <trkpt lat="45.92934" lon="4.10793">
        <ele>452</ele>
        <time>2022-03-18T12:19:20Z</time>
      </trkpt>
      <trkpt lat="45.92918" lon="4.1079">
        <ele>452</ele>
        <time>2022-03-18T12:19:23Z</time>
      </trkpt>
      <trkpt lat="45.92844" lon="4.10758">
        <ele>450</ele>
        <time>2022-03-18T12:19:36Z</time>
      </trkpt>
      <trkpt lat="45.9258" lon="4.10691">
        <ele>440</ele>
        <time>2022-03-18T12:20:24Z</time>
      </trkpt>
      <trkpt lat="45.92558" lon="4.10688">
        <ele>439</ele>
        <time>2022-03-18T12:20:28Z</time>
      </trkpt>
      <trkpt lat="45.92514" lon="4.10687">
        <ele>437</ele>
        <time>2022-03-18T12:20:36Z</time>
      </trkpt>
      <trkpt lat="45.92269" lon="4.10699">
        <ele>431</ele>
        <time>2022-03-18T12:21:19Z</time>
      </trkpt>
      <trkpt lat="45.92159" lon="4.10688">
        <ele>432</ele>
        <time>2022-03-18T12:21:39Z</time>
      </trkpt>
      <trkpt lat="45.92132" lon="4.10688">
        <ele>433</ele>
        <time>2022-03-18T12:21:44Z</time>
      </trkpt>
      <trkpt lat="45.92105" lon="4.10694">
        <ele>433</ele>
        <time>2022-03-18T12:21:49Z</time>
      </trkpt>
      <trkpt lat="45.92029" lon="4.10727">
        <ele>431</ele>
        <time>2022-03-18T12:22:03Z</time>
      </trkpt>
      <trkpt lat="45.91983" lon="4.10733">
        <ele>428</ele>
        <time>2022-03-18T12:22:11Z</time>
      </trkpt>
      <trkpt lat="45.91962" lon="4.10731">
        <ele>427</ele>
        <time>2022-03-18T12:22:15Z</time>
      </trkpt>
      <trkpt lat="45.91744" lon="4.10688">
        <ele>426</ele>
        <time>2022-03-18T12:22:54Z</time>
      </trkpt>
      <trkpt lat="45.91713" lon="4.10679">
        <ele>425</ele>
        <time>2022-03-18T12:23:00Z</time>
      </trkpt>
      <trkpt lat="45.91692" lon="4.10668">
        <ele>425</ele>
        <time>2022-03-18T12:23:03Z</time>
      </trkpt>
      <trkpt lat="45.91644" lon="4.10631">
        <ele>424</ele>
        <time>2022-03-18T12:23:13Z</time>
      </trkpt>
      <trkpt lat="45.91627" lon="4.10627">
        <ele>424</ele>
        <time>2022-03-18T12:23:16Z</time>
      </trkpt>
      <trkpt lat="45.9152" lon="4.1063">
        <ele>420</ele>
        <time>2022-03-18T12:23:35Z</time>
      </trkpt>
      <trkpt lat="45.91496" lon="4.10635">
        <ele>420</ele>
        <time>2022-03-18T12:23:40Z</time>
      </trkpt>
      <trkpt lat="45.91473" lon="4.10652">
        <ele>421</ele>
        <time>2022-03-18T12:23:44Z</time>
      </trkpt>
      <trkpt lat="45.91434" lon="4.10688">
        <ele>423</ele>
        <time>2022-03-18T12:23:52Z</time>
      </trkpt>
      <trkpt lat="45.91379" lon="4.10756">
        <ele>424</ele>
        <time>2022-03-18T12:24:05Z</time>
      </trkpt>
      <trkpt lat="45.91344" lon="4.10795">
        <ele>424</ele>
        <time>2022-03-18T12:24:13Z</time>
      </trkpt>
      <trkpt lat="45.91227" lon="4.10913">
        <ele>420</ele>
        <time>2022-03-18T12:24:39Z</time>
      </trkpt>
      <trkpt lat="45.91214" lon="4.10924">
        <ele>419</ele>
        <time>2022-03-18T12:24:41Z</time>
      </trkpt>
      <trkpt lat="45.91183" lon="4.10938">
        <ele>417</ele>
        <time>2022-03-18T12:24:47Z</time>
      </trkpt>
      <trkpt lat="45.91159" lon="4.10942">
        <ele>416</ele>
        <time>2022-03-18T12:24:51Z</time>
      </trkpt>
      <trkpt lat="45.91142" lon="4.10941">
        <ele>416</ele>
        <time>2022-03-18T12:24:54Z</time>
      </trkpt>
      <trkpt lat="45.91059" lon="4.10912">
        <ele>414</ele>
        <time>2022-03-18T12:25:10Z</time>
      </trkpt>
      <trkpt lat="45.90992" lon="4.10862">
        <ele>409</ele>
        <time>2022-03-18T12:25:23Z</time>
      </trkpt>
      <trkpt lat="45.90975" lon="4.10853">
        <ele>409</ele>
        <time>2022-03-18T12:25:26Z</time>
      </trkpt>
      <trkpt lat="45.90952" lon="4.10848">
        <ele>409</ele>
        <time>2022-03-18T12:25:30Z</time>
      </trkpt>
      <trkpt lat="45.90933" lon="4.10847">
        <ele>408</ele>
        <time>2022-03-18T12:25:34Z</time>
      </trkpt>
      <trkpt lat="45.90813" lon="4.10879">
        <ele>403</ele>
        <time>2022-03-18T12:25:56Z</time>
      </trkpt>
      <trkpt lat="45.90785" lon="4.10885">
        <ele>403</ele>
        <time>2022-03-18T12:26:01Z</time>
      </trkpt>
      <trkpt lat="45.90769" lon="4.10882">
        <ele>403</ele>
        <time>2022-03-18T12:26:03Z</time>
      </trkpt>
      <trkpt lat="45.90711" lon="4.10858">
        <ele>403</ele>
        <time>2022-03-18T12:26:14Z</time>
      </trkpt>
      <trkpt lat="45.90697" lon="4.10855">
        <ele>403</ele>
        <time>2022-03-18T12:26:17Z</time>
      </trkpt>
      <trkpt lat="45.9068" lon="4.1086">
        <ele>402</ele>
        <time>2022-03-18T12:26:20Z</time>
      </trkpt>
      <trkpt lat="45.90527" lon="4.10931">
        <ele>392</ele>
        <time>2022-03-18T12:26:48Z</time>
      </trkpt>
      <trkpt lat="45.90414" lon="4.10987">
        <ele>381</ele>
        <time>2022-03-18T12:27:10Z</time>
      </trkpt>
      <trkpt lat="45.90399" lon="4.10992">
        <ele>379</ele>
        <time>2022-03-18T12:27:12Z</time>
      </trkpt>
      <trkpt lat="45.90381" lon="4.10989">
        <ele>378</ele>
        <time>2022-03-18T12:27:16Z</time>
      </trkpt>
      <trkpt lat="45.90368" lon="4.10985">
        <ele>377</ele>
        <time>2022-03-18T12:27:18Z</time>
      </trkpt>
      <trkpt lat="45.90358" lon="4.10977">
        <ele>377</ele>
        <time>2022-03-18T12:27:20Z</time>
      </trkpt>
      <trkpt lat="45.90348" lon="4.10962">
        <ele>378</ele>
        <time>2022-03-18T12:27:23Z</time>
      </trkpt>
      <trkpt lat="45.90322" lon="4.10903">
        <ele>382</ele>
        <time>2022-03-18T12:27:31Z</time>
      </trkpt>
      <trkpt lat="45.90311" lon="4.10886">
        <ele>384</ele>
        <time>2022-03-18T12:27:34Z</time>
      </trkpt>
      <trkpt lat="45.90302" lon="4.10879">
        <ele>384</ele>
        <time>2022-03-18T12:27:36Z</time>
      </trkpt>
      <trkpt lat="45.90289" lon="4.10875">
        <ele>384</ele>
        <time>2022-03-18T12:27:38Z</time>
      </trkpt>
      <trkpt lat="45.90274" lon="4.10875">
        <ele>382</ele>
        <time>2022-03-18T12:27:41Z</time>
      </trkpt>
      <trkpt lat="45.90213" lon="4.10891">
        <ele>375</ele>
        <time>2022-03-18T12:27:52Z</time>
      </trkpt>
      <trkpt lat="45.90191" lon="4.10894">
        <ele>372</ele>
        <time>2022-03-18T12:27:56Z</time>
      </trkpt>
      <trkpt lat="45.90165" lon="4.10888">
        <ele>372</ele>
        <time>2022-03-18T12:28:01Z</time>
      </trkpt>
      <trkpt lat="45.90045" lon="4.10848">
        <ele>365</ele>
        <time>2022-03-18T12:28:23Z</time>
      </trkpt>
      <trkpt lat="45.90022" lon="4.10842">
        <ele>363</ele>
        <time>2022-03-18T12:28:27Z</time>
      </trkpt>
      <trkpt lat="45.89997" lon="4.1084">
        <ele>361</ele>
        <time>2022-03-18T12:28:31Z</time>
      </trkpt>
      <trkpt lat="45.89946" lon="4.10849">
        <ele>357</ele>
        <time>2022-03-18T12:28:40Z</time>
      </trkpt>
      <trkpt lat="45.89919" lon="4.10848">
        <ele>355</ele>
        <time>2022-03-18T12:28:45Z</time>
      </trkpt>
      <trkpt lat="45.8986" lon="4.10838">
        <ele>352</ele>
        <time>2022-03-18T12:28:56Z</time>
      </trkpt>
      <trkpt lat="45.89764" lon="4.10827">
        <ele>348</ele>
        <time>2022-03-18T12:29:13Z</time>
      </trkpt>
      <trkpt lat="45.89748" lon="4.10821">
        <ele>348</ele>
        <time>2022-03-18T12:29:16Z</time>
      </trkpt>
      <trkpt lat="45.89738" lon="4.10815">
        <ele>347</ele>
        <time>2022-03-18T12:29:18Z</time>
      </trkpt>
      <trkpt lat="45.89728" lon="4.10804">
        <ele>347</ele>
        <time>2022-03-18T12:29:20Z</time>
      </trkpt>
      <trkpt lat="45.89716" lon="4.10777">
        <ele>348</ele>
        <time>2022-03-18T12:29:24Z</time>
      </trkpt>
      <trkpt lat="45.897" lon="4.10726">
        <ele>350</ele>
        <time>2022-03-18T12:29:31Z</time>
      </trkpt>
      <trkpt lat="45.89641" lon="4.10581">
        <ele>344</ele>
        <time>2022-03-18T12:29:52Z</time>
      </trkpt>
      <trkpt lat="45.89636" lon="4.10548">
        <ele>341</ele>
        <time>2022-03-18T12:29:56Z</time>
      </trkpt>
      <trkpt lat="45.89633" lon="4.10508">
        <ele>338</ele>
        <time>2022-03-18T12:30:01Z</time>
      </trkpt>
      <trkpt lat="45.89635" lon="4.10466">
        <ele>335</ele>
        <time>2022-03-18T12:30:06Z</time>
      </trkpt>
      <trkpt lat="45.89645" lon="4.10415">
        <ele>334</ele>
        <time>2022-03-18T12:30:13Z</time>
      </trkpt>
      <trkpt lat="45.89658" lon="4.10369">
        <ele>331</ele>
        <time>2022-03-18T12:30:19Z</time>
      </trkpt>
      <trkpt lat="45.89693" lon="4.10273">
        <ele>330</ele>
        <time>2022-03-18T12:30:32Z</time>
      </trkpt>
      <trkpt lat="45.89704" lon="4.10239">
        <ele>331</ele>
        <time>2022-03-18T12:30:37Z</time>
      </trkpt>
      <trkpt lat="45.89706" lon="4.10228">
        <ele>331</ele>
        <time>2022-03-18T12:30:38Z</time>
      </trkpt>
      <trkpt lat="45.89708" lon="4.10179">
        <ele>332</ele>
        <time>2022-03-18T12:30:44Z</time>
      </trkpt>
      <trkpt lat="45.89704" lon="4.10149">
        <ele>333</ele>
        <time>2022-03-18T12:30:48Z</time>
      </trkpt>
      <trkpt lat="45.89689" lon="4.10089">
        <ele>334</ele>
        <time>2022-03-18T12:30:56Z</time>
      </trkpt>
      <trkpt lat="45.89685" lon="4.10062">
        <ele>333</ele>
        <time>2022-03-18T12:30:59Z</time>
      </trkpt>
      <trkpt lat="45.89688" lon="4.10027">
        <ele>334</ele>
        <time>2022-03-18T12:31:04Z</time>
      </trkpt>
      <trkpt lat="45.89699" lon="4.09983">
        <ele>336</ele>
        <time>2022-03-18T12:31:10Z</time>
      </trkpt>
      <trkpt lat="45.89729" lon="4.099">
        <ele>339</ele>
        <time>2022-03-18T12:31:21Z</time>
      </trkpt>
      <trkpt lat="45.89741" lon="4.09849">
        <ele>337</ele>
        <time>2022-03-18T12:31:28Z</time>
      </trkpt>
      <trkpt lat="45.89743" lon="4.09814">
        <ele>336</ele>
        <time>2022-03-18T12:31:32Z</time>
      </trkpt>
      <trkpt lat="45.89741" lon="4.09713">
        <ele>336</ele>
        <time>2022-03-18T12:31:45Z</time>
      </trkpt>
      <trkpt lat="45.89742" lon="4.09683">
        <ele>336</ele>
        <time>2022-03-18T12:31:48Z</time>
      </trkpt>
      <trkpt lat="45.89745" lon="4.09659">
        <ele>336</ele>
        <time>2022-03-18T12:31:51Z</time>
      </trkpt>
      <trkpt lat="45.89749" lon="4.09642">
        <ele>335</ele>
        <time>2022-03-18T12:31:54Z</time>
      </trkpt>
      <trkpt lat="45.89756" lon="4.09623">
        <ele>336</ele>
        <time>2022-03-18T12:31:56Z</time>
      </trkpt>
      <trkpt lat="45.89781" lon="4.09586">
        <ele>338</ele>
        <time>2022-03-18T12:32:03Z</time>
      </trkpt>
      <trkpt lat="45.89796" lon="4.09575">
        <ele>339</ele>
        <time>2022-03-18T12:32:06Z</time>
      </trkpt>
      <trkpt lat="45.89816" lon="4.09568">
        <ele>340</ele>
        <time>2022-03-18T12:32:09Z</time>
      </trkpt>
      <trkpt lat="45.89845" lon="4.09566">
        <ele>343</ele>
        <time>2022-03-18T12:32:14Z</time>
      </trkpt>
      <trkpt lat="45.89887" lon="4.09574">
        <ele>345</ele>
        <time>2022-03-18T12:32:22Z</time>
      </trkpt>
      <trkpt lat="45.8993" lon="4.09563">
        <ele>345</ele>
        <time>2022-03-18T12:32:30Z</time>
      </trkpt>
      <trkpt lat="45.90136" lon="4.09427">
        <ele>340</ele>
        <time>2022-03-18T12:33:10Z</time>
      </trkpt>
      <trkpt lat="45.90357" lon="4.09333">
        <ele>336</ele>
        <time>2022-03-18T12:33:51Z</time>
      </trkpt>
      <trkpt lat="45.90718" lon="4.09165">
        <ele>343</ele>
        <time>2022-03-18T12:34:59Z</time>
      </trkpt>
      <trkpt lat="45.9074" lon="4.09151">
        <ele>343</ele>
        <time>2022-03-18T12:35:03Z</time>
      </trkpt>
      <trkpt lat="45.9076" lon="4.0913">
        <ele>342</ele>
        <time>2022-03-18T12:35:07Z</time>
      </trkpt>
      <trkpt lat="45.90771" lon="4.09105">
        <ele>342</ele>
        <time>2022-03-18T12:35:11Z</time>
      </trkpt>
      <trkpt lat="45.90778" lon="4.09078">
        <ele>342</ele>
        <time>2022-03-18T12:35:15Z</time>
      </trkpt>
      <trkpt lat="45.90778" lon="4.09047">
        <ele>340</ele>
        <time>2022-03-18T12:35:18Z</time>
      </trkpt>
      <trkpt lat="45.9077" lon="4.08974">
        <ele>337</ele>
        <time>2022-03-18T12:35:28Z</time>
      </trkpt>
      <trkpt lat="45.9076" lon="4.08909">
        <ele>334</ele>
        <time>2022-03-18T12:35:36Z</time>
      </trkpt>
      <trkpt lat="45.90758" lon="4.08877">
        <ele>333</ele>
        <time>2022-03-18T12:35:40Z</time>
      </trkpt>
      <trkpt lat="45.9076" lon="4.08847">
        <ele>333</ele>
        <time>2022-03-18T12:35:44Z</time>
      </trkpt>
      <trkpt lat="45.90766" lon="4.08822">
        <ele>333</ele>
        <time>2022-03-18T12:35:47Z</time>
      </trkpt>
      <trkpt lat="45.90776" lon="4.088">
        <ele>333</ele>
        <time>2022-03-18T12:35:50Z</time>
      </trkpt>
      <trkpt lat="45.90793" lon="4.08778">
        <ele>333</ele>
        <time>2022-03-18T12:35:54Z</time>
      </trkpt>
      <trkpt lat="45.90816" lon="4.08761">
        <ele>335</ele>
        <time>2022-03-18T12:35:59Z</time>
      </trkpt>
      <trkpt lat="45.90838" lon="4.08748">
        <ele>336</ele>
        <time>2022-03-18T12:36:03Z</time>
      </trkpt>
      <trkpt lat="45.9091" lon="4.08728">
        <ele>341</ele>
        <time>2022-03-18T12:36:16Z</time>
      </trkpt>
      <trkpt lat="45.90933" lon="4.08718">
        <ele>343</ele>
        <time>2022-03-18T12:36:20Z</time>
      </trkpt>
      <trkpt lat="45.90949" lon="4.08704">
        <ele>344</ele>
        <time>2022-03-18T12:36:24Z</time>
      </trkpt>
      <trkpt lat="45.90966" lon="4.08684">
        <ele>345</ele>
        <time>2022-03-18T12:36:27Z</time>
      </trkpt>
      <trkpt lat="45.90982" lon="4.08656">
        <ele>345</ele>
        <time>2022-03-18T12:36:32Z</time>
      </trkpt>
      <trkpt lat="45.9104" lon="4.08533">
        <ele>343</ele>
        <time>2022-03-18T12:36:50Z</time>
      </trkpt>
      <trkpt lat="45.91093" lon="4.08416">
        <ele>339</ele>
        <time>2022-03-18T12:37:08Z</time>
      </trkpt>
      <trkpt lat="45.91109" lon="4.08357">
        <ele>341</ele>
        <time>2022-03-18T12:37:16Z</time>
      </trkpt>
      <trkpt lat="45.91129" lon="4.08257">
        <ele>340</ele>
        <time>2022-03-18T12:37:28Z</time>
      </trkpt>
      <trkpt lat="45.9114" lon="4.0821">
        <ele>339</ele>
        <time>2022-03-18T12:37:35Z</time>
      </trkpt>
      <trkpt lat="45.91177" lon="4.08115">
        <ele>337</ele>
        <time>2022-03-18T12:37:48Z</time>
      </trkpt>
      <trkpt lat="45.91187" lon="4.0808">
        <ele>336</ele>
        <time>2022-03-18T12:37:53Z</time>
      </trkpt>
      <trkpt lat="45.91202" lon="4.07992">
        <ele>336</ele>
        <time>2022-03-18T12:38:04Z</time>
      </trkpt>
      <trkpt lat="45.91214" lon="4.07944">
        <ele>334</ele>
        <time>2022-03-18T12:38:10Z</time>
      </trkpt>
      <trkpt lat="45.91224" lon="4.07915">
        <ele>333</ele>
        <time>2022-03-18T12:38:14Z</time>
      </trkpt>
      <trkpt lat="45.91242" lon="4.07886">
        <ele>332</ele>
        <time>2022-03-18T12:38:19Z</time>
      </trkpt>
      <trkpt lat="45.91269" lon="4.07851">
        <ele>327</ele>
        <time>2022-03-18T12:38:26Z</time>
      </trkpt>
      <trkpt lat="45.91329" lon="4.07791">
        <ele>324</ele>
        <time>2022-03-18T12:38:39Z</time>
      </trkpt>
      <trkpt lat="45.91352" lon="4.07751">
        <ele>320</ele>
        <time>2022-03-18T12:38:45Z</time>
      </trkpt>
      <trkpt lat="45.91366" lon="4.07715">
        <ele>322</ele>
        <time>2022-03-18T12:38:50Z</time>
      </trkpt>
      <trkpt lat="45.91372" lon="4.0768">
        <ele>324</ele>
        <time>2022-03-18T12:38:54Z</time>
      </trkpt>
      <trkpt lat="45.91371" lon="4.07595">
        <ele>325</ele>
        <time>2022-03-18T12:39:05Z</time>
      </trkpt>
      <trkpt lat="45.91371" lon="4.07569">
        <ele>325</ele>
        <time>2022-03-18T12:39:08Z</time>
      </trkpt>
      <trkpt lat="45.91374" lon="4.07545">
        <ele>325</ele>
        <time>2022-03-18T12:39:11Z</time>
      </trkpt>
      <trkpt lat="45.91387" lon="4.0749">
        <ele>326</ele>
        <time>2022-03-18T12:39:18Z</time>
      </trkpt>
      <trkpt lat="45.91505" lon="4.07075">
        <ele>327</ele>
        <time>2022-03-18T12:40:14Z</time>
      </trkpt>
      <trkpt lat="45.91514" lon="4.07046">
        <ele>328</ele>
        <time>2022-03-18T12:40:18Z</time>
      </trkpt>
      <trkpt lat="45.91524" lon="4.07023">
        <ele>329</ele>
        <time>2022-03-18T12:40:21Z</time>
      </trkpt>
      <trkpt lat="45.9155" lon="4.06985">
        <ele>331</ele>
        <time>2022-03-18T12:40:28Z</time>
      </trkpt>
      <trkpt lat="45.91568" lon="4.06968">
        <ele>332</ele>
        <time>2022-03-18T12:40:32Z</time>
      </trkpt>
      <trkpt lat="45.91584" lon="4.06957">
        <ele>333</ele>
        <time>2022-03-18T12:40:35Z</time>
      </trkpt>
      <trkpt lat="45.91618" lon="4.06947">
        <ele>336</ele>
        <time>2022-03-18T12:40:41Z</time>
      </trkpt>
      <trkpt lat="45.91692" lon="4.06935">
        <ele>341</ele>
        <time>2022-03-18T12:40:54Z</time>
      </trkpt>
      <trkpt lat="45.91727" lon="4.06935">
        <ele>344</ele>
        <time>2022-03-18T12:41:00Z</time>
      </trkpt>
      <trkpt lat="45.91785" lon="4.06952">
        <ele>351</ele>
        <time>2022-03-18T12:41:11Z</time>
      </trkpt>
      <trkpt lat="45.91908" lon="4.06996">
        <ele>360</ele>
        <time>2022-03-18T12:41:34Z</time>
      </trkpt>
      <trkpt lat="45.91935" lon="4.07002">
        <ele>361</ele>
        <time>2022-03-18T12:41:38Z</time>
      </trkpt>
      <trkpt lat="45.91965" lon="4.07001">
        <ele>363</ele>
        <time>2022-03-18T12:41:44Z</time>
      </trkpt>
      <trkpt lat="45.91996" lon="4.06996">
        <ele>364</ele>
        <time>2022-03-18T12:41:49Z</time>
      </trkpt>
      <trkpt lat="45.92032" lon="4.06979">
        <ele>368</ele>
        <time>2022-03-18T12:41:56Z</time>
      </trkpt>
      <trkpt lat="45.92043" lon="4.06965">
        <ele>369</ele>
        <time>2022-03-18T12:41:59Z</time>
      </trkpt>
      <trkpt lat="45.9205" lon="4.06954">
        <ele>369</ele>
        <time>2022-03-18T12:42:01Z</time>
      </trkpt>
      <trkpt lat="45.92055" lon="4.06937">
        <ele>369</ele>
        <time>2022-03-18T12:42:03Z</time>
      </trkpt>
      <trkpt lat="45.92057" lon="4.06922">
        <ele>369</ele>
        <time>2022-03-18T12:42:05Z</time>
      </trkpt>
      <trkpt lat="45.92055" lon="4.06893">
        <ele>372</ele>
        <time>2022-03-18T12:42:08Z</time>
      </trkpt>
      <trkpt lat="45.92048" lon="4.06879">
        <ele>374</ele>
        <time>2022-03-18T12:42:10Z</time>
      </trkpt>
      <trkpt lat="45.9204" lon="4.06866">
        <ele>375</ele>
        <time>2022-03-18T12:42:13Z</time>
      </trkpt>
      <trkpt lat="45.92029" lon="4.06855">
        <ele>376</ele>
        <time>2022-03-18T12:42:15Z</time>
      </trkpt>
      <trkpt lat="45.9194" lon="4.0679">
        <ele>380</ele>
        <time>2022-03-18T12:42:33Z</time>
      </trkpt>
      <trkpt lat="45.91905" lon="4.06757">
        <ele>383</ele>
        <time>2022-03-18T12:42:40Z</time>
      </trkpt>
      <trkpt lat="45.91891" lon="4.06738">
        <ele>385</ele>
        <time>2022-03-18T12:42:44Z</time>
      </trkpt>
      <trkpt lat="45.91877" lon="4.06714">
        <ele>387</ele>
        <time>2022-03-18T12:42:47Z</time>
      </trkpt>
      <trkpt lat="45.91859" lon="4.06669">
        <ele>391</ele>
        <time>2022-03-18T12:42:54Z</time>
      </trkpt>
      <trkpt lat="45.91855" lon="4.06646">
        <ele>392</ele>
        <time>2022-03-18T12:42:57Z</time>
      </trkpt>
      <trkpt lat="45.91854" lon="4.06621">
        <ele>393</ele>
        <time>2022-03-18T12:43:00Z</time>
      </trkpt>
      <trkpt lat="45.91859" lon="4.06572">
        <ele>397</ele>
        <time>2022-03-18T12:43:06Z</time>
      </trkpt>
      <trkpt lat="45.91868" lon="4.06532">
        <ele>400</ele>
        <time>2022-03-18T12:43:11Z</time>
      </trkpt>
      <trkpt lat="45.91887" lon="4.06483">
        <ele>401</ele>
        <time>2022-03-18T12:43:18Z</time>
      </trkpt>
      <trkpt lat="45.91944" lon="4.0636">
        <ele>395</ele>
        <time>2022-03-18T12:43:37Z</time>
      </trkpt>
      <trkpt lat="45.91963" lon="4.06307">
        <ele>393</ele>
        <time>2022-03-18T12:43:44Z</time>
      </trkpt>
      <trkpt lat="45.91973" lon="4.06262">
        <ele>391</ele>
        <time>2022-03-18T12:43:50Z</time>
      </trkpt>
      <trkpt lat="45.91977" lon="4.06218">
        <ele>393</ele>
        <time>2022-03-18T12:43:55Z</time>
      </trkpt>
      <trkpt lat="45.91974" lon="4.06192">
        <ele>393</ele>
        <time>2022-03-18T12:43:58Z</time>
      </trkpt>
      <trkpt lat="45.91965" lon="4.06146">
        <ele>395</ele>
        <time>2022-03-18T12:44:04Z</time>
      </trkpt>
      <trkpt lat="45.91953" lon="4.0611">
        <ele>396</ele>
        <time>2022-03-18T12:44:09Z</time>
      </trkpt>
      <trkpt lat="45.91877" lon="4.05925">
        <ele>400</ele>
        <time>2022-03-18T12:44:36Z</time>
      </trkpt>
      <trkpt lat="45.9187" lon="4.05902">
        <ele>401</ele>
        <time>2022-03-18T12:44:39Z</time>
      </trkpt>
      <trkpt lat="45.91867" lon="4.05866">
        <ele>403</ele>
        <time>2022-03-18T12:44:44Z</time>
      </trkpt>
      <trkpt lat="45.9187" lon="4.05828">
        <ele>405</ele>
        <time>2022-03-18T12:44:48Z</time>
      </trkpt>
      <trkpt lat="45.91879" lon="4.05796">
        <ele>403</ele>
        <time>2022-03-18T12:44:53Z</time>
      </trkpt>
      <trkpt lat="45.9189" lon="4.05775">
        <ele>402</ele>
        <time>2022-03-18T12:44:56Z</time>
      </trkpt>
      <trkpt lat="45.91904" lon="4.05757">
        <ele>403</ele>
        <time>2022-03-18T12:44:59Z</time>
      </trkpt>
      <trkpt lat="45.91928" lon="4.05716">
        <ele>404</ele>
        <time>2022-03-18T12:45:06Z</time>
      </trkpt>
      <trkpt lat="45.91934" lon="4.05696">
        <ele>404</ele>
        <time>2022-03-18T12:45:08Z</time>
      </trkpt>
      <trkpt lat="45.91942" lon="4.05655">
        <ele>404</ele>
        <time>2022-03-18T12:45:14Z</time>
      </trkpt>
      <trkpt lat="45.91945" lon="4.05596">
        <ele>403</ele>
        <time>2022-03-18T12:45:21Z</time>
      </trkpt>
      <trkpt lat="45.91956" lon="4.05517">
        <ele>402</ele>
        <time>2022-03-18T12:45:31Z</time>
      </trkpt>
      <trkpt lat="45.91961" lon="4.05497">
        <ele>402</ele>
        <time>2022-03-18T12:45:34Z</time>
      </trkpt>
      <trkpt lat="45.91976" lon="4.05459">
        <ele>399</ele>
        <time>2022-03-18T12:45:39Z</time>
      </trkpt>
      <trkpt lat="45.9199" lon="4.05432">
        <ele>398</ele>
        <time>2022-03-18T12:45:43Z</time>
      </trkpt>
      <trkpt lat="45.92002" lon="4.05413">
        <ele>399</ele>
        <time>2022-03-18T12:45:46Z</time>
      </trkpt>
      <trkpt lat="45.92034" lon="4.05378">
        <ele>399</ele>
        <time>2022-03-18T12:45:54Z</time>
      </trkpt>
      <trkpt lat="45.92061" lon="4.05359">
        <ele>400</ele>
        <time>2022-03-18T12:45:59Z</time>
      </trkpt>
      <trkpt lat="45.92121" lon="4.05328">
        <ele>404</ele>
        <time>2022-03-18T12:46:10Z</time>
      </trkpt>
      <trkpt lat="45.92139" lon="4.05317">
        <ele>404</ele>
        <time>2022-03-18T12:46:14Z</time>
      </trkpt>
      <trkpt lat="45.92154" lon="4.05305">
        <ele>404</ele>
        <time>2022-03-18T12:46:17Z</time>
      </trkpt>
      <trkpt lat="45.92166" lon="4.05291">
        <ele>403</ele>
        <time>2022-03-18T12:46:20Z</time>
      </trkpt>
      <trkpt lat="45.92177" lon="4.05272">
        <ele>402</ele>
        <time>2022-03-18T12:46:23Z</time>
      </trkpt>
      <trkpt lat="45.922" lon="4.05221">
        <ele>400</ele>
        <time>2022-03-18T12:46:30Z</time>
      </trkpt>
      <trkpt lat="45.92214" lon="4.05194">
        <ele>399</ele>
        <time>2022-03-18T12:46:34Z</time>
      </trkpt>
      <trkpt lat="45.9223" lon="4.05172">
        <ele>400</ele>
        <time>2022-03-18T12:46:38Z</time>
      </trkpt>
      <trkpt lat="45.9224" lon="4.0516">
        <ele>400</ele>
        <time>2022-03-18T12:46:41Z</time>
      </trkpt>
      <trkpt lat="45.92253" lon="4.05152">
        <ele>400</ele>
        <time>2022-03-18T12:46:43Z</time>
      </trkpt>
      <trkpt lat="45.9227" lon="4.05144">
        <ele>399</ele>
        <time>2022-03-18T12:46:46Z</time>
      </trkpt>
      <trkpt lat="45.92295" lon="4.0514">
        <ele>400</ele>
        <time>2022-03-18T12:46:51Z</time>
      </trkpt>
      <trkpt lat="45.92559" lon="4.05125">
        <ele>396</ele>
        <time>2022-03-18T12:47:38Z</time>
      </trkpt>
      <trkpt lat="45.92587" lon="4.0513">
        <ele>393</ele>
        <time>2022-03-18T12:47:43Z</time>
      </trkpt>
      <trkpt lat="45.92609" lon="4.05141">
        <ele>391</ele>
        <time>2022-03-18T12:47:47Z</time>
      </trkpt>
      <trkpt lat="45.9263" lon="4.05156">
        <ele>389</ele>
        <time>2022-03-18T12:47:51Z</time>
      </trkpt>
      <trkpt lat="45.92658" lon="4.05186">
        <ele>388</ele>
        <time>2022-03-18T12:47:57Z</time>
      </trkpt>
      <trkpt lat="45.92695" lon="4.05234">
        <ele>384</ele>
        <time>2022-03-18T12:48:06Z</time>
      </trkpt>
      <trkpt lat="45.92709" lon="4.05259">
        <ele>383</ele>
        <time>2022-03-18T12:48:10Z</time>
      </trkpt>
      <trkpt lat="45.92717" lon="4.05286">
        <ele>382</ele>
        <time>2022-03-18T12:48:14Z</time>
      </trkpt>
      <trkpt lat="45.9273" lon="4.05354">
        <ele>383</ele>
        <time>2022-03-18T12:48:22Z</time>
      </trkpt>
      <trkpt lat="45.92739" lon="4.05376">
        <ele>383</ele>
        <time>2022-03-18T12:48:26Z</time>
      </trkpt>
      <trkpt lat="45.92755" lon="4.05393">
        <ele>382</ele>
        <time>2022-03-18T12:48:29Z</time>
      </trkpt>
      <trkpt lat="45.92803" lon="4.05439">
        <ele>381</ele>
        <time>2022-03-18T12:48:39Z</time>
      </trkpt>
      <trkpt lat="45.92822" lon="4.05454">
        <ele>379</ele>
        <time>2022-03-18T12:48:43Z</time>
      </trkpt>
      <trkpt lat="45.92837" lon="4.0546">
        <ele>379</ele>
        <time>2022-03-18T12:48:46Z</time>
      </trkpt>
      <trkpt lat="45.9285" lon="4.05459">
        <ele>382</ele>
        <time>2022-03-18T12:48:48Z</time>
      </trkpt>
      <trkpt lat="45.92864" lon="4.05453">
        <ele>385</ele>
        <time>2022-03-18T12:48:51Z</time>
      </trkpt>
      <trkpt lat="45.92876" lon="4.05443">
        <ele>388</ele>
        <time>2022-03-18T12:48:53Z</time>
      </trkpt>
      <trkpt lat="45.92885" lon="4.05424">
        <ele>390</ele>
        <time>2022-03-18T12:48:56Z</time>
      </trkpt>
      <trkpt lat="45.92889" lon="4.05401">
        <ele>390</ele>
        <time>2022-03-18T12:48:59Z</time>
      </trkpt>
      <trkpt lat="45.92886" lon="4.05371">
        <ele>389</ele>
        <time>2022-03-18T12:49:03Z</time>
      </trkpt>
      <trkpt lat="45.92877" lon="4.05314">
        <ele>386</ele>
        <time>2022-03-18T12:49:10Z</time>
      </trkpt>
      <trkpt lat="45.92879" lon="4.05285">
        <ele>387</ele>
        <time>2022-03-18T12:49:14Z</time>
      </trkpt>
      <trkpt lat="45.92885" lon="4.05257">
        <ele>389</ele>
        <time>2022-03-18T12:49:17Z</time>
      </trkpt>
      <trkpt lat="45.92899" lon="4.05226">
        <ele>392</ele>
        <time>2022-03-18T12:49:22Z</time>
      </trkpt>
      <trkpt lat="45.9295" lon="4.05168">
        <ele>403</ele>
        <time>2022-03-18T12:49:34Z</time>
      </trkpt>
      <trkpt lat="45.92975" lon="4.05124">
        <ele>407</ele>
        <time>2022-03-18T12:49:41Z</time>
      </trkpt>
      <trkpt lat="45.92997" lon="4.05059">
        <ele>411</ele>
        <time>2022-03-18T12:49:50Z</time>
      </trkpt>
      <trkpt lat="45.93007" lon="4.05035">
        <ele>412</ele>
        <time>2022-03-18T12:49:53Z</time>
      </trkpt>
      <trkpt lat="45.93042" lon="4.04931">
        <ele>411</ele>
        <time>2022-03-18T12:50:07Z</time>
      </trkpt>
      <trkpt lat="45.93036" lon="4.04893">
        <ele>408</ele>
        <time>2022-03-18T12:50:12Z</time>
      </trkpt>
      <trkpt lat="45.93027" lon="4.04863">
        <ele>406</ele>
        <time>2022-03-18T12:50:16Z</time>
      </trkpt>
      <trkpt lat="45.93012" lon="4.04841">
        <ele>404</ele>
        <time>2022-03-18T12:50:20Z</time>
      </trkpt>
      <trkpt lat="45.93002" lon="4.0483">
        <ele>403</ele>
        <time>2022-03-18T12:50:22Z</time>
      </trkpt>
      <trkpt lat="45.92985" lon="4.04821">
        <ele>402</ele>
        <time>2022-03-18T12:50:25Z</time>
      </trkpt>
      <trkpt lat="45.92847" lon="4.04798">
        <ele>389</ele>
        <time>2022-03-18T12:50:50Z</time>
      </trkpt>
      <trkpt lat="45.92827" lon="4.04791">
        <ele>387</ele>
        <time>2022-03-18T12:50:54Z</time>
      </trkpt>
      <trkpt lat="45.92809" lon="4.04778">
        <ele>384</ele>
        <time>2022-03-18T12:50:57Z</time>
      </trkpt>
      <trkpt lat="45.92796" lon="4.04757">
        <ele>382</ele>
        <time>2022-03-18T12:51:01Z</time>
      </trkpt>
      <trkpt lat="45.92773" lon="4.04688">
        <ele>377</ele>
        <time>2022-03-18T12:51:10Z</time>
      </trkpt>
      <trkpt lat="45.92769" lon="4.0467">
        <ele>377</ele>
        <time>2022-03-18T12:51:13Z</time>
      </trkpt>
      <trkpt lat="45.9277" lon="4.04651">
        <ele>375</ele>
        <time>2022-03-18T12:51:15Z</time>
      </trkpt>
      <trkpt lat="45.92777" lon="4.04635">
        <ele>374</ele>
        <time>2022-03-18T12:51:17Z</time>
      </trkpt>
      <trkpt lat="45.92789" lon="4.04621">
        <ele>375</ele>
        <time>2022-03-18T12:51:20Z</time>
      </trkpt>
      <trkpt lat="45.92839" lon="4.04589">
        <ele>378</ele>
        <time>2022-03-18T12:51:30Z</time>
      </trkpt>
      <trkpt lat="45.92851" lon="4.04575">
        <ele>380</ele>
        <time>2022-03-18T12:51:33Z</time>
      </trkpt>
      <trkpt lat="45.92859" lon="4.04559">
        <ele>380</ele>
        <time>2022-03-18T12:51:35Z</time>
      </trkpt>
      <trkpt lat="45.92858" lon="4.04527">
        <ele>378</ele>
        <time>2022-03-18T12:51:39Z</time>
      </trkpt>
      <trkpt lat="45.92834" lon="4.04408">
        <ele>362</ele>
        <time>2022-03-18T12:51:54Z</time>
      </trkpt>
      <trkpt lat="45.92832" lon="4.04378">
        <ele>358</ele>
        <time>2022-03-18T12:51:58Z</time>
      </trkpt>
      <trkpt lat="45.92838" lon="4.04357">
        <ele>358</ele>
        <time>2022-03-18T12:52:01Z</time>
      </trkpt>
      <trkpt lat="45.92849" lon="4.04338">
        <ele>359</ele>
        <time>2022-03-18T12:52:04Z</time>
      </trkpt>
      <trkpt lat="45.92964" lon="4.04225">
        <ele>360</ele>
        <time>2022-03-18T12:52:29Z</time>
      </trkpt>
      <trkpt lat="45.92988" lon="4.04203">
        <ele>358</ele>
        <time>2022-03-18T12:52:34Z</time>
      </trkpt>
      <trkpt lat="45.93017" lon="4.04194">
        <ele>360</ele>
        <time>2022-03-18T12:52:39Z</time>
      </trkpt>
      <trkpt lat="45.93046" lon="4.04191">
        <ele>363</ele>
        <time>2022-03-18T12:52:44Z</time>
      </trkpt>
      <trkpt lat="45.93071" lon="4.04174">
        <ele>363</ele>
        <time>2022-03-18T12:52:49Z</time>
      </trkpt>
      <trkpt lat="45.93088" lon="4.04134">
        <ele>354</ele>
        <time>2022-03-18T12:52:55Z</time>
      </trkpt>
      <trkpt lat="45.9318" lon="4.03897">
        <ele>335</ele>
        <time>2022-03-18T12:53:29Z</time>
      </trkpt>
      <trkpt lat="45.93187" lon="4.03885">
        <ele>334</ele>
        <time>2022-03-18T12:53:31Z</time>
      </trkpt>
      <trkpt lat="45.93195" lon="4.03878">
        <ele>334</ele>
        <time>2022-03-18T12:53:32Z</time>
      </trkpt>
      <trkpt lat="45.93208" lon="4.03874">
        <ele>334</ele>
        <time>2022-03-18T12:53:35Z</time>
      </trkpt>
      <trkpt lat="45.93224" lon="4.03879">
        <ele>336</ele>
        <time>2022-03-18T12:53:37Z</time>
      </trkpt>
      <trkpt lat="45.93243" lon="4.03897">
        <ele>338</ele>
        <time>2022-03-18T12:53:42Z</time>
      </trkpt>
      <trkpt lat="45.93257" lon="4.03899">
        <ele>340</ele>
        <time>2022-03-18T12:53:44Z</time>
      </trkpt>
      <trkpt lat="45.93269" lon="4.03894">
        <ele>342</ele>
        <time>2022-03-18T12:53:46Z</time>
      </trkpt>
      <trkpt lat="45.93282" lon="4.03875">
        <ele>343</ele>
        <time>2022-03-18T12:53:50Z</time>
      </trkpt>
      <trkpt lat="45.93288" lon="4.03852">
        <ele>341</ele>
        <time>2022-03-18T12:53:53Z</time>
      </trkpt>
      <trkpt lat="45.93295" lon="4.03749">
        <ele>329</ele>
        <time>2022-03-18T12:54:05Z</time>
      </trkpt>
      <trkpt lat="45.93301" lon="4.03718">
        <ele>327</ele>
        <time>2022-03-18T12:54:09Z</time>
      </trkpt>
      <trkpt lat="45.93311" lon="4.03687">
        <ele>325</ele>
        <time>2022-03-18T12:54:14Z</time>
      </trkpt>
      <trkpt lat="45.93333" lon="4.03647">
        <ele>325</ele>
        <time>2022-03-18T12:54:20Z</time>
      </trkpt>
      <trkpt lat="45.93416" lon="4.0354">
        <ele>336</ele>
        <time>2022-03-18T12:54:40Z</time>
      </trkpt>
      <trkpt lat="45.93427" lon="4.03521">
        <ele>340</ele>
        <time>2022-03-18T12:54:43Z</time>
      </trkpt>
      <trkpt lat="45.93433" lon="4.03496">
        <ele>343</ele>
        <time>2022-03-18T12:54:46Z</time>
      </trkpt>
      <trkpt lat="45.93432" lon="4.03472">
        <ele>341</ele>
        <time>2022-03-18T12:54:49Z</time>
      </trkpt>
      <trkpt lat="45.93422" lon="4.03452">
        <ele>336</ele>
        <time>2022-03-18T12:54:52Z</time>
      </trkpt>
      <trkpt lat="45.93403" lon="4.03438">
        <ele>330</ele>
        <time>2022-03-18T12:54:56Z</time>
      </trkpt>
      <trkpt lat="45.93154" lon="4.03262">
        <ele>323</ele>
        <time>2022-03-18T12:55:45Z</time>
      </trkpt>
      <trkpt lat="45.93139" lon="4.03247">
        <ele>328</ele>
        <time>2022-03-18T12:55:49Z</time>
      </trkpt>
      <trkpt lat="45.93123" lon="4.03222">
        <ele>334</ele>
        <time>2022-03-18T12:55:53Z</time>
      </trkpt>
      <trkpt lat="45.93116" lon="4.03187">
        <ele>338</ele>
        <time>2022-03-18T12:55:57Z</time>
      </trkpt>
      <trkpt lat="45.93107" lon="4.03125">
        <ele>342</ele>
        <time>2022-03-18T12:56:05Z</time>
      </trkpt>
      <trkpt lat="45.93097" lon="4.0307">
        <ele>343</ele>
        <time>2022-03-18T12:56:12Z</time>
      </trkpt>
      <trkpt lat="45.93081" lon="4.03028">
        <ele>342</ele>
        <time>2022-03-18T12:56:18Z</time>
      </trkpt>
      <trkpt lat="45.93061" lon="4.02986">
        <ele>343</ele>
        <time>2022-03-18T12:56:24Z</time>
      </trkpt>
      <trkpt lat="45.92975" lon="4.02877">
        <ele>356</ele>
        <time>2022-03-18T12:56:45Z</time>
      </trkpt>
      <trkpt lat="45.92958" lon="4.02852">
        <ele>358</ele>
        <time>2022-03-18T12:56:49Z</time>
      </trkpt>
      <trkpt lat="45.92943" lon="4.0282">
        <ele>361</ele>
        <time>2022-03-18T12:56:54Z</time>
      </trkpt>
      <trkpt lat="45.92933" lon="4.02787">
        <ele>363</ele>
        <time>2022-03-18T12:56:58Z</time>
      </trkpt>
      <trkpt lat="45.92927" lon="4.0276">
        <ele>364</ele>
        <time>2022-03-18T12:57:02Z</time>
      </trkpt>
      <trkpt lat="45.92928" lon="4.02735">
        <ele>366</ele>
        <time>2022-03-18T12:57:05Z</time>
      </trkpt>
      <trkpt lat="45.92937" lon="4.02712">
        <ele>367</ele>
        <time>2022-03-18T12:57:08Z</time>
      </trkpt>
      <trkpt lat="45.9295" lon="4.02701">
        <ele>367</ele>
        <time>2022-03-18T12:57:11Z</time>
      </trkpt>
      <trkpt lat="45.92963" lon="4.027">
        <ele>367</ele>
        <time>2022-03-18T12:57:13Z</time>
      </trkpt>
      <trkpt lat="45.92978" lon="4.02705">
        <ele>367</ele>
        <time>2022-03-18T12:57:16Z</time>
      </trkpt>
      <trkpt lat="45.92989" lon="4.02723">
        <ele>365</ele>
        <time>2022-03-18T12:57:19Z</time>
      </trkpt>
      <trkpt lat="45.93007" lon="4.02764">
        <ele>360</ele>
        <time>2022-03-18T12:57:25Z</time>
      </trkpt>
      <trkpt lat="45.93018" lon="4.02781">
        <ele>357</ele>
        <time>2022-03-18T12:57:28Z</time>
      </trkpt>
      <trkpt lat="45.93031" lon="4.02789">
        <ele>355</ele>
        <time>2022-03-18T12:57:30Z</time>
      </trkpt>
      <trkpt lat="45.93048" lon="4.02788">
        <ele>354</ele>
        <time>2022-03-18T12:57:33Z</time>
      </trkpt>
      <trkpt lat="45.93058" lon="4.02778">
        <ele>354</ele>
        <time>2022-03-18T12:57:35Z</time>
      </trkpt>
      <trkpt lat="45.93064" lon="4.02765">
        <ele>355</ele>
        <time>2022-03-18T12:57:37Z</time>
      </trkpt>
      <trkpt lat="45.93066" lon="4.02745">
        <ele>358</ele>
        <time>2022-03-18T12:57:40Z</time>
      </trkpt>
      <trkpt lat="45.9307" lon="4.02633">
        <ele>363</ele>
        <time>2022-03-18T12:57:54Z</time>
      </trkpt>
      <trkpt lat="45.93078" lon="4.02525">
        <ele>368</ele>
        <time>2022-03-18T12:58:07Z</time>
      </trkpt>
      <trkpt lat="45.93078" lon="4.02507">
        <ele>368</ele>
        <time>2022-03-18T12:58:09Z</time>
      </trkpt>
      <trkpt lat="45.93074" lon="4.02491">
        <ele>369</ele>
        <time>2022-03-18T12:58:12Z</time>
      </trkpt>
      <trkpt lat="45.93063" lon="4.02472">
        <ele>370</ele>
        <time>2022-03-18T12:58:15Z</time>
      </trkpt>
      <trkpt lat="45.93049" lon="4.0246">
        <ele>371</ele>
        <time>2022-03-18T12:58:18Z</time>
      </trkpt>
      <trkpt lat="45.93016" lon="4.02439">
        <ele>375</ele>
        <time>2022-03-18T12:58:24Z</time>
      </trkpt>
      <trkpt lat="45.92993" lon="4.02433">
        <ele>378</ele>
        <time>2022-03-18T12:58:28Z</time>
      </trkpt>
      <trkpt lat="45.92935" lon="4.02439">
        <ele>381</ele>
        <time>2022-03-18T12:58:38Z</time>
      </trkpt>
      <trkpt lat="45.92917" lon="4.02435">
        <ele>382</ele>
        <time>2022-03-18T12:58:42Z</time>
      </trkpt>
      <trkpt lat="45.92838" lon="4.02375">
        <ele>390</ele>
        <time>2022-03-18T12:58:58Z</time>
      </trkpt>
      <trkpt lat="45.92824" lon="4.02358">
        <ele>392</ele>
        <time>2022-03-18T12:59:01Z</time>
      </trkpt>
      <trkpt lat="45.92816" lon="4.02342">
        <ele>393</ele>
        <time>2022-03-18T12:59:03Z</time>
      </trkpt>
      <trkpt lat="45.92814" lon="4.02326">
        <ele>394</ele>
        <time>2022-03-18T12:59:05Z</time>
      </trkpt>
      <trkpt lat="45.92816" lon="4.02314">
        <ele>395</ele>
        <time>2022-03-18T12:59:07Z</time>
      </trkpt>
      <trkpt lat="45.9282" lon="4.02303">
        <ele>395</ele>
        <time>2022-03-18T12:59:08Z</time>
      </trkpt>
      <trkpt lat="45.92831" lon="4.02292">
        <ele>396</ele>
        <time>2022-03-18T12:59:11Z</time>
      </trkpt>
      <trkpt lat="45.92845" lon="4.02291">
        <ele>395</ele>
        <time>2022-03-18T12:59:13Z</time>
      </trkpt>
      <trkpt lat="45.92881" lon="4.02296">
        <ele>392</ele>
        <time>2022-03-18T12:59:20Z</time>
      </trkpt>
      <trkpt lat="45.92895" lon="4.02286">
        <ele>392</ele>
        <time>2022-03-18T12:59:22Z</time>
      </trkpt>
      <trkpt lat="45.92902" lon="4.02278">
        <ele>393</ele>
        <time>2022-03-18T12:59:24Z</time>
      </trkpt>
      <trkpt lat="45.9291" lon="4.02256">
        <ele>395</ele>
        <time>2022-03-18T12:59:27Z</time>
      </trkpt>
      <trkpt lat="45.92952" lon="4.02092">
        <ele>401</ele>
        <time>2022-03-18T12:59:49Z</time>
      </trkpt>
      <trkpt lat="45.92959" lon="4.02056">
        <ele>402</ele>
        <time>2022-03-18T12:59:53Z</time>
      </trkpt>
      <trkpt lat="45.92959" lon="4.02021">
        <ele>403</ele>
        <time>2022-03-18T12:59:58Z</time>
      </trkpt>
      <trkpt lat="45.92953" lon="4.01993">
        <ele>404</ele>
        <time>2022-03-18T13:00:01Z</time>
      </trkpt>
      <trkpt lat="45.92943" lon="4.01967">
        <ele>404</ele>
        <time>2022-03-18T13:00:05Z</time>
      </trkpt>
      <trkpt lat="45.92918" lon="4.01928">
        <ele>404</ele>
        <time>2022-03-18T13:00:12Z</time>
      </trkpt>
      <trkpt lat="45.92863" lon="4.01848">
        <ele>405</ele>
        <time>2022-03-18T13:00:25Z</time>
      </trkpt>
      <trkpt lat="45.92845" lon="4.01816">
        <ele>405</ele>
        <time>2022-03-18T13:00:31Z</time>
      </trkpt>
      <trkpt lat="45.92835" lon="4.0179">
        <ele>406</ele>
        <time>2022-03-18T13:00:34Z</time>
      </trkpt>
      <trkpt lat="45.92832" lon="4.01765">
        <ele>405</ele>
        <time>2022-03-18T13:00:37Z</time>
      </trkpt>
      <trkpt lat="45.92828" lon="4.01687">
        <ele>405</ele>
        <time>2022-03-18T13:00:47Z</time>
      </trkpt>
      <trkpt lat="45.92822" lon="4.01657">
        <ele>405</ele>
        <time>2022-03-18T13:00:51Z</time>
      </trkpt>
      <trkpt lat="45.92808" lon="4.0162">
        <ele>407</ele>
        <time>2022-03-18T13:00:56Z</time>
      </trkpt>
      <trkpt lat="45.92794" lon="4.01601">
        <ele>409</ele>
        <time>2022-03-18T13:01:00Z</time>
      </trkpt>
      <trkpt lat="45.92785" lon="4.0158">
        <ele>410</ele>
        <time>2022-03-18T13:01:03Z</time>
      </trkpt>
      <trkpt lat="45.92783" lon="4.01556">
        <ele>412</ele>
        <time>2022-03-18T13:01:06Z</time>
      </trkpt>
      <trkpt lat="45.92786" lon="4.01536">
        <ele>412</ele>
        <time>2022-03-18T13:01:08Z</time>
      </trkpt>
      <trkpt lat="45.92798" lon="4.01495">
        <ele>412</ele>
        <time>2022-03-18T13:01:14Z</time>
      </trkpt>
      <trkpt lat="45.928" lon="4.01477">
        <ele>412</ele>
        <time>2022-03-18T13:01:16Z</time>
      </trkpt>
      <trkpt lat="45.92801" lon="4.01454">
        <ele>413</ele>
        <time>2022-03-18T13:01:19Z</time>
      </trkpt>
      <trkpt lat="45.92794" lon="4.0134">
        <ele>416</ele>
        <time>2022-03-18T13:01:33Z</time>
      </trkpt>
      <trkpt lat="45.9279" lon="4.01319">
        <ele>416</ele>
        <time>2022-03-18T13:01:36Z</time>
      </trkpt>
      <trkpt lat="45.92784" lon="4.01294">
        <ele>416</ele>
        <time>2022-03-18T13:01:39Z</time>
      </trkpt>
      <trkpt lat="45.92753" lon="4.01204">
        <ele>419</ele>
        <time>2022-03-18T13:01:51Z</time>
      </trkpt>
      <trkpt lat="45.92747" lon="4.01179">
        <ele>420</ele>
        <time>2022-03-18T13:01:55Z</time>
      </trkpt>
      <trkpt lat="45.92741" lon="4.01133">
        <ele>419</ele>
        <time>2022-03-18T13:02:00Z</time>
      </trkpt>
      <trkpt lat="45.92737" lon="4.01111">
        <ele>418</ele>
        <time>2022-03-18T13:02:03Z</time>
      </trkpt>
      <trkpt lat="45.92728" lon="4.01088">
        <ele>419</ele>
        <time>2022-03-18T13:02:06Z</time>
      </trkpt>
      <trkpt lat="45.92716" lon="4.01072">
        <ele>420</ele>
        <time>2022-03-18T13:02:09Z</time>
      </trkpt>
      <trkpt lat="45.92697" lon="4.01055">
        <ele>423</ele>
        <time>2022-03-18T13:02:13Z</time>
      </trkpt>
      <trkpt lat="45.92666" lon="4.01036">
        <ele>426</ele>
        <time>2022-03-18T13:02:19Z</time>
      </trkpt>
      <trkpt lat="45.92637" lon="4.01026">
        <ele>429</ele>
        <time>2022-03-18T13:02:25Z</time>
      </trkpt>
      <trkpt lat="45.92625" lon="4.0102">
        <ele>430</ele>
        <time>2022-03-18T13:02:27Z</time>
      </trkpt>
      <trkpt lat="45.92616" lon="4.01009">
        <ele>430</ele>
        <time>2022-03-18T13:02:29Z</time>
      </trkpt>
      <trkpt lat="45.9261" lon="4.00999">
        <ele>430</ele>
        <time>2022-03-18T13:02:31Z</time>
      </trkpt>
      <trkpt lat="45.92599" lon="4.00951">
        <ele>431</ele>
        <time>2022-03-18T13:02:37Z</time>
      </trkpt>
      <trkpt lat="45.92583" lon="4.00924">
        <ele>431</ele>
        <time>2022-03-18T13:02:41Z</time>
      </trkpt>
      <trkpt lat="45.92549" lon="4.00892">
        <ele>437</ele>
        <time>2022-03-18T13:02:49Z</time>
      </trkpt>
      <trkpt lat="45.92489" lon="4.00844">
        <ele>442</ele>
        <time>2022-03-18T13:03:01Z</time>
      </trkpt>
      <trkpt lat="45.92476" lon="4.00828">
        <ele>444</ele>
        <time>2022-03-18T13:03:04Z</time>
      </trkpt>
      <trkpt lat="45.92474" lon="4.00815">
        <ele>445</ele>
        <time>2022-03-18T13:03:05Z</time>
      </trkpt>
      <trkpt lat="45.92476" lon="4.008">
        <ele>446</ele>
        <time>2022-03-18T13:03:07Z</time>
      </trkpt>
      <trkpt lat="45.92481" lon="4.00792">
        <ele>446</ele>
        <time>2022-03-18T13:03:09Z</time>
      </trkpt>
      <trkpt lat="45.92491" lon="4.00789">
        <ele>445</ele>
        <time>2022-03-18T13:03:10Z</time>
      </trkpt>
      <trkpt lat="45.92544" lon="4.00805">
        <ele>443</ele>
        <time>2022-03-18T13:03:20Z</time>
      </trkpt>
      <trkpt lat="45.92555" lon="4.00805">
        <ele>443</ele>
        <time>2022-03-18T13:03:22Z</time>
      </trkpt>
      <trkpt lat="45.92564" lon="4.00801">
        <ele>443</ele>
        <time>2022-03-18T13:03:24Z</time>
      </trkpt>
      <trkpt lat="45.92571" lon="4.0079">
        <ele>444</ele>
        <time>2022-03-18T13:03:26Z</time>
      </trkpt>
      <trkpt lat="45.92584" lon="4.00765">
        <ele>446</ele>
        <time>2022-03-18T13:03:29Z</time>
      </trkpt>
      <trkpt lat="45.92589" lon="4.0076">
        <ele>447</ele>
        <time>2022-03-18T13:03:31Z</time>
      </trkpt>
      <trkpt lat="45.92596" lon="4.00757">
        <ele>448</ele>
        <time>2022-03-18T13:03:32Z</time>
      </trkpt>
      <trkpt lat="45.92609" lon="4.00757">
        <ele>448</ele>
        <time>2022-03-18T13:03:34Z</time>
      </trkpt>
      <trkpt lat="45.92645" lon="4.00777">
        <ele>447</ele>
        <time>2022-03-18T13:03:41Z</time>
      </trkpt>
      <trkpt lat="45.92657" lon="4.00781">
        <ele>446</ele>
        <time>2022-03-18T13:03:43Z</time>
      </trkpt>
      <trkpt lat="45.92668" lon="4.00781">
        <ele>447</ele>
        <time>2022-03-18T13:03:45Z</time>
      </trkpt>
      <trkpt lat="45.92684" lon="4.00776">
        <ele>447</ele>
        <time>2022-03-18T13:03:48Z</time>
      </trkpt>
      <trkpt lat="45.92704" lon="4.00759">
        <ele>449</ele>
        <time>2022-03-18T13:03:52Z</time>
      </trkpt>
      <trkpt lat="45.92724" lon="4.00731">
        <ele>452</ele>
        <time>2022-03-18T13:03:57Z</time>
      </trkpt>
      <trkpt lat="45.92787" lon="4.00605">
        <ele>459</ele>
        <time>2022-03-18T13:04:16Z</time>
      </trkpt>
      <trkpt lat="45.92794" lon="4.00553">
        <ele>460</ele>
        <time>2022-03-18T13:04:23Z</time>
      </trkpt>
      <trkpt lat="45.92793" lon="4.00532">
        <ele>461</ele>
        <time>2022-03-18T13:04:26Z</time>
      </trkpt>
      <trkpt lat="45.92782" lon="4.00498">
        <ele>462</ele>
        <time>2022-03-18T13:04:30Z</time>
      </trkpt>
      <trkpt lat="45.92779" lon="4.00473">
        <ele>461</ele>
        <time>2022-03-18T13:04:33Z</time>
      </trkpt>
      <trkpt lat="45.92757" lon="4.00458">
        <ele>464</ele>
        <time>2022-03-18T13:04:38Z</time>
      </trkpt>
      <trkpt lat="45.92729" lon="4.00375">
        <ele>470</ele>
        <time>2022-03-18T13:04:49Z</time>
      </trkpt>
      <trkpt lat="45.92722" lon="4.00257">
        <ele>475</ele>
        <time>2022-03-18T13:05:04Z</time>
      </trkpt>
      <trkpt lat="45.92714" lon="4.00226">
        <ele>477</ele>
        <time>2022-03-18T13:05:08Z</time>
      </trkpt>
      <trkpt lat="45.92649" lon="4.00045">
        <ele>484</ele>
        <time>2022-03-18T13:05:33Z</time>
      </trkpt>
      <trkpt lat="45.92621" lon="3.99997">
        <ele>485</ele>
        <time>2022-03-18T13:05:41Z</time>
      </trkpt>
      <trkpt lat="45.92528" lon="3.99904">
        <ele>483</ele>
        <time>2022-03-18T13:06:01Z</time>
      </trkpt>
      <trkpt lat="45.92498" lon="3.99877">
        <ele>483</ele>
        <time>2022-03-18T13:06:07Z</time>
      </trkpt>
      <trkpt lat="45.92457" lon="3.99844">
        <ele>484</ele>
        <time>2022-03-18T13:06:16Z</time>
      </trkpt>
      <trkpt lat="45.92442" lon="3.99838">
        <ele>485</ele>
        <time>2022-03-18T13:06:18Z</time>
      </trkpt>
      <trkpt lat="45.92431" lon="3.9984">
        <ele>486</ele>
        <time>2022-03-18T13:06:20Z</time>
      </trkpt>
      <trkpt lat="45.92414" lon="3.99856">
        <ele>488</ele>
        <time>2022-03-18T13:06:24Z</time>
      </trkpt>
      <trkpt lat="45.92372" lon="3.99901">
        <ele>492</ele>
        <time>2022-03-18T13:06:33Z</time>
      </trkpt>
      <trkpt lat="45.92353" lon="3.99916">
        <ele>493</ele>
        <time>2022-03-18T13:06:37Z</time>
      </trkpt>
      <trkpt lat="45.92335" lon="3.99919">
        <ele>494</ele>
        <time>2022-03-18T13:06:40Z</time>
      </trkpt>
      <trkpt lat="45.92312" lon="3.99908">
        <ele>496</ele>
        <time>2022-03-18T13:06:45Z</time>
      </trkpt>
      <trkpt lat="45.92296" lon="3.99895">
        <ele>497</ele>
        <time>2022-03-18T13:06:48Z</time>
      </trkpt>
      <trkpt lat="45.92234" lon="3.99839">
        <ele>502</ele>
        <time>2022-03-18T13:07:01Z</time>
      </trkpt>
      <trkpt lat="45.92228" lon="3.99825">
        <ele>504</ele>
        <time>2022-03-18T13:07:03Z</time>
      </trkpt>
      <trkpt lat="45.92233" lon="3.99806">
        <ele>504</ele>
        <time>2022-03-18T13:07:06Z</time>
      </trkpt>
      <trkpt lat="45.92273" lon="3.99762">
        <ele>502</ele>
        <time>2022-03-18T13:07:15Z</time>
      </trkpt>
      <trkpt lat="45.92295" lon="3.99722">
        <ele>501</ele>
        <time>2022-03-18T13:07:21Z</time>
      </trkpt>
      <trkpt lat="45.92315" lon="3.99593">
        <ele>505</ele>
        <time>2022-03-18T13:07:37Z</time>
      </trkpt>
      <trkpt lat="45.92315" lon="3.99557">
        <ele>507</ele>
        <time>2022-03-18T13:07:42Z</time>
      </trkpt>
      <trkpt lat="45.92306" lon="3.99529">
        <ele>508</ele>
        <time>2022-03-18T13:07:45Z</time>
      </trkpt>
      <trkpt lat="45.92286" lon="3.99512">
        <ele>509</ele>
        <time>2022-03-18T13:07:50Z</time>
      </trkpt>
      <trkpt lat="45.92104" lon="3.99425">
        <ele>519</ele>
        <time>2022-03-18T13:08:24Z</time>
      </trkpt>
      <trkpt lat="45.92046" lon="3.99392">
        <ele>527</ele>
        <time>2022-03-18T13:08:35Z</time>
      </trkpt>
      <trkpt lat="45.92041" lon="3.99381">
        <ele>528</ele>
        <time>2022-03-18T13:08:36Z</time>
      </trkpt>
      <trkpt lat="45.92043" lon="3.99368">
        <ele>527</ele>
        <time>2022-03-18T13:08:38Z</time>
      </trkpt>
      <trkpt lat="45.92049" lon="3.99359">
        <ele>525</ele>
        <time>2022-03-18T13:08:40Z</time>
      </trkpt>
      <trkpt lat="45.9206" lon="3.9935">
        <ele>523</ele>
        <time>2022-03-18T13:08:42Z</time>
      </trkpt>
      <trkpt lat="45.92071" lon="3.99334">
        <ele>520</ele>
        <time>2022-03-18T13:08:45Z</time>
      </trkpt>
      <trkpt lat="45.92072" lon="3.9931">
        <ele>520</ele>
        <time>2022-03-18T13:08:48Z</time>
      </trkpt>
      <trkpt lat="45.92046" lon="3.99061">
        <ele>527</ele>
        <time>2022-03-18T13:09:19Z</time>
      </trkpt>
      <trkpt lat="45.92042" lon="3.99027">
        <ele>529</ele>
        <time>2022-03-18T13:09:23Z</time>
      </trkpt>
      <trkpt lat="45.92032" lon="3.99005">
        <ele>530</ele>
        <time>2022-03-18T13:09:26Z</time>
      </trkpt>
      <trkpt lat="45.92017" lon="3.98999">
        <ele>531</ele>
        <time>2022-03-18T13:09:29Z</time>
      </trkpt>
      <trkpt lat="45.91996" lon="3.99001">
        <ele>532</ele>
        <time>2022-03-18T13:09:33Z</time>
      </trkpt>
      <trkpt lat="45.91857" lon="3.99055">
        <ele>543</ele>
        <time>2022-03-18T13:09:58Z</time>
      </trkpt>
      <trkpt lat="45.91844" lon="3.99053">
        <ele>543</ele>
        <time>2022-03-18T13:10:01Z</time>
      </trkpt>
      <trkpt lat="45.91832" lon="3.99047">
        <ele>544</ele>
        <time>2022-03-18T13:10:03Z</time>
      </trkpt>
      <trkpt lat="45.91824" lon="3.99024">
        <ele>543</ele>
        <time>2022-03-18T13:10:06Z</time>
      </trkpt>
      <trkpt lat="45.91814" lon="3.98964">
        <ele>539</ele>
        <time>2022-03-18T13:10:14Z</time>
      </trkpt>
      <trkpt lat="45.91804" lon="3.9894">
        <ele>538</ele>
        <time>2022-03-18T13:10:17Z</time>
      </trkpt>
      <trkpt lat="45.91774" lon="3.98915">
        <ele>539</ele>
        <time>2022-03-18T13:10:23Z</time>
      </trkpt>
      <trkpt lat="45.91756" lon="3.98904">
        <ele>540</ele>
        <time>2022-03-18T13:10:27Z</time>
      </trkpt>
      <trkpt lat="45.91733" lon="3.98898">
        <ele>541</ele>
        <time>2022-03-18T13:10:31Z</time>
      </trkpt>
      <trkpt lat="45.91607" lon="3.98934">
        <ele>553</ele>
        <time>2022-03-18T13:10:54Z</time>
      </trkpt>
      <trkpt lat="45.91591" lon="3.9893">
        <ele>554</ele>
        <time>2022-03-18T13:10:57Z</time>
      </trkpt>
      <trkpt lat="45.91574" lon="3.9891">
        <ele>553</ele>
        <time>2022-03-18T13:11:01Z</time>
      </trkpt>
      <trkpt lat="45.91562" lon="3.98899">
        <ele>552</ele>
        <time>2022-03-18T13:11:03Z</time>
      </trkpt>
      <trkpt lat="45.91551" lon="3.98894">
        <ele>552</ele>
        <time>2022-03-18T13:11:05Z</time>
      </trkpt>
      <trkpt lat="45.91529" lon="3.9889">
        <ele>553</ele>
        <time>2022-03-18T13:11:09Z</time>
      </trkpt>
      <trkpt lat="45.91504" lon="3.98892">
        <ele>555</ele>
        <time>2022-03-18T13:11:14Z</time>
      </trkpt>
      <trkpt lat="45.91481" lon="3.98904">
        <ele>559</ele>
        <time>2022-03-18T13:11:18Z</time>
      </trkpt>
      <trkpt lat="45.91452" lon="3.98923">
        <ele>565</ele>
        <time>2022-03-18T13:11:24Z</time>
      </trkpt>
      <trkpt lat="45.91446" lon="3.98921">
        <ele>566</ele>
        <time>2022-03-18T13:11:25Z</time>
      </trkpt>
      <trkpt lat="45.9144" lon="3.98916">
        <ele>566</ele>
        <time>2022-03-18T13:11:26Z</time>
      </trkpt>
      <trkpt lat="45.91433" lon="3.98903">
        <ele>566</ele>
        <time>2022-03-18T13:11:28Z</time>
      </trkpt>
      <trkpt lat="45.91414" lon="3.98802">
        <ele>560</ele>
        <time>2022-03-18T13:11:41Z</time>
      </trkpt>
      <trkpt lat="45.91412" lon="3.98785">
        <ele>559</ele>
        <time>2022-03-18T13:11:43Z</time>
      </trkpt>
      <trkpt lat="45.91407" lon="3.98767">
        <ele>558</ele>
        <time>2022-03-18T13:11:46Z</time>
      </trkpt>
      <trkpt lat="45.91367" lon="3.98704">
        <ele>560</ele>
        <time>2022-03-18T13:11:56Z</time>
      </trkpt>
      <trkpt lat="45.91345" lon="3.98635">
        <ele>561</ele>
        <time>2022-03-18T13:12:06Z</time>
      </trkpt>
      <trkpt lat="45.91327" lon="3.98547">
        <ele>561</ele>
        <time>2022-03-18T13:12:17Z</time>
      </trkpt>
      <trkpt lat="45.91321" lon="3.98524">
        <ele>560</ele>
        <time>2022-03-18T13:12:20Z</time>
      </trkpt>
      <trkpt lat="45.91317" lon="3.98498">
        <ele>560</ele>
        <time>2022-03-18T13:12:23Z</time>
      </trkpt>
      <trkpt lat="45.91318" lon="3.9846">
        <ele>560</ele>
        <time>2022-03-18T13:12:28Z</time>
      </trkpt>
      <trkpt lat="45.91312" lon="3.98437">
        <ele>560</ele>
        <time>2022-03-18T13:12:31Z</time>
      </trkpt>
      <trkpt lat="45.91298" lon="3.98422">
        <ele>561</ele>
        <time>2022-03-18T13:12:34Z</time>
      </trkpt>
      <trkpt lat="45.91323" lon="3.98331">
        <ele>562</ele>
        <time>2022-03-18T13:12:46Z</time>
      </trkpt>
      <trkpt lat="45.91333" lon="3.98303">
        <ele>562</ele>
        <time>2022-03-18T13:12:50Z</time>
      </trkpt>
      <trkpt lat="45.91365" lon="3.98234">
        <ele>560</ele>
        <time>2022-03-18T13:13:00Z</time>
      </trkpt>
      <trkpt lat="45.91354" lon="3.98214">
        <ele>561</ele>
        <time>2022-03-18T13:13:04Z</time>
      </trkpt>
      <trkpt lat="45.9135" lon="3.982">
        <ele>562</ele>
        <time>2022-03-18T13:13:05Z</time>
      </trkpt>
      <trkpt lat="45.91349" lon="3.98184">
        <ele>562</ele>
        <time>2022-03-18T13:13:07Z</time>
      </trkpt>
      <trkpt lat="45.91361" lon="3.98094">
        <ele>561</ele>
        <time>2022-03-18T13:13:19Z</time>
      </trkpt>
      <trkpt lat="45.91378" lon="3.97953">
        <ele>560</ele>
        <time>2022-03-18T13:13:37Z</time>
      </trkpt>
      <trkpt lat="45.91379" lon="3.97911">
        <ele>561</ele>
        <time>2022-03-18T13:13:42Z</time>
      </trkpt>
      <trkpt lat="45.91375" lon="3.97883">
        <ele>561</ele>
        <time>2022-03-18T13:13:45Z</time>
      </trkpt>
      <trkpt lat="45.91358" lon="3.97836">
        <ele>562</ele>
        <time>2022-03-18T13:13:52Z</time>
      </trkpt>
      <trkpt lat="45.9133" lon="3.97807">
        <ele>562</ele>
        <time>2022-03-18T13:13:58Z</time>
      </trkpt>
      <trkpt lat="45.913" lon="3.97793">
        <ele>564</ele>
        <time>2022-03-18T13:14:04Z</time>
      </trkpt>
      <trkpt lat="45.91228" lon="3.97773">
        <ele>566</ele>
        <time>2022-03-18T13:14:17Z</time>
      </trkpt>
      <trkpt lat="45.91209" lon="3.97762">
        <ele>567</ele>
        <time>2022-03-18T13:14:20Z</time>
      </trkpt>
      <trkpt lat="45.91187" lon="3.97738">
        <ele>568</ele>
        <time>2022-03-18T13:14:25Z</time>
      </trkpt>
      <trkpt lat="45.91164" lon="3.97702">
        <ele>568</ele>
        <time>2022-03-18T13:14:31Z</time>
      </trkpt>
      <trkpt lat="45.91171" lon="3.97685">
        <ele>569</ele>
        <time>2022-03-18T13:14:34Z</time>
      </trkpt>
      <trkpt lat="45.91191" lon="3.97649">
        <ele>570</ele>
        <time>2022-03-18T13:14:39Z</time>
      </trkpt>
      <trkpt lat="45.91218" lon="3.97515">
        <ele>578</ele>
        <time>2022-03-18T13:14:57Z</time>
      </trkpt>
      <trkpt lat="45.91232" lon="3.9736">
        <ele>586</ele>
        <time>2022-03-18T13:15:16Z</time>
      </trkpt>
      <trkpt lat="45.91249" lon="3.97296">
        <ele>588</ele>
        <time>2022-03-18T13:15:24Z</time>
      </trkpt>
      <trkpt lat="45.91249" lon="3.97255">
        <ele>586</ele>
        <time>2022-03-18T13:15:30Z</time>
      </trkpt>
      <trkpt lat="45.91259" lon="3.97171">
        <ele>582</ele>
        <time>2022-03-18T13:15:40Z</time>
      </trkpt>
      <trkpt lat="45.91264" lon="3.9715">
        <ele>581</ele>
        <time>2022-03-18T13:15:43Z</time>
      </trkpt>
      <trkpt lat="45.91268" lon="3.97137">
        <ele>581</ele>
        <time>2022-03-18T13:15:45Z</time>
      </trkpt>
      <trkpt lat="45.9131" lon="3.97053">
        <ele>579</ele>
        <time>2022-03-18T13:15:57Z</time>
      </trkpt>
      <trkpt lat="45.91351" lon="3.96993">
        <ele>577</ele>
        <time>2022-03-18T13:16:08Z</time>
      </trkpt>
      <trkpt lat="45.91368" lon="3.96959">
        <ele>576</ele>
        <time>2022-03-18T13:16:13Z</time>
      </trkpt>
      <trkpt lat="45.91371" lon="3.96925">
        <ele>574</ele>
        <time>2022-03-18T13:16:17Z</time>
      </trkpt>
      <trkpt lat="45.91365" lon="3.96805">
        <ele>570</ele>
        <time>2022-03-18T13:16:32Z</time>
      </trkpt>
      <trkpt lat="45.91355" lon="3.96705">
        <ele>564</ele>
        <time>2022-03-18T13:16:45Z</time>
      </trkpt>
      <trkpt lat="45.91342" lon="3.96603">
        <ele>559</ele>
        <time>2022-03-18T13:16:57Z</time>
      </trkpt>
      <trkpt lat="45.91329" lon="3.96548">
        <ele>556</ele>
        <time>2022-03-18T13:17:05Z</time>
      </trkpt>
      <trkpt lat="45.91279" lon="3.96417">
        <ele>552</ele>
        <time>2022-03-18T13:17:23Z</time>
      </trkpt>
      <trkpt lat="45.91257" lon="3.96389">
        <ele>552</ele>
        <time>2022-03-18T13:17:28Z</time>
      </trkpt>
      <trkpt lat="45.9123" lon="3.96375">
        <ele>550</ele>
        <time>2022-03-18T13:17:33Z</time>
      </trkpt>
      <trkpt lat="45.9121" lon="3.96371">
        <ele>549</ele>
        <time>2022-03-18T13:17:37Z</time>
      </trkpt>
      <trkpt lat="45.9112" lon="3.96386">
        <ele>534</ele>
        <time>2022-03-18T13:17:53Z</time>
      </trkpt>
      <trkpt lat="45.91102" lon="3.96387">
        <ele>532</ele>
        <time>2022-03-18T13:17:56Z</time>
      </trkpt>
      <trkpt lat="45.91084" lon="3.96375">
        <ele>530</ele>
        <time>2022-03-18T13:18:00Z</time>
      </trkpt>
      <trkpt lat="45.91073" lon="3.96352">
        <ele>530</ele>
        <time>2022-03-18T13:18:03Z</time>
      </trkpt>
      <trkpt lat="45.91073" lon="3.96322">
        <ele>531</ele>
        <time>2022-03-18T13:18:07Z</time>
      </trkpt>
      <trkpt lat="45.9108" lon="3.96247">
        <ele>532</ele>
        <time>2022-03-18T13:18:16Z</time>
      </trkpt>
      <trkpt lat="45.91076" lon="3.96163">
        <ele>529</ele>
        <time>2022-03-18T13:18:27Z</time>
      </trkpt>
      <trkpt lat="45.91057" lon="3.95927">
        <ele>520</ele>
        <time>2022-03-18T13:18:56Z</time>
      </trkpt>
      <trkpt lat="45.9105" lon="3.9588">
        <ele>517</ele>
        <time>2022-03-18T13:19:02Z</time>
      </trkpt>
      <trkpt lat="45.9103" lon="3.958">
        <ele>509</ele>
        <time>2022-03-18T13:19:13Z</time>
      </trkpt>
      <trkpt lat="45.91028" lon="3.95754">
        <ele>507</ele>
        <time>2022-03-18T13:19:18Z</time>
      </trkpt>
      <trkpt lat="45.91034" lon="3.95725">
        <ele>505</ele>
        <time>2022-03-18T13:19:22Z</time>
      </trkpt>
      <trkpt lat="45.9105" lon="3.95698">
        <ele>504</ele>
        <time>2022-03-18T13:19:27Z</time>
      </trkpt>
      <trkpt lat="45.91067" lon="3.95683">
        <ele>504</ele>
        <time>2022-03-18T13:19:30Z</time>
      </trkpt>
      <trkpt lat="45.9109" lon="3.95668">
        <ele>504</ele>
        <time>2022-03-18T13:19:35Z</time>
      </trkpt>
      <trkpt lat="45.91143" lon="3.95647">
        <ele>505</ele>
        <time>2022-03-18T13:19:44Z</time>
      </trkpt>
      <trkpt lat="45.91156" lon="3.95634">
        <ele>504</ele>
        <time>2022-03-18T13:19:47Z</time>
      </trkpt>
      <trkpt lat="45.91168" lon="3.95597">
        <ele>498</ele>
        <time>2022-03-18T13:19:52Z</time>
      </trkpt>
      <trkpt lat="45.91169" lon="3.95573">
        <ele>497</ele>
        <time>2022-03-18T13:19:55Z</time>
      </trkpt>
      <trkpt lat="45.91172" lon="3.95539">
        <ele>499</ele>
        <time>2022-03-18T13:20:00Z</time>
      </trkpt>
      <trkpt lat="45.91165" lon="3.95436">
        <ele>504</ele>
        <time>2022-03-18T13:20:12Z</time>
      </trkpt>
      <trkpt lat="45.91159" lon="3.95374">
        <ele>508</ele>
        <time>2022-03-18T13:20:20Z</time>
      </trkpt>
      <trkpt lat="45.91126" lon="3.95219">
        <ele>523</ele>
        <time>2022-03-18T13:20:40Z</time>
      </trkpt>
      <trkpt lat="45.91117" lon="3.95151">
        <ele>523</ele>
        <time>2022-03-18T13:20:49Z</time>
      </trkpt>
      <trkpt lat="45.91116" lon="3.95034">
        <ele>519</ele>
        <time>2022-03-18T13:21:03Z</time>
      </trkpt>
      <trkpt lat="45.91109" lon="3.94995">
        <ele>519</ele>
        <time>2022-03-18T13:21:08Z</time>
      </trkpt>
      <trkpt lat="45.91093" lon="3.94958">
        <ele>521</ele>
        <time>2022-03-18T13:21:14Z</time>
      </trkpt>
      <trkpt lat="45.91054" lon="3.94906">
        <ele>527</ele>
        <time>2022-03-18T13:21:23Z</time>
      </trkpt>
      <trkpt lat="45.91041" lon="3.94876">
        <ele>531</ele>
        <time>2022-03-18T13:21:27Z</time>
      </trkpt>
      <trkpt lat="45.91031" lon="3.94825">
        <ele>535</ele>
        <time>2022-03-18T13:21:34Z</time>
      </trkpt>
      <trkpt lat="45.91022" lon="3.9476">
        <ele>540</ele>
        <time>2022-03-18T13:21:42Z</time>
      </trkpt>
      <trkpt lat="45.91021" lon="3.94717">
        <ele>542</ele>
        <time>2022-03-18T13:21:48Z</time>
      </trkpt>
      <trkpt lat="45.91029" lon="3.94685">
        <ele>542</ele>
        <time>2022-03-18T13:21:52Z</time>
      </trkpt>
      <trkpt lat="45.91052" lon="3.9462">
        <ele>543</ele>
        <time>2022-03-18T13:22:01Z</time>
      </trkpt>
      <trkpt lat="45.9106" lon="3.94581">
        <ele>544</ele>
        <time>2022-03-18T13:22:06Z</time>
      </trkpt>
      <trkpt lat="45.91055" lon="3.94467">
        <ele>555</ele>
        <time>2022-03-18T13:22:20Z</time>
      </trkpt>
      <trkpt lat="45.91048" lon="3.94354">
        <ele>566</ele>
        <time>2022-03-18T13:22:34Z</time>
      </trkpt>
      <trkpt lat="45.91062" lon="3.94255">
        <ele>573</ele>
        <time>2022-03-18T13:22:47Z</time>
      </trkpt>
      <trkpt lat="45.91082" lon="3.94092">
        <ele>574</ele>
        <time>2022-03-18T13:23:07Z</time>
      </trkpt>
      <trkpt lat="45.91083" lon="3.94037">
        <ele>577</ele>
        <time>2022-03-18T13:23:14Z</time>
      </trkpt>
      <trkpt lat="45.91089" lon="3.94002">
        <ele>579</ele>
        <time>2022-03-18T13:23:18Z</time>
      </trkpt>
      <trkpt lat="45.9112" lon="3.9393">
        <ele>581</ele>
        <time>2022-03-18T13:23:29Z</time>
      </trkpt>
      <trkpt lat="45.91125" lon="3.93912">
        <ele>582</ele>
        <time>2022-03-18T13:23:31Z</time>
      </trkpt>
      <trkpt lat="45.91126" lon="3.9389">
        <ele>582</ele>
        <time>2022-03-18T13:23:34Z</time>
      </trkpt>
      <trkpt lat="45.91121" lon="3.93867">
        <ele>583</ele>
        <time>2022-03-18T13:23:37Z</time>
      </trkpt>
      <trkpt lat="45.91093" lon="3.93829">
        <ele>592</ele>
        <time>2022-03-18T13:23:44Z</time>
      </trkpt>
      <trkpt lat="45.91085" lon="3.93811">
        <ele>595</ele>
        <time>2022-03-18T13:23:46Z</time>
      </trkpt>
      <trkpt lat="45.91086" lon="3.9379">
        <ele>596</ele>
        <time>2022-03-18T13:23:49Z</time>
      </trkpt>
      <trkpt lat="45.91092" lon="3.93771">
        <ele>596</ele>
        <time>2022-03-18T13:23:52Z</time>
      </trkpt>
      <trkpt lat="45.91118" lon="3.93726">
        <ele>594</ele>
        <time>2022-03-18T13:23:59Z</time>
      </trkpt>
      <trkpt lat="45.91126" lon="3.937">
        <ele>596</ele>
        <time>2022-03-18T13:24:02Z</time>
      </trkpt>
      <trkpt lat="45.91133" lon="3.93582">
        <ele>607</ele>
        <time>2022-03-18T13:24:17Z</time>
      </trkpt>
      <trkpt lat="45.91123" lon="3.93477">
        <ele>614</ele>
        <time>2022-03-18T13:24:30Z</time>
      </trkpt>
      <trkpt lat="45.91128" lon="3.93444">
        <ele>615</ele>
        <time>2022-03-18T13:24:34Z</time>
      </trkpt>
      <trkpt lat="45.91157" lon="3.93339">
        <ele>617</ele>
        <time>2022-03-18T13:24:48Z</time>
      </trkpt>
      <trkpt lat="45.91161" lon="3.93314">
        <ele>616</ele>
        <time>2022-03-18T13:24:51Z</time>
      </trkpt>
      <trkpt lat="45.9116" lon="3.933">
        <ele>617</ele>
        <time>2022-03-18T13:24:53Z</time>
      </trkpt>
      <trkpt lat="45.91155" lon="3.93283">
        <ele>618</ele>
        <time>2022-03-18T13:24:55Z</time>
      </trkpt>
      <trkpt lat="45.91146" lon="3.9327">
        <ele>620</ele>
        <time>2022-03-18T13:24:58Z</time>
      </trkpt>
      <trkpt lat="45.91108" lon="3.93236">
        <ele>626</ele>
        <time>2022-03-18T13:25:06Z</time>
      </trkpt>
      <trkpt lat="45.91098" lon="3.93222">
        <ele>627</ele>
        <time>2022-03-18T13:25:08Z</time>
      </trkpt>
      <trkpt lat="45.91092" lon="3.93203">
        <ele>628</ele>
        <time>2022-03-18T13:25:11Z</time>
      </trkpt>
      <trkpt lat="45.91085" lon="3.93175">
        <ele>629</ele>
        <time>2022-03-18T13:25:14Z</time>
      </trkpt>
      <trkpt lat="45.91068" lon="3.93078">
        <ele>635</ele>
        <time>2022-03-18T13:25:27Z</time>
      </trkpt>
      <trkpt lat="45.91062" lon="3.93068">
        <ele>636</ele>
        <time>2022-03-18T13:25:28Z</time>
      </trkpt>
      <trkpt lat="45.91054" lon="3.93063">
        <ele>638</ele>
        <time>2022-03-18T13:25:30Z</time>
      </trkpt>
      <trkpt lat="45.91045" lon="3.93065">
        <ele>639</ele>
        <time>2022-03-18T13:25:32Z</time>
      </trkpt>
      <trkpt lat="45.91038" lon="3.93073">
        <ele>639</ele>
        <time>2022-03-18T13:25:33Z</time>
      </trkpt>
      <trkpt lat="45.91035" lon="3.9309">
        <ele>639</ele>
        <time>2022-03-18T13:25:35Z</time>
      </trkpt>
      <trkpt lat="45.91038" lon="3.93141">
        <ele>638</ele>
        <time>2022-03-18T13:25:42Z</time>
      </trkpt>
      <trkpt lat="45.91037" lon="3.93163">
        <ele>638</ele>
        <time>2022-03-18T13:25:44Z</time>
      </trkpt>
      <trkpt lat="45.91032" lon="3.93184">
        <ele>639</ele>
        <time>2022-03-18T13:25:47Z</time>
      </trkpt>
      <trkpt lat="45.9102" lon="3.93198">
        <ele>641</ele>
        <time>2022-03-18T13:25:50Z</time>
      </trkpt>
      <trkpt lat="45.90918" lon="3.93224">
        <ele>653</ele>
        <time>2022-03-18T13:26:08Z</time>
      </trkpt>
      <trkpt lat="45.90896" lon="3.93241">
        <ele>654</ele>
        <time>2022-03-18T13:26:13Z</time>
      </trkpt>
      <trkpt lat="45.90845" lon="3.93335">
        <ele>657</ele>
        <time>2022-03-18T13:26:28Z</time>
      </trkpt>
      <trkpt lat="45.90824" lon="3.93358">
        <ele>658</ele>
        <time>2022-03-18T13:26:32Z</time>
      </trkpt>
      <trkpt lat="45.90808" lon="3.93365">
        <ele>659</ele>
        <time>2022-03-18T13:26:35Z</time>
      </trkpt>
      <trkpt lat="45.90786" lon="3.9336">
        <ele>659</ele>
        <time>2022-03-18T13:26:39Z</time>
      </trkpt>
      <trkpt lat="45.90745" lon="3.93344">
        <ele>660</ele>
        <time>2022-03-18T13:26:47Z</time>
      </trkpt>
      <trkpt lat="45.90712" lon="3.93323">
        <ele>660</ele>
        <time>2022-03-18T13:26:53Z</time>
      </trkpt>
      <trkpt lat="45.90669" lon="3.93279">
        <ele>661</ele>
        <time>2022-03-18T13:27:03Z</time>
      </trkpt>
      <trkpt lat="45.90651" lon="3.93258">
        <ele>661</ele>
        <time>2022-03-18T13:27:07Z</time>
      </trkpt>
      <trkpt lat="45.90658" lon="3.93237">
        <ele>662</ele>
        <time>2022-03-18T13:27:10Z</time>
      </trkpt>
      <trkpt lat="45.90681" lon="3.93141">
        <ele>664</ele>
        <time>2022-03-18T13:27:22Z</time>
      </trkpt>
      <trkpt lat="45.90698" lon="3.93092">
        <ele>665</ele>
        <time>2022-03-18T13:27:29Z</time>
      </trkpt>
      <trkpt lat="45.90779" lon="3.92981">
        <ele>668</ele>
        <time>2022-03-18T13:27:49Z</time>
      </trkpt>
      <trkpt lat="45.90819" lon="3.92887">
        <ele>672</ele>
        <time>2022-03-18T13:28:03Z</time>
      </trkpt>
      <trkpt lat="45.90851" lon="3.92796">
        <ele>675</ele>
        <time>2022-03-18T13:28:15Z</time>
      </trkpt>
      <trkpt lat="45.90874" lon="3.9278">
        <ele>675</ele>
        <time>2022-03-18T13:28:20Z</time>
      </trkpt>
      <trkpt lat="45.90881" lon="3.9276">
        <ele>675</ele>
        <time>2022-03-18T13:28:22Z</time>
      </trkpt>
      <trkpt lat="45.90887" lon="3.92732">
        <ele>676</ele>
        <time>2022-03-18T13:28:26Z</time>
      </trkpt>
      <trkpt lat="45.9089" lon="3.92692">
        <ele>677</ele>
        <time>2022-03-18T13:28:31Z</time>
      </trkpt>
      <trkpt lat="45.9089" lon="3.92602">
        <ele>676</ele>
        <time>2022-03-18T13:28:42Z</time>
      </trkpt>
      <trkpt lat="45.90892" lon="3.92564">
        <ele>675</ele>
        <time>2022-03-18T13:28:47Z</time>
      </trkpt>
      <trkpt lat="45.909" lon="3.92451">
        <ele>675</ele>
        <time>2022-03-18T13:29:01Z</time>
      </trkpt>
      <trkpt lat="45.9091" lon="3.92382">
        <ele>676</ele>
        <time>2022-03-18T13:29:10Z</time>
      </trkpt>
      <trkpt lat="45.9092" lon="3.92279">
        <ele>676</ele>
        <time>2022-03-18T13:29:23Z</time>
      </trkpt>
      <trkpt lat="45.90922" lon="3.92197">
        <ele>677</ele>
        <time>2022-03-18T13:29:33Z</time>
      </trkpt>
      <trkpt lat="45.90931" lon="3.92181">
        <ele>677</ele>
        <time>2022-03-18T13:29:35Z</time>
      </trkpt>
      <trkpt lat="45.90954" lon="3.92115">
        <ele>678</ele>
        <time>2022-03-18T13:29:44Z</time>
      </trkpt>
      <trkpt lat="45.90969" lon="3.92082">
        <ele>677</ele>
        <time>2022-03-18T13:29:49Z</time>
      </trkpt>
      <trkpt lat="45.91017" lon="3.92">
        <ele>682</ele>
        <time>2022-03-18T13:30:03Z</time>
      </trkpt>
      <trkpt lat="45.91037" lon="3.91961">
        <ele>683</ele>
        <time>2022-03-18T13:30:09Z</time>
      </trkpt>
      <trkpt lat="45.91044" lon="3.91941">
        <ele>684</ele>
        <time>2022-03-18T13:30:11Z</time>
      </trkpt>
      <trkpt lat="45.91047" lon="3.91918">
        <ele>685</ele>
        <time>2022-03-18T13:30:14Z</time>
      </trkpt>
      <trkpt lat="45.91046" lon="3.91901">
        <ele>686</ele>
        <time>2022-03-18T13:30:16Z</time>
      </trkpt>
      <trkpt lat="45.91042" lon="3.91883">
        <ele>686</ele>
        <time>2022-03-18T13:30:19Z</time>
      </trkpt>
      <trkpt lat="45.91034" lon="3.91865">
        <ele>687</ele>
        <time>2022-03-18T13:30:21Z</time>
      </trkpt>
      <trkpt lat="45.91018" lon="3.91844">
        <ele>688</ele>
        <time>2022-03-18T13:30:25Z</time>
      </trkpt>
      <trkpt lat="45.90973" lon="3.91808">
        <ele>689</ele>
        <time>2022-03-18T13:30:34Z</time>
      </trkpt>
      <trkpt lat="45.90954" lon="3.91791">
        <ele>688</ele>
        <time>2022-03-18T13:30:38Z</time>
      </trkpt>
      <trkpt lat="45.90942" lon="3.9177">
        <ele>687</ele>
        <time>2022-03-18T13:30:42Z</time>
      </trkpt>
      <trkpt lat="45.9091" lon="3.91706">
        <ele>683</ele>
        <time>2022-03-18T13:30:51Z</time>
      </trkpt>
      <trkpt lat="45.9089" lon="3.9166">
        <ele>679</ele>
        <time>2022-03-18T13:30:58Z</time>
      </trkpt>
      <trkpt lat="45.90888" lon="3.91642">
        <ele>679</ele>
        <time>2022-03-18T13:31:00Z</time>
      </trkpt>
      <trkpt lat="45.90888" lon="3.91614">
        <ele>679</ele>
        <time>2022-03-18T13:31:04Z</time>
      </trkpt>
      <trkpt lat="45.90892" lon="3.91584">
        <ele>679</ele>
        <time>2022-03-18T13:31:08Z</time>
      </trkpt>
      <trkpt lat="45.90906" lon="3.91555">
        <ele>678</ele>
        <time>2022-03-18T13:31:12Z</time>
      </trkpt>
      <trkpt lat="45.9097" lon="3.91447">
        <ele>676</ele>
        <time>2022-03-18T13:31:30Z</time>
      </trkpt>
      <trkpt lat="45.9099" lon="3.91401">
        <ele>674</ele>
        <time>2022-03-18T13:31:36Z</time>
      </trkpt>
      <trkpt lat="45.91017" lon="3.91314">
        <ele>672</ele>
        <time>2022-03-18T13:31:48Z</time>
      </trkpt>
      <trkpt lat="45.91023" lon="3.91232">
        <ele>670</ele>
        <time>2022-03-18T13:31:58Z</time>
      </trkpt>
      <trkpt lat="45.91032" lon="3.91199">
        <ele>670</ele>
        <time>2022-03-18T13:32:03Z</time>
      </trkpt>
      <trkpt lat="45.91045" lon="3.91165">
        <ele>671</ele>
        <time>2022-03-18T13:32:08Z</time>
      </trkpt>
      <trkpt lat="45.91059" lon="3.91113">
        <ele>670</ele>
        <time>2022-03-18T13:32:14Z</time>
      </trkpt>
      <trkpt lat="45.91072" lon="3.9108">
        <ele>670</ele>
        <time>2022-03-18T13:32:19Z</time>
      </trkpt>
      <trkpt lat="45.91089" lon="3.91054">
        <ele>671</ele>
        <time>2022-03-18T13:32:24Z</time>
      </trkpt>
      <trkpt lat="45.91149" lon="3.90981">
        <ele>675</ele>
        <time>2022-03-18T13:32:38Z</time>
      </trkpt>
      <trkpt lat="45.91159" lon="3.90963">
        <ele>676</ele>
        <time>2022-03-18T13:32:40Z</time>
      </trkpt>
      <trkpt lat="45.9117" lon="3.90934">
        <ele>676</ele>
        <time>2022-03-18T13:32:44Z</time>
      </trkpt>
      <trkpt lat="45.91176" lon="3.90908">
        <ele>676</ele>
        <time>2022-03-18T13:32:48Z</time>
      </trkpt>
      <trkpt lat="45.91178" lon="3.90888">
        <ele>675</ele>
        <time>2022-03-18T13:32:50Z</time>
      </trkpt>
      <trkpt lat="45.91184" lon="3.90866">
        <ele>675</ele>
        <time>2022-03-18T13:32:53Z</time>
      </trkpt>
      <trkpt lat="45.91202" lon="3.90848">
        <ele>675</ele>
        <time>2022-03-18T13:32:57Z</time>
      </trkpt>
      <trkpt lat="45.91218" lon="3.90835">
        <ele>675</ele>
        <time>2022-03-18T13:33:00Z</time>
      </trkpt>
      <trkpt lat="45.91237" lon="3.9083">
        <ele>676</ele>
        <time>2022-03-18T13:33:04Z</time>
      </trkpt>
      <trkpt lat="45.91256" lon="3.90829">
        <ele>676</ele>
        <time>2022-03-18T13:33:07Z</time>
      </trkpt>
      <trkpt lat="45.91558" lon="3.90927">
        <ele>691</ele>
        <time>2022-03-18T13:34:02Z</time>
      </trkpt>
      <trkpt lat="45.91574" lon="3.90925">
        <ele>691</ele>
        <time>2022-03-18T13:34:05Z</time>
      </trkpt>
      <trkpt lat="45.91587" lon="3.90918">
        <ele>691</ele>
        <time>2022-03-18T13:34:08Z</time>
      </trkpt>
      <trkpt lat="45.91601" lon="3.90901">
        <ele>691</ele>
        <time>2022-03-18T13:34:11Z</time>
      </trkpt>
      <trkpt lat="45.91636" lon="3.90843">
        <ele>687</ele>
        <time>2022-03-18T13:34:20Z</time>
      </trkpt>
      <trkpt lat="45.91658" lon="3.90819">
        <ele>687</ele>
        <time>2022-03-18T13:34:25Z</time>
      </trkpt>
      <trkpt lat="45.91679" lon="3.90803">
        <ele>687</ele>
        <time>2022-03-18T13:34:30Z</time>
      </trkpt>
      <trkpt lat="45.91775" lon="3.90765">
        <ele>690</ele>
        <time>2022-03-18T13:34:47Z</time>
      </trkpt>
      <trkpt lat="45.91793" lon="3.90753">
        <ele>691</ele>
        <time>2022-03-18T13:34:51Z</time>
      </trkpt>
      <trkpt lat="45.91808" lon="3.90731">
        <ele>691</ele>
        <time>2022-03-18T13:34:55Z</time>
      </trkpt>
      <trkpt lat="45.91816" lon="3.90707">
        <ele>691</ele>
        <time>2022-03-18T13:34:58Z</time>
      </trkpt>
      <trkpt lat="45.91819" lon="3.90673">
        <ele>691</ele>
        <time>2022-03-18T13:35:02Z</time>
      </trkpt>
      <trkpt lat="45.91827" lon="3.90636">
        <ele>689</ele>
        <time>2022-03-18T13:35:07Z</time>
      </trkpt>
      <trkpt lat="45.9184" lon="3.9061">
        <ele>689</ele>
        <time>2022-03-18T13:35:11Z</time>
      </trkpt>
      <trkpt lat="45.91861" lon="3.90585">
        <ele>688</ele>
        <time>2022-03-18T13:35:16Z</time>
      </trkpt>
      <trkpt lat="45.91893" lon="3.90562">
        <ele>689</ele>
        <time>2022-03-18T13:35:22Z</time>
      </trkpt>
      <trkpt lat="45.92064" lon="3.90454">
        <ele>690</ele>
        <time>2022-03-18T13:35:55Z</time>
      </trkpt>
      <trkpt lat="45.92126" lon="3.90401">
        <ele>690</ele>
        <time>2022-03-18T13:36:08Z</time>
      </trkpt>
      <trkpt lat="45.92158" lon="3.9037">
        <ele>689</ele>
        <time>2022-03-18T13:36:15Z</time>
      </trkpt>
      <trkpt lat="45.92193" lon="3.9033">
        <ele>689</ele>
        <time>2022-03-18T13:36:23Z</time>
      </trkpt>
      <trkpt lat="45.92202" lon="3.90312">
        <ele>690</ele>
        <time>2022-03-18T13:36:26Z</time>
      </trkpt>
      <trkpt lat="45.92208" lon="3.90296">
        <ele>690</ele>
        <time>2022-03-18T13:36:28Z</time>
      </trkpt>
      <trkpt lat="45.92211" lon="3.90275">
        <ele>691</ele>
        <time>2022-03-18T13:36:31Z</time>
      </trkpt>
      <trkpt lat="45.92211" lon="3.90255">
        <ele>691</ele>
        <time>2022-03-18T13:36:33Z</time>
      </trkpt>
      <trkpt lat="45.92206" lon="3.90224">
        <ele>693</ele>
        <time>2022-03-18T13:36:37Z</time>
      </trkpt>
      <trkpt lat="45.922" lon="3.90205">
        <ele>695</ele>
        <time>2022-03-18T13:36:40Z</time>
      </trkpt>
      <trkpt lat="45.92189" lon="3.90178">
        <ele>696</ele>
        <time>2022-03-18T13:36:44Z</time>
      </trkpt>
      <trkpt lat="45.92182" lon="3.90169">
        <ele>697</ele>
        <time>2022-03-18T13:36:45Z</time>
      </trkpt>
      <trkpt lat="45.92167" lon="3.90155">
        <ele>697</ele>
        <time>2022-03-18T13:36:48Z</time>
      </trkpt>
      <trkpt lat="45.9216" lon="3.90152">
        <ele>698</ele>
        <time>2022-03-18T13:36:50Z</time>
      </trkpt>
      <trkpt lat="45.92141" lon="3.90154">
        <ele>699</ele>
        <time>2022-03-18T13:36:53Z</time>
      </trkpt>
      <trkpt lat="45.92103" lon="3.90176">
        <ele>699</ele>
        <time>2022-03-18T13:37:00Z</time>
      </trkpt>
      <trkpt lat="45.92034" lon="3.90202">
        <ele>700</ele>
        <time>2022-03-18T13:37:13Z</time>
      </trkpt>
      <trkpt lat="45.92002" lon="3.90206">
        <ele>701</ele>
        <time>2022-03-18T13:37:19Z</time>
      </trkpt>
      <trkpt lat="45.91974" lon="3.90204">
        <ele>700</ele>
        <time>2022-03-18T13:37:24Z</time>
      </trkpt>
      <trkpt lat="45.91903" lon="3.90157">
        <ele>706</ele>
        <time>2022-03-18T13:37:38Z</time>
      </trkpt>
      <trkpt lat="45.91867" lon="3.90127">
        <ele>709</ele>
        <time>2022-03-18T13:37:45Z</time>
      </trkpt>
      <trkpt lat="45.91843" lon="3.90113">
        <ele>710</ele>
        <time>2022-03-18T13:37:50Z</time>
      </trkpt>
      <trkpt lat="45.91794" lon="3.9009">
        <ele>711</ele>
        <time>2022-03-18T13:37:59Z</time>
      </trkpt>
      <trkpt lat="45.91776" lon="3.90068">
        <ele>712</ele>
        <time>2022-03-18T13:38:03Z</time>
      </trkpt>
      <trkpt lat="45.91761" lon="3.90044">
        <ele>713</ele>
        <time>2022-03-18T13:38:07Z</time>
      </trkpt>
      <trkpt lat="45.91753" lon="3.90018">
        <ele>715</ele>
        <time>2022-03-18T13:38:11Z</time>
      </trkpt>
      <trkpt lat="45.91749" lon="3.8999">
        <ele>716</ele>
        <time>2022-03-18T13:38:14Z</time>
      </trkpt>
      <trkpt lat="45.91748" lon="3.89972">
        <ele>716</ele>
        <time>2022-03-18T13:38:16Z</time>
      </trkpt>
      <trkpt lat="45.91754" lon="3.89941">
        <ele>717</ele>
        <time>2022-03-18T13:38:20Z</time>
      </trkpt>
      <trkpt lat="45.91765" lon="3.899">
        <ele>719</ele>
        <time>2022-03-18T13:38:26Z</time>
      </trkpt>
      <trkpt lat="45.91779" lon="3.8986">
        <ele>719</ele>
        <time>2022-03-18T13:38:31Z</time>
      </trkpt>
      <trkpt lat="45.91798" lon="3.89816">
        <ele>721</ele>
        <time>2022-03-18T13:38:38Z</time>
      </trkpt>
      <trkpt lat="45.91813" lon="3.89789">
        <ele>722</ele>
        <time>2022-03-18T13:38:42Z</time>
      </trkpt>
      <trkpt lat="45.91872" lon="3.89694">
        <ele>726</ele>
        <time>2022-03-18T13:38:58Z</time>
      </trkpt>
      <trkpt lat="45.91923" lon="3.89587">
        <ele>731</ele>
        <time>2022-03-18T13:39:14Z</time>
      </trkpt>
      <trkpt lat="45.91963" lon="3.89528">
        <ele>733</ele>
        <time>2022-03-18T13:39:24Z</time>
      </trkpt>
      <trkpt lat="45.92005" lon="3.89488">
        <ele>736</ele>
        <time>2022-03-18T13:39:33Z</time>
      </trkpt>
      <trkpt lat="45.92018" lon="3.89479">
        <ele>737</ele>
        <time>2022-03-18T13:39:36Z</time>
      </trkpt>
      <trkpt lat="45.92067" lon="3.89463">
        <ele>740</ele>
        <time>2022-03-18T13:39:45Z</time>
      </trkpt>
      <trkpt lat="45.9209" lon="3.89441">
        <ele>741</ele>
        <time>2022-03-18T13:39:49Z</time>
      </trkpt>
      <trkpt lat="45.92182" lon="3.89334">
        <ele>746</ele>
        <time>2022-03-18T13:40:11Z</time>
      </trkpt>
      <trkpt lat="45.92202" lon="3.89305">
        <ele>745</ele>
        <time>2022-03-18T13:40:16Z</time>
      </trkpt>
      <trkpt lat="45.92217" lon="3.89268">
        <ele>745</ele>
        <time>2022-03-18T13:40:21Z</time>
      </trkpt>
      <trkpt lat="45.92228" lon="3.89231">
        <ele>745</ele>
        <time>2022-03-18T13:40:26Z</time>
      </trkpt>
      <trkpt lat="45.9223" lon="3.89208">
        <ele>745</ele>
        <time>2022-03-18T13:40:29Z</time>
      </trkpt>
      <trkpt lat="45.92225" lon="3.89177">
        <ele>747</ele>
        <time>2022-03-18T13:40:33Z</time>
      </trkpt>
      <trkpt lat="45.92216" lon="3.89138">
        <ele>749</ele>
        <time>2022-03-18T13:40:38Z</time>
      </trkpt>
      <trkpt lat="45.92203" lon="3.89091">
        <ele>751</ele>
        <time>2022-03-18T13:40:44Z</time>
      </trkpt>
      <trkpt lat="45.92176" lon="3.89017">
        <ele>756</ele>
        <time>2022-03-18T13:40:54Z</time>
      </trkpt>
      <trkpt lat="45.92172" lon="3.88998">
        <ele>756</ele>
        <time>2022-03-18T13:40:57Z</time>
      </trkpt>
      <trkpt lat="45.92175" lon="3.8898">
        <ele>757</ele>
        <time>2022-03-18T13:40:59Z</time>
      </trkpt>
      <trkpt lat="45.92183" lon="3.88966">
        <ele>757</ele>
        <time>2022-03-18T13:41:01Z</time>
      </trkpt>
      <trkpt lat="45.92199" lon="3.88958">
        <ele>756</ele>
        <time>2022-03-18T13:41:04Z</time>
      </trkpt>
      <trkpt lat="45.9222" lon="3.88954">
        <ele>754</ele>
        <time>2022-03-18T13:41:08Z</time>
      </trkpt>
      <trkpt lat="45.92232" lon="3.88941">
        <ele>754</ele>
        <time>2022-03-18T13:41:11Z</time>
      </trkpt>
      <trkpt lat="45.92248" lon="3.88913">
        <ele>754</ele>
        <time>2022-03-18T13:41:15Z</time>
      </trkpt>
      <trkpt lat="45.92255" lon="3.8889">
        <ele>754</ele>
        <time>2022-03-18T13:41:18Z</time>
      </trkpt>
      <trkpt lat="45.92256" lon="3.8887">
        <ele>755</ele>
        <time>2022-03-18T13:41:21Z</time>
      </trkpt>
      <trkpt lat="45.92252" lon="3.88851">
        <ele>756</ele>
        <time>2022-03-18T13:41:23Z</time>
      </trkpt>
      <trkpt lat="45.92243" lon="3.88833">
        <ele>758</ele>
        <time>2022-03-18T13:41:26Z</time>
      </trkpt>
      <trkpt lat="45.92232" lon="3.88814">
        <ele>759</ele>
        <time>2022-03-18T13:41:29Z</time>
      </trkpt>
      <trkpt lat="45.92223" lon="3.88793">
        <ele>761</ele>
        <time>2022-03-18T13:41:32Z</time>
      </trkpt>
      <trkpt lat="45.92219" lon="3.88774">
        <ele>762</ele>
        <time>2022-03-18T13:41:35Z</time>
      </trkpt>
      <trkpt lat="45.9222" lon="3.8875">
        <ele>763</ele>
        <time>2022-03-18T13:41:38Z</time>
      </trkpt>
      <trkpt lat="45.92237" lon="3.88635">
        <ele>765</ele>
        <time>2022-03-18T13:41:52Z</time>
      </trkpt>
      <trkpt lat="45.92266" lon="3.88528">
        <ele>767</ele>
        <time>2022-03-18T13:42:06Z</time>
      </trkpt>
      <trkpt lat="45.92271" lon="3.88501">
        <ele>768</ele>
        <time>2022-03-18T13:42:10Z</time>
      </trkpt>
      <trkpt lat="45.92279" lon="3.88425">
        <ele>770</ele>
        <time>2022-03-18T13:42:19Z</time>
      </trkpt>
      <trkpt lat="45.9228" lon="3.88389">
        <ele>770</ele>
        <time>2022-03-18T13:42:24Z</time>
      </trkpt>
      <trkpt lat="45.92225" lon="3.878">
        <ele>766</ele>
        <time>2022-03-18T13:43:37Z</time>
      </trkpt>
      <trkpt lat="45.92231" lon="3.87783">
        <ele>766</ele>
        <time>2022-03-18T13:43:40Z</time>
      </trkpt>
      <trkpt lat="45.92241" lon="3.8776">
        <ele>766</ele>
        <time>2022-03-18T13:43:43Z</time>
      </trkpt>
      <trkpt lat="45.92256" lon="3.87742">
        <ele>767</ele>
        <time>2022-03-18T13:43:47Z</time>
      </trkpt>
      <trkpt lat="45.92278" lon="3.87722">
        <ele>767</ele>
        <time>2022-03-18T13:43:51Z</time>
      </trkpt>
      <trkpt lat="45.92299" lon="3.87709">
        <ele>768</ele>
        <time>2022-03-18T13:43:55Z</time>
      </trkpt>
      <trkpt lat="45.92311" lon="3.87693">
        <ele>768</ele>
        <time>2022-03-18T13:43:58Z</time>
      </trkpt>
      <trkpt lat="45.92322" lon="3.87671">
        <ele>767</ele>
        <time>2022-03-18T13:44:02Z</time>
      </trkpt>
      <trkpt lat="45.92334" lon="3.87619">
        <ele>766</ele>
        <time>2022-03-18T13:44:08Z</time>
      </trkpt>
      <trkpt lat="45.92334" lon="3.87592">
        <ele>765</ele>
        <time>2022-03-18T13:44:12Z</time>
      </trkpt>
      <trkpt lat="45.9233" lon="3.87566">
        <ele>765</ele>
        <time>2022-03-18T13:44:15Z</time>
      </trkpt>
      <trkpt lat="45.92324" lon="3.87545">
        <ele>766</ele>
        <time>2022-03-18T13:44:18Z</time>
      </trkpt>
      <trkpt lat="45.92314" lon="3.87528">
        <ele>765</ele>
        <time>2022-03-18T13:44:20Z</time>
      </trkpt>
      <trkpt lat="45.923" lon="3.87514">
        <ele>764</ele>
        <time>2022-03-18T13:44:24Z</time>
      </trkpt>
      <trkpt lat="45.92264" lon="3.87486">
        <ele>761</ele>
        <time>2022-03-18T13:44:31Z</time>
      </trkpt>
      <trkpt lat="45.92243" lon="3.87464">
        <ele>761</ele>
        <time>2022-03-18T13:44:35Z</time>
      </trkpt>
      <trkpt lat="45.92222" lon="3.87436">
        <ele>761</ele>
        <time>2022-03-18T13:44:41Z</time>
      </trkpt>
      <trkpt lat="45.92203" lon="3.87407">
        <ele>763</ele>
        <time>2022-03-18T13:44:45Z</time>
      </trkpt>
      <trkpt lat="45.92188" lon="3.8739">
        <ele>764</ele>
        <time>2022-03-18T13:44:49Z</time>
      </trkpt>
      <trkpt lat="45.92173" lon="3.87384">
        <ele>763</ele>
        <time>2022-03-18T13:44:52Z</time>
      </trkpt>
      <trkpt lat="45.92161" lon="3.87381">
        <ele>763</ele>
        <time>2022-03-18T13:44:54Z</time>
      </trkpt>
      <trkpt lat="45.92085" lon="3.87386">
        <ele>756</ele>
        <time>2022-03-18T13:45:07Z</time>
      </trkpt>
      <trkpt lat="45.92049" lon="3.87383">
        <ele>752</ele>
        <time>2022-03-18T13:45:14Z</time>
      </trkpt>
      <trkpt lat="45.92008" lon="3.87369">
        <ele>749</ele>
        <time>2022-03-18T13:45:21Z</time>
      </trkpt>
      <trkpt lat="45.91969" lon="3.87344">
        <ele>746</ele>
        <time>2022-03-18T13:45:29Z</time>
      </trkpt>
      <trkpt lat="45.91943" lon="3.87326">
        <ele>742</ele>
        <time>2022-03-18T13:45:34Z</time>
      </trkpt>
      <trkpt lat="45.91931" lon="3.87307">
        <ele>740</ele>
        <time>2022-03-18T13:45:37Z</time>
      </trkpt>
      <trkpt lat="45.91927" lon="3.87288">
        <ele>739</ele>
        <time>2022-03-18T13:45:40Z</time>
      </trkpt>
      <trkpt lat="45.9193" lon="3.87271">
        <ele>740</ele>
        <time>2022-03-18T13:45:42Z</time>
      </trkpt>
      <trkpt lat="45.9194" lon="3.87249">
        <ele>743</ele>
        <time>2022-03-18T13:45:45Z</time>
      </trkpt>
      <trkpt lat="45.91957" lon="3.87226">
        <ele>746</ele>
        <time>2022-03-18T13:45:49Z</time>
      </trkpt>
      <trkpt lat="45.91967" lon="3.87207">
        <ele>747</ele>
        <time>2022-03-18T13:45:52Z</time>
      </trkpt>
      <trkpt lat="45.91985" lon="3.87154">
        <ele>747</ele>
        <time>2022-03-18T13:45:59Z</time>
      </trkpt>
      <trkpt lat="45.91995" lon="3.87117">
        <ele>747</ele>
        <time>2022-03-18T13:46:04Z</time>
      </trkpt>
      <trkpt lat="45.91997" lon="3.87097">
        <ele>746</ele>
        <time>2022-03-18T13:46:07Z</time>
      </trkpt>
      <trkpt lat="45.91991" lon="3.87074">
        <ele>747</ele>
        <time>2022-03-18T13:46:10Z</time>
      </trkpt>
      <trkpt lat="45.91982" lon="3.87055">
        <ele>750</ele>
        <time>2022-03-18T13:46:13Z</time>
      </trkpt>
      <trkpt lat="45.91964" lon="3.87042">
        <ele>751</ele>
        <time>2022-03-18T13:46:16Z</time>
      </trkpt>
      <trkpt lat="45.91941" lon="3.87032">
        <ele>751</ele>
        <time>2022-03-18T13:46:21Z</time>
      </trkpt>
      <trkpt lat="45.9192" lon="3.87033">
        <ele>750</ele>
        <time>2022-03-18T13:46:24Z</time>
      </trkpt>
      <trkpt lat="45.91896" lon="3.87045">
        <ele>749</ele>
        <time>2022-03-18T13:46:29Z</time>
      </trkpt>
      <trkpt lat="45.91871" lon="3.87048">
        <ele>749</ele>
        <time>2022-03-18T13:46:33Z</time>
      </trkpt>
      <trkpt lat="45.91848" lon="3.87039">
        <ele>752</ele>
        <time>2022-03-18T13:46:38Z</time>
      </trkpt>
      <trkpt lat="45.91822" lon="3.87022">
        <ele>756</ele>
        <time>2022-03-18T13:46:43Z</time>
      </trkpt>
      <trkpt lat="45.91777" lon="3.86987">
        <ele>763</ele>
        <time>2022-03-18T13:46:52Z</time>
      </trkpt>
      <trkpt lat="45.91746" lon="3.86978">
        <ele>766</ele>
        <time>2022-03-18T13:46:57Z</time>
      </trkpt>
      <trkpt lat="45.91714" lon="3.86979">
        <ele>768</ele>
        <time>2022-03-18T13:47:03Z</time>
      </trkpt>
      <trkpt lat="45.91673" lon="3.8699">
        <ele>768</ele>
        <time>2022-03-18T13:47:10Z</time>
      </trkpt>
      <trkpt lat="45.91642" lon="3.87005">
        <ele>765</ele>
        <time>2022-03-18T13:47:16Z</time>
      </trkpt>
      <trkpt lat="45.91619" lon="3.87002">
        <ele>767</ele>
        <time>2022-03-18T13:47:20Z</time>
      </trkpt>
      <trkpt lat="45.91595" lon="3.86994">
        <ele>769</ele>
        <time>2022-03-18T13:47:25Z</time>
      </trkpt>
      <trkpt lat="45.91569" lon="3.86991">
        <ele>770</ele>
        <time>2022-03-18T13:47:29Z</time>
      </trkpt>
      <trkpt lat="45.91542" lon="3.86981">
        <ele>773</ele>
        <time>2022-03-18T13:47:34Z</time>
      </trkpt>
      <trkpt lat="45.91467" lon="3.86943">
        <ele>784</ele>
        <time>2022-03-18T13:47:49Z</time>
      </trkpt>
      <trkpt lat="45.91354" lon="3.8691">
        <ele>785</ele>
        <time>2022-03-18T13:48:09Z</time>
      </trkpt>
      <trkpt lat="45.91325" lon="3.86898">
        <ele>785</ele>
        <time>2022-03-18T13:48:14Z</time>
      </trkpt>
      <trkpt lat="45.91301" lon="3.86878">
        <ele>789</ele>
        <time>2022-03-18T13:48:19Z</time>
      </trkpt>
      <trkpt lat="45.91274" lon="3.86874">
        <ele>788</ele>
        <time>2022-03-18T13:48:24Z</time>
      </trkpt>
      <trkpt lat="45.91241" lon="3.86874">
        <ele>787</ele>
        <time>2022-03-18T13:48:30Z</time>
      </trkpt>
      <trkpt lat="45.91131" lon="3.86882">
        <ele>784</ele>
        <time>2022-03-18T13:48:50Z</time>
      </trkpt>
      <trkpt lat="45.91023" lon="3.86871">
        <ele>788</ele>
        <time>2022-03-18T13:49:09Z</time>
      </trkpt>
      <trkpt lat="45.91" lon="3.86856">
        <ele>790</ele>
        <time>2022-03-18T13:49:13Z</time>
      </trkpt>
      <trkpt lat="45.90995" lon="3.86843">
        <ele>791</ele>
        <time>2022-03-18T13:49:15Z</time>
      </trkpt>
      <trkpt lat="45.90992" lon="3.86825">
        <ele>791</ele>
        <time>2022-03-18T13:49:18Z</time>
      </trkpt>
      <trkpt lat="45.90995" lon="3.86811">
        <ele>789</ele>
        <time>2022-03-18T13:49:19Z</time>
      </trkpt>
      <trkpt lat="45.91109" lon="3.86645">
        <ele>783</ele>
        <time>2022-03-18T13:49:48Z</time>
      </trkpt>
      <trkpt lat="45.91167" lon="3.86553">
        <ele>782</ele>
        <time>2022-03-18T13:50:04Z</time>
      </trkpt>
      <trkpt lat="45.91176" lon="3.8653">
        <ele>779</ele>
        <time>2022-03-18T13:50:07Z</time>
      </trkpt>
      <trkpt lat="45.91209" lon="3.86427">
        <ele>768</ele>
        <time>2022-03-18T13:50:21Z</time>
      </trkpt>
      <trkpt lat="45.91219" lon="3.86403">
        <ele>766</ele>
        <time>2022-03-18T13:50:24Z</time>
      </trkpt>
      <trkpt lat="45.91233" lon="3.86378">
        <ele>765</ele>
        <time>2022-03-18T13:50:28Z</time>
      </trkpt>
      <trkpt lat="45.91315" lon="3.86278">
        <ele>761</ele>
        <time>2022-03-18T13:50:48Z</time>
      </trkpt>
      <trkpt lat="45.91346" lon="3.86234">
        <ele>759</ele>
        <time>2022-03-18T13:50:55Z</time>
      </trkpt>
      <trkpt lat="45.91356" lon="3.8621">
        <ele>757</ele>
        <time>2022-03-18T13:50:59Z</time>
      </trkpt>
      <trkpt lat="45.91362" lon="3.86183">
        <ele>754</ele>
        <time>2022-03-18T13:51:02Z</time>
      </trkpt>
      <trkpt lat="45.91368" lon="3.86115">
        <ele>749</ele>
        <time>2022-03-18T13:51:11Z</time>
      </trkpt>
      <trkpt lat="45.91374" lon="3.86088">
        <ele>748</ele>
        <time>2022-03-18T13:51:14Z</time>
      </trkpt>
      <trkpt lat="45.91382" lon="3.86067">
        <ele>747</ele>
        <time>2022-03-18T13:51:17Z</time>
      </trkpt>
      <trkpt lat="45.91401" lon="3.86031">
        <ele>745</ele>
        <time>2022-03-18T13:51:23Z</time>
      </trkpt>
      <trkpt lat="45.91489" lon="3.85895">
        <ele>740</ele>
        <time>2022-03-18T13:51:46Z</time>
      </trkpt>
      <trkpt lat="45.91493" lon="3.85879">
        <ele>740</ele>
        <time>2022-03-18T13:51:48Z</time>
      </trkpt>
      <trkpt lat="45.91494" lon="3.85866">
        <ele>740</ele>
        <time>2022-03-18T13:51:49Z</time>
      </trkpt>
      <trkpt lat="45.9149" lon="3.85847">
        <ele>739</ele>
        <time>2022-03-18T13:51:52Z</time>
      </trkpt>
      <trkpt lat="45.91479" lon="3.85827">
        <ele>737</ele>
        <time>2022-03-18T13:51:55Z</time>
      </trkpt>
      <trkpt lat="45.91458" lon="3.858">
        <ele>735</ele>
        <time>2022-03-18T13:52:00Z</time>
      </trkpt>
      <trkpt lat="45.91437" lon="3.85768">
        <ele>734</ele>
        <time>2022-03-18T13:52:06Z</time>
      </trkpt>
      <trkpt lat="45.91406" lon="3.85737">
        <ele>732</ele>
        <time>2022-03-18T13:52:12Z</time>
      </trkpt>
      <trkpt lat="45.91348" lon="3.8569">
        <ele>730</ele>
        <time>2022-03-18T13:52:24Z</time>
      </trkpt>
      <trkpt lat="45.91293" lon="3.85641">
        <ele>727</ele>
        <time>2022-03-18T13:52:36Z</time>
      </trkpt>
      <trkpt lat="45.91273" lon="3.85628">
        <ele>726</ele>
        <time>2022-03-18T13:52:40Z</time>
      </trkpt>
      <trkpt lat="45.91236" lon="3.85607">
        <ele>725</ele>
        <time>2022-03-18T13:52:47Z</time>
      </trkpt>
      <trkpt lat="45.91114" lon="3.85566">
        <ele>713</ele>
        <time>2022-03-18T13:53:09Z</time>
      </trkpt>
      <trkpt lat="45.91039" lon="3.85551">
        <ele>704</ele>
        <time>2022-03-18T13:53:22Z</time>
      </trkpt>
      <trkpt lat="45.90896" lon="3.85528">
        <ele>691</ele>
        <time>2022-03-18T13:53:48Z</time>
      </trkpt>
      <trkpt lat="45.90878" lon="3.85521">
        <ele>689</ele>
        <time>2022-03-18T13:53:51Z</time>
      </trkpt>
      <trkpt lat="45.90867" lon="3.85514">
        <ele>687</ele>
        <time>2022-03-18T13:53:53Z</time>
      </trkpt>
      <trkpt lat="45.90855" lon="3.855">
        <ele>686</ele>
        <time>2022-03-18T13:53:56Z</time>
      </trkpt>
      <trkpt lat="45.90841" lon="3.85478">
        <ele>684</ele>
        <time>2022-03-18T13:54:00Z</time>
      </trkpt>
      <trkpt lat="45.90832" lon="3.85456">
        <ele>684</ele>
        <time>2022-03-18T13:54:03Z</time>
      </trkpt>
      <trkpt lat="45.90814" lon="3.85389">
        <ele>682</ele>
        <time>2022-03-18T13:54:12Z</time>
      </trkpt>
      <trkpt lat="45.90794" lon="3.85298">
        <ele>677</ele>
        <time>2022-03-18T13:54:24Z</time>
      </trkpt>
      <trkpt lat="45.90788" lon="3.85263">
        <ele>675</ele>
        <time>2022-03-18T13:54:28Z</time>
      </trkpt>
      <trkpt lat="45.90788" lon="3.85241">
        <ele>674</ele>
        <time>2022-03-18T13:54:31Z</time>
      </trkpt>
      <trkpt lat="45.90794" lon="3.85214">
        <ele>673</ele>
        <time>2022-03-18T13:54:34Z</time>
      </trkpt>
      <trkpt lat="45.90814" lon="3.85151">
        <ele>671</ele>
        <time>2022-03-18T13:54:43Z</time>
      </trkpt>
      <trkpt lat="45.90892" lon="3.8496">
        <ele>658</ele>
        <time>2022-03-18T13:55:10Z</time>
      </trkpt>
      <trkpt lat="45.90904" lon="3.84937">
        <ele>657</ele>
        <time>2022-03-18T13:55:14Z</time>
      </trkpt>
      <trkpt lat="45.90915" lon="3.84924">
        <ele>657</ele>
        <time>2022-03-18T13:55:17Z</time>
      </trkpt>
      <trkpt lat="45.90932" lon="3.84912">
        <ele>654</ele>
        <time>2022-03-18T13:55:20Z</time>
      </trkpt>
      <trkpt lat="45.90969" lon="3.84903">
        <ele>651</ele>
        <time>2022-03-18T13:55:27Z</time>
      </trkpt>
      <trkpt lat="45.90974" lon="3.84898">
        <ele>649</ele>
        <time>2022-03-18T13:55:28Z</time>
      </trkpt>
      <trkpt lat="45.90986" lon="3.84913">
        <ele>651</ele>
        <time>2022-03-18T13:55:31Z</time>
      </trkpt>
      <trkpt lat="45.91015" lon="3.84973">
        <ele>657</ele>
        <time>2022-03-18T13:55:40Z</time>
      </trkpt>
      <trkpt lat="45.91029" lon="3.84988">
        <ele>658</ele>
        <time>2022-03-18T13:55:43Z</time>
      </trkpt>
      <trkpt lat="45.91041" lon="3.84992">
        <ele>657</ele>
        <time>2022-03-18T13:55:45Z</time>
      </trkpt>
      <trkpt lat="45.91052" lon="3.8499">
        <ele>656</ele>
        <time>2022-03-18T13:55:47Z</time>
      </trkpt>
      <trkpt lat="45.91138" lon="3.84956">
        <ele>654</ele>
        <time>2022-03-18T13:56:03Z</time>
      </trkpt>
      <trkpt lat="45.91225" lon="3.84934">
        <ele>658</ele>
        <time>2022-03-18T13:56:18Z</time>
      </trkpt>
      <trkpt lat="45.91266" lon="3.84919">
        <ele>658</ele>
        <time>2022-03-18T13:56:26Z</time>
      </trkpt>
      <trkpt lat="45.91349" lon="3.84869">
        <ele>656</ele>
        <time>2022-03-18T13:56:42Z</time>
      </trkpt>
      <trkpt lat="45.91363" lon="3.84858">
        <ele>655</ele>
        <time>2022-03-18T13:56:45Z</time>
      </trkpt>
      <trkpt lat="45.91373" lon="3.84843">
        <ele>654</ele>
        <time>2022-03-18T13:56:47Z</time>
      </trkpt>
      <trkpt lat="45.91387" lon="3.84807">
        <ele>653</ele>
        <time>2022-03-18T13:56:52Z</time>
      </trkpt>
      <trkpt lat="45.91373" lon="3.84843">
        <ele>654</ele>
        <time>2022-03-18T13:56:58Z</time>
      </trkpt>
      <trkpt lat="45.91363" lon="3.84858">
        <ele>655</ele>
        <time>2022-03-18T13:57:00Z</time>
      </trkpt>
      <trkpt lat="45.91349" lon="3.84869">
        <ele>656</ele>
        <time>2022-03-18T13:57:03Z</time>
      </trkpt>
      <trkpt lat="45.91266" lon="3.84919">
        <ele>658</ele>
        <time>2022-03-18T13:57:19Z</time>
      </trkpt>
      <trkpt lat="45.91225" lon="3.84934">
        <ele>658</ele>
        <time>2022-03-18T13:57:27Z</time>
      </trkpt>
      <trkpt lat="45.91138" lon="3.84956">
        <ele>654</ele>
        <time>2022-03-18T13:57:42Z</time>
      </trkpt>
      <trkpt lat="45.91052" lon="3.8499">
        <ele>656</ele>
        <time>2022-03-18T13:57:58Z</time>
      </trkpt>
      <trkpt lat="45.91041" lon="3.84992">
        <ele>657</ele>
        <time>2022-03-18T13:58:00Z</time>
      </trkpt>
      <trkpt lat="45.91029" lon="3.84988">
        <ele>658</ele>
        <time>2022-03-18T13:58:02Z</time>
      </trkpt>
      <trkpt lat="45.91015" lon="3.84973">
        <ele>657</ele>
        <time>2022-03-18T13:58:05Z</time>
      </trkpt>
      <trkpt lat="45.90986" lon="3.84913">
        <ele>651</ele>
        <time>2022-03-18T13:58:14Z</time>
      </trkpt>
      <trkpt lat="45.90974" lon="3.84898">
        <ele>649</ele>
        <time>2022-03-18T13:58:17Z</time>
      </trkpt>
      <trkpt lat="45.90951" lon="3.84884">
        <ele>649</ele>
        <time>2022-03-18T13:58:22Z</time>
      </trkpt>
      <trkpt lat="45.90932" lon="3.84881">
        <ele>649</ele>
        <time>2022-03-18T13:58:25Z</time>
      </trkpt>
      <trkpt lat="45.90917" lon="3.84881">
        <ele>650</ele>
        <time>2022-03-18T13:58:28Z</time>
      </trkpt>
      <trkpt lat="45.90899" lon="3.8489">
        <ele>650</ele>
        <time>2022-03-18T13:58:31Z</time>
      </trkpt>
      <trkpt lat="45.90876" lon="3.84905">
        <ele>649</ele>
        <time>2022-03-18T13:58:36Z</time>
      </trkpt>
      <trkpt lat="45.90713" lon="3.85067">
        <ele>645</ele>
        <time>2022-03-18T13:59:11Z</time>
      </trkpt>
      <trkpt lat="45.90685" lon="3.85098">
        <ele>643</ele>
        <time>2022-03-18T13:59:17Z</time>
      </trkpt>
      <trkpt lat="45.90668" lon="3.8513">
        <ele>641</ele>
        <time>2022-03-18T13:59:22Z</time>
      </trkpt>
      <trkpt lat="45.90659" lon="3.85174">
        <ele>641</ele>
        <time>2022-03-18T13:59:28Z</time>
      </trkpt>
      <trkpt lat="45.90673" lon="3.85282">
        <ele>644</ele>
        <time>2022-03-18T13:59:41Z</time>
      </trkpt>
      <trkpt lat="45.90671" lon="3.85304">
        <ele>644</ele>
        <time>2022-03-18T13:59:44Z</time>
      </trkpt>
      <trkpt lat="45.90661" lon="3.8533">
        <ele>642</ele>
        <time>2022-03-18T13:59:48Z</time>
      </trkpt>
      <trkpt lat="45.9065" lon="3.85344">
        <ele>641</ele>
        <time>2022-03-18T13:59:51Z</time>
      </trkpt>
      <trkpt lat="45.90634" lon="3.85358">
        <ele>641</ele>
        <time>2022-03-18T13:59:54Z</time>
      </trkpt>
      <trkpt lat="45.90619" lon="3.8536">
        <ele>641</ele>
        <time>2022-03-18T13:59:57Z</time>
      </trkpt>
      <trkpt lat="45.90603" lon="3.85355">
        <ele>641</ele>
        <time>2022-03-18T13:59:59Z</time>
      </trkpt>
      <trkpt lat="45.9054" lon="3.85322">
        <ele>637</ele>
        <time>2022-03-18T14:00:11Z</time>
      </trkpt>
      <trkpt lat="45.90511" lon="3.85314">
        <ele>635</ele>
        <time>2022-03-18T14:00:17Z</time>
      </trkpt>
      <trkpt lat="45.90449" lon="3.85321">
        <ele>633</ele>
        <time>2022-03-18T14:00:28Z</time>
      </trkpt>
      <trkpt lat="45.90422" lon="3.85338">
        <ele>634</ele>
        <time>2022-03-18T14:00:33Z</time>
      </trkpt>
      <trkpt lat="45.9037" lon="3.85387">
        <ele>637</ele>
        <time>2022-03-18T14:00:44Z</time>
      </trkpt>
      <trkpt lat="45.90339" lon="3.85409">
        <ele>637</ele>
        <time>2022-03-18T14:00:50Z</time>
      </trkpt>
      <trkpt lat="45.90256" lon="3.85449">
        <ele>636</ele>
        <time>2022-03-18T14:01:06Z</time>
      </trkpt>
      <trkpt lat="45.90227" lon="3.85475">
        <ele>633</ele>
        <time>2022-03-18T14:01:12Z</time>
      </trkpt>
      <trkpt lat="45.90146" lon="3.85612">
        <ele>629</ele>
        <time>2022-03-18T14:01:34Z</time>
      </trkpt>
      <trkpt lat="45.90121" lon="3.8564">
        <ele>628</ele>
        <time>2022-03-18T14:01:40Z</time>
      </trkpt>
      <trkpt lat="45.90062" lon="3.85699">
        <ele>625</ele>
        <time>2022-03-18T14:01:52Z</time>
      </trkpt>
      <trkpt lat="45.90042" lon="3.85727">
        <ele>625</ele>
        <time>2022-03-18T14:01:57Z</time>
      </trkpt>
      <trkpt lat="45.90034" lon="3.85753">
        <ele>625</ele>
        <time>2022-03-18T14:02:01Z</time>
      </trkpt>
      <trkpt lat="45.90012" lon="3.8584">
        <ele>624</ele>
        <time>2022-03-18T14:02:12Z</time>
      </trkpt>
      <trkpt lat="45.89997" lon="3.85875">
        <ele>620</ele>
        <time>2022-03-18T14:02:18Z</time>
      </trkpt>
      <trkpt lat="45.89939" lon="3.85953">
        <ele>617</ele>
        <time>2022-03-18T14:02:32Z</time>
      </trkpt>
      <trkpt lat="45.8973" lon="3.8613">
        <ele>601</ele>
        <time>2022-03-18T14:03:15Z</time>
      </trkpt>
      <trkpt lat="45.896" lon="3.86246">
        <ele>589</ele>
        <time>2022-03-18T14:03:42Z</time>
      </trkpt>
      <trkpt lat="45.89576" lon="3.86284">
        <ele>588</ele>
        <time>2022-03-18T14:03:48Z</time>
      </trkpt>
      <trkpt lat="45.89567" lon="3.8631">
        <ele>588</ele>
        <time>2022-03-18T14:03:52Z</time>
      </trkpt>
      <trkpt lat="45.89564" lon="3.86347">
        <ele>590</ele>
        <time>2022-03-18T14:03:57Z</time>
      </trkpt>
      <trkpt lat="45.89562" lon="3.86392">
        <ele>592</ele>
        <time>2022-03-18T14:04:02Z</time>
      </trkpt>
      <trkpt lat="45.89555" lon="3.8642">
        <ele>593</ele>
        <time>2022-03-18T14:04:06Z</time>
      </trkpt>
      <trkpt lat="45.89538" lon="3.86439">
        <ele>593</ele>
        <time>2022-03-18T14:04:10Z</time>
      </trkpt>
      <trkpt lat="45.89518" lon="3.86446">
        <ele>593</ele>
        <time>2022-03-18T14:04:13Z</time>
      </trkpt>
      <trkpt lat="45.89488" lon="3.86445">
        <ele>593</ele>
        <time>2022-03-18T14:04:19Z</time>
      </trkpt>
      <trkpt lat="45.89462" lon="3.8645">
        <ele>594</ele>
        <time>2022-03-18T14:04:23Z</time>
      </trkpt>
      <trkpt lat="45.89444" lon="3.86459">
        <ele>595</ele>
        <time>2022-03-18T14:04:27Z</time>
      </trkpt>
      <trkpt lat="45.89428" lon="3.86475">
        <ele>596</ele>
        <time>2022-03-18T14:04:30Z</time>
      </trkpt>
      <trkpt lat="45.89414" lon="3.86497">
        <ele>598</ele>
        <time>2022-03-18T14:04:34Z</time>
      </trkpt>
      <trkpt lat="45.89402" lon="3.86528">
        <ele>598</ele>
        <time>2022-03-18T14:04:38Z</time>
      </trkpt>
      <trkpt lat="45.89317" lon="3.86849">
        <ele>599</ele>
        <time>2022-03-18T14:05:21Z</time>
      </trkpt>
      <trkpt lat="45.89316" lon="3.86865">
        <ele>598</ele>
        <time>2022-03-18T14:05:23Z</time>
      </trkpt>
      <trkpt lat="45.8932" lon="3.86885">
        <ele>598</ele>
        <time>2022-03-18T14:05:25Z</time>
      </trkpt>
      <trkpt lat="45.89329" lon="3.86902">
        <ele>599</ele>
        <time>2022-03-18T14:05:28Z</time>
      </trkpt>
      <trkpt lat="45.89348" lon="3.86928">
        <ele>600</ele>
        <time>2022-03-18T14:05:33Z</time>
      </trkpt>
      <trkpt lat="45.89385" lon="3.86968">
        <ele>601</ele>
        <time>2022-03-18T14:05:41Z</time>
      </trkpt>
      <trkpt lat="45.89396" lon="3.86997">
        <ele>601</ele>
        <time>2022-03-18T14:05:45Z</time>
      </trkpt>
      <trkpt lat="45.89394" lon="3.87016">
        <ele>602</ele>
        <time>2022-03-18T14:05:47Z</time>
      </trkpt>
      <trkpt lat="45.89388" lon="3.87033">
        <ele>603</ele>
        <time>2022-03-18T14:05:50Z</time>
      </trkpt>
      <trkpt lat="45.89378" lon="3.87045">
        <ele>603</ele>
        <time>2022-03-18T14:05:52Z</time>
      </trkpt>
      <trkpt lat="45.89329" lon="3.87074">
        <ele>601</ele>
        <time>2022-03-18T14:06:02Z</time>
      </trkpt>
      <trkpt lat="45.89274" lon="3.87117">
        <ele>603</ele>
        <time>2022-03-18T14:06:13Z</time>
      </trkpt>
      <trkpt lat="45.89258" lon="3.87134">
        <ele>603</ele>
        <time>2022-03-18T14:06:16Z</time>
      </trkpt>
      <trkpt lat="45.89244" lon="3.87155">
        <ele>603</ele>
        <time>2022-03-18T14:06:20Z</time>
      </trkpt>
      <trkpt lat="45.89232" lon="3.87184">
        <ele>603</ele>
        <time>2022-03-18T14:06:24Z</time>
      </trkpt>
      <trkpt lat="45.89225" lon="3.87215">
        <ele>603</ele>
        <time>2022-03-18T14:06:28Z</time>
      </trkpt>
      <trkpt lat="45.89216" lon="3.87283">
        <ele>608</ele>
        <time>2022-03-18T14:06:37Z</time>
      </trkpt>
      <trkpt lat="45.89213" lon="3.87297">
        <ele>609</ele>
        <time>2022-03-18T14:06:38Z</time>
      </trkpt>
      <trkpt lat="45.89206" lon="3.87313">
        <ele>610</ele>
        <time>2022-03-18T14:06:41Z</time>
      </trkpt>
      <trkpt lat="45.89187" lon="3.87332">
        <ele>608</ele>
        <time>2022-03-18T14:06:45Z</time>
      </trkpt>
      <trkpt lat="45.89051" lon="3.87452">
        <ele>615</ele>
        <time>2022-03-18T14:07:13Z</time>
      </trkpt>
      <trkpt lat="45.88973" lon="3.87506">
        <ele>619</ele>
        <time>2022-03-18T14:07:29Z</time>
      </trkpt>
      <trkpt lat="45.8893" lon="3.8754">
        <ele>621</ele>
        <time>2022-03-18T14:07:37Z</time>
      </trkpt>
      <trkpt lat="45.88883" lon="3.87596">
        <ele>618</ele>
        <time>2022-03-18T14:07:48Z</time>
      </trkpt>
      <trkpt lat="45.88836" lon="3.87675">
        <ele>615</ele>
        <time>2022-03-18T14:08:01Z</time>
      </trkpt>
      <trkpt lat="45.88809" lon="3.87731">
        <ele>612</ele>
        <time>2022-03-18T14:08:10Z</time>
      </trkpt>
      <trkpt lat="45.88787" lon="3.87787">
        <ele>609</ele>
        <time>2022-03-18T14:08:18Z</time>
      </trkpt>
      <trkpt lat="45.8877" lon="3.8784">
        <ele>609</ele>
        <time>2022-03-18T14:08:25Z</time>
      </trkpt>
      <trkpt lat="45.8876" lon="3.87878">
        <ele>609</ele>
        <time>2022-03-18T14:08:30Z</time>
      </trkpt>
      <trkpt lat="45.88754" lon="3.8791">
        <ele>610</ele>
        <time>2022-03-18T14:08:34Z</time>
      </trkpt>
      <trkpt lat="45.88752" lon="3.87928">
        <ele>610</ele>
        <time>2022-03-18T14:08:36Z</time>
      </trkpt>
      <trkpt lat="45.88754" lon="3.88016">
        <ele>607</ele>
        <time>2022-03-18T14:08:47Z</time>
      </trkpt>
      <trkpt lat="45.88746" lon="3.88053">
        <ele>606</ele>
        <time>2022-03-18T14:08:52Z</time>
      </trkpt>
      <trkpt lat="45.88669" lon="3.88212">
        <ele>597</ele>
        <time>2022-03-18T14:09:16Z</time>
      </trkpt>
      <trkpt lat="45.88661" lon="3.88246">
        <ele>598</ele>
        <time>2022-03-18T14:09:20Z</time>
      </trkpt>
      <trkpt lat="45.8866" lon="3.88276">
        <ele>598</ele>
        <time>2022-03-18T14:09:24Z</time>
      </trkpt>
      <trkpt lat="45.88661" lon="3.88323">
        <ele>598</ele>
        <time>2022-03-18T14:09:30Z</time>
      </trkpt>
      <trkpt lat="45.8866" lon="3.88337">
        <ele>598</ele>
        <time>2022-03-18T14:09:32Z</time>
      </trkpt>
      <trkpt lat="45.88657" lon="3.88353">
        <ele>598</ele>
        <time>2022-03-18T14:09:34Z</time>
      </trkpt>
      <trkpt lat="45.88652" lon="3.88367">
        <ele>598</ele>
        <time>2022-03-18T14:09:36Z</time>
      </trkpt>
      <trkpt lat="45.88636" lon="3.88393">
        <ele>598</ele>
        <time>2022-03-18T14:09:40Z</time>
      </trkpt>
      <trkpt lat="45.88627" lon="3.88402">
        <ele>597</ele>
        <time>2022-03-18T14:09:42Z</time>
      </trkpt>
      <trkpt lat="45.88615" lon="3.8841">
        <ele>596</ele>
        <time>2022-03-18T14:09:44Z</time>
      </trkpt>
      <trkpt lat="45.88594" lon="3.88415">
        <ele>594</ele>
        <time>2022-03-18T14:09:48Z</time>
      </trkpt>
      <trkpt lat="45.88558" lon="3.88418">
        <ele>589</ele>
        <time>2022-03-18T14:09:54Z</time>
      </trkpt>
      <trkpt lat="45.88536" lon="3.88425">
        <ele>586</ele>
        <time>2022-03-18T14:09:58Z</time>
      </trkpt>
      <trkpt lat="45.88525" lon="3.88433">
        <ele>585</ele>
        <time>2022-03-18T14:10:01Z</time>
      </trkpt>
      <trkpt lat="45.88466" lon="3.88486">
        <ele>578</ele>
        <time>2022-03-18T14:10:13Z</time>
      </trkpt>
      <trkpt lat="45.88458" lon="3.88495">
        <ele>577</ele>
        <time>2022-03-18T14:10:15Z</time>
      </trkpt>
      <trkpt lat="45.88451" lon="3.88507">
        <ele>575</ele>
        <time>2022-03-18T14:10:17Z</time>
      </trkpt>
      <trkpt lat="45.88446" lon="3.88522">
        <ele>574</ele>
        <time>2022-03-18T14:10:19Z</time>
      </trkpt>
      <trkpt lat="45.88444" lon="3.88538">
        <ele>573</ele>
        <time>2022-03-18T14:10:21Z</time>
      </trkpt>
      <trkpt lat="45.88445" lon="3.88574">
        <ele>571</ele>
        <time>2022-03-18T14:10:25Z</time>
      </trkpt>
      <trkpt lat="45.88448" lon="3.88589">
        <ele>571</ele>
        <time>2022-03-18T14:10:27Z</time>
      </trkpt>
      <trkpt lat="45.88455" lon="3.88605">
        <ele>571</ele>
        <time>2022-03-18T14:10:30Z</time>
      </trkpt>
      <trkpt lat="45.88464" lon="3.88615">
        <ele>573</ele>
        <time>2022-03-18T14:10:32Z</time>
      </trkpt>
      <trkpt lat="45.8849" lon="3.88633">
        <ele>577</ele>
        <time>2022-03-18T14:10:37Z</time>
      </trkpt>
      <trkpt lat="45.885" lon="3.88645">
        <ele>579</ele>
        <time>2022-03-18T14:10:39Z</time>
      </trkpt>
      <trkpt lat="45.88504" lon="3.88658">
        <ele>578</ele>
        <time>2022-03-18T14:10:41Z</time>
      </trkpt>
      <trkpt lat="45.88506" lon="3.88679">
        <ele>578</ele>
        <time>2022-03-18T14:10:43Z</time>
      </trkpt>
      <trkpt lat="45.88502" lon="3.88717">
        <ele>574</ele>
        <time>2022-03-18T14:10:48Z</time>
      </trkpt>
      <trkpt lat="45.88495" lon="3.88758">
        <ele>570</ele>
        <time>2022-03-18T14:10:53Z</time>
      </trkpt>
      <trkpt lat="45.88489" lon="3.88783">
        <ele>568</ele>
        <time>2022-03-18T14:10:57Z</time>
      </trkpt>
      <trkpt lat="45.88465" lon="3.8885">
        <ele>559</ele>
        <time>2022-03-18T14:11:06Z</time>
      </trkpt>
      <trkpt lat="45.88459" lon="3.88871">
        <ele>558</ele>
        <time>2022-03-18T14:11:09Z</time>
      </trkpt>
      <trkpt lat="45.88457" lon="3.88886">
        <ele>557</ele>
        <time>2022-03-18T14:11:11Z</time>
      </trkpt>
      <trkpt lat="45.88461" lon="3.88908">
        <ele>558</ele>
        <time>2022-03-18T14:11:14Z</time>
      </trkpt>
      <trkpt lat="45.8848" lon="3.88939">
        <ele>561</ele>
        <time>2022-03-18T14:11:19Z</time>
      </trkpt>
      <trkpt lat="45.88485" lon="3.88964">
        <ele>561</ele>
        <time>2022-03-18T14:11:22Z</time>
      </trkpt>
      <trkpt lat="45.88484" lon="3.88977">
        <ele>560</ele>
        <time>2022-03-18T14:11:24Z</time>
      </trkpt>
      <trkpt lat="45.88475" lon="3.89002">
        <ele>558</ele>
        <time>2022-03-18T14:11:27Z</time>
      </trkpt>
      <trkpt lat="45.8841" lon="3.89128">
        <ele>550</ele>
        <time>2022-03-18T14:11:46Z</time>
      </trkpt>
      <trkpt lat="45.88398" lon="3.89142">
        <ele>549</ele>
        <time>2022-03-18T14:11:49Z</time>
      </trkpt>
      <trkpt lat="45.88361" lon="3.89161">
        <ele>545</ele>
        <time>2022-03-18T14:11:56Z</time>
      </trkpt>
      <trkpt lat="45.88354" lon="3.89166">
        <ele>545</ele>
        <time>2022-03-18T14:11:58Z</time>
      </trkpt>
      <trkpt lat="45.8834" lon="3.89185">
        <ele>543</ele>
        <time>2022-03-18T14:12:01Z</time>
      </trkpt>
      <trkpt lat="45.88292" lon="3.89271">
        <ele>538</ele>
        <time>2022-03-18T14:12:15Z</time>
      </trkpt>
      <trkpt lat="45.88286" lon="3.89285">
        <ele>538</ele>
        <time>2022-03-18T14:12:17Z</time>
      </trkpt>
      <trkpt lat="45.88279" lon="3.89313">
        <ele>538</ele>
        <time>2022-03-18T14:12:20Z</time>
      </trkpt>
      <trkpt lat="45.88274" lon="3.89324">
        <ele>538</ele>
        <time>2022-03-18T14:12:22Z</time>
      </trkpt>
      <trkpt lat="45.88256" lon="3.89346">
        <ele>538</ele>
        <time>2022-03-18T14:12:26Z</time>
      </trkpt>
      <trkpt lat="45.88232" lon="3.89367">
        <ele>539</ele>
        <time>2022-03-18T14:12:31Z</time>
      </trkpt>
      <trkpt lat="45.88219" lon="3.89383">
        <ele>539</ele>
        <time>2022-03-18T14:12:34Z</time>
      </trkpt>
      <trkpt lat="45.8818" lon="3.89446">
        <ele>541</ele>
        <time>2022-03-18T14:12:45Z</time>
      </trkpt>
      <trkpt lat="45.8817" lon="3.89455">
        <ele>541</ele>
        <time>2022-03-18T14:12:47Z</time>
      </trkpt>
      <trkpt lat="45.88008" lon="3.89554">
        <ele>539</ele>
        <time>2022-03-18T14:13:18Z</time>
      </trkpt>
      <trkpt lat="45.87881" lon="3.89675">
        <ele>536</ele>
        <time>2022-03-18T14:13:45Z</time>
      </trkpt>
      <trkpt lat="45.87862" lon="3.89714">
        <ele>536</ele>
        <time>2022-03-18T14:13:51Z</time>
      </trkpt>
      <trkpt lat="45.87731" lon="3.90045">
        <ele>536</ele>
        <time>2022-03-18T14:14:38Z</time>
      </trkpt>
      <trkpt lat="45.87711" lon="3.90129">
        <ele>539</ele>
        <time>2022-03-18T14:14:49Z</time>
      </trkpt>
      <trkpt lat="45.87702" lon="3.90163">
        <ele>539</ele>
        <time>2022-03-18T14:14:54Z</time>
      </trkpt>
      <trkpt lat="45.87689" lon="3.90195">
        <ele>539</ele>
        <time>2022-03-18T14:14:58Z</time>
      </trkpt>
      <trkpt lat="45.87646" lon="3.90284">
        <ele>538</ele>
        <time>2022-03-18T14:15:12Z</time>
      </trkpt>
      <trkpt lat="45.87627" lon="3.90318">
        <ele>538</ele>
        <time>2022-03-18T14:15:17Z</time>
      </trkpt>
      <trkpt lat="45.87588" lon="3.90373">
        <ele>533</ele>
        <time>2022-03-18T14:15:27Z</time>
      </trkpt>
      <trkpt lat="45.87555" lon="3.90434">
        <ele>532</ele>
        <time>2022-03-18T14:15:36Z</time>
      </trkpt>
      <trkpt lat="45.87536" lon="3.90492">
        <ele>530</ele>
        <time>2022-03-18T14:15:44Z</time>
      </trkpt>
      <trkpt lat="45.87529" lon="3.90539">
        <ele>530</ele>
        <time>2022-03-18T14:15:50Z</time>
      </trkpt>
      <trkpt lat="45.87521" lon="3.9061">
        <ele>531</ele>
        <time>2022-03-18T14:15:59Z</time>
      </trkpt>
      <trkpt lat="45.87514" lon="3.90656">
        <ele>532</ele>
        <time>2022-03-18T14:16:05Z</time>
      </trkpt>
      <trkpt lat="45.87462" lon="3.90896">
        <ele>530</ele>
        <time>2022-03-18T14:16:36Z</time>
      </trkpt>
      <trkpt lat="45.87451" lon="3.90934">
        <ele>530</ele>
        <time>2022-03-18T14:16:41Z</time>
      </trkpt>
      <trkpt lat="45.87439" lon="3.90959">
        <ele>530</ele>
        <time>2022-03-18T14:16:45Z</time>
      </trkpt>
      <trkpt lat="45.87424" lon="3.90976">
        <ele>529</ele>
        <time>2022-03-18T14:16:49Z</time>
      </trkpt>
      <trkpt lat="45.87396" lon="3.90996">
        <ele>529</ele>
        <time>2022-03-18T14:16:54Z</time>
      </trkpt>
      <trkpt lat="45.87374" lon="3.91016">
        <ele>529</ele>
        <time>2022-03-18T14:16:59Z</time>
      </trkpt>
      <trkpt lat="45.87358" lon="3.91044">
        <ele>529</ele>
        <time>2022-03-18T14:17:03Z</time>
      </trkpt>
      <trkpt lat="45.8735" lon="3.91073">
        <ele>529</ele>
        <time>2022-03-18T14:17:07Z</time>
      </trkpt>
      <trkpt lat="45.87349" lon="3.91106">
        <ele>530</ele>
        <time>2022-03-18T14:17:11Z</time>
      </trkpt>
      <trkpt lat="45.87365" lon="3.91275">
        <ele>536</ele>
        <time>2022-03-18T14:17:32Z</time>
      </trkpt>
      <trkpt lat="45.87371" lon="3.91303">
        <ele>536</ele>
        <time>2022-03-18T14:17:36Z</time>
      </trkpt>
      <trkpt lat="45.87381" lon="3.91321">
        <ele>536</ele>
        <time>2022-03-18T14:17:39Z</time>
      </trkpt>
      <trkpt lat="45.87398" lon="3.91339">
        <ele>536</ele>
        <time>2022-03-18T14:17:43Z</time>
      </trkpt>
      <trkpt lat="45.87432" lon="3.91357">
        <ele>536</ele>
        <time>2022-03-18T14:17:49Z</time>
      </trkpt>
      <trkpt lat="45.87448" lon="3.91372">
        <ele>536</ele>
        <time>2022-03-18T14:17:52Z</time>
      </trkpt>
      <trkpt lat="45.87454" lon="3.91383">
        <ele>536</ele>
        <time>2022-03-18T14:17:54Z</time>
      </trkpt>
      <trkpt lat="45.87458" lon="3.91398">
        <ele>537</ele>
        <time>2022-03-18T14:17:56Z</time>
      </trkpt>
      <trkpt lat="45.8746" lon="3.91407">
        <ele>537</ele>
        <time>2022-03-18T14:17:57Z</time>
      </trkpt>
      <trkpt lat="45.87461" lon="3.91429">
        <ele>538</ele>
        <time>2022-03-18T14:18:00Z</time>
      </trkpt>
      <trkpt lat="45.87464" lon="3.91709">
        <ele>552</ele>
        <time>2022-03-18T14:18:35Z</time>
      </trkpt>
      <trkpt lat="45.87462" lon="3.91739">
        <ele>553</ele>
        <time>2022-03-18T14:18:38Z</time>
      </trkpt>
      <trkpt lat="45.87447" lon="3.91825">
        <ele>556</ele>
        <time>2022-03-18T14:18:49Z</time>
      </trkpt>
      <trkpt lat="45.87438" lon="3.91925">
        <ele>560</ele>
        <time>2022-03-18T14:19:02Z</time>
      </trkpt>
      <trkpt lat="45.87438" lon="3.91967">
        <ele>562</ele>
        <time>2022-03-18T14:19:07Z</time>
      </trkpt>
      <trkpt lat="45.87444" lon="3.92024">
        <ele>565</ele>
        <time>2022-03-18T14:19:14Z</time>
      </trkpt>
      <trkpt lat="45.87445" lon="3.92045">
        <ele>565</ele>
        <time>2022-03-18T14:19:17Z</time>
      </trkpt>
      <trkpt lat="45.87442" lon="3.92069">
        <ele>566</ele>
        <time>2022-03-18T14:19:20Z</time>
      </trkpt>
      <trkpt lat="45.87428" lon="3.92096">
        <ele>566</ele>
        <time>2022-03-18T14:19:24Z</time>
      </trkpt>
      <trkpt lat="45.8738" lon="3.9216">
        <ele>568</ele>
        <time>2022-03-18T14:19:36Z</time>
      </trkpt>
      <trkpt lat="45.8732" lon="3.92278">
        <ele>572</ele>
        <time>2022-03-18T14:19:54Z</time>
      </trkpt>
      <trkpt lat="45.8729" lon="3.92361">
        <ele>578</ele>
        <time>2022-03-18T14:20:05Z</time>
      </trkpt>
      <trkpt lat="45.87261" lon="3.92486">
        <ele>586</ele>
        <time>2022-03-18T14:20:22Z</time>
      </trkpt>
      <trkpt lat="45.87244" lon="3.92536">
        <ele>587</ele>
        <time>2022-03-18T14:20:29Z</time>
      </trkpt>
      <trkpt lat="45.87224" lon="3.92572">
        <ele>589</ele>
        <time>2022-03-18T14:20:34Z</time>
      </trkpt>
      <trkpt lat="45.87195" lon="3.92608">
        <ele>589</ele>
        <time>2022-03-18T14:20:41Z</time>
      </trkpt>
      <trkpt lat="45.87175" lon="3.92627">
        <ele>589</ele>
        <time>2022-03-18T14:20:45Z</time>
      </trkpt>
      <trkpt lat="45.87138" lon="3.92649">
        <ele>590</ele>
        <time>2022-03-18T14:20:53Z</time>
      </trkpt>
      <trkpt lat="45.87065" lon="3.92681">
        <ele>590</ele>
        <time>2022-03-18T14:21:06Z</time>
      </trkpt>
      <trkpt lat="45.87043" lon="3.9269">
        <ele>591</ele>
        <time>2022-03-18T14:21:10Z</time>
      </trkpt>
      <trkpt lat="45.87023" lon="3.92706">
        <ele>592</ele>
        <time>2022-03-18T14:21:14Z</time>
      </trkpt>
      <trkpt lat="45.86998" lon="3.92729">
        <ele>594</ele>
        <time>2022-03-18T14:21:20Z</time>
      </trkpt>
      <trkpt lat="45.86973" lon="3.92763">
        <ele>595</ele>
        <time>2022-03-18T14:21:26Z</time>
      </trkpt>
      <trkpt lat="45.86957" lon="3.92794">
        <ele>595</ele>
        <time>2022-03-18T14:21:30Z</time>
      </trkpt>
      <trkpt lat="45.86946" lon="3.92826">
        <ele>595</ele>
        <time>2022-03-18T14:21:35Z</time>
      </trkpt>
      <trkpt lat="45.86937" lon="3.9286">
        <ele>596</ele>
        <time>2022-03-18T14:21:39Z</time>
      </trkpt>
      <trkpt lat="45.86928" lon="3.92918">
        <ele>596</ele>
        <time>2022-03-18T14:21:47Z</time>
      </trkpt>
      <trkpt lat="45.86868" lon="3.93402">
        <ele>579</ele>
        <time>2022-03-18T14:22:48Z</time>
      </trkpt>
      <trkpt lat="45.86861" lon="3.93473">
        <ele>573</ele>
        <time>2022-03-18T14:22:57Z</time>
      </trkpt>
      <trkpt lat="45.86839" lon="3.93798">
        <ele>565</ele>
        <time>2022-03-18T14:23:37Z</time>
      </trkpt>
      <trkpt lat="45.86819" lon="3.93972">
        <ele>563</ele>
        <time>2022-03-18T14:23:59Z</time>
      </trkpt>
      <trkpt lat="45.86779" lon="3.94109">
        <ele>559</ele>
        <time>2022-03-18T14:24:17Z</time>
      </trkpt>
      <trkpt lat="45.86622" lon="3.94335">
        <ele>551</ele>
        <time>2022-03-18T14:24:57Z</time>
      </trkpt>
      <trkpt lat="45.86584" lon="3.94402">
        <ele>551</ele>
        <time>2022-03-18T14:25:07Z</time>
      </trkpt>
      <trkpt lat="45.8657" lon="3.94439">
        <ele>551</ele>
        <time>2022-03-18T14:25:13Z</time>
      </trkpt>
      <trkpt lat="45.86536" lon="3.94573">
        <ele>550</ele>
        <time>2022-03-18T14:25:30Z</time>
      </trkpt>
      <trkpt lat="45.8651" lon="3.9465">
        <ele>549</ele>
        <time>2022-03-18T14:25:41Z</time>
      </trkpt>
      <trkpt lat="45.86379" lon="3.95">
        <ele>550</ele>
        <time>2022-03-18T14:26:30Z</time>
      </trkpt>
      <trkpt lat="45.86312" lon="3.95117">
        <ele>555</ele>
        <time>2022-03-18T14:26:49Z</time>
      </trkpt>
      <trkpt lat="45.86283" lon="3.9517">
        <ele>555</ele>
        <time>2022-03-18T14:26:57Z</time>
      </trkpt>
      <trkpt lat="45.86272" lon="3.95184">
        <ele>555</ele>
        <time>2022-03-18T14:27:00Z</time>
      </trkpt>
      <trkpt lat="45.86244" lon="3.95202">
        <ele>555</ele>
        <time>2022-03-18T14:27:05Z</time>
      </trkpt>
      <trkpt lat="45.86207" lon="3.95205">
        <ele>555</ele>
        <time>2022-03-18T14:27:12Z</time>
      </trkpt>
      <trkpt lat="45.8619" lon="3.95193">
        <ele>554</ele>
        <time>2022-03-18T14:27:15Z</time>
      </trkpt>
      <trkpt lat="45.86145" lon="3.95177">
        <ele>552</ele>
        <time>2022-03-18T14:27:24Z</time>
      </trkpt>
      <trkpt lat="45.86108" lon="3.95179">
        <ele>553</ele>
        <time>2022-03-18T14:27:30Z</time>
      </trkpt>
      <trkpt lat="45.86082" lon="3.95202">
        <ele>554</ele>
        <time>2022-03-18T14:27:36Z</time>
      </trkpt>
      <trkpt lat="45.86026" lon="3.95272">
        <ele>555</ele>
        <time>2022-03-18T14:27:49Z</time>
      </trkpt>
      <trkpt lat="45.86015" lon="3.95255">
        <ele>555</ele>
        <time>2022-03-18T14:27:52Z</time>
      </trkpt>
      <trkpt lat="45.86" lon="3.95259">
        <ele>555</ele>
        <time>2022-03-18T14:27:54Z</time>
      </trkpt>
      <trkpt lat="45.85993" lon="3.95263">
        <ele>555</ele>
        <time>2022-03-18T14:27:56Z</time>
      </trkpt>
      <trkpt lat="45.86" lon="3.95259">
        <ele>555</ele>
        <time>2022-03-18T14:27:57Z</time>
      </trkpt>
      <trkpt lat="45.86015" lon="3.95255">
        <ele>555</ele>
        <time>2022-03-18T14:28:00Z</time>
      </trkpt>
      <trkpt lat="45.86026" lon="3.95272">
        <ele>555</ele>
        <time>2022-03-18T14:28:03Z</time>
      </trkpt>
      <trkpt lat="45.85999" lon="3.9532">
        <ele>555</ele>
        <time>2022-03-18T14:28:10Z</time>
      </trkpt>
      <trkpt lat="45.85972" lon="3.95427">
        <ele>553</ele>
        <time>2022-03-18T14:28:24Z</time>
      </trkpt>
      <trkpt lat="45.85956" lon="3.95513">
        <ele>554</ele>
        <time>2022-03-18T14:28:35Z</time>
      </trkpt>
      <trkpt lat="45.85943" lon="3.95753">
        <ele>549</ele>
        <time>2022-03-18T14:29:05Z</time>
      </trkpt>
      <trkpt lat="45.85939" lon="3.95791">
        <ele>547</ele>
        <time>2022-03-18T14:29:10Z</time>
      </trkpt>
      <trkpt lat="45.85931" lon="3.95817">
        <ele>546</ele>
        <time>2022-03-18T14:29:14Z</time>
      </trkpt>
      <trkpt lat="45.85906" lon="3.95884">
        <ele>546</ele>
        <time>2022-03-18T14:29:23Z</time>
      </trkpt>
      <trkpt lat="45.85883" lon="3.95924">
        <ele>546</ele>
        <time>2022-03-18T14:29:29Z</time>
      </trkpt>
      <trkpt lat="45.85836" lon="3.95995">
        <ele>546</ele>
        <time>2022-03-18T14:29:42Z</time>
      </trkpt>
      <trkpt lat="45.85788" lon="3.96146">
        <ele>540</ele>
        <time>2022-03-18T14:30:02Z</time>
      </trkpt>
      <trkpt lat="45.85721" lon="3.96285">
        <ele>536</ele>
        <time>2022-03-18T14:30:23Z</time>
      </trkpt>
      <trkpt lat="45.857" lon="3.96344">
        <ele>535</ele>
        <time>2022-03-18T14:30:31Z</time>
      </trkpt>
      <trkpt lat="45.85682" lon="3.96405">
        <ele>533</ele>
        <time>2022-03-18T14:30:40Z</time>
      </trkpt>
      <trkpt lat="45.85654" lon="3.96483">
        <ele>532</ele>
        <time>2022-03-18T14:30:50Z</time>
      </trkpt>
      <trkpt lat="45.85594" lon="3.96628">
        <ele>531</ele>
        <time>2022-03-18T14:31:11Z</time>
      </trkpt>
      <trkpt lat="45.85531" lon="3.96771">
        <ele>526</ele>
        <time>2022-03-18T14:31:32Z</time>
      </trkpt>
      <trkpt lat="45.85495" lon="3.96847">
        <ele>523</ele>
        <time>2022-03-18T14:31:44Z</time>
      </trkpt>
      <trkpt lat="45.85434" lon="3.96932">
        <ele>519</ele>
        <time>2022-03-18T14:31:59Z</time>
      </trkpt>
      <trkpt lat="45.8539" lon="3.97005">
        <ele>518</ele>
        <time>2022-03-18T14:32:11Z</time>
      </trkpt>
      <trkpt lat="45.85321" lon="3.97179">
        <ele>522</ele>
        <time>2022-03-18T14:32:36Z</time>
      </trkpt>
      <trkpt lat="45.85298" lon="3.97252">
        <ele>520</ele>
        <time>2022-03-18T14:32:45Z</time>
      </trkpt>
      <trkpt lat="45.85275" lon="3.9733">
        <ele>521</ele>
        <time>2022-03-18T14:32:56Z</time>
      </trkpt>
      <trkpt lat="45.85249" lon="3.97463">
        <ele>520</ele>
        <time>2022-03-18T14:33:13Z</time>
      </trkpt>
      <trkpt lat="45.85232" lon="3.97736">
        <ele>523</ele>
        <time>2022-03-18T14:33:47Z</time>
      </trkpt>
      <trkpt lat="45.85195" lon="3.97923">
        <ele>525</ele>
        <time>2022-03-18T14:34:11Z</time>
      </trkpt>
      <trkpt lat="45.85144" lon="3.98134">
        <ele>520</ele>
        <time>2022-03-18T14:34:39Z</time>
      </trkpt>
      <trkpt lat="45.85096" lon="3.98306">
        <ele>514</ele>
        <time>2022-03-18T14:35:02Z</time>
      </trkpt>
      <trkpt lat="45.85017" lon="3.98487">
        <ele>508</ele>
        <time>2022-03-18T14:35:28Z</time>
      </trkpt>
      <trkpt lat="45.8499" lon="3.98558">
        <ele>506</ele>
        <time>2022-03-18T14:35:38Z</time>
      </trkpt>
      <trkpt lat="45.84967" lon="3.98635">
        <ele>504</ele>
        <time>2022-03-18T14:35:49Z</time>
      </trkpt>
      <trkpt lat="45.84931" lon="3.98742">
        <ele>502</ele>
        <time>2022-03-18T14:36:03Z</time>
      </trkpt>
      <trkpt lat="45.84905" lon="3.98839">
        <ele>501</ele>
        <time>2022-03-18T14:36:16Z</time>
      </trkpt>
      <trkpt lat="45.84818" lon="3.99185">
        <ele>492</ele>
        <time>2022-03-18T14:37:02Z</time>
      </trkpt>
      <trkpt lat="45.84798" lon="3.99422">
        <ele>486</ele>
        <time>2022-03-18T14:37:31Z</time>
      </trkpt>
      <trkpt lat="45.84793" lon="3.99474">
        <ele>485</ele>
        <time>2022-03-18T14:37:38Z</time>
      </trkpt>
      <trkpt lat="45.84756" lon="3.99599">
        <ele>488</ele>
        <time>2022-03-18T14:37:55Z</time>
      </trkpt>
      <trkpt lat="45.84737" lon="3.9962">
        <ele>487</ele>
        <time>2022-03-18T14:37:59Z</time>
      </trkpt>
      <trkpt lat="45.84656" lon="3.99727">
        <ele>488</ele>
        <time>2022-03-18T14:38:19Z</time>
      </trkpt>
      <trkpt lat="45.84642" lon="3.99759">
        <ele>488</ele>
        <time>2022-03-18T14:38:23Z</time>
      </trkpt>
      <trkpt lat="45.84634" lon="3.99803">
        <ele>488</ele>
        <time>2022-03-18T14:38:29Z</time>
      </trkpt>
      <trkpt lat="45.84627" lon="3.99901">
        <ele>488</ele>
        <time>2022-03-18T14:38:41Z</time>
      </trkpt>
      <trkpt lat="45.84617" lon="3.99945">
        <ele>488</ele>
        <time>2022-03-18T14:38:47Z</time>
      </trkpt>
      <trkpt lat="45.84603" lon="3.99986">
        <ele>488</ele>
        <time>2022-03-18T14:38:53Z</time>
      </trkpt>
      <trkpt lat="45.84532" lon="4.00135">
        <ele>485</ele>
        <time>2022-03-18T14:39:15Z</time>
      </trkpt>
      <trkpt lat="45.84504" lon="4.00201">
        <ele>484</ele>
        <time>2022-03-18T14:39:25Z</time>
      </trkpt>
      <trkpt lat="45.84463" lon="4.00256">
        <ele>481</ele>
        <time>2022-03-18T14:39:35Z</time>
      </trkpt>
      <trkpt lat="45.84409" lon="4.00324">
        <ele>475</ele>
        <time>2022-03-18T14:39:47Z</time>
      </trkpt>
      <trkpt lat="45.84363" lon="4.00393">
        <ele>472</ele>
        <time>2022-03-18T14:39:59Z</time>
      </trkpt>
      <trkpt lat="45.84306" lon="4.00461">
        <ele>470</ele>
        <time>2022-03-18T14:40:12Z</time>
      </trkpt>
      <trkpt lat="45.84243" lon="4.00529">
        <ele>466</ele>
        <time>2022-03-18T14:40:26Z</time>
      </trkpt>
      <trkpt lat="45.84056" lon="4.00676">
        <ele>461</ele>
        <time>2022-03-18T14:41:04Z</time>
      </trkpt>
      <trkpt lat="45.83975" lon="4.00729">
        <ele>460</ele>
        <time>2022-03-18T14:41:20Z</time>
      </trkpt>
      <trkpt lat="45.83909" lon="4.00763">
        <ele>458</ele>
        <time>2022-03-18T14:41:33Z</time>
      </trkpt>
      <trkpt lat="45.83724" lon="4.00822">
        <ele>455</ele>
        <time>2022-03-18T14:42:06Z</time>
      </trkpt>
      <trkpt lat="45.83661" lon="4.00831">
        <ele>455</ele>
        <time>2022-03-18T14:42:18Z</time>
      </trkpt>
      <trkpt lat="45.83594" lon="4.00833">
        <ele>452</ele>
        <time>2022-03-18T14:42:29Z</time>
      </trkpt>
      <trkpt lat="45.83567" lon="4.00818">
        <ele>451</ele>
        <time>2022-03-18T14:42:35Z</time>
      </trkpt>
      <trkpt lat="45.83506" lon="4.0076">
        <ele>445</ele>
        <time>2022-03-18T14:42:48Z</time>
      </trkpt>
      <trkpt lat="45.83479" lon="4.00751">
        <ele>442</ele>
        <time>2022-03-18T14:42:53Z</time>
      </trkpt>
      <trkpt lat="45.83442" lon="4.00756">
        <ele>439</ele>
        <time>2022-03-18T14:42:59Z</time>
      </trkpt>
      <trkpt lat="45.83414" lon="4.00774">
        <ele>439</ele>
        <time>2022-03-18T14:43:05Z</time>
      </trkpt>
      <trkpt lat="45.83387" lon="4.00806">
        <ele>439</ele>
        <time>2022-03-18T14:43:11Z</time>
      </trkpt>
      <trkpt lat="45.83358" lon="4.0083">
        <ele>438</ele>
        <time>2022-03-18T14:43:17Z</time>
      </trkpt>
      <trkpt lat="45.83311" lon="4.00849">
        <ele>434</ele>
        <time>2022-03-18T14:43:26Z</time>
      </trkpt>
      <trkpt lat="45.83259" lon="4.00864">
        <ele>428</ele>
        <time>2022-03-18T14:43:35Z</time>
      </trkpt>
      <trkpt lat="45.83233" lon="4.0089">
        <ele>427</ele>
        <time>2022-03-18T14:43:41Z</time>
      </trkpt>
      <trkpt lat="45.83216" lon="4.00918">
        <ele>427</ele>
        <time>2022-03-18T14:43:45Z</time>
      </trkpt>
      <trkpt lat="45.83198" lon="4.00968">
        <ele>426</ele>
        <time>2022-03-18T14:43:52Z</time>
      </trkpt>
      <trkpt lat="45.83188" lon="4.01029">
        <ele>427</ele>
        <time>2022-03-18T14:44:00Z</time>
      </trkpt>
      <trkpt lat="45.83177" lon="4.01083">
        <ele>426</ele>
        <time>2022-03-18T14:44:07Z</time>
      </trkpt>
      <trkpt lat="45.83128" lon="4.01276">
        <ele>427</ele>
        <time>2022-03-18T14:44:32Z</time>
      </trkpt>
      <trkpt lat="45.83108" lon="4.01394">
        <ele>424</ele>
        <time>2022-03-18T14:44:47Z</time>
      </trkpt>
      <trkpt lat="45.83098" lon="4.01477">
        <ele>421</ele>
        <time>2022-03-18T14:44:58Z</time>
      </trkpt>
      <trkpt lat="45.83098" lon="4.01491">
        <ele>420</ele>
        <time>2022-03-18T14:45:00Z</time>
      </trkpt>
      <trkpt lat="45.83078" lon="4.01494">
        <ele>420</ele>
        <time>2022-03-18T14:45:03Z</time>
      </trkpt>
      <trkpt lat="45.83077" lon="4.0152">
        <ele>418</ele>
        <time>2022-03-18T14:45:06Z</time>
      </trkpt>
      <trkpt lat="45.83088" lon="4.01619">
        <ele>411</ele>
        <time>2022-03-18T14:45:19Z</time>
      </trkpt>
      <trkpt lat="45.83103" lon="4.0163">
        <ele>410</ele>
        <time>2022-03-18T14:45:22Z</time>
      </trkpt>
      <trkpt lat="45.83159" lon="4.01695">
        <ele>409</ele>
        <time>2022-03-18T14:45:35Z</time>
      </trkpt>
      <trkpt lat="45.83161" lon="4.01714">
        <ele>408</ele>
        <time>2022-03-18T14:45:37Z</time>
      </trkpt>
      <trkpt lat="45.83164" lon="4.01735">
        <ele>407</ele>
        <time>2022-03-18T14:45:40Z</time>
      </trkpt>
      <trkpt lat="45.83241" lon="4.02084">
        <ele>388</ele>
        <time>2022-03-18T14:46:25Z</time>
      </trkpt>
      <trkpt lat="45.83257" lon="4.02148">
        <ele>385</ele>
        <time>2022-03-18T14:46:34Z</time>
      </trkpt>
      <trkpt lat="45.83266" lon="4.02197">
        <ele>382</ele>
        <time>2022-03-18T14:46:40Z</time>
      </trkpt>
      <trkpt lat="45.83268" lon="4.0225">
        <ele>379</ele>
        <time>2022-03-18T14:46:46Z</time>
      </trkpt>
      <trkpt lat="45.83275" lon="4.02264">
        <ele>379</ele>
        <time>2022-03-18T14:46:49Z</time>
      </trkpt>
      <trkpt lat="45.83268" lon="4.0225">
        <ele>379</ele>
        <time>2022-03-18T14:46:51Z</time>
      </trkpt>
      <trkpt lat="45.83253" lon="4.02279">
        <ele>377</ele>
        <time>2022-03-18T14:46:55Z</time>
      </trkpt>
      <trkpt lat="45.83226" lon="4.0229">
        <ele>376</ele>
        <time>2022-03-18T14:47:00Z</time>
      </trkpt>
      <trkpt lat="45.83197" lon="4.0228">
        <ele>376</ele>
        <time>2022-03-18T14:47:05Z</time>
      </trkpt>
      <trkpt lat="45.83019" lon="4.02142">
        <ele>366</ele>
        <time>2022-03-18T14:47:41Z</time>
      </trkpt>
      <trkpt lat="45.83002" lon="4.02138">
        <ele>364</ele>
        <time>2022-03-18T14:47:45Z</time>
      </trkpt>
      <trkpt lat="45.82989" lon="4.02137">
        <ele>363</ele>
        <time>2022-03-18T14:47:47Z</time>
      </trkpt>
      <trkpt lat="45.82961" lon="4.02141">
        <ele>362</ele>
        <time>2022-03-18T14:47:52Z</time>
      </trkpt>
      <trkpt lat="45.8294" lon="4.02152">
        <ele>361</ele>
        <time>2022-03-18T14:47:56Z</time>
      </trkpt>
      <trkpt lat="45.82912" lon="4.02163">
        <ele>361</ele>
        <time>2022-03-18T14:48:01Z</time>
      </trkpt>
      <trkpt lat="45.82888" lon="4.02167">
        <ele>363</ele>
        <time>2022-03-18T14:48:05Z</time>
      </trkpt>
      <trkpt lat="45.82882" lon="4.02195">
        <ele>364</ele>
        <time>2022-03-18T14:48:09Z</time>
      </trkpt>
      <trkpt lat="45.82885" lon="4.02258">
        <ele>363</ele>
        <time>2022-03-18T14:48:17Z</time>
      </trkpt>
      <trkpt lat="45.82881" lon="4.02288">
        <ele>363</ele>
        <time>2022-03-18T14:48:21Z</time>
      </trkpt>
      <trkpt lat="45.82864" lon="4.02343">
        <ele>363</ele>
        <time>2022-03-18T14:48:28Z</time>
      </trkpt>
      <trkpt lat="45.82791" lon="4.02546">
        <ele>359</ele>
        <time>2022-03-18T14:48:56Z</time>
      </trkpt>
      <trkpt lat="45.82764" lon="4.02602">
        <ele>359</ele>
        <time>2022-03-18T14:49:05Z</time>
      </trkpt>
      <trkpt lat="45.82681" lon="4.02744">
        <ele>360</ele>
        <time>2022-03-18T14:49:28Z</time>
      </trkpt>
      <trkpt lat="45.82637" lon="4.02811">
        <ele>358</ele>
        <time>2022-03-18T14:49:39Z</time>
      </trkpt>
      <trkpt lat="45.82566" lon="4.02928">
        <ele>357</ele>
        <time>2022-03-18T14:49:58Z</time>
      </trkpt>
      <trkpt lat="45.82266" lon="4.03292">
        <ele>356</ele>
        <time>2022-03-18T14:51:08Z</time>
      </trkpt>
      <trkpt lat="45.82243" lon="4.03325">
        <ele>357</ele>
        <time>2022-03-18T14:51:14Z</time>
      </trkpt>
      <trkpt lat="45.82215" lon="4.03344">
        <ele>356</ele>
        <time>2022-03-18T14:51:20Z</time>
      </trkpt>
      <trkpt lat="45.82206" lon="4.03347">
        <ele>356</ele>
        <time>2022-03-18T14:51:21Z</time>
      </trkpt>
      <trkpt lat="45.822" lon="4.03355">
        <ele>356</ele>
        <time>2022-03-18T14:51:23Z</time>
      </trkpt>
      <trkpt lat="45.82196" lon="4.03365">
        <ele>356</ele>
        <time>2022-03-18T14:51:24Z</time>
      </trkpt>
      <trkpt lat="45.82196" lon="4.03385">
        <ele>356</ele>
        <time>2022-03-18T14:51:27Z</time>
      </trkpt>
      <trkpt lat="45.82203" lon="4.03398">
        <ele>355</ele>
        <time>2022-03-18T14:51:29Z</time>
      </trkpt>
      <trkpt lat="45.82216" lon="4.03404">
        <ele>355</ele>
        <time>2022-03-18T14:51:31Z</time>
      </trkpt>
      <trkpt lat="45.82234" lon="4.03467">
        <ele>354</ele>
        <time>2022-03-18T14:51:40Z</time>
      </trkpt>
      <trkpt lat="45.82134" lon="4.05827">
        <ele>342</ele>
        <time>2022-03-18T14:56:33Z</time>
      </trkpt>
      <trkpt lat="45.82107" lon="4.06299">
        <ele>339</ele>
        <time>2022-03-18T14:57:31Z</time>
      </trkpt>
      <trkpt lat="45.82095" lon="4.06629">
        <ele>338</ele>
        <time>2022-03-18T14:58:12Z</time>
      </trkpt>
      <trkpt lat="45.82086" lon="4.06689">
        <ele>337</ele>
        <time>2022-03-18T14:58:20Z</time>
      </trkpt>
      <trkpt lat="45.82074" lon="4.06749">
        <ele>337</ele>
        <time>2022-03-18T14:58:28Z</time>
      </trkpt>
      <trkpt lat="45.82038" lon="4.0688">
        <ele>337</ele>
        <time>2022-03-18T14:58:45Z</time>
      </trkpt>
      <trkpt lat="45.81904" lon="4.07287">
        <ele>337</ele>
        <time>2022-03-18T14:59:41Z</time>
      </trkpt>
      <trkpt lat="45.81704" lon="4.07911">
        <ele>341</ele>
        <time>2022-03-18T15:01:06Z</time>
      </trkpt>
      <trkpt lat="45.81642" lon="4.08133">
        <ele>341</ele>
        <time>2022-03-18T15:01:36Z</time>
      </trkpt>
      <trkpt lat="45.8163" lon="4.08447">
        <ele>343</ele>
        <time>2022-03-18T15:02:15Z</time>
      </trkpt>
      <trkpt lat="45.81629" lon="4.08534">
        <ele>343</ele>
        <time>2022-03-18T15:02:26Z</time>
      </trkpt>
      <trkpt lat="45.81637" lon="4.08773">
        <ele>341</ele>
        <time>2022-03-18T15:02:55Z</time>
      </trkpt>
      <trkpt lat="45.81648" lon="4.09013">
        <ele>342</ele>
        <time>2022-03-18T15:03:25Z</time>
      </trkpt>
      <trkpt lat="45.81737" lon="4.10732">
        <ele>338</ele>
        <time>2022-03-18T15:06:59Z</time>
      </trkpt>
      <trkpt lat="45.81733" lon="4.10801">
        <ele>337</ele>
        <time>2022-03-18T15:07:07Z</time>
      </trkpt>
      <trkpt lat="45.8172" lon="4.10868">
        <ele>336</ele>
        <time>2022-03-18T15:07:16Z</time>
      </trkpt>
      <trkpt lat="45.81708" lon="4.10909">
        <ele>335</ele>
        <time>2022-03-18T15:07:22Z</time>
      </trkpt>
      <trkpt lat="45.8162" lon="4.11115">
        <ele>334</ele>
        <time>2022-03-18T15:07:52Z</time>
      </trkpt>
      <trkpt lat="45.81591" lon="4.11218">
        <ele>338</ele>
        <time>2022-03-18T15:08:05Z</time>
      </trkpt>
      <trkpt lat="45.81487" lon="4.116">
        <ele>337</ele>
        <time>2022-03-18T15:08:56Z</time>
      </trkpt>
      <trkpt lat="45.81465" lon="4.11689">
        <ele>339</ele>
        <time>2022-03-18T15:09:08Z</time>
      </trkpt>
      <trkpt lat="45.80953" lon="4.13562">
        <ele>364</ele>
        <time>2022-03-18T15:13:17Z</time>
      </trkpt>
      <trkpt lat="45.80733" lon="4.13823">
        <ele>368</ele>
        <time>2022-03-18T15:14:08Z</time>
      </trkpt>
      <trkpt lat="45.8069" lon="4.13878">
        <ele>368</ele>
        <time>2022-03-18T15:14:18Z</time>
      </trkpt>
      <trkpt lat="45.8068" lon="4.13912">
        <ele>368</ele>
        <time>2022-03-18T15:14:23Z</time>
      </trkpt>
      <trkpt lat="45.80585" lon="4.14337">
        <ele>360</ele>
        <time>2022-03-18T15:15:18Z</time>
      </trkpt>
      <trkpt lat="45.80505" lon="4.14714">
        <ele>360</ele>
        <time>2022-03-18T15:16:07Z</time>
      </trkpt>
      <trkpt lat="45.80491" lon="4.14865">
        <ele>358</ele>
        <time>2022-03-18T15:16:26Z</time>
      </trkpt>
      <trkpt lat="45.80484" lon="4.14906">
        <ele>357</ele>
        <time>2022-03-18T15:16:31Z</time>
      </trkpt>
      <trkpt lat="45.80477" lon="4.14984">
        <ele>357</ele>
        <time>2022-03-18T15:16:41Z</time>
      </trkpt>
      <trkpt lat="45.80477" lon="4.15025">
        <ele>356</ele>
        <time>2022-03-18T15:16:46Z</time>
      </trkpt>
      <trkpt lat="45.8048" lon="4.15073">
        <ele>356</ele>
        <time>2022-03-18T15:16:52Z</time>
      </trkpt>
      <trkpt lat="45.8048" lon="4.15106">
        <ele>355</ele>
        <time>2022-03-18T15:16:56Z</time>
      </trkpt>
      <trkpt lat="45.80465" lon="4.15241">
        <ele>352</ele>
        <time>2022-03-18T15:17:13Z</time>
      </trkpt>
      <trkpt lat="45.80484" lon="4.15312">
        <ele>350</ele>
        <time>2022-03-18T15:17:23Z</time>
      </trkpt>
      <trkpt lat="45.80515" lon="4.15383">
        <ele>346</ele>
        <time>2022-03-18T15:17:33Z</time>
      </trkpt>
      <trkpt lat="45.80553" lon="4.15458">
        <ele>343</ele>
        <time>2022-03-18T15:17:45Z</time>
      </trkpt>
      <trkpt lat="45.80585" lon="4.15517">
        <ele>341</ele>
        <time>2022-03-18T15:17:54Z</time>
      </trkpt>
      <trkpt lat="45.80593" lon="4.15548">
        <ele>339</ele>
        <time>2022-03-18T15:17:58Z</time>
      </trkpt>
      <trkpt lat="45.80601" lon="4.15604">
        <ele>337</ele>
        <time>2022-03-18T15:18:05Z</time>
      </trkpt>
      <trkpt lat="45.80603" lon="4.15612">
        <ele>336</ele>
        <time>2022-03-18T15:18:06Z</time>
      </trkpt>
      <trkpt lat="45.80534" lon="4.15665">
        <ele>336</ele>
        <time>2022-03-18T15:18:20Z</time>
      </trkpt>
      <trkpt lat="45.80505" lon="4.15671">
        <ele>337</ele>
        <time>2022-03-18T15:18:25Z</time>
      </trkpt>
      <trkpt lat="45.80489" lon="4.15683">
        <ele>338</ele>
        <time>2022-03-18T15:18:28Z</time>
      </trkpt>
      <trkpt lat="45.8048" lon="4.15695">
        <ele>338</ele>
        <time>2022-03-18T15:18:31Z</time>
      </trkpt>
      <trkpt lat="45.80444" lon="4.15753">
        <ele>338</ele>
        <time>2022-03-18T15:18:40Z</time>
      </trkpt>
      <trkpt lat="45.80433" lon="4.15763">
        <ele>337</ele>
        <time>2022-03-18T15:18:43Z</time>
      </trkpt>
      <trkpt lat="45.80365" lon="4.15782">
        <ele>338</ele>
        <time>2022-03-18T15:18:55Z</time>
      </trkpt>
      <trkpt lat="45.80324" lon="4.15796">
        <ele>339</ele>
        <time>2022-03-18T15:19:02Z</time>
      </trkpt>
      <trkpt lat="45.79944" lon="4.15931">
        <ele>341</ele>
        <time>2022-03-18T15:20:12Z</time>
      </trkpt>
      <trkpt lat="45.79815" lon="4.15984">
        <ele>340</ele>
        <time>2022-03-18T15:20:36Z</time>
      </trkpt>
      <trkpt lat="45.79687" lon="4.16045">
        <ele>337</ele>
        <time>2022-03-18T15:21:00Z</time>
      </trkpt>
      <trkpt lat="45.79416" lon="4.16196">
        <ele>339</ele>
        <time>2022-03-18T15:21:52Z</time>
      </trkpt>
      <trkpt lat="45.79368" lon="4.16237">
        <ele>338</ele>
        <time>2022-03-18T15:22:02Z</time>
      </trkpt>
      <trkpt lat="45.79274" lon="4.16338">
        <ele>341</ele>
        <time>2022-03-18T15:22:23Z</time>
      </trkpt>
      <trkpt lat="45.78857" lon="4.16712">
        <ele>344</ele>
        <time>2022-03-18T15:23:50Z</time>
      </trkpt>
      <trkpt lat="45.78521" lon="4.17033">
        <ele>340</ele>
        <time>2022-03-18T15:25:02Z</time>
      </trkpt>
      <trkpt lat="45.78422" lon="4.17124">
        <ele>340</ele>
        <time>2022-03-18T15:25:23Z</time>
      </trkpt>
      <trkpt lat="45.78386" lon="4.17145">
        <ele>341</ele>
        <time>2022-03-18T15:25:30Z</time>
      </trkpt>
      <trkpt lat="45.78237" lon="4.17205">
        <ele>351</ele>
        <time>2022-03-18T15:25:57Z</time>
      </trkpt>
      <trkpt lat="45.78046" lon="4.17298">
        <ele>357</ele>
        <time>2022-03-18T15:26:33Z</time>
      </trkpt>
      <trkpt lat="45.77893" lon="4.17363">
        <ele>359</ele>
        <time>2022-03-18T15:27:02Z</time>
      </trkpt>
      <trkpt lat="45.77523" lon="4.17512">
        <ele>362</ele>
        <time>2022-03-18T15:28:10Z</time>
      </trkpt>
      <trkpt lat="45.77261" lon="4.17586">
        <ele>361</ele>
        <time>2022-03-18T15:28:57Z</time>
      </trkpt>
      <trkpt lat="45.76653" lon="4.17744">
        <ele>349</ele>
        <time>2022-03-18T15:30:47Z</time>
      </trkpt>
      <trkpt lat="45.76346" lon="4.17827">
        <ele>344</ele>
        <time>2022-03-18T15:31:43Z</time>
      </trkpt>
      <trkpt lat="45.76198" lon="4.17895">
        <ele>342</ele>
        <time>2022-03-18T15:32:11Z</time>
      </trkpt>
      <trkpt lat="45.76049" lon="4.17959">
        <ele>339</ele>
        <time>2022-03-18T15:32:38Z</time>
      </trkpt>
      <trkpt lat="45.75892" lon="4.18032">
        <ele>338</ele>
        <time>2022-03-18T15:33:08Z</time>
      </trkpt>
      <trkpt lat="45.75834" lon="4.18069">
        <ele>338</ele>
        <time>2022-03-18T15:33:19Z</time>
      </trkpt>
      <trkpt lat="45.75729" lon="4.18153">
        <ele>334</ele>
        <time>2022-03-18T15:33:40Z</time>
      </trkpt>
      <trkpt lat="45.75721" lon="4.18158">
        <ele>334</ele>
        <time>2022-03-18T15:33:42Z</time>
      </trkpt>
      <trkpt lat="45.75701" lon="4.18176">
        <ele>334</ele>
        <time>2022-03-18T15:33:46Z</time>
      </trkpt>
      <trkpt lat="45.75645" lon="4.18236">
        <ele>333</ele>
        <time>2022-03-18T15:33:59Z</time>
      </trkpt>
      <trkpt lat="45.75606" lon="4.18267">
        <ele>333</ele>
        <time>2022-03-18T15:34:06Z</time>
      </trkpt>
      <trkpt lat="45.75539" lon="4.1831">
        <ele>333</ele>
        <time>2022-03-18T15:34:20Z</time>
      </trkpt>
      <trkpt lat="45.75463" lon="4.18328">
        <ele>332</ele>
        <time>2022-03-18T15:34:33Z</time>
      </trkpt>
      <trkpt lat="45.75425" lon="4.18343">
        <ele>331</ele>
        <time>2022-03-18T15:34:40Z</time>
      </trkpt>
      <trkpt lat="45.75403" lon="4.1836">
        <ele>331</ele>
        <time>2022-03-18T15:34:45Z</time>
      </trkpt>
      <trkpt lat="45.75323" lon="4.1844">
        <ele>331</ele>
        <time>2022-03-18T15:35:02Z</time>
      </trkpt>
      <trkpt lat="45.7529" lon="4.18504">
        <ele>330</ele>
        <time>2022-03-18T15:35:12Z</time>
      </trkpt>
      <trkpt lat="45.7528" lon="4.18531">
        <ele>330</ele>
        <time>2022-03-18T15:35:16Z</time>
      </trkpt>
      <trkpt lat="45.75274" lon="4.18557">
        <ele>329</ele>
        <time>2022-03-18T15:35:19Z</time>
      </trkpt>
      <trkpt lat="45.75262" lon="4.18643">
        <ele>327</ele>
        <time>2022-03-18T15:35:30Z</time>
      </trkpt>
      <trkpt lat="45.75242" lon="4.18687">
        <ele>326</ele>
        <time>2022-03-18T15:35:37Z</time>
      </trkpt>
      <trkpt lat="45.75087" lon="4.18948">
        <ele>330</ele>
        <time>2022-03-18T15:36:19Z</time>
      </trkpt>
      <trkpt lat="45.75036" lon="4.19036">
        <ele>327</ele>
        <time>2022-03-18T15:36:33Z</time>
      </trkpt>
      <trkpt lat="45.75004" lon="4.19086">
        <ele>325</ele>
        <time>2022-03-18T15:36:42Z</time>
      </trkpt>
      <trkpt lat="45.74923" lon="4.19291">
        <ele>324</ele>
        <time>2022-03-18T15:37:11Z</time>
      </trkpt>
      <trkpt lat="45.74916" lon="4.19307">
        <ele>324</ele>
        <time>2022-03-18T15:37:13Z</time>
      </trkpt>
      <trkpt lat="45.74624" lon="4.20039">
        <ele>326</ele>
        <time>2022-03-18T15:38:58Z</time>
      </trkpt>
      <trkpt lat="45.74603" lon="4.20079">
        <ele>325</ele>
        <time>2022-03-18T15:39:04Z</time>
      </trkpt>
      <trkpt lat="45.74577" lon="4.2011">
        <ele>325</ele>
        <time>2022-03-18T15:39:10Z</time>
      </trkpt>
      <trkpt lat="45.74547" lon="4.20128">
        <ele>326</ele>
        <time>2022-03-18T15:39:16Z</time>
      </trkpt>
      <trkpt lat="45.74479" lon="4.20154">
        <ele>327</ele>
        <time>2022-03-18T15:39:29Z</time>
      </trkpt>
      <trkpt lat="45.74304" lon="4.20226">
        <ele>329</ele>
        <time>2022-03-18T15:40:01Z</time>
      </trkpt>
      <trkpt lat="45.74285" lon="4.2023">
        <ele>329</ele>
        <time>2022-03-18T15:40:04Z</time>
      </trkpt>
      <trkpt lat="45.74242" lon="4.20227">
        <ele>329</ele>
        <time>2022-03-18T15:40:12Z</time>
      </trkpt>
      <trkpt lat="45.74212" lon="4.20239">
        <ele>329</ele>
        <time>2022-03-18T15:40:18Z</time>
      </trkpt>
      <trkpt lat="45.74269" lon="4.20512">
        <ele>327</ele>
        <time>2022-03-18T15:40:53Z</time>
      </trkpt>
      <trkpt lat="45.74282" lon="4.20584">
        <ele>327</ele>
        <time>2022-03-18T15:41:02Z</time>
      </trkpt>
      <trkpt lat="45.74288" lon="4.20626">
        <ele>328</ele>
        <time>2022-03-18T15:41:08Z</time>
      </trkpt>
      <trkpt lat="45.74284" lon="4.20711">
        <ele>329</ele>
        <time>2022-03-18T15:41:18Z</time>
      </trkpt>
      <trkpt lat="45.7428" lon="4.20749">
        <ele>330</ele>
        <time>2022-03-18T15:41:23Z</time>
      </trkpt>
      <trkpt lat="45.74256" lon="4.20871">
        <ele>328</ele>
        <time>2022-03-18T15:41:39Z</time>
      </trkpt>
      <trkpt lat="45.74232" lon="4.20967">
        <ele>327</ele>
        <time>2022-03-18T15:41:51Z</time>
      </trkpt>
      <trkpt lat="45.7423" lon="4.20993">
        <ele>327</ele>
        <time>2022-03-18T15:41:55Z</time>
      </trkpt>
      <trkpt lat="45.74232" lon="4.21041">
        <ele>327</ele>
        <time>2022-03-18T15:42:00Z</time>
      </trkpt>
      <trkpt lat="45.74259" lon="4.21327">
        <ele>330</ele>
        <time>2022-03-18T15:42:36Z</time>
      </trkpt>
      <trkpt lat="45.7428" lon="4.21527">
        <ele>329</ele>
        <time>2022-03-18T15:43:01Z</time>
      </trkpt>
      <trkpt lat="45.74312" lon="4.21863">
        <ele>336</ele>
        <time>2022-03-18T15:43:44Z</time>
      </trkpt>
      <trkpt lat="45.74301" lon="4.21899">
        <ele>336</ele>
        <time>2022-03-18T15:43:48Z</time>
      </trkpt>
      <trkpt lat="45.74298" lon="4.21904">
        <ele>336</ele>
        <time>2022-03-18T15:43:49Z</time>
      </trkpt>
      <trkpt lat="45.74286" lon="4.2191">
        <ele>336</ele>
        <time>2022-03-18T15:43:52Z</time>
      </trkpt>
      <trkpt lat="45.74233" lon="4.21884">
        <ele>336</ele>
        <time>2022-03-18T15:44:01Z</time>
      </trkpt>
      <trkpt lat="45.74155" lon="4.21839">
        <ele>337</ele>
        <time>2022-03-18T15:44:16Z</time>
      </trkpt>
      <trkpt lat="45.74132" lon="4.21835">
        <ele>337</ele>
        <time>2022-03-18T15:44:21Z</time>
      </trkpt>
      <trkpt lat="45.74129" lon="4.21836">
        <ele>337</ele>
        <time>2022-03-18T15:44:21Z</time>
      </trkpt>
      <trkpt lat="45.74123" lon="4.2182">
        <ele>337</ele>
        <time>2022-03-18T15:44:23Z</time>
      </trkpt>
      <trkpt lat="45.74129" lon="4.21836">
        <ele>337</ele>
        <time>2022-03-18T15:44:26Z</time>
      </trkpt>
      <trkpt lat="45.73771" lon="4.21998">
        <ele>337</ele>
        <time>2022-03-18T15:45:32Z</time>
      </trkpt>
      <trkpt lat="45.73737" lon="4.22014">
        <ele>337</ele>
        <time>2022-03-18T15:45:39Z</time>
      </trkpt>
      <trkpt lat="45.73714" lon="4.22028">
        <ele>338</ele>
        <time>2022-03-18T15:45:43Z</time>
      </trkpt>
      <trkpt lat="45.73705" lon="4.22036">
        <ele>338</ele>
        <time>2022-03-18T15:45:45Z</time>
      </trkpt>
      <trkpt lat="45.73689" lon="4.22062">
        <ele>338</ele>
        <time>2022-03-18T15:45:49Z</time>
      </trkpt>
      <trkpt lat="45.73682" lon="4.22078">
        <ele>338</ele>
        <time>2022-03-18T15:45:52Z</time>
      </trkpt>
      <trkpt lat="45.7367" lon="4.2215">
        <ele>338</ele>
        <time>2022-03-18T15:46:01Z</time>
      </trkpt>
      <trkpt lat="45.73682" lon="4.22078">
        <ele>338</ele>
        <time>2022-03-18T15:46:10Z</time>
      </trkpt>
      <trkpt lat="45.73689" lon="4.22062">
        <ele>338</ele>
        <time>2022-03-18T15:46:12Z</time>
      </trkpt>
      <trkpt lat="45.73705" lon="4.22036">
        <ele>338</ele>
        <time>2022-03-18T15:46:17Z</time>
      </trkpt>
      <trkpt lat="45.73714" lon="4.22028">
        <ele>338</ele>
        <time>2022-03-18T15:46:19Z</time>
      </trkpt>
      <trkpt lat="45.73737" lon="4.22014">
        <ele>337</ele>
        <time>2022-03-18T15:46:23Z</time>
      </trkpt>
      <trkpt lat="45.73891" lon="4.21943">
        <ele>336</ele>
        <time>2022-03-18T15:46:52Z</time>
      </trkpt>
      <trkpt lat="45.73737" lon="4.22014">
        <ele>337</ele>
        <time>2022-03-18T15:47:21Z</time>
      </trkpt>
      <trkpt lat="45.73714" lon="4.22028">
        <ele>338</ele>
        <time>2022-03-18T15:47:25Z</time>
      </trkpt>
      <trkpt lat="45.73705" lon="4.22036">
        <ele>338</ele>
        <time>2022-03-18T15:47:27Z</time>
      </trkpt>
      <trkpt lat="45.73689" lon="4.22062">
        <ele>338</ele>
        <time>2022-03-18T15:47:31Z</time>
      </trkpt>
      <trkpt lat="45.73682" lon="4.22078">
        <ele>338</ele>
        <time>2022-03-18T15:47:34Z</time>
      </trkpt>
      <trkpt lat="45.73609" lon="4.22505">
        <ele>341</ele>
        <time>2022-03-18T15:48:28Z</time>
      </trkpt>
      <trkpt lat="45.73338" lon="4.22522">
        <ele>341</ele>
        <time>2022-03-18T15:49:17Z</time>
      </trkpt>
      <trkpt lat="45.73348" lon="4.22555">
        <ele>341</ele>
        <time>2022-03-18T15:49:21Z</time>
      </trkpt>
      <trkpt lat="45.73277" lon="4.22805">
        <ele>342</ele>
        <time>2022-03-18T15:49:55Z</time>
      </trkpt>
      <trkpt lat="45.73369" lon="4.22828">
        <ele>340</ele>
        <time>2022-03-18T15:50:11Z</time>
      </trkpt>
      <trkpt lat="45.73368" lon="4.22928">
        <ele>343</ele>
        <time>2022-03-18T15:50:24Z</time>
      </trkpt>
    </trkseg>
  </trk>
</gpx>